<?xml version="1.0" encoding="UTF-8"?>
<gpx version="1.1" creator=" " xmlns="http://www.topografix.com/GPX/1/1" xmlns:xsi="http://www.w3.org/2001/XMLSchema-instance" xsi:schemaLocation="http://www.topografix.com/GPX/1/1 http://www.topografix.com/GPX/1/1/gpx.xsd">
<metadata>
<name>Saisonabschluss Rennrad Neu-Ulm</name>
<desc></desc>
<link href="">
<text>  </text>
</link>
<time>2019-09-29T08:37:17Z</time>
</metadata>
<trk>
<trkseg>
<trkpt lat="48.754043" lon="9.986672">
<ele>650</ele>
</trkpt>
<trkpt lat="48.754043" lon="9.986672">
<ele>650</ele>
<time>2019-09-29T08:37:17Z</time>
</trkpt>
<trkpt lat="48.754045" lon="9.986668">
<ele>650</ele>
<time>2019-09-29T08:37:22Z</time>
</trkpt>
<trkpt lat="48.754048" lon="9.98668">
<ele>650</ele>
<time>2019-09-29T08:37:27Z</time>
</trkpt>
<trkpt lat="48.75405" lon="9.986683">
<ele>650</ele>
<time>2019-09-29T08:37:32Z</time>
</trkpt>
<trkpt lat="48.754053" lon="9.98669">
<ele>650</ele>
<time>2019-09-29T08:37:37Z</time>
</trkpt>
<trkpt lat="48.754062" lon="9.986693">
<ele>650</ele>
<time>2019-09-29T08:37:42Z</time>
</trkpt>
<trkpt lat="48.754068" lon="9.986695">
<ele>650</ele>
<time>2019-09-29T08:37:47Z</time>
</trkpt>
<trkpt lat="48.754068" lon="9.986697">
<ele>650</ele>
<time>2019-09-29T08:38:02Z</time>
</trkpt>
<trkpt lat="48.75407" lon="9.9867">
<ele>650</ele>
<time>2019-09-29T08:38:07Z</time>
</trkpt>
<trkpt lat="48.754068" lon="9.986698">
<ele>650</ele>
<time>2019-09-29T08:38:22Z</time>
</trkpt>
<trkpt lat="48.754067" lon="9.986703">
<ele>650</ele>
<time>2019-09-29T08:38:27Z</time>
</trkpt>
<trkpt lat="48.754065" lon="9.986712">
<ele>650</ele>
<time>2019-09-29T08:38:32Z</time>
</trkpt>
<trkpt lat="48.754065" lon="9.986715">
<ele>650</ele>
<time>2019-09-29T08:38:37Z</time>
</trkpt>
<trkpt lat="48.754048" lon="9.986757">
<ele>650</ele>
<time>2019-09-29T08:38:47Z</time>
</trkpt>
<trkpt lat="48.753977" lon="9.986932">
<ele>650</ele>
<time>2019-09-29T08:38:52Z</time>
</trkpt>
<trkpt lat="48.7539" lon="9.987218">
<ele>650</ele>
<time>2019-09-29T08:38:57Z</time>
</trkpt>
<trkpt lat="48.753758" lon="9.987348">
<ele>649</ele>
<time>2019-09-29T08:39:02Z</time>
</trkpt>
<trkpt lat="48.753478" lon="9.987348">
<ele>649</ele>
<time>2019-09-29T08:39:07Z</time>
</trkpt>
<trkpt lat="48.75315" lon="9.9874">
<ele>648</ele>
<time>2019-09-29T08:39:12Z</time>
</trkpt>
<trkpt lat="48.75279" lon="9.987413">
<ele>645</ele>
<time>2019-09-29T08:39:17Z</time>
</trkpt>
<trkpt lat="48.752415" lon="9.987337">
<ele>642</ele>
<time>2019-09-29T08:39:22Z</time>
</trkpt>
<trkpt lat="48.752203" lon="9.987295">
<ele>640</ele>
<time>2019-09-29T08:39:27Z</time>
</trkpt>
<trkpt lat="48.752102" lon="9.987355">
<ele>639</ele>
<time>2019-09-29T08:39:32Z</time>
</trkpt>
<trkpt lat="48.75219" lon="9.987618">
<ele>639</ele>
<time>2019-09-29T08:39:37Z</time>
</trkpt>
<trkpt lat="48.752315" lon="9.987913">
<ele>639</ele>
<time>2019-09-29T08:39:42Z</time>
</trkpt>
<trkpt lat="48.752448" lon="9.988293">
<ele>639</ele>
<time>2019-09-29T08:39:47Z</time>
</trkpt>
<trkpt lat="48.752592" lon="9.988687">
<ele>639</ele>
<time>2019-09-29T08:39:52Z</time>
</trkpt>
<trkpt lat="48.752733" lon="9.989097">
<ele>639</ele>
<time>2019-09-29T08:39:57Z</time>
</trkpt>
<trkpt lat="48.752867" lon="9.9895">
<ele>639</ele>
<time>2019-09-29T08:40:02Z</time>
</trkpt>
<trkpt lat="48.752993" lon="9.98995">
<ele>639</ele>
<time>2019-09-29T08:40:07Z</time>
</trkpt>
<trkpt lat="48.753102" lon="9.990425">
<ele>639</ele>
<time>2019-09-29T08:40:12Z</time>
</trkpt>
<trkpt lat="48.753208" lon="9.9909">
<ele>639</ele>
<time>2019-09-29T08:40:17Z</time>
</trkpt>
<trkpt lat="48.753295" lon="9.991412">
<ele>639</ele>
<time>2019-09-29T08:40:22Z</time>
</trkpt>
<trkpt lat="48.753375" lon="9.991917">
<ele>639</ele>
<time>2019-09-29T08:40:27Z</time>
</trkpt>
<trkpt lat="48.75344" lon="9.992385">
<ele>639</ele>
<time>2019-09-29T08:40:32Z</time>
</trkpt>
<trkpt lat="48.753497" lon="9.992907">
<ele>638</ele>
<time>2019-09-29T08:40:37Z</time>
</trkpt>
<trkpt lat="48.753502" lon="9.993417">
<ele>638</ele>
<time>2019-09-29T08:40:42Z</time>
</trkpt>
<trkpt lat="48.753405" lon="9.99383">
<ele>638</ele>
<time>2019-09-29T08:40:47Z</time>
</trkpt>
<trkpt lat="48.753235" lon="9.994137">
<ele>638</ele>
<time>2019-09-29T08:40:52Z</time>
</trkpt>
<trkpt lat="48.753055" lon="9.994342">
<ele>638</ele>
<time>2019-09-29T08:40:57Z</time>
</trkpt>
<trkpt lat="48.752863" lon="9.994558">
<ele>639</ele>
<time>2019-09-29T08:41:02Z</time>
</trkpt>
<trkpt lat="48.75266" lon="9.99479">
<ele>640</ele>
<time>2019-09-29T08:41:07Z</time>
</trkpt>
<trkpt lat="48.752468" lon="9.995032">
<ele>640</ele>
<time>2019-09-29T08:41:12Z</time>
</trkpt>
<trkpt lat="48.752278" lon="9.995255">
<ele>641</ele>
<time>2019-09-29T08:41:17Z</time>
</trkpt>
<trkpt lat="48.752087" lon="9.995485">
<ele>641</ele>
<time>2019-09-29T08:41:22Z</time>
</trkpt>
<trkpt lat="48.751903" lon="9.995707">
<ele>642</ele>
<time>2019-09-29T08:41:27Z</time>
</trkpt>
<trkpt lat="48.751715" lon="9.995937">
<ele>642</ele>
<time>2019-09-29T08:41:32Z</time>
</trkpt>
<trkpt lat="48.751515" lon="9.99618">
<ele>643</ele>
<time>2019-09-29T08:41:37Z</time>
</trkpt>
<trkpt lat="48.75133" lon="9.996407">
<ele>643</ele>
<time>2019-09-29T08:41:42Z</time>
</trkpt>
<trkpt lat="48.751142" lon="9.996632">
<ele>644</ele>
<time>2019-09-29T08:41:47Z</time>
</trkpt>
<trkpt lat="48.750955" lon="9.99686">
<ele>645</ele>
<time>2019-09-29T08:41:52Z</time>
</trkpt>
<trkpt lat="48.750772" lon="9.997082">
<ele>645</ele>
<time>2019-09-29T08:41:57Z</time>
</trkpt>
<trkpt lat="48.750595" lon="9.997298">
<ele>646</ele>
<time>2019-09-29T08:42:02Z</time>
</trkpt>
<trkpt lat="48.750428" lon="9.997503">
<ele>646</ele>
<time>2019-09-29T08:42:07Z</time>
</trkpt>
<trkpt lat="48.75025" lon="9.997713">
<ele>647</ele>
<time>2019-09-29T08:42:12Z</time>
</trkpt>
<trkpt lat="48.750025" lon="9.997922">
<ele>647</ele>
<time>2019-09-29T08:42:17Z</time>
</trkpt>
<trkpt lat="48.749757" lon="9.998063">
<ele>647</ele>
<time>2019-09-29T08:42:22Z</time>
</trkpt>
<trkpt lat="48.7495" lon="9.998142">
<ele>647</ele>
<time>2019-09-29T08:42:27Z</time>
</trkpt>
<trkpt lat="48.749182" lon="9.99825">
<ele>647</ele>
<time>2019-09-29T08:42:32Z</time>
</trkpt>
<trkpt lat="48.7489" lon="9.99836">
<ele>647</ele>
<time>2019-09-29T08:42:38Z</time>
</trkpt>
<trkpt lat="48.748568" lon="9.998498">
<ele>647</ele>
<time>2019-09-29T08:42:43Z</time>
</trkpt>
<trkpt lat="48.748295" lon="9.998622">
<ele>647</ele>
<time>2019-09-29T08:42:48Z</time>
</trkpt>
<trkpt lat="48.748023" lon="9.998752">
<ele>647</ele>
<time>2019-09-29T08:42:53Z</time>
</trkpt>
<trkpt lat="48.747757" lon="9.998875">
<ele>647</ele>
<time>2019-09-29T08:42:59Z</time>
</trkpt>
<trkpt lat="48.74742" lon="9.999035">
<ele>647</ele>
<time>2019-09-29T08:43:04Z</time>
</trkpt>
<trkpt lat="48.747128" lon="9.999168">
<ele>647</ele>
<time>2019-09-29T08:43:09Z</time>
</trkpt>
<trkpt lat="48.746833" lon="9.999305">
<ele>647</ele>
<time>2019-09-29T08:43:14Z</time>
</trkpt>
<trkpt lat="48.74655" lon="9.999427">
<ele>647</ele>
<time>2019-09-29T08:43:19Z</time>
</trkpt>
<trkpt lat="48.74627" lon="9.999542">
<ele>647</ele>
<time>2019-09-29T08:43:24Z</time>
</trkpt>
<trkpt lat="48.745978" lon="9.999673">
<ele>646</ele>
<time>2019-09-29T08:43:29Z</time>
</trkpt>
<trkpt lat="48.745698" lon="9.999843">
<ele>646</ele>
<time>2019-09-29T08:43:34Z</time>
</trkpt>
<trkpt lat="48.745425" lon="10.000065">
<ele>646</ele>
<time>2019-09-29T08:43:40Z</time>
</trkpt>
<trkpt lat="48.745148" lon="10.000303">
<ele>645</ele>
<time>2019-09-29T08:43:45Z</time>
</trkpt>
<trkpt lat="48.744805" lon="10.000605">
<ele>645</ele>
<time>2019-09-29T08:43:50Z</time>
</trkpt>
<trkpt lat="48.744535" lon="10.000843">
<ele>645</ele>
<time>2019-09-29T08:43:55Z</time>
</trkpt>
<trkpt lat="48.74426" lon="10.001087">
<ele>644</ele>
<time>2019-09-29T08:44:00Z</time>
</trkpt>
<trkpt lat="48.743988" lon="10.00132">
<ele>644</ele>
<time>2019-09-29T08:44:05Z</time>
</trkpt>
<trkpt lat="48.743705" lon="10.001562">
<ele>644</ele>
<time>2019-09-29T08:44:10Z</time>
</trkpt>
<trkpt lat="48.743423" lon="10.0018">
<ele>644</ele>
<time>2019-09-29T08:44:15Z</time>
</trkpt>
<trkpt lat="48.743135" lon="10.002048">
<ele>644</ele>
<time>2019-09-29T08:44:20Z</time>
</trkpt>
<trkpt lat="48.742847" lon="10.002317">
<ele>644</ele>
<time>2019-09-29T08:44:26Z</time>
</trkpt>
<trkpt lat="48.742572" lon="10.002608">
<ele>643</ele>
<time>2019-09-29T08:44:31Z</time>
</trkpt>
<trkpt lat="48.74224" lon="10.002982">
<ele>642</ele>
<time>2019-09-29T08:44:36Z</time>
</trkpt>
<trkpt lat="48.741963" lon="10.003297">
<ele>642</ele>
<time>2019-09-29T08:44:41Z</time>
</trkpt>
<trkpt lat="48.74169" lon="10.00361">
<ele>642</ele>
<time>2019-09-29T08:44:47Z</time>
</trkpt>
<trkpt lat="48.741413" lon="10.003922">
<ele>642</ele>
<time>2019-09-29T08:44:52Z</time>
</trkpt>
<trkpt lat="48.741083" lon="10.004302">
<ele>642</ele>
<time>2019-09-29T08:44:57Z</time>
</trkpt>
<trkpt lat="48.740803" lon="10.004615">
<ele>641</ele>
<time>2019-09-29T08:45:03Z</time>
</trkpt>
<trkpt lat="48.740527" lon="10.004925">
<ele>641</ele>
<time>2019-09-29T08:45:08Z</time>
</trkpt>
<trkpt lat="48.740193" lon="10.005302">
<ele>641</ele>
<time>2019-09-29T08:45:13Z</time>
</trkpt>
<trkpt lat="48.739917" lon="10.00562">
<ele>641</ele>
<time>2019-09-29T08:45:18Z</time>
</trkpt>
<trkpt lat="48.739633" lon="10.005945">
<ele>641</ele>
<time>2019-09-29T08:45:23Z</time>
</trkpt>
<trkpt lat="48.739342" lon="10.006275">
<ele>640</ele>
<time>2019-09-29T08:45:29Z</time>
</trkpt>
<trkpt lat="48.739057" lon="10.00659">
<ele>640</ele>
<time>2019-09-29T08:45:34Z</time>
</trkpt>
<trkpt lat="48.738723" lon="10.006973">
<ele>640</ele>
<time>2019-09-29T08:45:39Z</time>
</trkpt>
<trkpt lat="48.73846" lon="10.007278">
<ele>640</ele>
<time>2019-09-29T08:45:44Z</time>
</trkpt>
<trkpt lat="48.73821" lon="10.00756">
<ele>640</ele>
<time>2019-09-29T08:45:50Z</time>
</trkpt>
<trkpt lat="48.737952" lon="10.007853">
<ele>640</ele>
<time>2019-09-29T08:45:55Z</time>
</trkpt>
<trkpt lat="48.73764" lon="10.00824">
<ele>640</ele>
<time>2019-09-29T08:46:00Z</time>
</trkpt>
<trkpt lat="48.737402" lon="10.008622">
<ele>639</ele>
<time>2019-09-29T08:46:05Z</time>
</trkpt>
<trkpt lat="48.73715" lon="10.009078">
<ele>637</ele>
<time>2019-09-29T08:46:11Z</time>
</trkpt>
<trkpt lat="48.736808" lon="10.009687">
<ele>635</ele>
<time>2019-09-29T08:46:16Z</time>
</trkpt>
<trkpt lat="48.736523" lon="10.0102">
<ele>633</ele>
<time>2019-09-29T08:46:21Z</time>
</trkpt>
<trkpt lat="48.736218" lon="10.010747">
<ele>631</ele>
<time>2019-09-29T08:46:26Z</time>
</trkpt>
<trkpt lat="48.735925" lon="10.011277">
<ele>630</ele>
<time>2019-09-29T08:46:31Z</time>
</trkpt>
<trkpt lat="48.735615" lon="10.011827">
<ele>628</ele>
<time>2019-09-29T08:46:36Z</time>
</trkpt>
<trkpt lat="48.735292" lon="10.012392">
<ele>627</ele>
<time>2019-09-29T08:46:41Z</time>
</trkpt>
<trkpt lat="48.734972" lon="10.012955">
<ele>625</ele>
<time>2019-09-29T08:46:46Z</time>
</trkpt>
<trkpt lat="48.734655" lon="10.01352">
<ele>623</ele>
<time>2019-09-29T08:46:52Z</time>
</trkpt>
<trkpt lat="48.734257" lon="10.014155">
<ele>621</ele>
<time>2019-09-29T08:46:57Z</time>
</trkpt>
<trkpt lat="48.733897" lon="10.014598">
<ele>621</ele>
<time>2019-09-29T08:47:02Z</time>
</trkpt>
<trkpt lat="48.733542" lon="10.01503">
<ele>620</ele>
<time>2019-09-29T08:47:07Z</time>
</trkpt>
<trkpt lat="48.733197" lon="10.01544">
<ele>619</ele>
<time>2019-09-29T08:47:13Z</time>
</trkpt>
<trkpt lat="48.732832" lon="10.015955">
<ele>619</ele>
<time>2019-09-29T08:47:19Z</time>
</trkpt>
<trkpt lat="48.732618" lon="10.016448">
<ele>620</ele>
<time>2019-09-29T08:47:25Z</time>
</trkpt>
<trkpt lat="48.73249" lon="10.016777">
<ele>622</ele>
<time>2019-09-29T08:47:30Z</time>
</trkpt>
<trkpt lat="48.732367" lon="10.017053">
<ele>624</ele>
<time>2019-09-29T08:47:35Z</time>
</trkpt>
<trkpt lat="48.732265" lon="10.017363">
<ele>625</ele>
<time>2019-09-29T08:47:40Z</time>
</trkpt>
<trkpt lat="48.732165" lon="10.017637">
<ele>627</ele>
<time>2019-09-29T08:47:45Z</time>
</trkpt>
<trkpt lat="48.73206" lon="10.017863">
<ele>628</ele>
<time>2019-09-29T08:47:50Z</time>
</trkpt>
<trkpt lat="48.73197" lon="10.018068">
<ele>629</ele>
<time>2019-09-29T08:47:56Z</time>
</trkpt>
<trkpt lat="48.731853" lon="10.018305">
<ele>631</ele>
<time>2019-09-29T08:48:01Z</time>
</trkpt>
<trkpt lat="48.731755" lon="10.0185">
<ele>632</ele>
<time>2019-09-29T08:48:06Z</time>
</trkpt>
<trkpt lat="48.731653" lon="10.018677">
<ele>633</ele>
<time>2019-09-29T08:48:11Z</time>
</trkpt>
<trkpt lat="48.731543" lon="10.01886">
<ele>635</ele>
<time>2019-09-29T08:48:17Z</time>
</trkpt>
<trkpt lat="48.731427" lon="10.019042">
<ele>636</ele>
<time>2019-09-29T08:48:22Z</time>
</trkpt>
<trkpt lat="48.731267" lon="10.019293">
<ele>636</ele>
<time>2019-09-29T08:48:27Z</time>
</trkpt>
<trkpt lat="48.73114" lon="10.019502">
<ele>637</ele>
<time>2019-09-29T08:48:32Z</time>
</trkpt>
<trkpt lat="48.731055" lon="10.01966">
<ele>637</ele>
<time>2019-09-29T08:48:38Z</time>
</trkpt>
<trkpt lat="48.730888" lon="10.019922">
<ele>637</ele>
<time>2019-09-29T08:48:43Z</time>
</trkpt>
<trkpt lat="48.730723" lon="10.020158">
<ele>637</ele>
<time>2019-09-29T08:48:48Z</time>
</trkpt>
<trkpt lat="48.730527" lon="10.020452">
<ele>637</ele>
<time>2019-09-29T08:48:53Z</time>
</trkpt>
<trkpt lat="48.730337" lon="10.020745">
<ele>637</ele>
<time>2019-09-29T08:48:59Z</time>
</trkpt>
<trkpt lat="48.730087" lon="10.021078">
<ele>637</ele>
<time>2019-09-29T08:49:04Z</time>
</trkpt>
<trkpt lat="48.729802" lon="10.021283">
<ele>637</ele>
<time>2019-09-29T08:49:09Z</time>
</trkpt>
<trkpt lat="48.729457" lon="10.021407">
<ele>635</ele>
<time>2019-09-29T08:49:14Z</time>
</trkpt>
<trkpt lat="48.729108" lon="10.02151">
<ele>635</ele>
<time>2019-09-29T08:49:19Z</time>
</trkpt>
<trkpt lat="48.728802" lon="10.021592">
<ele>635</ele>
<time>2019-09-29T08:49:24Z</time>
</trkpt>
<trkpt lat="48.728523" lon="10.021667">
<ele>635</ele>
<time>2019-09-29T08:49:29Z</time>
</trkpt>
<trkpt lat="48.72827" lon="10.021748">
<ele>635</ele>
<time>2019-09-29T08:49:34Z</time>
</trkpt>
<trkpt lat="48.72803" lon="10.021872">
<ele>635</ele>
<time>2019-09-29T08:49:39Z</time>
</trkpt>
<trkpt lat="48.727767" lon="10.022012">
<ele>635</ele>
<time>2019-09-29T08:49:45Z</time>
</trkpt>
<trkpt lat="48.727427" lon="10.02225">
<ele>635</ele>
<time>2019-09-29T08:49:50Z</time>
</trkpt>
<trkpt lat="48.727153" lon="10.022475">
<ele>635</ele>
<time>2019-09-29T08:49:55Z</time>
</trkpt>
<trkpt lat="48.726895" lon="10.022735">
<ele>635</ele>
<time>2019-09-29T08:50:00Z</time>
</trkpt>
<trkpt lat="48.726667" lon="10.023">
<ele>635</ele>
<time>2019-09-29T08:50:05Z</time>
</trkpt>
<trkpt lat="48.726452" lon="10.023265">
<ele>635</ele>
<time>2019-09-29T08:50:10Z</time>
</trkpt>
<trkpt lat="48.72623" lon="10.023543">
<ele>635</ele>
<time>2019-09-29T08:50:15Z</time>
</trkpt>
<trkpt lat="48.72602" lon="10.023792">
<ele>636</ele>
<time>2019-09-29T08:50:20Z</time>
</trkpt>
<trkpt lat="48.725832" lon="10.024042">
<ele>637</ele>
<time>2019-09-29T08:50:26Z</time>
</trkpt>
<trkpt lat="48.725612" lon="10.024322">
<ele>638</ele>
<time>2019-09-29T08:50:31Z</time>
</trkpt>
<trkpt lat="48.725433" lon="10.024538">
<ele>638</ele>
<time>2019-09-29T08:50:36Z</time>
</trkpt>
<trkpt lat="48.725252" lon="10.024772">
<ele>638</ele>
<time>2019-09-29T08:50:41Z</time>
</trkpt>
<trkpt lat="48.725065" lon="10.02501">
<ele>639</ele>
<time>2019-09-29T08:50:46Z</time>
</trkpt>
<trkpt lat="48.724887" lon="10.02525">
<ele>639</ele>
<time>2019-09-29T08:50:51Z</time>
</trkpt>
<trkpt lat="48.724712" lon="10.025488">
<ele>639</ele>
<time>2019-09-29T08:50:56Z</time>
</trkpt>
<trkpt lat="48.724515" lon="10.025755">
<ele>639</ele>
<time>2019-09-29T08:51:01Z</time>
</trkpt>
<trkpt lat="48.724308" lon="10.026042">
<ele>640</ele>
<time>2019-09-29T08:51:06Z</time>
</trkpt>
<trkpt lat="48.724108" lon="10.026325">
<ele>640</ele>
<time>2019-09-29T08:51:11Z</time>
</trkpt>
<trkpt lat="48.723887" lon="10.026632">
<ele>640</ele>
<time>2019-09-29T08:51:16Z</time>
</trkpt>
<trkpt lat="48.723675" lon="10.026942">
<ele>640</ele>
<time>2019-09-29T08:51:21Z</time>
</trkpt>
<trkpt lat="48.723443" lon="10.02728">
<ele>640</ele>
<time>2019-09-29T08:51:26Z</time>
</trkpt>
<trkpt lat="48.72322" lon="10.027622">
<ele>639</ele>
<time>2019-09-29T08:51:31Z</time>
</trkpt>
<trkpt lat="48.722987" lon="10.027968">
<ele>639</ele>
<time>2019-09-29T08:51:36Z</time>
</trkpt>
<trkpt lat="48.722752" lon="10.028313">
<ele>639</ele>
<time>2019-09-29T08:51:42Z</time>
</trkpt>
<trkpt lat="48.722483" lon="10.028722">
<ele>639</ele>
<time>2019-09-29T08:51:48Z</time>
</trkpt>
<trkpt lat="48.72227" lon="10.029022">
<ele>639</ele>
<time>2019-09-29T08:51:53Z</time>
</trkpt>
<trkpt lat="48.722048" lon="10.029317">
<ele>639</ele>
<time>2019-09-29T08:51:58Z</time>
</trkpt>
<trkpt lat="48.721797" lon="10.02969">
<ele>640</ele>
<time>2019-09-29T08:52:04Z</time>
</trkpt>
<trkpt lat="48.721553" lon="10.030068">
<ele>640</ele>
<time>2019-09-29T08:52:10Z</time>
</trkpt>
<trkpt lat="48.721342" lon="10.030407">
<ele>640</ele>
<time>2019-09-29T08:52:15Z</time>
</trkpt>
<trkpt lat="48.721077" lon="10.03083">
<ele>640</ele>
<time>2019-09-29T08:52:21Z</time>
</trkpt>
<trkpt lat="48.720805" lon="10.03127">
<ele>640</ele>
<time>2019-09-29T08:52:26Z</time>
</trkpt>
<trkpt lat="48.720555" lon="10.031663">
<ele>640</ele>
<time>2019-09-29T08:52:32Z</time>
</trkpt>
<trkpt lat="48.720343" lon="10.032013">
<ele>640</ele>
<time>2019-09-29T08:52:37Z</time>
</trkpt>
<trkpt lat="48.72012" lon="10.032378">
<ele>640</ele>
<time>2019-09-29T08:52:42Z</time>
</trkpt>
<trkpt lat="48.719917" lon="10.032663">
<ele>640</ele>
<time>2019-09-29T08:52:47Z</time>
</trkpt>
<trkpt lat="48.71969" lon="10.032915">
<ele>640</ele>
<time>2019-09-29T08:52:52Z</time>
</trkpt>
<trkpt lat="48.719438" lon="10.033172">
<ele>640</ele>
<time>2019-09-29T08:52:58Z</time>
</trkpt>
<trkpt lat="48.719127" lon="10.033493">
<ele>640</ele>
<time>2019-09-29T08:53:04Z</time>
</trkpt>
<trkpt lat="48.718815" lon="10.033812">
<ele>640</ele>
<time>2019-09-29T08:53:09Z</time>
</trkpt>
<trkpt lat="48.718578" lon="10.034047">
<ele>640</ele>
<time>2019-09-29T08:53:15Z</time>
</trkpt>
<trkpt lat="48.718305" lon="10.03432">
<ele>641</ele>
<time>2019-09-29T08:53:21Z</time>
</trkpt>
<trkpt lat="48.718053" lon="10.03456">
<ele>642</ele>
<time>2019-09-29T08:53:26Z</time>
</trkpt>
<trkpt lat="48.717872" lon="10.034743">
<ele>643</ele>
<time>2019-09-29T08:53:31Z</time>
</trkpt>
<trkpt lat="48.717682" lon="10.034928">
<ele>643</ele>
<time>2019-09-29T08:53:37Z</time>
</trkpt>
<trkpt lat="48.717485" lon="10.035095">
<ele>644</ele>
<time>2019-09-29T08:53:42Z</time>
</trkpt>
<trkpt lat="48.717187" lon="10.035327">
<ele>644</ele>
<time>2019-09-29T08:53:47Z</time>
</trkpt>
<trkpt lat="48.716923" lon="10.035498">
<ele>644</ele>
<time>2019-09-29T08:53:52Z</time>
</trkpt>
<trkpt lat="48.716648" lon="10.035672">
<ele>644</ele>
<time>2019-09-29T08:53:58Z</time>
</trkpt>
<trkpt lat="48.716288" lon="10.035918">
<ele>644</ele>
<time>2019-09-29T08:54:04Z</time>
</trkpt>
<trkpt lat="48.715893" lon="10.036168">
<ele>643</ele>
<time>2019-09-29T08:54:10Z</time>
</trkpt>
<trkpt lat="48.715477" lon="10.036442">
<ele>642</ele>
<time>2019-09-29T08:54:15Z</time>
</trkpt>
<trkpt lat="48.71511" lon="10.036722">
<ele>640</ele>
<time>2019-09-29T08:54:20Z</time>
</trkpt>
<trkpt lat="48.714765" lon="10.03706">
<ele>640</ele>
<time>2019-09-29T08:54:25Z</time>
</trkpt>
<trkpt lat="48.714417" lon="10.037497">
<ele>638</ele>
<time>2019-09-29T08:54:30Z</time>
</trkpt>
<trkpt lat="48.714083" lon="10.038003">
<ele>636</ele>
<time>2019-09-29T08:54:35Z</time>
</trkpt>
<trkpt lat="48.713797" lon="10.038535">
<ele>635</ele>
<time>2019-09-29T08:54:40Z</time>
</trkpt>
<trkpt lat="48.713515" lon="10.039123">
<ele>633</ele>
<time>2019-09-29T08:54:46Z</time>
</trkpt>
<trkpt lat="48.713183" lon="10.039803">
<ele>632</ele>
<time>2019-09-29T08:54:52Z</time>
</trkpt>
<trkpt lat="48.712903" lon="10.040387">
<ele>632</ele>
<time>2019-09-29T08:54:58Z</time>
</trkpt>
<trkpt lat="48.712683" lon="10.040827">
<ele>632</ele>
<time>2019-09-29T08:55:03Z</time>
</trkpt>
<trkpt lat="48.712445" lon="10.041298">
<ele>632</ele>
<time>2019-09-29T08:55:08Z</time>
</trkpt>
<trkpt lat="48.712272" lon="10.041658">
<ele>632</ele>
<time>2019-09-29T08:55:13Z</time>
</trkpt>
<trkpt lat="48.712082" lon="10.042047">
<ele>632</ele>
<time>2019-09-29T08:55:18Z</time>
</trkpt>
<trkpt lat="48.711883" lon="10.042462">
<ele>632</ele>
<time>2019-09-29T08:55:23Z</time>
</trkpt>
<trkpt lat="48.711685" lon="10.04287">
<ele>632</ele>
<time>2019-09-29T08:55:28Z</time>
</trkpt>
<trkpt lat="48.711485" lon="10.04329">
<ele>632</ele>
<time>2019-09-29T08:55:34Z</time>
</trkpt>
<trkpt lat="48.71123" lon="10.04379">
<ele>631</ele>
<time>2019-09-29T08:55:39Z</time>
</trkpt>
<trkpt lat="48.711025" lon="10.044212">
<ele>631</ele>
<time>2019-09-29T08:55:44Z</time>
</trkpt>
<trkpt lat="48.710815" lon="10.044637">
<ele>631</ele>
<time>2019-09-29T08:55:49Z</time>
</trkpt>
<trkpt lat="48.710597" lon="10.045082">
<ele>630</ele>
<time>2019-09-29T08:55:54Z</time>
</trkpt>
<trkpt lat="48.710347" lon="10.045557">
<ele>629</ele>
<time>2019-09-29T08:55:59Z</time>
</trkpt>
<trkpt lat="48.710102" lon="10.046038">
<ele>629</ele>
<time>2019-09-29T08:56:05Z</time>
</trkpt>
<trkpt lat="48.709842" lon="10.046463">
<ele>629</ele>
<time>2019-09-29T08:56:10Z</time>
</trkpt>
<trkpt lat="48.709612" lon="10.046813">
<ele>629</ele>
<time>2019-09-29T08:56:15Z</time>
</trkpt>
<trkpt lat="48.709372" lon="10.047182">
<ele>630</ele>
<time>2019-09-29T08:56:20Z</time>
</trkpt>
<trkpt lat="48.709172" lon="10.047485">
<ele>630</ele>
<time>2019-09-29T08:56:26Z</time>
</trkpt>
<trkpt lat="48.70897" lon="10.04779">
<ele>631</ele>
<time>2019-09-29T08:56:31Z</time>
</trkpt>
<trkpt lat="48.708743" lon="10.048128">
<ele>632</ele>
<time>2019-09-29T08:56:36Z</time>
</trkpt>
<trkpt lat="48.708552" lon="10.048408">
<ele>633</ele>
<time>2019-09-29T08:56:41Z</time>
</trkpt>
<trkpt lat="48.708362" lon="10.04869">
<ele>634</ele>
<time>2019-09-29T08:56:47Z</time>
</trkpt>
<trkpt lat="48.708177" lon="10.048972">
<ele>635</ele>
<time>2019-09-29T08:56:52Z</time>
</trkpt>
<trkpt lat="48.707955" lon="10.049302">
<ele>635</ele>
<time>2019-09-29T08:56:57Z</time>
</trkpt>
<trkpt lat="48.707773" lon="10.04958">
<ele>636</ele>
<time>2019-09-29T08:57:02Z</time>
</trkpt>
<trkpt lat="48.707585" lon="10.049862">
<ele>637</ele>
<time>2019-09-29T08:57:07Z</time>
</trkpt>
<trkpt lat="48.707395" lon="10.050133">
<ele>637</ele>
<time>2019-09-29T08:57:12Z</time>
</trkpt>
<trkpt lat="48.7072" lon="10.050417">
<ele>638</ele>
<time>2019-09-29T08:57:17Z</time>
</trkpt>
<trkpt lat="48.706993" lon="10.050675">
<ele>638</ele>
<time>2019-09-29T08:57:22Z</time>
</trkpt>
<trkpt lat="48.706767" lon="10.050885">
<ele>638</ele>
<time>2019-09-29T08:57:28Z</time>
</trkpt>
<trkpt lat="48.706522" lon="10.051072">
<ele>638</ele>
<time>2019-09-29T08:57:33Z</time>
</trkpt>
<trkpt lat="48.706193" lon="10.051317">
<ele>638</ele>
<time>2019-09-29T08:57:38Z</time>
</trkpt>
<trkpt lat="48.705893" lon="10.051538">
<ele>638</ele>
<time>2019-09-29T08:57:43Z</time>
</trkpt>
<trkpt lat="48.705553" lon="10.05179">
<ele>637</ele>
<time>2019-09-29T08:57:48Z</time>
</trkpt>
<trkpt lat="48.70519" lon="10.052053">
<ele>634</ele>
<time>2019-09-29T08:57:54Z</time>
</trkpt>
<trkpt lat="48.704742" lon="10.052383">
<ele>634</ele>
<time>2019-09-29T08:57:59Z</time>
</trkpt>
<trkpt lat="48.704338" lon="10.052685">
<ele>632</ele>
<time>2019-09-29T08:58:04Z</time>
</trkpt>
<trkpt lat="48.703947" lon="10.052975">
<ele>630</ele>
<time>2019-09-29T08:58:10Z</time>
</trkpt>
<trkpt lat="48.703485" lon="10.053335">
<ele>628</ele>
<time>2019-09-29T08:58:16Z</time>
</trkpt>
<trkpt lat="48.70299" lon="10.053687">
<ele>627</ele>
<time>2019-09-29T08:58:22Z</time>
</trkpt>
<trkpt lat="48.70243" lon="10.054107">
<ele>621</ele>
<time>2019-09-29T08:58:28Z</time>
</trkpt>
<trkpt lat="48.701825" lon="10.054563">
<ele>617</ele>
<time>2019-09-29T08:58:34Z</time>
</trkpt>
<trkpt lat="48.701288" lon="10.054877">
<ele>611</ele>
<time>2019-09-29T08:58:39Z</time>
</trkpt>
<trkpt lat="48.700587" lon="10.054725">
<ele>607</ele>
<time>2019-09-29T08:58:44Z</time>
</trkpt>
<trkpt lat="48.699967" lon="10.054335">
<ele>601</ele>
<time>2019-09-29T08:58:49Z</time>
</trkpt>
<trkpt lat="48.699398" lon="10.053977">
<ele>595</ele>
<time>2019-09-29T08:58:54Z</time>
</trkpt>
<trkpt lat="48.69881" lon="10.053852">
<ele>591</ele>
<time>2019-09-29T08:59:00Z</time>
</trkpt>
<trkpt lat="48.69806" lon="10.053875">
<ele>583</ele>
<time>2019-09-29T08:59:05Z</time>
</trkpt>
<trkpt lat="48.697505" lon="10.053917">
<ele>578</ele>
<time>2019-09-29T08:59:10Z</time>
</trkpt>
<trkpt lat="48.69696" lon="10.05418">
<ele>574</ele>
<time>2019-09-29T08:59:16Z</time>
</trkpt>
<trkpt lat="48.696422" lon="10.054535">
<ele>568</ele>
<time>2019-09-29T08:59:21Z</time>
</trkpt>
<trkpt lat="48.69572" lon="10.05504">
<ele>562</ele>
<time>2019-09-29T08:59:26Z</time>
</trkpt>
<trkpt lat="48.695105" lon="10.055523">
<ele>556</ele>
<time>2019-09-29T08:59:31Z</time>
</trkpt>
<trkpt lat="48.694472" lon="10.056055">
<ele>550</ele>
<time>2019-09-29T08:59:37Z</time>
</trkpt>
<trkpt lat="48.693745" lon="10.056687">
<ele>546</ele>
<time>2019-09-29T08:59:42Z</time>
</trkpt>
<trkpt lat="48.693188" lon="10.057188">
<ele>544</ele>
<time>2019-09-29T08:59:47Z</time>
</trkpt>
<trkpt lat="48.69268" lon="10.057717">
<ele>542</ele>
<time>2019-09-29T08:59:52Z</time>
</trkpt>
<trkpt lat="48.692223" lon="10.058228">
<ele>540</ele>
<time>2019-09-29T08:59:58Z</time>
</trkpt>
<trkpt lat="48.691778" lon="10.058812">
<ele>539</ele>
<time>2019-09-29T09:00:03Z</time>
</trkpt>
<trkpt lat="48.691717" lon="10.05938">
<ele>537</ele>
<time>2019-09-29T09:00:08Z</time>
</trkpt>
<trkpt lat="48.691727" lon="10.059817">
<ele>536</ele>
<time>2019-09-29T09:00:13Z</time>
</trkpt>
<trkpt lat="48.691757" lon="10.060087">
<ele>536</ele>
<time>2019-09-29T09:00:19Z</time>
</trkpt>
<trkpt lat="48.691782" lon="10.060375">
<ele>535</ele>
<time>2019-09-29T09:00:24Z</time>
</trkpt>
<trkpt lat="48.691735" lon="10.060458">
<ele>535</ele>
<time>2019-09-29T09:00:29Z</time>
</trkpt>
<trkpt lat="48.691722" lon="10.060468">
<ele>535</ele>
<time>2019-09-29T09:00:34Z</time>
</trkpt>
<trkpt lat="48.691725" lon="10.060465">
<ele>535</ele>
<time>2019-09-29T09:00:40Z</time>
</trkpt>
<trkpt lat="48.691723" lon="10.060465">
<ele>535</ele>
<time>2019-09-29T09:00:45Z</time>
</trkpt>
<trkpt lat="48.691725" lon="10.060463">
<ele>535</ele>
<time>2019-09-29T09:01:05Z</time>
</trkpt>
<trkpt lat="48.691723" lon="10.060463">
<ele>535</ele>
<time>2019-09-29T09:01:10Z</time>
</trkpt>
<trkpt lat="48.691692" lon="10.060498">
<ele>535</ele>
<time>2019-09-29T09:01:22Z</time>
</trkpt>
<trkpt lat="48.6917" lon="10.060535">
<ele>535</ele>
<time>2019-09-29T09:01:28Z</time>
</trkpt>
<trkpt lat="48.691702" lon="10.060533">
<ele>535</ele>
<time>2019-09-29T09:01:33Z</time>
</trkpt>
<trkpt lat="48.691697" lon="10.060535">
<ele>535</ele>
<time>2019-09-29T09:01:38Z</time>
</trkpt>
<trkpt lat="48.691693" lon="10.060535">
<ele>535</ele>
<time>2019-09-29T09:01:44Z</time>
</trkpt>
<trkpt lat="48.691692" lon="10.060535">
<ele>535</ele>
<time>2019-09-29T09:01:49Z</time>
</trkpt>
<trkpt lat="48.691698" lon="10.060532">
<ele>535</ele>
<time>2019-09-29T09:01:54Z</time>
</trkpt>
<trkpt lat="48.69175" lon="10.060475">
<ele>535</ele>
<time>2019-09-29T09:02:04Z</time>
</trkpt>
<trkpt lat="48.691717" lon="10.06047">
<ele>535</ele>
<time>2019-09-29T09:02:10Z</time>
</trkpt>
<trkpt lat="48.691575" lon="10.060512">
<ele>535</ele>
<time>2019-09-29T09:02:16Z</time>
</trkpt>
<trkpt lat="48.691402" lon="10.0606">
<ele>535</ele>
<time>2019-09-29T09:02:22Z</time>
</trkpt>
<trkpt lat="48.691177" lon="10.060663">
<ele>535</ele>
<time>2019-09-29T09:02:28Z</time>
</trkpt>
<trkpt lat="48.690927" lon="10.06072">
<ele>535</ele>
<time>2019-09-29T09:02:33Z</time>
</trkpt>
<trkpt lat="48.690733" lon="10.060757">
<ele>535</ele>
<time>2019-09-29T09:02:38Z</time>
</trkpt>
<trkpt lat="48.690515" lon="10.060758">
<ele>535</ele>
<time>2019-09-29T09:02:43Z</time>
</trkpt>
<trkpt lat="48.690308" lon="10.060728">
<ele>535</ele>
<time>2019-09-29T09:02:48Z</time>
</trkpt>
<trkpt lat="48.690122" lon="10.060607">
<ele>536</ele>
<time>2019-09-29T09:02:53Z</time>
</trkpt>
<trkpt lat="48.689995" lon="10.060402">
<ele>537</ele>
<time>2019-09-29T09:02:59Z</time>
</trkpt>
<trkpt lat="48.689857" lon="10.060125">
<ele>538</ele>
<time>2019-09-29T09:03:04Z</time>
</trkpt>
<trkpt lat="48.68974" lon="10.059822">
<ele>538</ele>
<time>2019-09-29T09:03:10Z</time>
</trkpt>
<trkpt lat="48.689613" lon="10.059557">
<ele>537</ele>
<time>2019-09-29T09:03:15Z</time>
</trkpt>
<trkpt lat="48.689427" lon="10.05943">
<ele>536</ele>
<time>2019-09-29T09:03:20Z</time>
</trkpt>
<trkpt lat="48.689182" lon="10.059375">
<ele>536</ele>
<time>2019-09-29T09:03:25Z</time>
</trkpt>
<trkpt lat="48.688925" lon="10.059327">
<ele>536</ele>
<time>2019-09-29T09:03:31Z</time>
</trkpt>
<trkpt lat="48.688607" lon="10.059243">
<ele>536</ele>
<time>2019-09-29T09:03:36Z</time>
</trkpt>
<trkpt lat="48.688355" lon="10.059163">
<ele>536</ele>
<time>2019-09-29T09:03:41Z</time>
</trkpt>
<trkpt lat="48.688117" lon="10.059087">
<ele>536</ele>
<time>2019-09-29T09:03:46Z</time>
</trkpt>
<trkpt lat="48.687953" lon="10.059033">
<ele>536</ele>
<time>2019-09-29T09:03:52Z</time>
</trkpt>
<trkpt lat="48.687913" lon="10.059157">
<ele>536</ele>
<time>2019-09-29T09:03:58Z</time>
</trkpt>
<trkpt lat="48.687927" lon="10.059223">
<ele>536</ele>
<time>2019-09-29T09:04:04Z</time>
</trkpt>
<trkpt lat="48.687927" lon="10.059235">
<ele>536</ele>
<time>2019-09-29T09:04:10Z</time>
</trkpt>
<trkpt lat="48.687927" lon="10.059233">
<ele>536</ele>
<time>2019-09-29T09:04:26Z</time>
</trkpt>
<trkpt lat="48.687927" lon="10.059232">
<ele>535</ele>
<time>2019-09-29T09:05:13Z</time>
</trkpt>
<trkpt lat="48.687928" lon="10.059232">
<ele>535</ele>
<time>2019-09-29T09:05:18Z</time>
</trkpt>
<trkpt lat="48.687927" lon="10.059225">
<ele>535</ele>
<time>2019-09-29T09:05:23Z</time>
</trkpt>
<trkpt lat="48.687927" lon="10.059222">
<ele>535</ele>
<time>2019-09-29T09:05:28Z</time>
</trkpt>
<trkpt lat="48.687928" lon="10.059223">
<ele>535</ele>
<time>2019-09-29T09:05:33Z</time>
</trkpt>
<trkpt lat="48.687928" lon="10.059222">
<ele>535</ele>
<time>2019-09-29T09:06:20Z</time>
</trkpt>
<trkpt lat="48.687928" lon="10.05922">
<ele>535</ele>
<time>2019-09-29T09:06:58Z</time>
</trkpt>
<trkpt lat="48.687928" lon="10.059218">
<ele>535</ele>
<time>2019-09-29T09:07:08Z</time>
</trkpt>
<trkpt lat="48.687928" lon="10.059217">
<ele>535</ele>
<time>2019-09-29T09:07:55Z</time>
</trkpt>
<trkpt lat="48.687928" lon="10.059215">
<ele>535</ele>
<time>2019-09-29T09:08:16Z</time>
</trkpt>
<trkpt lat="48.687928" lon="10.059213">
<ele>535</ele>
<time>2019-09-29T09:08:37Z</time>
</trkpt>
<trkpt lat="48.687927" lon="10.059213">
<ele>535</ele>
<time>2019-09-29T09:08:42Z</time>
</trkpt>
<trkpt lat="48.687927" lon="10.059212">
<ele>535</ele>
<time>2019-09-29T09:09:03Z</time>
</trkpt>
<trkpt lat="48.687927" lon="10.05921">
<ele>535</ele>
<time>2019-09-29T09:09:47Z</time>
</trkpt>
<trkpt lat="48.687927" lon="10.059208">
<ele>535</ele>
<time>2019-09-29T09:10:32Z</time>
</trkpt>
<trkpt lat="48.687925" lon="10.059208">
<ele>535</ele>
<time>2019-09-29T09:12:00Z</time>
</trkpt>
<trkpt lat="48.687925" lon="10.059207">
<ele>535</ele>
<time>2019-09-29T09:12:15Z</time>
</trkpt>
<trkpt lat="48.687923" lon="10.059182">
<ele>535</ele>
<time>2019-09-29T09:12:31Z</time>
</trkpt>
<trkpt lat="48.687927" lon="10.059157">
<ele>535</ele>
<time>2019-09-29T09:12:37Z</time>
</trkpt>
<trkpt lat="48.687927" lon="10.059162">
<ele>535</ele>
<time>2019-09-29T09:12:42Z</time>
</trkpt>
<trkpt lat="48.687932" lon="10.059157">
<ele>535</ele>
<time>2019-09-29T09:12:48Z</time>
</trkpt>
<trkpt lat="48.687932" lon="10.059155">
<ele>535</ele>
<time>2019-09-29T09:12:53Z</time>
</trkpt>
<trkpt lat="48.68792" lon="10.059077">
<ele>535</ele>
<time>2019-09-29T09:13:35Z</time>
</trkpt>
<trkpt lat="48.687835" lon="10.058963">
<ele>535</ele>
<time>2019-09-29T09:13:40Z</time>
</trkpt>
<trkpt lat="48.687648" lon="10.058882">
<ele>535</ele>
<time>2019-09-29T09:13:45Z</time>
</trkpt>
<trkpt lat="48.687423" lon="10.058798">
<ele>535</ele>
<time>2019-09-29T09:13:51Z</time>
</trkpt>
<trkpt lat="48.68716" lon="10.058693">
<ele>535</ele>
<time>2019-09-29T09:13:56Z</time>
</trkpt>
<trkpt lat="48.68695" lon="10.058625">
<ele>535</ele>
<time>2019-09-29T09:14:01Z</time>
</trkpt>
<trkpt lat="48.686763" lon="10.058513">
<ele>535</ele>
<time>2019-09-29T09:14:07Z</time>
</trkpt>
<trkpt lat="48.68666" lon="10.058288">
<ele>535</ele>
<time>2019-09-29T09:14:12Z</time>
</trkpt>
<trkpt lat="48.686435" lon="10.058408">
<ele>534</ele>
<time>2019-09-29T09:14:17Z</time>
</trkpt>
<trkpt lat="48.686088" lon="10.058387">
<ele>534</ele>
<time>2019-09-29T09:14:22Z</time>
</trkpt>
<trkpt lat="48.685788" lon="10.058412">
<ele>534</ele>
<time>2019-09-29T09:14:28Z</time>
</trkpt>
<trkpt lat="48.6855" lon="10.058465">
<ele>534</ele>
<time>2019-09-29T09:14:33Z</time>
</trkpt>
<trkpt lat="48.685143" lon="10.058567">
<ele>534</ele>
<time>2019-09-29T09:14:38Z</time>
</trkpt>
<trkpt lat="48.68486" lon="10.058682">
<ele>534</ele>
<time>2019-09-29T09:14:43Z</time>
</trkpt>
<trkpt lat="48.684605" lon="10.058648">
<ele>533</ele>
<time>2019-09-29T09:14:49Z</time>
</trkpt>
<trkpt lat="48.684388" lon="10.058865">
<ele>532</ele>
<time>2019-09-29T09:14:54Z</time>
</trkpt>
<trkpt lat="48.684095" lon="10.059183">
<ele>532</ele>
<time>2019-09-29T09:14:59Z</time>
</trkpt>
<trkpt lat="48.683845" lon="10.059413">
<ele>532</ele>
<time>2019-09-29T09:15:04Z</time>
</trkpt>
<trkpt lat="48.683615" lon="10.059643">
<ele>532</ele>
<time>2019-09-29T09:15:09Z</time>
</trkpt>
<trkpt lat="48.683397" lon="10.05989">
<ele>532</ele>
<time>2019-09-29T09:15:15Z</time>
</trkpt>
<trkpt lat="48.683128" lon="10.060205">
<ele>532</ele>
<time>2019-09-29T09:15:20Z</time>
</trkpt>
<trkpt lat="48.682905" lon="10.060472">
<ele>532</ele>
<time>2019-09-29T09:15:25Z</time>
</trkpt>
<trkpt lat="48.682678" lon="10.060752">
<ele>532</ele>
<time>2019-09-29T09:15:30Z</time>
</trkpt>
<trkpt lat="48.682458" lon="10.061015">
<ele>532</ele>
<time>2019-09-29T09:15:35Z</time>
</trkpt>
<trkpt lat="48.682238" lon="10.061288">
<ele>531</ele>
<time>2019-09-29T09:15:40Z</time>
</trkpt>
<trkpt lat="48.682015" lon="10.061558">
<ele>531</ele>
<time>2019-09-29T09:15:45Z</time>
</trkpt>
<trkpt lat="48.681807" lon="10.061813">
<ele>531</ele>
<time>2019-09-29T09:15:50Z</time>
</trkpt>
<trkpt lat="48.681582" lon="10.062085">
<ele>531</ele>
<time>2019-09-29T09:15:55Z</time>
</trkpt>
<trkpt lat="48.681347" lon="10.062362">
<ele>531</ele>
<time>2019-09-29T09:16:00Z</time>
</trkpt>
<trkpt lat="48.681122" lon="10.062635">
<ele>531</ele>
<time>2019-09-29T09:16:05Z</time>
</trkpt>
<trkpt lat="48.680897" lon="10.062885">
<ele>530</ele>
<time>2019-09-29T09:16:10Z</time>
</trkpt>
<trkpt lat="48.680668" lon="10.063122">
<ele>530</ele>
<time>2019-09-29T09:16:15Z</time>
</trkpt>
<trkpt lat="48.68044" lon="10.063332">
<ele>530</ele>
<time>2019-09-29T09:16:20Z</time>
</trkpt>
<trkpt lat="48.680205" lon="10.063493">
<ele>530</ele>
<time>2019-09-29T09:16:25Z</time>
</trkpt>
<trkpt lat="48.68" lon="10.063533">
<ele>530</ele>
<time>2019-09-29T09:16:30Z</time>
</trkpt>
<trkpt lat="48.679967" lon="10.063757">
<ele>529</ele>
<time>2019-09-29T09:16:35Z</time>
</trkpt>
<trkpt lat="48.679752" lon="10.063935">
<ele>529</ele>
<time>2019-09-29T09:16:40Z</time>
</trkpt>
<trkpt lat="48.67947" lon="10.064102">
<ele>529</ele>
<time>2019-09-29T09:16:45Z</time>
</trkpt>
<trkpt lat="48.679177" lon="10.064277">
<ele>529</ele>
<time>2019-09-29T09:16:50Z</time>
</trkpt>
<trkpt lat="48.6789" lon="10.064442">
<ele>529</ele>
<time>2019-09-29T09:16:55Z</time>
</trkpt>
<trkpt lat="48.678698" lon="10.06464">
<ele>528</ele>
<time>2019-09-29T09:17:00Z</time>
</trkpt>
<trkpt lat="48.678555" lon="10.064867">
<ele>526</ele>
<time>2019-09-29T09:17:05Z</time>
</trkpt>
<trkpt lat="48.67832" lon="10.064937">
<ele>526</ele>
<time>2019-09-29T09:17:10Z</time>
</trkpt>
<trkpt lat="48.67807" lon="10.065152">
<ele>527</ele>
<time>2019-09-29T09:17:15Z</time>
</trkpt>
<trkpt lat="48.677838" lon="10.065367">
<ele>527</ele>
<time>2019-09-29T09:17:20Z</time>
</trkpt>
<trkpt lat="48.677628" lon="10.06559">
<ele>527</ele>
<time>2019-09-29T09:17:25Z</time>
</trkpt>
<trkpt lat="48.677412" lon="10.06582">
<ele>527</ele>
<time>2019-09-29T09:17:30Z</time>
</trkpt>
<trkpt lat="48.677195" lon="10.066045">
<ele>527</ele>
<time>2019-09-29T09:17:35Z</time>
</trkpt>
<trkpt lat="48.67697" lon="10.066263">
<ele>527</ele>
<time>2019-09-29T09:17:40Z</time>
</trkpt>
<trkpt lat="48.676722" lon="10.066465">
<ele>527</ele>
<time>2019-09-29T09:17:45Z</time>
</trkpt>
<trkpt lat="48.67647" lon="10.066653">
<ele>527</ele>
<time>2019-09-29T09:17:50Z</time>
</trkpt>
<trkpt lat="48.676213" lon="10.066782">
<ele>526</ele>
<time>2019-09-29T09:17:55Z</time>
</trkpt>
<trkpt lat="48.675937" lon="10.066813">
<ele>526</ele>
<time>2019-09-29T09:18:00Z</time>
</trkpt>
<trkpt lat="48.67565" lon="10.066693">
<ele>526</ele>
<time>2019-09-29T09:18:05Z</time>
</trkpt>
<trkpt lat="48.675345" lon="10.066655">
<ele>526</ele>
<time>2019-09-29T09:18:10Z</time>
</trkpt>
<trkpt lat="48.675062" lon="10.06668">
<ele>526</ele>
<time>2019-09-29T09:18:15Z</time>
</trkpt>
<trkpt lat="48.674783" lon="10.066705">
<ele>526</ele>
<time>2019-09-29T09:18:20Z</time>
</trkpt>
<trkpt lat="48.674518" lon="10.066702">
<ele>526</ele>
<time>2019-09-29T09:18:25Z</time>
</trkpt>
<trkpt lat="48.67425" lon="10.066607">
<ele>526</ele>
<time>2019-09-29T09:18:30Z</time>
</trkpt>
<trkpt lat="48.67401" lon="10.066355">
<ele>526</ele>
<time>2019-09-29T09:18:35Z</time>
</trkpt>
<trkpt lat="48.673802" lon="10.066038">
<ele>525</ele>
<time>2019-09-29T09:18:40Z</time>
</trkpt>
<trkpt lat="48.673563" lon="10.065818">
<ele>525</ele>
<time>2019-09-29T09:18:45Z</time>
</trkpt>
<trkpt lat="48.673295" lon="10.06573">
<ele>525</ele>
<time>2019-09-29T09:18:50Z</time>
</trkpt>
<trkpt lat="48.673012" lon="10.065602">
<ele>525</ele>
<time>2019-09-29T09:18:55Z</time>
</trkpt>
<trkpt lat="48.672762" lon="10.065332">
<ele>525</ele>
<time>2019-09-29T09:19:00Z</time>
</trkpt>
<trkpt lat="48.672642" lon="10.064925">
<ele>525</ele>
<time>2019-09-29T09:19:05Z</time>
</trkpt>
<trkpt lat="48.672583" lon="10.064443">
<ele>525</ele>
<time>2019-09-29T09:19:10Z</time>
</trkpt>
<trkpt lat="48.672543" lon="10.064">
<ele>525</ele>
<time>2019-09-29T09:19:15Z</time>
</trkpt>
<trkpt lat="48.672518" lon="10.063585">
<ele>525</ele>
<time>2019-09-29T09:19:20Z</time>
</trkpt>
<trkpt lat="48.672468" lon="10.063175">
<ele>525</ele>
<time>2019-09-29T09:19:25Z</time>
</trkpt>
<trkpt lat="48.672418" lon="10.062758">
<ele>525</ele>
<time>2019-09-29T09:19:30Z</time>
</trkpt>
<trkpt lat="48.672368" lon="10.062342">
<ele>525</ele>
<time>2019-09-29T09:19:35Z</time>
</trkpt>
<trkpt lat="48.672323" lon="10.061942">
<ele>525</ele>
<time>2019-09-29T09:19:40Z</time>
</trkpt>
<trkpt lat="48.672282" lon="10.061552">
<ele>526</ele>
<time>2019-09-29T09:19:45Z</time>
</trkpt>
<trkpt lat="48.672247" lon="10.06115">
<ele>527</ele>
<time>2019-09-29T09:19:50Z</time>
</trkpt>
<trkpt lat="48.672213" lon="10.060743">
<ele>528</ele>
<time>2019-09-29T09:19:55Z</time>
</trkpt>
<trkpt lat="48.672185" lon="10.060335">
<ele>528</ele>
<time>2019-09-29T09:20:00Z</time>
</trkpt>
<trkpt lat="48.672167" lon="10.059892">
<ele>528</ele>
<time>2019-09-29T09:20:05Z</time>
</trkpt>
<trkpt lat="48.672168" lon="10.05946">
<ele>528</ele>
<time>2019-09-29T09:20:10Z</time>
</trkpt>
<trkpt lat="48.672197" lon="10.05904">
<ele>528</ele>
<time>2019-09-29T09:20:15Z</time>
</trkpt>
<trkpt lat="48.672255" lon="10.058613">
<ele>528</ele>
<time>2019-09-29T09:20:20Z</time>
</trkpt>
<trkpt lat="48.672318" lon="10.058203">
<ele>528</ele>
<time>2019-09-29T09:20:25Z</time>
</trkpt>
<trkpt lat="48.672378" lon="10.057795">
<ele>528</ele>
<time>2019-09-29T09:20:30Z</time>
</trkpt>
<trkpt lat="48.67244" lon="10.05736">
<ele>529</ele>
<time>2019-09-29T09:20:35Z</time>
</trkpt>
<trkpt lat="48.672505" lon="10.056908">
<ele>529</ele>
<time>2019-09-29T09:20:40Z</time>
</trkpt>
<trkpt lat="48.672577" lon="10.056435">
<ele>529</ele>
<time>2019-09-29T09:20:45Z</time>
</trkpt>
<trkpt lat="48.67265" lon="10.055972">
<ele>529</ele>
<time>2019-09-29T09:20:50Z</time>
</trkpt>
<trkpt lat="48.672722" lon="10.055508">
<ele>529</ele>
<time>2019-09-29T09:20:55Z</time>
</trkpt>
<trkpt lat="48.672783" lon="10.055055">
<ele>529</ele>
<time>2019-09-29T09:21:00Z</time>
</trkpt>
<trkpt lat="48.672815" lon="10.0546">
<ele>529</ele>
<time>2019-09-29T09:21:05Z</time>
</trkpt>
<trkpt lat="48.672813" lon="10.054157">
<ele>529</ele>
<time>2019-09-29T09:21:10Z</time>
</trkpt>
<trkpt lat="48.67279" lon="10.053717">
<ele>529</ele>
<time>2019-09-29T09:21:15Z</time>
</trkpt>
<trkpt lat="48.672768" lon="10.053285">
<ele>530</ele>
<time>2019-09-29T09:21:20Z</time>
</trkpt>
<trkpt lat="48.672762" lon="10.052847">
<ele>530</ele>
<time>2019-09-29T09:21:25Z</time>
</trkpt>
<trkpt lat="48.672772" lon="10.052425">
<ele>530</ele>
<time>2019-09-29T09:21:30Z</time>
</trkpt>
<trkpt lat="48.672813" lon="10.051993">
<ele>530</ele>
<time>2019-09-29T09:21:35Z</time>
</trkpt>
<trkpt lat="48.672877" lon="10.051557">
<ele>531</ele>
<time>2019-09-29T09:21:40Z</time>
</trkpt>
<trkpt lat="48.672945" lon="10.051118">
<ele>531</ele>
<time>2019-09-29T09:21:45Z</time>
</trkpt>
<trkpt lat="48.673018" lon="10.050692">
<ele>531</ele>
<time>2019-09-29T09:21:50Z</time>
</trkpt>
<trkpt lat="48.673085" lon="10.050258">
<ele>531</ele>
<time>2019-09-29T09:21:55Z</time>
</trkpt>
<trkpt lat="48.67315" lon="10.049828">
<ele>531</ele>
<time>2019-09-29T09:22:00Z</time>
</trkpt>
<trkpt lat="48.673218" lon="10.049373">
<ele>531</ele>
<time>2019-09-29T09:22:05Z</time>
</trkpt>
<trkpt lat="48.673262" lon="10.048923">
<ele>532</ele>
<time>2019-09-29T09:22:10Z</time>
</trkpt>
<trkpt lat="48.673283" lon="10.048472">
<ele>532</ele>
<time>2019-09-29T09:22:15Z</time>
</trkpt>
<trkpt lat="48.673287" lon="10.048022">
<ele>532</ele>
<time>2019-09-29T09:22:20Z</time>
</trkpt>
<trkpt lat="48.673265" lon="10.047575">
<ele>533</ele>
<time>2019-09-29T09:22:25Z</time>
</trkpt>
<trkpt lat="48.673222" lon="10.047133">
<ele>533</ele>
<time>2019-09-29T09:22:30Z</time>
</trkpt>
<trkpt lat="48.673157" lon="10.0467">
<ele>533</ele>
<time>2019-09-29T09:22:35Z</time>
</trkpt>
<trkpt lat="48.673068" lon="10.046283">
<ele>533</ele>
<time>2019-09-29T09:22:40Z</time>
</trkpt>
<trkpt lat="48.672962" lon="10.045878">
<ele>534</ele>
<time>2019-09-29T09:22:45Z</time>
</trkpt>
<trkpt lat="48.672838" lon="10.045467">
<ele>534</ele>
<time>2019-09-29T09:22:50Z</time>
</trkpt>
<trkpt lat="48.672715" lon="10.045055">
<ele>534</ele>
<time>2019-09-29T09:22:55Z</time>
</trkpt>
<trkpt lat="48.672588" lon="10.044673">
<ele>534</ele>
<time>2019-09-29T09:23:00Z</time>
</trkpt>
<trkpt lat="48.67247" lon="10.04426">
<ele>534</ele>
<time>2019-09-29T09:23:05Z</time>
</trkpt>
<trkpt lat="48.672348" lon="10.043842">
<ele>534</ele>
<time>2019-09-29T09:23:10Z</time>
</trkpt>
<trkpt lat="48.67223" lon="10.043433">
<ele>535</ele>
<time>2019-09-29T09:23:15Z</time>
</trkpt>
<trkpt lat="48.672108" lon="10.043022">
<ele>535</ele>
<time>2019-09-29T09:23:20Z</time>
</trkpt>
<trkpt lat="48.671983" lon="10.042612">
<ele>536</ele>
<time>2019-09-29T09:23:25Z</time>
</trkpt>
<trkpt lat="48.671847" lon="10.042215">
<ele>536</ele>
<time>2019-09-29T09:23:30Z</time>
</trkpt>
<trkpt lat="48.671692" lon="10.041828">
<ele>536</ele>
<time>2019-09-29T09:23:35Z</time>
</trkpt>
<trkpt lat="48.671537" lon="10.041463">
<ele>536</ele>
<time>2019-09-29T09:23:40Z</time>
</trkpt>
<trkpt lat="48.671378" lon="10.041102">
<ele>537</ele>
<time>2019-09-29T09:23:45Z</time>
</trkpt>
<trkpt lat="48.671218" lon="10.04074">
<ele>537</ele>
<time>2019-09-29T09:23:50Z</time>
</trkpt>
<trkpt lat="48.671068" lon="10.0404">
<ele>537</ele>
<time>2019-09-29T09:23:55Z</time>
</trkpt>
<trkpt lat="48.670873" lon="10.040092">
<ele>538</ele>
<time>2019-09-29T09:24:00Z</time>
</trkpt>
<trkpt lat="48.670643" lon="10.039818">
<ele>538</ele>
<time>2019-09-29T09:24:05Z</time>
</trkpt>
<trkpt lat="48.670412" lon="10.039547">
<ele>538</ele>
<time>2019-09-29T09:24:10Z</time>
</trkpt>
<trkpt lat="48.670178" lon="10.039265">
<ele>538</ele>
<time>2019-09-29T09:24:15Z</time>
</trkpt>
<trkpt lat="48.669943" lon="10.038982">
<ele>538</ele>
<time>2019-09-29T09:24:20Z</time>
</trkpt>
<trkpt lat="48.669718" lon="10.038702">
<ele>538</ele>
<time>2019-09-29T09:24:25Z</time>
</trkpt>
<trkpt lat="48.669498" lon="10.038418">
<ele>538</ele>
<time>2019-09-29T09:24:30Z</time>
</trkpt>
<trkpt lat="48.669302" lon="10.038112">
<ele>539</ele>
<time>2019-09-29T09:24:35Z</time>
</trkpt>
<trkpt lat="48.669107" lon="10.037788">
<ele>540</ele>
<time>2019-09-29T09:24:40Z</time>
</trkpt>
<trkpt lat="48.668915" lon="10.037462">
<ele>540</ele>
<time>2019-09-29T09:24:45Z</time>
</trkpt>
<trkpt lat="48.66872" lon="10.037138">
<ele>540</ele>
<time>2019-09-29T09:24:50Z</time>
</trkpt>
<trkpt lat="48.668537" lon="10.03683">
<ele>540</ele>
<time>2019-09-29T09:24:55Z</time>
</trkpt>
<trkpt lat="48.668387" lon="10.036585">
<ele>540</ele>
<time>2019-09-29T09:25:00Z</time>
</trkpt>
<trkpt lat="48.668193" lon="10.036415">
<ele>540</ele>
<time>2019-09-29T09:25:05Z</time>
</trkpt>
<trkpt lat="48.668025" lon="10.036123">
<ele>541</ele>
<time>2019-09-29T09:25:10Z</time>
</trkpt>
<trkpt lat="48.66788" lon="10.035815">
<ele>541</ele>
<time>2019-09-29T09:25:15Z</time>
</trkpt>
<trkpt lat="48.667752" lon="10.035493">
<ele>541</ele>
<time>2019-09-29T09:25:20Z</time>
</trkpt>
<trkpt lat="48.667573" lon="10.035247">
<ele>542</ele>
<time>2019-09-29T09:25:25Z</time>
</trkpt>
<trkpt lat="48.667343" lon="10.03536">
<ele>542</ele>
<time>2019-09-29T09:25:30Z</time>
</trkpt>
<trkpt lat="48.66708" lon="10.035478">
<ele>542</ele>
<time>2019-09-29T09:25:35Z</time>
</trkpt>
<trkpt lat="48.666838" lon="10.035528">
<ele>542</ele>
<time>2019-09-29T09:25:40Z</time>
</trkpt>
<trkpt lat="48.666602" lon="10.035577">
<ele>542</ele>
<time>2019-09-29T09:25:45Z</time>
</trkpt>
<trkpt lat="48.666347" lon="10.035643">
<ele>542</ele>
<time>2019-09-29T09:25:50Z</time>
</trkpt>
<trkpt lat="48.666078" lon="10.0357">
<ele>542</ele>
<time>2019-09-29T09:25:55Z</time>
</trkpt>
<trkpt lat="48.66581" lon="10.035758">
<ele>543</ele>
<time>2019-09-29T09:26:00Z</time>
</trkpt>
<trkpt lat="48.665527" lon="10.035827">
<ele>544</ele>
<time>2019-09-29T09:26:05Z</time>
</trkpt>
<trkpt lat="48.665243" lon="10.03589">
<ele>544</ele>
<time>2019-09-29T09:26:10Z</time>
</trkpt>
<trkpt lat="48.664967" lon="10.03595">
<ele>544</ele>
<time>2019-09-29T09:26:15Z</time>
</trkpt>
<trkpt lat="48.664688" lon="10.035977">
<ele>544</ele>
<time>2019-09-29T09:26:20Z</time>
</trkpt>
<trkpt lat="48.6644" lon="10.035985">
<ele>544</ele>
<time>2019-09-29T09:26:25Z</time>
</trkpt>
<trkpt lat="48.664103" lon="10.035985">
<ele>545</ele>
<time>2019-09-29T09:26:30Z</time>
</trkpt>
<trkpt lat="48.6638" lon="10.035985">
<ele>545</ele>
<time>2019-09-29T09:26:35Z</time>
</trkpt>
<trkpt lat="48.663497" lon="10.035985">
<ele>545</ele>
<time>2019-09-29T09:26:40Z</time>
</trkpt>
<trkpt lat="48.663195" lon="10.035987">
<ele>545</ele>
<time>2019-09-29T09:26:45Z</time>
</trkpt>
<trkpt lat="48.662908" lon="10.035998">
<ele>546</ele>
<time>2019-09-29T09:26:50Z</time>
</trkpt>
<trkpt lat="48.662622" lon="10.035998">
<ele>546</ele>
<time>2019-09-29T09:26:55Z</time>
</trkpt>
<trkpt lat="48.662333" lon="10.035997">
<ele>547</ele>
<time>2019-09-29T09:27:00Z</time>
</trkpt>
<trkpt lat="48.662048" lon="10.03599">
<ele>548</ele>
<time>2019-09-29T09:27:05Z</time>
</trkpt>
<trkpt lat="48.66177" lon="10.036015">
<ele>548</ele>
<time>2019-09-29T09:27:10Z</time>
</trkpt>
<trkpt lat="48.661492" lon="10.036065">
<ele>549</ele>
<time>2019-09-29T09:27:15Z</time>
</trkpt>
<trkpt lat="48.661213" lon="10.036133">
<ele>549</ele>
<time>2019-09-29T09:27:20Z</time>
</trkpt>
<trkpt lat="48.660942" lon="10.036205">
<ele>550</ele>
<time>2019-09-29T09:27:25Z</time>
</trkpt>
<trkpt lat="48.660668" lon="10.03625">
<ele>550</ele>
<time>2019-09-29T09:27:30Z</time>
</trkpt>
<trkpt lat="48.66039" lon="10.036243">
<ele>551</ele>
<time>2019-09-29T09:27:35Z</time>
</trkpt>
<trkpt lat="48.660118" lon="10.036187">
<ele>551</ele>
<time>2019-09-29T09:27:40Z</time>
</trkpt>
<trkpt lat="48.659865" lon="10.036062">
<ele>552</ele>
<time>2019-09-29T09:27:45Z</time>
</trkpt>
<trkpt lat="48.659617" lon="10.035887">
<ele>552</ele>
<time>2019-09-29T09:27:50Z</time>
</trkpt>
<trkpt lat="48.659388" lon="10.035668">
<ele>553</ele>
<time>2019-09-29T09:27:55Z</time>
</trkpt>
<trkpt lat="48.659218" lon="10.035355">
<ele>554</ele>
<time>2019-09-29T09:28:00Z</time>
</trkpt>
<trkpt lat="48.65913" lon="10.034947">
<ele>554</ele>
<time>2019-09-29T09:28:05Z</time>
</trkpt>
<trkpt lat="48.65909" lon="10.034527">
<ele>555</ele>
<time>2019-09-29T09:28:10Z</time>
</trkpt>
<trkpt lat="48.65907" lon="10.034107">
<ele>555</ele>
<time>2019-09-29T09:28:15Z</time>
</trkpt>
<trkpt lat="48.659053" lon="10.033702">
<ele>556</ele>
<time>2019-09-29T09:28:20Z</time>
</trkpt>
<trkpt lat="48.65903" lon="10.033295">
<ele>556</ele>
<time>2019-09-29T09:28:25Z</time>
</trkpt>
<trkpt lat="48.659018" lon="10.032875">
<ele>557</ele>
<time>2019-09-29T09:28:30Z</time>
</trkpt>
<trkpt lat="48.65899" lon="10.032435">
<ele>557</ele>
<time>2019-09-29T09:28:35Z</time>
</trkpt>
<trkpt lat="48.658963" lon="10.032027">
<ele>558</ele>
<time>2019-09-29T09:28:40Z</time>
</trkpt>
<trkpt lat="48.658938" lon="10.03161">
<ele>558</ele>
<time>2019-09-29T09:28:45Z</time>
</trkpt>
<trkpt lat="48.658917" lon="10.031193">
<ele>558</ele>
<time>2019-09-29T09:28:50Z</time>
</trkpt>
<trkpt lat="48.6589" lon="10.030783">
<ele>559</ele>
<time>2019-09-29T09:28:55Z</time>
</trkpt>
<trkpt lat="48.658883" lon="10.03035">
<ele>559</ele>
<time>2019-09-29T09:29:00Z</time>
</trkpt>
<trkpt lat="48.658862" lon="10.029922">
<ele>560</ele>
<time>2019-09-29T09:29:05Z</time>
</trkpt>
<trkpt lat="48.658808" lon="10.029503">
<ele>560</ele>
<time>2019-09-29T09:29:10Z</time>
</trkpt>
<trkpt lat="48.658738" lon="10.029077">
<ele>561</ele>
<time>2019-09-29T09:29:15Z</time>
</trkpt>
<trkpt lat="48.65867" lon="10.028642">
<ele>561</ele>
<time>2019-09-29T09:29:20Z</time>
</trkpt>
<trkpt lat="48.658608" lon="10.028222">
<ele>561</ele>
<time>2019-09-29T09:29:25Z</time>
</trkpt>
<trkpt lat="48.658535" lon="10.027787">
<ele>561</ele>
<time>2019-09-29T09:29:30Z</time>
</trkpt>
<trkpt lat="48.65846" lon="10.027347">
<ele>562</ele>
<time>2019-09-29T09:29:35Z</time>
</trkpt>
<trkpt lat="48.658387" lon="10.026918">
<ele>562</ele>
<time>2019-09-29T09:29:40Z</time>
</trkpt>
<trkpt lat="48.65833" lon="10.026507">
<ele>562</ele>
<time>2019-09-29T09:29:45Z</time>
</trkpt>
<trkpt lat="48.658327" lon="10.026068">
<ele>562</ele>
<time>2019-09-29T09:29:50Z</time>
</trkpt>
<trkpt lat="48.658327" lon="10.025665">
<ele>563</ele>
<time>2019-09-29T09:29:55Z</time>
</trkpt>
<trkpt lat="48.65829" lon="10.025255">
<ele>563</ele>
<time>2019-09-29T09:30:00Z</time>
</trkpt>
<trkpt lat="48.65821" lon="10.024848">
<ele>564</ele>
<time>2019-09-29T09:30:05Z</time>
</trkpt>
<trkpt lat="48.658078" lon="10.024488">
<ele>564</ele>
<time>2019-09-29T09:30:10Z</time>
</trkpt>
<trkpt lat="48.657932" lon="10.02415">
<ele>565</ele>
<time>2019-09-29T09:30:15Z</time>
</trkpt>
<trkpt lat="48.657767" lon="10.023833">
<ele>565</ele>
<time>2019-09-29T09:30:20Z</time>
</trkpt>
<trkpt lat="48.657588" lon="10.023525">
<ele>565</ele>
<time>2019-09-29T09:30:25Z</time>
</trkpt>
<trkpt lat="48.6574" lon="10.02321">
<ele>565</ele>
<time>2019-09-29T09:30:30Z</time>
</trkpt>
<trkpt lat="48.657207" lon="10.022895">
<ele>566</ele>
<time>2019-09-29T09:30:35Z</time>
</trkpt>
<trkpt lat="48.657007" lon="10.022585">
<ele>567</ele>
<time>2019-09-29T09:30:40Z</time>
</trkpt>
<trkpt lat="48.656812" lon="10.022283">
<ele>567</ele>
<time>2019-09-29T09:30:45Z</time>
</trkpt>
<trkpt lat="48.6566" lon="10.021998">
<ele>567</ele>
<time>2019-09-29T09:30:50Z</time>
</trkpt>
<trkpt lat="48.656367" lon="10.021763">
<ele>567</ele>
<time>2019-09-29T09:30:55Z</time>
</trkpt>
<trkpt lat="48.656115" lon="10.021532">
<ele>567</ele>
<time>2019-09-29T09:31:00Z</time>
</trkpt>
<trkpt lat="48.655868" lon="10.021288">
<ele>568</ele>
<time>2019-09-29T09:31:05Z</time>
</trkpt>
<trkpt lat="48.655645" lon="10.021028">
<ele>568</ele>
<time>2019-09-29T09:31:10Z</time>
</trkpt>
<trkpt lat="48.655408" lon="10.020803">
<ele>569</ele>
<time>2019-09-29T09:31:15Z</time>
</trkpt>
<trkpt lat="48.655172" lon="10.020567">
<ele>569</ele>
<time>2019-09-29T09:31:20Z</time>
</trkpt>
<trkpt lat="48.654917" lon="10.020305">
<ele>569</ele>
<time>2019-09-29T09:31:25Z</time>
</trkpt>
<trkpt lat="48.6547" lon="10.019998">
<ele>570</ele>
<time>2019-09-29T09:31:30Z</time>
</trkpt>
<trkpt lat="48.654533" lon="10.019637">
<ele>570</ele>
<time>2019-09-29T09:31:35Z</time>
</trkpt>
<trkpt lat="48.654405" lon="10.019243">
<ele>571</ele>
<time>2019-09-29T09:31:40Z</time>
</trkpt>
<trkpt lat="48.654257" lon="10.01886">
<ele>571</ele>
<time>2019-09-29T09:31:45Z</time>
</trkpt>
<trkpt lat="48.654083" lon="10.018515">
<ele>571</ele>
<time>2019-09-29T09:31:50Z</time>
</trkpt>
<trkpt lat="48.653902" lon="10.018172">
<ele>571</ele>
<time>2019-09-29T09:31:55Z</time>
</trkpt>
<trkpt lat="48.653718" lon="10.017818">
<ele>572</ele>
<time>2019-09-29T09:32:00Z</time>
</trkpt>
<trkpt lat="48.653555" lon="10.017452">
<ele>572</ele>
<time>2019-09-29T09:32:05Z</time>
</trkpt>
<trkpt lat="48.653403" lon="10.017077">
<ele>572</ele>
<time>2019-09-29T09:32:10Z</time>
</trkpt>
<trkpt lat="48.653252" lon="10.016702">
<ele>572</ele>
<time>2019-09-29T09:32:15Z</time>
</trkpt>
<trkpt lat="48.653105" lon="10.016335">
<ele>572</ele>
<time>2019-09-29T09:32:20Z</time>
</trkpt>
<trkpt lat="48.652962" lon="10.015972">
<ele>573</ele>
<time>2019-09-29T09:32:25Z</time>
</trkpt>
<trkpt lat="48.65282" lon="10.015617">
<ele>573</ele>
<time>2019-09-29T09:32:30Z</time>
</trkpt>
<trkpt lat="48.652685" lon="10.015272">
<ele>573</ele>
<time>2019-09-29T09:32:35Z</time>
</trkpt>
<trkpt lat="48.652545" lon="10.014943">
<ele>574</ele>
<time>2019-09-29T09:32:40Z</time>
</trkpt>
<trkpt lat="48.652373" lon="10.014685">
<ele>574</ele>
<time>2019-09-29T09:32:45Z</time>
</trkpt>
<trkpt lat="48.652148" lon="10.01452">
<ele>575</ele>
<time>2019-09-29T09:32:50Z</time>
</trkpt>
<trkpt lat="48.651907" lon="10.01437">
<ele>575</ele>
<time>2019-09-29T09:32:55Z</time>
</trkpt>
<trkpt lat="48.651663" lon="10.014197">
<ele>576</ele>
<time>2019-09-29T09:33:00Z</time>
</trkpt>
<trkpt lat="48.651455" lon="10.013942">
<ele>576</ele>
<time>2019-09-29T09:33:05Z</time>
</trkpt>
<trkpt lat="48.651295" lon="10.01362">
<ele>577</ele>
<time>2019-09-29T09:33:10Z</time>
</trkpt>
<trkpt lat="48.651142" lon="10.013273">
<ele>578</ele>
<time>2019-09-29T09:33:15Z</time>
</trkpt>
<trkpt lat="48.650988" lon="10.01294">
<ele>578</ele>
<time>2019-09-29T09:33:20Z</time>
</trkpt>
<trkpt lat="48.65084" lon="10.012605">
<ele>579</ele>
<time>2019-09-29T09:33:25Z</time>
</trkpt>
<trkpt lat="48.650703" lon="10.012252">
<ele>579</ele>
<time>2019-09-29T09:33:30Z</time>
</trkpt>
<trkpt lat="48.650618" lon="10.01187">
<ele>580</ele>
<time>2019-09-29T09:33:35Z</time>
</trkpt>
<trkpt lat="48.650502" lon="10.011505">
<ele>580</ele>
<time>2019-09-29T09:33:41Z</time>
</trkpt>
<trkpt lat="48.65031" lon="10.011142">
<ele>580</ele>
<time>2019-09-29T09:33:46Z</time>
</trkpt>
<trkpt lat="48.650102" lon="10.010893">
<ele>581</ele>
<time>2019-09-29T09:33:51Z</time>
</trkpt>
<trkpt lat="48.649872" lon="10.010687">
<ele>581</ele>
<time>2019-09-29T09:33:56Z</time>
</trkpt>
<trkpt lat="48.649622" lon="10.010482">
<ele>581</ele>
<time>2019-09-29T09:34:01Z</time>
</trkpt>
<trkpt lat="48.649367" lon="10.010292">
<ele>582</ele>
<time>2019-09-29T09:34:06Z</time>
</trkpt>
<trkpt lat="48.649105" lon="10.01012">
<ele>582</ele>
<time>2019-09-29T09:34:11Z</time>
</trkpt>
<trkpt lat="48.648832" lon="10.009967">
<ele>582</ele>
<time>2019-09-29T09:34:16Z</time>
</trkpt>
<trkpt lat="48.648585" lon="10.009807">
<ele>582</ele>
<time>2019-09-29T09:34:21Z</time>
</trkpt>
<trkpt lat="48.648363" lon="10.009637">
<ele>583</ele>
<time>2019-09-29T09:34:26Z</time>
</trkpt>
<trkpt lat="48.648148" lon="10.009425">
<ele>584</ele>
<time>2019-09-29T09:34:31Z</time>
</trkpt>
<trkpt lat="48.647933" lon="10.00919">
<ele>584</ele>
<time>2019-09-29T09:34:36Z</time>
</trkpt>
<trkpt lat="48.647732" lon="10.008933">
<ele>584</ele>
<time>2019-09-29T09:34:41Z</time>
</trkpt>
<trkpt lat="48.647533" lon="10.00867">
<ele>584</ele>
<time>2019-09-29T09:34:46Z</time>
</trkpt>
<trkpt lat="48.647305" lon="10.008477">
<ele>584</ele>
<time>2019-09-29T09:34:51Z</time>
</trkpt>
<trkpt lat="48.647057" lon="10.008375">
<ele>584</ele>
<time>2019-09-29T09:34:56Z</time>
</trkpt>
<trkpt lat="48.6468" lon="10.0083">
<ele>585</ele>
<time>2019-09-29T09:35:01Z</time>
</trkpt>
<trkpt lat="48.646558" lon="10.008178">
<ele>585</ele>
<time>2019-09-29T09:35:06Z</time>
</trkpt>
<trkpt lat="48.646327" lon="10.008035">
<ele>586</ele>
<time>2019-09-29T09:35:11Z</time>
</trkpt>
<trkpt lat="48.646113" lon="10.007877">
<ele>586</ele>
<time>2019-09-29T09:35:16Z</time>
</trkpt>
<trkpt lat="48.645907" lon="10.007703">
<ele>586</ele>
<time>2019-09-29T09:35:21Z</time>
</trkpt>
<trkpt lat="48.6457" lon="10.007487">
<ele>586</ele>
<time>2019-09-29T09:35:26Z</time>
</trkpt>
<trkpt lat="48.645502" lon="10.007257">
<ele>586</ele>
<time>2019-09-29T09:35:31Z</time>
</trkpt>
<trkpt lat="48.645307" lon="10.007017">
<ele>586</ele>
<time>2019-09-29T09:35:36Z</time>
</trkpt>
<trkpt lat="48.645107" lon="10.00677">
<ele>586</ele>
<time>2019-09-29T09:35:41Z</time>
</trkpt>
<trkpt lat="48.644917" lon="10.006498">
<ele>587</ele>
<time>2019-09-29T09:35:46Z</time>
</trkpt>
<trkpt lat="48.64476" lon="10.006198">
<ele>587</ele>
<time>2019-09-29T09:35:52Z</time>
</trkpt>
<trkpt lat="48.644578" lon="10.005838">
<ele>587</ele>
<time>2019-09-29T09:35:57Z</time>
</trkpt>
<trkpt lat="48.644428" lon="10.005528">
<ele>588</ele>
<time>2019-09-29T09:36:02Z</time>
</trkpt>
<trkpt lat="48.64428" lon="10.005205">
<ele>589</ele>
<time>2019-09-29T09:36:08Z</time>
</trkpt>
<trkpt lat="48.64412" lon="10.004813">
<ele>589</ele>
<time>2019-09-29T09:36:13Z</time>
</trkpt>
<trkpt lat="48.643998" lon="10.00448">
<ele>589</ele>
<time>2019-09-29T09:36:18Z</time>
</trkpt>
<trkpt lat="48.643857" lon="10.00416">
<ele>590</ele>
<time>2019-09-29T09:36:23Z</time>
</trkpt>
<trkpt lat="48.643678" lon="10.0039">
<ele>590</ele>
<time>2019-09-29T09:36:28Z</time>
</trkpt>
<trkpt lat="48.643452" lon="10.003717">
<ele>590</ele>
<time>2019-09-29T09:36:33Z</time>
</trkpt>
<trkpt lat="48.643203" lon="10.003617">
<ele>590</ele>
<time>2019-09-29T09:36:38Z</time>
</trkpt>
<trkpt lat="48.642947" lon="10.003643">
<ele>591</ele>
<time>2019-09-29T09:36:43Z</time>
</trkpt>
<trkpt lat="48.642688" lon="10.003708">
<ele>591</ele>
<time>2019-09-29T09:36:48Z</time>
</trkpt>
<trkpt lat="48.642427" lon="10.003785">
<ele>591</ele>
<time>2019-09-29T09:36:53Z</time>
</trkpt>
<trkpt lat="48.642182" lon="10.003862">
<ele>591</ele>
<time>2019-09-29T09:36:58Z</time>
</trkpt>
<trkpt lat="48.641933" lon="10.003897">
<ele>592</ele>
<time>2019-09-29T09:37:03Z</time>
</trkpt>
<trkpt lat="48.641697" lon="10.003878">
<ele>592</ele>
<time>2019-09-29T09:37:08Z</time>
</trkpt>
<trkpt lat="48.641457" lon="10.003838">
<ele>592</ele>
<time>2019-09-29T09:37:13Z</time>
</trkpt>
<trkpt lat="48.641225" lon="10.003792">
<ele>593</ele>
<time>2019-09-29T09:37:18Z</time>
</trkpt>
<trkpt lat="48.641002" lon="10.00374">
<ele>594</ele>
<time>2019-09-29T09:37:23Z</time>
</trkpt>
<trkpt lat="48.64078" lon="10.003675">
<ele>594</ele>
<time>2019-09-29T09:37:28Z</time>
</trkpt>
<trkpt lat="48.64059" lon="10.003555">
<ele>595</ele>
<time>2019-09-29T09:37:33Z</time>
</trkpt>
<trkpt lat="48.640393" lon="10.003523">
<ele>596</ele>
<time>2019-09-29T09:37:38Z</time>
</trkpt>
<trkpt lat="48.640245" lon="10.0037">
<ele>596</ele>
<time>2019-09-29T09:37:43Z</time>
</trkpt>
<trkpt lat="48.640193" lon="10.004055">
<ele>597</ele>
<time>2019-09-29T09:37:48Z</time>
</trkpt>
<trkpt lat="48.640075" lon="10.004395">
<ele>597</ele>
<time>2019-09-29T09:37:53Z</time>
</trkpt>
<trkpt lat="48.639825" lon="10.004518">
<ele>597</ele>
<time>2019-09-29T09:37:58Z</time>
</trkpt>
<trkpt lat="48.639578" lon="10.004522">
<ele>598</ele>
<time>2019-09-29T09:38:03Z</time>
</trkpt>
<trkpt lat="48.639367" lon="10.004652">
<ele>598</ele>
<time>2019-09-29T09:38:08Z</time>
</trkpt>
<trkpt lat="48.639277" lon="10.004973">
<ele>598</ele>
<time>2019-09-29T09:38:13Z</time>
</trkpt>
<trkpt lat="48.639253" lon="10.005338">
<ele>598</ele>
<time>2019-09-29T09:38:18Z</time>
</trkpt>
<trkpt lat="48.63924" lon="10.0057">
<ele>598</ele>
<time>2019-09-29T09:38:23Z</time>
</trkpt>
<trkpt lat="48.639225" lon="10.006043">
<ele>598</ele>
<time>2019-09-29T09:38:28Z</time>
</trkpt>
<trkpt lat="48.639202" lon="10.006393">
<ele>598</ele>
<time>2019-09-29T09:38:33Z</time>
</trkpt>
<trkpt lat="48.639165" lon="10.006745">
<ele>598</ele>
<time>2019-09-29T09:38:38Z</time>
</trkpt>
<trkpt lat="48.639125" lon="10.007087">
<ele>599</ele>
<time>2019-09-29T09:38:43Z</time>
</trkpt>
<trkpt lat="48.639077" lon="10.00742">
<ele>599</ele>
<time>2019-09-29T09:38:48Z</time>
</trkpt>
<trkpt lat="48.639025" lon="10.007745">
<ele>599</ele>
<time>2019-09-29T09:38:53Z</time>
</trkpt>
<trkpt lat="48.638968" lon="10.008068">
<ele>600</ele>
<time>2019-09-29T09:38:58Z</time>
</trkpt>
<trkpt lat="48.638913" lon="10.008383">
<ele>600</ele>
<time>2019-09-29T09:39:03Z</time>
</trkpt>
<trkpt lat="48.63886" lon="10.00868">
<ele>601</ele>
<time>2019-09-29T09:39:08Z</time>
</trkpt>
<trkpt lat="48.638817" lon="10.00895">
<ele>602</ele>
<time>2019-09-29T09:39:13Z</time>
</trkpt>
<trkpt lat="48.638762" lon="10.009177">
<ele>603</ele>
<time>2019-09-29T09:39:18Z</time>
</trkpt>
<trkpt lat="48.638692" lon="10.00938">
<ele>604</ele>
<time>2019-09-29T09:39:23Z</time>
</trkpt>
<trkpt lat="48.638598" lon="10.009568">
<ele>605</ele>
<time>2019-09-29T09:39:28Z</time>
</trkpt>
<trkpt lat="48.638493" lon="10.009735">
<ele>606</ele>
<time>2019-09-29T09:39:33Z</time>
</trkpt>
<trkpt lat="48.638383" lon="10.009893">
<ele>607</ele>
<time>2019-09-29T09:39:38Z</time>
</trkpt>
<trkpt lat="48.638268" lon="10.01005">
<ele>608</ele>
<time>2019-09-29T09:39:43Z</time>
</trkpt>
<trkpt lat="48.638147" lon="10.010193">
<ele>609</ele>
<time>2019-09-29T09:39:48Z</time>
</trkpt>
<trkpt lat="48.638023" lon="10.010335">
<ele>609</ele>
<time>2019-09-29T09:39:53Z</time>
</trkpt>
<trkpt lat="48.637897" lon="10.010478">
<ele>610</ele>
<time>2019-09-29T09:39:58Z</time>
</trkpt>
<trkpt lat="48.637777" lon="10.010625">
<ele>610</ele>
<time>2019-09-29T09:40:03Z</time>
</trkpt>
<trkpt lat="48.637655" lon="10.010773">
<ele>611</ele>
<time>2019-09-29T09:40:08Z</time>
</trkpt>
<trkpt lat="48.63754" lon="10.010912">
<ele>612</ele>
<time>2019-09-29T09:40:13Z</time>
</trkpt>
<trkpt lat="48.637428" lon="10.01105">
<ele>613</ele>
<time>2019-09-29T09:40:18Z</time>
</trkpt>
<trkpt lat="48.637322" lon="10.011172">
<ele>614</ele>
<time>2019-09-29T09:40:23Z</time>
</trkpt>
<trkpt lat="48.637222" lon="10.011288">
<ele>615</ele>
<time>2019-09-29T09:40:28Z</time>
</trkpt>
<trkpt lat="48.637117" lon="10.011403">
<ele>616</ele>
<time>2019-09-29T09:40:33Z</time>
</trkpt>
<trkpt lat="48.637022" lon="10.01151">
<ele>617</ele>
<time>2019-09-29T09:40:38Z</time>
</trkpt>
<trkpt lat="48.636922" lon="10.011613">
<ele>619</ele>
<time>2019-09-29T09:40:43Z</time>
</trkpt>
<trkpt lat="48.636818" lon="10.011717">
<ele>620</ele>
<time>2019-09-29T09:40:48Z</time>
</trkpt>
<trkpt lat="48.636712" lon="10.01183">
<ele>621</ele>
<time>2019-09-29T09:40:53Z</time>
</trkpt>
<trkpt lat="48.636613" lon="10.01194">
<ele>622</ele>
<time>2019-09-29T09:40:58Z</time>
</trkpt>
<trkpt lat="48.636523" lon="10.012063">
<ele>623</ele>
<time>2019-09-29T09:41:03Z</time>
</trkpt>
<trkpt lat="48.636422" lon="10.012207">
<ele>624</ele>
<time>2019-09-29T09:41:08Z</time>
</trkpt>
<trkpt lat="48.636317" lon="10.012365">
<ele>625</ele>
<time>2019-09-29T09:41:13Z</time>
</trkpt>
<trkpt lat="48.636208" lon="10.01254">
<ele>626</ele>
<time>2019-09-29T09:41:18Z</time>
</trkpt>
<trkpt lat="48.636098" lon="10.01273">
<ele>626</ele>
<time>2019-09-29T09:41:23Z</time>
</trkpt>
<trkpt lat="48.635985" lon="10.012943">
<ele>627</ele>
<time>2019-09-29T09:41:28Z</time>
</trkpt>
<trkpt lat="48.635883" lon="10.01317">
<ele>627</ele>
<time>2019-09-29T09:41:33Z</time>
</trkpt>
<trkpt lat="48.635782" lon="10.013402">
<ele>628</ele>
<time>2019-09-29T09:41:38Z</time>
</trkpt>
<trkpt lat="48.635672" lon="10.01366">
<ele>629</ele>
<time>2019-09-29T09:41:44Z</time>
</trkpt>
<trkpt lat="48.635523" lon="10.013968">
<ele>629</ele>
<time>2019-09-29T09:41:49Z</time>
</trkpt>
<trkpt lat="48.635383" lon="10.014195">
<ele>630</ele>
<time>2019-09-29T09:41:54Z</time>
</trkpt>
<trkpt lat="48.635238" lon="10.014388">
<ele>630</ele>
<time>2019-09-29T09:41:59Z</time>
</trkpt>
<trkpt lat="48.635108" lon="10.014543">
<ele>631</ele>
<time>2019-09-29T09:42:04Z</time>
</trkpt>
<trkpt lat="48.634958" lon="10.014658">
<ele>633</ele>
<time>2019-09-29T09:42:10Z</time>
</trkpt>
<trkpt lat="48.634772" lon="10.014775">
<ele>634</ele>
<time>2019-09-29T09:42:15Z</time>
</trkpt>
<trkpt lat="48.63461" lon="10.014843">
<ele>636</ele>
<time>2019-09-29T09:42:20Z</time>
</trkpt>
<trkpt lat="48.63445" lon="10.01491">
<ele>637</ele>
<time>2019-09-29T09:42:25Z</time>
</trkpt>
<trkpt lat="48.634293" lon="10.014947">
<ele>638</ele>
<time>2019-09-29T09:42:31Z</time>
</trkpt>
<trkpt lat="48.634077" lon="10.01497">
<ele>640</ele>
<time>2019-09-29T09:42:36Z</time>
</trkpt>
<trkpt lat="48.63389" lon="10.014968">
<ele>640</ele>
<time>2019-09-29T09:42:41Z</time>
</trkpt>
<trkpt lat="48.633688" lon="10.014968">
<ele>641</ele>
<time>2019-09-29T09:42:46Z</time>
</trkpt>
<trkpt lat="48.633472" lon="10.01499">
<ele>641</ele>
<time>2019-09-29T09:42:51Z</time>
</trkpt>
<trkpt lat="48.633233" lon="10.01503">
<ele>641</ele>
<time>2019-09-29T09:42:56Z</time>
</trkpt>
<trkpt lat="48.632968" lon="10.015082">
<ele>641</ele>
<time>2019-09-29T09:43:01Z</time>
</trkpt>
<trkpt lat="48.632695" lon="10.01515">
<ele>641</ele>
<time>2019-09-29T09:43:06Z</time>
</trkpt>
<trkpt lat="48.63242" lon="10.015235">
<ele>641</ele>
<time>2019-09-29T09:43:11Z</time>
</trkpt>
<trkpt lat="48.632163" lon="10.01531">
<ele>641</ele>
<time>2019-09-29T09:43:16Z</time>
</trkpt>
<trkpt lat="48.631897" lon="10.015398">
<ele>641</ele>
<time>2019-09-29T09:43:21Z</time>
</trkpt>
<trkpt lat="48.6316" lon="10.015488">
<ele>641</ele>
<time>2019-09-29T09:43:26Z</time>
</trkpt>
<trkpt lat="48.63125" lon="10.015593">
<ele>640</ele>
<time>2019-09-29T09:43:31Z</time>
</trkpt>
<trkpt lat="48.630892" lon="10.015683">
<ele>638</ele>
<time>2019-09-29T09:43:36Z</time>
</trkpt>
<trkpt lat="48.630537" lon="10.015793">
<ele>636</ele>
<time>2019-09-29T09:43:41Z</time>
</trkpt>
<trkpt lat="48.630198" lon="10.015908">
<ele>635</ele>
<time>2019-09-29T09:43:46Z</time>
</trkpt>
<trkpt lat="48.629882" lon="10.01602">
<ele>635</ele>
<time>2019-09-29T09:43:52Z</time>
</trkpt>
<trkpt lat="48.629515" lon="10.016075">
<ele>634</ele>
<time>2019-09-29T09:43:57Z</time>
</trkpt>
<trkpt lat="48.629285" lon="10.015988">
<ele>633</ele>
<time>2019-09-29T09:44:02Z</time>
</trkpt>
<trkpt lat="48.629085" lon="10.016053">
<ele>633</ele>
<time>2019-09-29T09:44:07Z</time>
</trkpt>
<trkpt lat="48.629015" lon="10.016422">
<ele>633</ele>
<time>2019-09-29T09:44:12Z</time>
</trkpt>
<trkpt lat="48.628753" lon="10.016525">
<ele>633</ele>
<time>2019-09-29T09:44:17Z</time>
</trkpt>
<trkpt lat="48.62846" lon="10.016587">
<ele>633</ele>
<time>2019-09-29T09:44:22Z</time>
</trkpt>
<trkpt lat="48.628213" lon="10.016668">
<ele>633</ele>
<time>2019-09-29T09:44:27Z</time>
</trkpt>
<trkpt lat="48.628005" lon="10.01677">
<ele>635</ele>
<time>2019-09-29T09:44:32Z</time>
</trkpt>
<trkpt lat="48.627805" lon="10.016898">
<ele>636</ele>
<time>2019-09-29T09:44:37Z</time>
</trkpt>
<trkpt lat="48.627623" lon="10.017058">
<ele>637</ele>
<time>2019-09-29T09:44:42Z</time>
</trkpt>
<trkpt lat="48.627452" lon="10.017253">
<ele>638</ele>
<time>2019-09-29T09:44:47Z</time>
</trkpt>
<trkpt lat="48.627292" lon="10.017455">
<ele>639</ele>
<time>2019-09-29T09:44:52Z</time>
</trkpt>
<trkpt lat="48.627153" lon="10.017668">
<ele>640</ele>
<time>2019-09-29T09:44:57Z</time>
</trkpt>
<trkpt lat="48.62703" lon="10.01792">
<ele>640</ele>
<time>2019-09-29T09:45:02Z</time>
</trkpt>
<trkpt lat="48.626907" lon="10.018225">
<ele>641</ele>
<time>2019-09-29T09:45:07Z</time>
</trkpt>
<trkpt lat="48.626773" lon="10.018577">
<ele>641</ele>
<time>2019-09-29T09:45:12Z</time>
</trkpt>
<trkpt lat="48.626608" lon="10.018975">
<ele>640</ele>
<time>2019-09-29T09:45:17Z</time>
</trkpt>
<trkpt lat="48.626455" lon="10.019383">
<ele>639</ele>
<time>2019-09-29T09:45:22Z</time>
</trkpt>
<trkpt lat="48.62632" lon="10.019735">
<ele>639</ele>
<time>2019-09-29T09:45:28Z</time>
</trkpt>
<trkpt lat="48.626185" lon="10.020083">
<ele>639</ele>
<time>2019-09-29T09:45:33Z</time>
</trkpt>
<trkpt lat="48.626065" lon="10.020285">
<ele>639</ele>
<time>2019-09-29T09:45:38Z</time>
</trkpt>
<trkpt lat="48.625873" lon="10.020333">
<ele>639</ele>
<time>2019-09-29T09:45:43Z</time>
</trkpt>
<trkpt lat="48.625663" lon="10.020217">
<ele>639</ele>
<time>2019-09-29T09:45:48Z</time>
</trkpt>
<trkpt lat="48.625413" lon="10.02006">
<ele>639</ele>
<time>2019-09-29T09:45:53Z</time>
</trkpt>
<trkpt lat="48.62512" lon="10.019872">
<ele>639</ele>
<time>2019-09-29T09:45:58Z</time>
</trkpt>
<trkpt lat="48.624818" lon="10.019663">
<ele>637</ele>
<time>2019-09-29T09:46:03Z</time>
</trkpt>
<trkpt lat="48.624545" lon="10.019635">
<ele>636</ele>
<time>2019-09-29T09:46:08Z</time>
</trkpt>
<trkpt lat="48.624287" lon="10.019763">
<ele>636</ele>
<time>2019-09-29T09:46:13Z</time>
</trkpt>
<trkpt lat="48.624018" lon="10.019868">
<ele>636</ele>
<time>2019-09-29T09:46:18Z</time>
</trkpt>
<trkpt lat="48.623813" lon="10.01995">
<ele>637</ele>
<time>2019-09-29T09:46:23Z</time>
</trkpt>
<trkpt lat="48.62367" lon="10.020002">
<ele>637</ele>
<time>2019-09-29T09:46:28Z</time>
</trkpt>
<trkpt lat="48.623507" lon="10.020045">
<ele>637</ele>
<time>2019-09-29T09:46:33Z</time>
</trkpt>
<trkpt lat="48.623323" lon="10.02016">
<ele>637</ele>
<time>2019-09-29T09:46:38Z</time>
</trkpt>
<trkpt lat="48.623128" lon="10.020367">
<ele>637</ele>
<time>2019-09-29T09:46:43Z</time>
</trkpt>
<trkpt lat="48.622925" lon="10.02055">
<ele>638</ele>
<time>2019-09-29T09:46:48Z</time>
</trkpt>
<trkpt lat="48.62273" lon="10.020742">
<ele>638</ele>
<time>2019-09-29T09:46:53Z</time>
</trkpt>
<trkpt lat="48.62253" lon="10.020908">
<ele>639</ele>
<time>2019-09-29T09:46:58Z</time>
</trkpt>
<trkpt lat="48.622292" lon="10.021122">
<ele>639</ele>
<time>2019-09-29T09:47:03Z</time>
</trkpt>
<trkpt lat="48.622033" lon="10.02134">
<ele>639</ele>
<time>2019-09-29T09:47:08Z</time>
</trkpt>
<trkpt lat="48.621793" lon="10.021587">
<ele>639</ele>
<time>2019-09-29T09:47:13Z</time>
</trkpt>
<trkpt lat="48.621577" lon="10.021765">
<ele>639</ele>
<time>2019-09-29T09:47:18Z</time>
</trkpt>
<trkpt lat="48.621368" lon="10.02188">
<ele>640</ele>
<time>2019-09-29T09:47:23Z</time>
</trkpt>
<trkpt lat="48.62117" lon="10.021922">
<ele>641</ele>
<time>2019-09-29T09:47:28Z</time>
</trkpt>
<trkpt lat="48.621027" lon="10.021968">
<ele>641</ele>
<time>2019-09-29T09:47:34Z</time>
</trkpt>
<trkpt lat="48.620863" lon="10.022173">
<ele>641</ele>
<time>2019-09-29T09:47:39Z</time>
</trkpt>
<trkpt lat="48.62072" lon="10.022367">
<ele>642</ele>
<time>2019-09-29T09:47:44Z</time>
</trkpt>
<trkpt lat="48.62058" lon="10.022533">
<ele>644</ele>
<time>2019-09-29T09:47:50Z</time>
</trkpt>
<trkpt lat="48.620388" lon="10.022697">
<ele>645</ele>
<time>2019-09-29T09:47:55Z</time>
</trkpt>
<trkpt lat="48.62022" lon="10.02284">
<ele>647</ele>
<time>2019-09-29T09:48:00Z</time>
</trkpt>
<trkpt lat="48.62003" lon="10.023007">
<ele>647</ele>
<time>2019-09-29T09:48:05Z</time>
</trkpt>
<trkpt lat="48.619822" lon="10.023172">
<ele>647</ele>
<time>2019-09-29T09:48:10Z</time>
</trkpt>
<trkpt lat="48.619577" lon="10.02335">
<ele>647</ele>
<time>2019-09-29T09:48:15Z</time>
</trkpt>
<trkpt lat="48.619282" lon="10.023562">
<ele>647</ele>
<time>2019-09-29T09:48:20Z</time>
</trkpt>
<trkpt lat="48.618995" lon="10.02379">
<ele>645</ele>
<time>2019-09-29T09:48:25Z</time>
</trkpt>
<trkpt lat="48.618727" lon="10.023988">
<ele>645</ele>
<time>2019-09-29T09:48:30Z</time>
</trkpt>
<trkpt lat="48.618495" lon="10.024118">
<ele>645</ele>
<time>2019-09-29T09:48:36Z</time>
</trkpt>
<trkpt lat="48.618398" lon="10.024162">
<ele>645</ele>
<time>2019-09-29T09:48:41Z</time>
</trkpt>
<trkpt lat="48.61836" lon="10.024188">
<ele>645</ele>
<time>2019-09-29T09:48:46Z</time>
</trkpt>
<trkpt lat="48.618362" lon="10.024188">
<ele>645</ele>
<time>2019-09-29T09:48:51Z</time>
</trkpt>
<trkpt lat="48.618333" lon="10.024223">
<ele>645</ele>
<time>2019-09-29T09:48:56Z</time>
</trkpt>
<trkpt lat="48.618347" lon="10.024298">
<ele>645</ele>
<time>2019-09-29T09:49:01Z</time>
</trkpt>
<trkpt lat="48.618363" lon="10.02434">
<ele>645</ele>
<time>2019-09-29T09:49:06Z</time>
</trkpt>
<trkpt lat="48.618365" lon="10.024338">
<ele>645</ele>
<time>2019-09-29T09:49:12Z</time>
</trkpt>
<trkpt lat="48.618363" lon="10.024338">
<ele>645</ele>
<time>2019-09-29T09:49:17Z</time>
</trkpt>
<trkpt lat="48.618365" lon="10.024338">
<ele>645</ele>
<time>2019-09-29T09:49:22Z</time>
</trkpt>
<trkpt lat="48.618363" lon="10.024338">
<ele>645</ele>
<time>2019-09-29T09:49:32Z</time>
</trkpt>
<trkpt lat="48.618363" lon="10.024337">
<ele>645</ele>
<time>2019-09-29T09:49:59Z</time>
</trkpt>
<trkpt lat="48.618362" lon="10.024337">
<ele>645</ele>
<time>2019-09-29T09:50:56Z</time>
</trkpt>
<trkpt lat="48.618362" lon="10.024335">
<ele>645</ele>
<time>2019-09-29T09:52:00Z</time>
</trkpt>
<trkpt lat="48.618362" lon="10.024337">
<ele>645</ele>
<time>2019-09-29T09:52:21Z</time>
</trkpt>
<trkpt lat="48.61836" lon="10.024335">
<ele>644</ele>
<time>2019-09-29T09:53:09Z</time>
</trkpt>
<trkpt lat="48.61836" lon="10.024337">
<ele>644</ele>
<time>2019-09-29T09:53:40Z</time>
</trkpt>
<trkpt lat="48.61836" lon="10.024335">
<ele>644</ele>
<time>2019-09-29T09:53:51Z</time>
</trkpt>
<trkpt lat="48.618358" lon="10.024335">
<ele>644</ele>
<time>2019-09-29T09:54:38Z</time>
</trkpt>
<trkpt lat="48.618358" lon="10.024333">
<ele>644</ele>
<time>2019-09-29T09:55:34Z</time>
</trkpt>
<trkpt lat="48.618357" lon="10.024333">
<ele>644</ele>
<time>2019-09-29T09:55:55Z</time>
</trkpt>
<trkpt lat="48.618357" lon="10.024332">
<ele>644</ele>
<time>2019-09-29T09:56:22Z</time>
</trkpt>
<trkpt lat="48.618357" lon="10.02433">
<ele>644</ele>
<time>2019-09-29T09:56:58Z</time>
</trkpt>
<trkpt lat="48.618357" lon="10.024328">
<ele>644</ele>
<time>2019-09-29T09:57:39Z</time>
</trkpt>
<trkpt lat="48.618362" lon="10.024328">
<ele>644</ele>
<time>2019-09-29T09:58:20Z</time>
</trkpt>
<trkpt lat="48.618368" lon="10.02433">
<ele>644</ele>
<time>2019-09-29T09:58:25Z</time>
</trkpt>
<trkpt lat="48.618368" lon="10.024333">
<ele>644</ele>
<time>2019-09-29T09:58:30Z</time>
</trkpt>
<trkpt lat="48.61837" lon="10.02433">
<ele>644</ele>
<time>2019-09-29T09:58:36Z</time>
</trkpt>
<trkpt lat="48.61837" lon="10.024328">
<ele>644</ele>
<time>2019-09-29T09:58:51Z</time>
</trkpt>
<trkpt lat="48.618385" lon="10.024237">
<ele>644</ele>
<time>2019-09-29T09:59:18Z</time>
</trkpt>
<trkpt lat="48.618377" lon="10.024168">
<ele>644</ele>
<time>2019-09-29T09:59:23Z</time>
</trkpt>
<trkpt lat="48.618358" lon="10.024152">
<ele>644</ele>
<time>2019-09-29T09:59:28Z</time>
</trkpt>
<trkpt lat="48.61828" lon="10.024118">
<ele>644</ele>
<time>2019-09-29T09:59:33Z</time>
</trkpt>
<trkpt lat="48.618115" lon="10.024178">
<ele>644</ele>
<time>2019-09-29T09:59:38Z</time>
</trkpt>
<trkpt lat="48.617875" lon="10.024268">
<ele>644</ele>
<time>2019-09-29T09:59:43Z</time>
</trkpt>
<trkpt lat="48.61759" lon="10.024398">
<ele>644</ele>
<time>2019-09-29T09:59:48Z</time>
</trkpt>
<trkpt lat="48.617293" lon="10.02452">
<ele>644</ele>
<time>2019-09-29T09:59:53Z</time>
</trkpt>
<trkpt lat="48.61699" lon="10.024607">
<ele>644</ele>
<time>2019-09-29T09:59:58Z</time>
</trkpt>
<trkpt lat="48.616688" lon="10.024695">
<ele>644</ele>
<time>2019-09-29T10:00:03Z</time>
</trkpt>
<trkpt lat="48.616312" lon="10.024795">
<ele>643</ele>
<time>2019-09-29T10:00:09Z</time>
</trkpt>
<trkpt lat="48.615938" lon="10.02484">
<ele>643</ele>
<time>2019-09-29T10:00:15Z</time>
</trkpt>
<trkpt lat="48.615612" lon="10.02487">
<ele>643</ele>
<time>2019-09-29T10:00:20Z</time>
</trkpt>
<trkpt lat="48.61527" lon="10.024903">
<ele>642</ele>
<time>2019-09-29T10:00:25Z</time>
</trkpt>
<trkpt lat="48.614862" lon="10.024942">
<ele>642</ele>
<time>2019-09-29T10:00:30Z</time>
</trkpt>
<trkpt lat="48.614518" lon="10.024987">
<ele>641</ele>
<time>2019-09-29T10:00:36Z</time>
</trkpt>
<trkpt lat="48.614085" lon="10.025035">
<ele>640</ele>
<time>2019-09-29T10:00:41Z</time>
</trkpt>
<trkpt lat="48.613727" lon="10.025067">
<ele>639</ele>
<time>2019-09-29T10:00:46Z</time>
</trkpt>
<trkpt lat="48.613365" lon="10.025102">
<ele>638</ele>
<time>2019-09-29T10:00:51Z</time>
</trkpt>
<trkpt lat="48.61301" lon="10.02519">
<ele>637</ele>
<time>2019-09-29T10:00:57Z</time>
</trkpt>
<trkpt lat="48.612642" lon="10.025297">
<ele>636</ele>
<time>2019-09-29T10:01:02Z</time>
</trkpt>
<trkpt lat="48.612275" lon="10.025417">
<ele>634</ele>
<time>2019-09-29T10:01:07Z</time>
</trkpt>
<trkpt lat="48.611897" lon="10.025522">
<ele>633</ele>
<time>2019-09-29T10:01:12Z</time>
</trkpt>
<trkpt lat="48.611507" lon="10.025667">
<ele>631</ele>
<time>2019-09-29T10:01:17Z</time>
</trkpt>
<trkpt lat="48.611023" lon="10.025958">
<ele>630</ele>
<time>2019-09-29T10:01:23Z</time>
</trkpt>
<trkpt lat="48.610568" lon="10.026558">
<ele>627</ele>
<time>2019-09-29T10:01:28Z</time>
</trkpt>
<trkpt lat="48.61025" lon="10.027198">
<ele>623</ele>
<time>2019-09-29T10:01:34Z</time>
</trkpt>
<trkpt lat="48.609998" lon="10.028063">
<ele>619</ele>
<time>2019-09-29T10:01:39Z</time>
</trkpt>
<trkpt lat="48.609877" lon="10.028808">
<ele>617</ele>
<time>2019-09-29T10:01:45Z</time>
</trkpt>
<trkpt lat="48.609685" lon="10.029492">
<ele>615</ele>
<time>2019-09-29T10:01:50Z</time>
</trkpt>
<trkpt lat="48.609128" lon="10.029637">
<ele>611</ele>
<time>2019-09-29T10:01:55Z</time>
</trkpt>
<trkpt lat="48.608833" lon="10.028957">
<ele>607</ele>
<time>2019-09-29T10:02:00Z</time>
</trkpt>
<trkpt lat="48.608708" lon="10.028055">
<ele>604</ele>
<time>2019-09-29T10:02:05Z</time>
</trkpt>
<trkpt lat="48.608572" lon="10.02711">
<ele>601</ele>
<time>2019-09-29T10:02:10Z</time>
</trkpt>
<trkpt lat="48.608335" lon="10.026192">
<ele>598</ele>
<time>2019-09-29T10:02:15Z</time>
</trkpt>
<trkpt lat="48.607977" lon="10.025417">
<ele>596</ele>
<time>2019-09-29T10:02:20Z</time>
</trkpt>
<trkpt lat="48.607728" lon="10.024605">
<ele>592</ele>
<time>2019-09-29T10:02:25Z</time>
</trkpt>
<trkpt lat="48.607542" lon="10.023743">
<ele>589</ele>
<time>2019-09-29T10:02:30Z</time>
</trkpt>
<trkpt lat="48.607228" lon="10.022975">
<ele>587</ele>
<time>2019-09-29T10:02:35Z</time>
</trkpt>
<trkpt lat="48.606752" lon="10.022442">
<ele>585</ele>
<time>2019-09-29T10:02:40Z</time>
</trkpt>
<trkpt lat="48.606208" lon="10.022117">
<ele>583</ele>
<time>2019-09-29T10:02:45Z</time>
</trkpt>
<trkpt lat="48.605693" lon="10.02195">
<ele>580</ele>
<time>2019-09-29T10:02:50Z</time>
</trkpt>
<trkpt lat="48.605177" lon="10.02212">
<ele>577</ele>
<time>2019-09-29T10:02:55Z</time>
</trkpt>
<trkpt lat="48.604763" lon="10.022753">
<ele>575</ele>
<time>2019-09-29T10:03:00Z</time>
</trkpt>
<trkpt lat="48.604352" lon="10.023298">
<ele>572</ele>
<time>2019-09-29T10:03:05Z</time>
</trkpt>
<trkpt lat="48.603935" lon="10.023747">
<ele>570</ele>
<time>2019-09-29T10:03:10Z</time>
</trkpt>
<trkpt lat="48.603498" lon="10.024125">
<ele>569</ele>
<time>2019-09-29T10:03:15Z</time>
</trkpt>
<trkpt lat="48.602987" lon="10.02408">
<ele>568</ele>
<time>2019-09-29T10:03:20Z</time>
</trkpt>
<trkpt lat="48.602567" lon="10.023665">
<ele>566</ele>
<time>2019-09-29T10:03:25Z</time>
</trkpt>
<trkpt lat="48.602108" lon="10.023295">
<ele>564</ele>
<time>2019-09-29T10:03:30Z</time>
</trkpt>
<trkpt lat="48.601593" lon="10.022985">
<ele>564</ele>
<time>2019-09-29T10:03:35Z</time>
</trkpt>
<trkpt lat="48.601095" lon="10.022828">
<ele>562</ele>
<time>2019-09-29T10:03:40Z</time>
</trkpt>
<trkpt lat="48.600553" lon="10.022773">
<ele>561</ele>
<time>2019-09-29T10:03:45Z</time>
</trkpt>
<trkpt lat="48.600015" lon="10.022852">
<ele>558</ele>
<time>2019-09-29T10:03:50Z</time>
</trkpt>
<trkpt lat="48.59953" lon="10.023058">
<ele>557</ele>
<time>2019-09-29T10:03:55Z</time>
</trkpt>
<trkpt lat="48.599128" lon="10.023353">
<ele>556</ele>
<time>2019-09-29T10:04:00Z</time>
</trkpt>
<trkpt lat="48.598743" lon="10.023715">
<ele>555</ele>
<time>2019-09-29T10:04:05Z</time>
</trkpt>
<trkpt lat="48.598367" lon="10.024098">
<ele>553</ele>
<time>2019-09-29T10:04:10Z</time>
</trkpt>
<trkpt lat="48.598017" lon="10.024622">
<ele>552</ele>
<time>2019-09-29T10:04:15Z</time>
</trkpt>
<trkpt lat="48.597762" lon="10.025162">
<ele>551</ele>
<time>2019-09-29T10:04:20Z</time>
</trkpt>
<trkpt lat="48.597512" lon="10.025682">
<ele>549</ele>
<time>2019-09-29T10:04:25Z</time>
</trkpt>
<trkpt lat="48.597228" lon="10.026203">
<ele>549</ele>
<time>2019-09-29T10:04:30Z</time>
</trkpt>
<trkpt lat="48.596992" lon="10.02676">
<ele>549</ele>
<time>2019-09-29T10:04:35Z</time>
</trkpt>
<trkpt lat="48.59684" lon="10.027322">
<ele>548</ele>
<time>2019-09-29T10:04:40Z</time>
</trkpt>
<trkpt lat="48.596698" lon="10.02789">
<ele>548</ele>
<time>2019-09-29T10:04:45Z</time>
</trkpt>
<trkpt lat="48.596533" lon="10.028428">
<ele>547</ele>
<time>2019-09-29T10:04:50Z</time>
</trkpt>
<trkpt lat="48.596378" lon="10.028942">
<ele>547</ele>
<time>2019-09-29T10:04:55Z</time>
</trkpt>
<trkpt lat="48.596183" lon="10.02943">
<ele>547</ele>
<time>2019-09-29T10:05:00Z</time>
</trkpt>
<trkpt lat="48.595937" lon="10.029807">
<ele>547</ele>
<time>2019-09-29T10:05:05Z</time>
</trkpt>
<trkpt lat="48.595632" lon="10.03008">
<ele>547</ele>
<time>2019-09-29T10:05:10Z</time>
</trkpt>
<trkpt lat="48.59533" lon="10.03028">
<ele>547</ele>
<time>2019-09-29T10:05:15Z</time>
</trkpt>
<trkpt lat="48.595055" lon="10.030523">
<ele>547</ele>
<time>2019-09-29T10:05:20Z</time>
</trkpt>
<trkpt lat="48.59485" lon="10.03079">
<ele>547</ele>
<time>2019-09-29T10:05:25Z</time>
</trkpt>
<trkpt lat="48.594692" lon="10.031073">
<ele>549</ele>
<time>2019-09-29T10:05:30Z</time>
</trkpt>
<trkpt lat="48.594582" lon="10.031327">
<ele>550</ele>
<time>2019-09-29T10:05:35Z</time>
</trkpt>
<trkpt lat="48.594477" lon="10.031565">
<ele>551</ele>
<time>2019-09-29T10:05:40Z</time>
</trkpt>
<trkpt lat="48.594387" lon="10.031793">
<ele>552</ele>
<time>2019-09-29T10:05:45Z</time>
</trkpt>
<trkpt lat="48.594293" lon="10.032017">
<ele>553</ele>
<time>2019-09-29T10:05:50Z</time>
</trkpt>
<trkpt lat="48.594193" lon="10.03223">
<ele>555</ele>
<time>2019-09-29T10:05:55Z</time>
</trkpt>
<trkpt lat="48.594078" lon="10.032433">
<ele>556</ele>
<time>2019-09-29T10:06:00Z</time>
</trkpt>
<trkpt lat="48.593952" lon="10.03263">
<ele>557</ele>
<time>2019-09-29T10:06:05Z</time>
</trkpt>
<trkpt lat="48.593823" lon="10.032805">
<ele>558</ele>
<time>2019-09-29T10:06:10Z</time>
</trkpt>
<trkpt lat="48.593662" lon="10.032973">
<ele>559</ele>
<time>2019-09-29T10:06:15Z</time>
</trkpt>
<trkpt lat="48.593538" lon="10.033088">
<ele>560</ele>
<time>2019-09-29T10:06:20Z</time>
</trkpt>
<trkpt lat="48.593402" lon="10.033217">
<ele>561</ele>
<time>2019-09-29T10:06:25Z</time>
</trkpt>
<trkpt lat="48.59326" lon="10.033335">
<ele>563</ele>
<time>2019-09-29T10:06:30Z</time>
</trkpt>
<trkpt lat="48.593118" lon="10.033462">
<ele>564</ele>
<time>2019-09-29T10:06:35Z</time>
</trkpt>
<trkpt lat="48.59299" lon="10.03357">
<ele>565</ele>
<time>2019-09-29T10:06:40Z</time>
</trkpt>
<trkpt lat="48.592862" lon="10.03367">
<ele>567</ele>
<time>2019-09-29T10:06:45Z</time>
</trkpt>
<trkpt lat="48.59274" lon="10.033798">
<ele>567</ele>
<time>2019-09-29T10:06:50Z</time>
</trkpt>
<trkpt lat="48.592618" lon="10.033913">
<ele>569</ele>
<time>2019-09-29T10:06:55Z</time>
</trkpt>
<trkpt lat="48.592518" lon="10.033983">
<ele>569</ele>
<time>2019-09-29T10:07:00Z</time>
</trkpt>
<trkpt lat="48.59241" lon="10.034072">
<ele>570</ele>
<time>2019-09-29T10:07:05Z</time>
</trkpt>
<trkpt lat="48.592295" lon="10.034147">
<ele>571</ele>
<time>2019-09-29T10:07:10Z</time>
</trkpt>
<trkpt lat="48.592162" lon="10.034215">
<ele>572</ele>
<time>2019-09-29T10:07:15Z</time>
</trkpt>
<trkpt lat="48.592013" lon="10.034288">
<ele>573</ele>
<time>2019-09-29T10:07:20Z</time>
</trkpt>
<trkpt lat="48.591902" lon="10.03434">
<ele>573</ele>
<time>2019-09-29T10:07:25Z</time>
</trkpt>
<trkpt lat="48.591777" lon="10.03436">
<ele>574</ele>
<time>2019-09-29T10:07:30Z</time>
</trkpt>
<trkpt lat="48.591642" lon="10.034375">
<ele>575</ele>
<time>2019-09-29T10:07:35Z</time>
</trkpt>
<trkpt lat="48.591502" lon="10.034412">
<ele>576</ele>
<time>2019-09-29T10:07:40Z</time>
</trkpt>
<trkpt lat="48.591353" lon="10.034438">
<ele>576</ele>
<time>2019-09-29T10:07:45Z</time>
</trkpt>
<trkpt lat="48.59121" lon="10.034478">
<ele>577</ele>
<time>2019-09-29T10:07:50Z</time>
</trkpt>
<trkpt lat="48.59108" lon="10.034478">
<ele>578</ele>
<time>2019-09-29T10:07:55Z</time>
</trkpt>
<trkpt lat="48.590978" lon="10.034497">
<ele>579</ele>
<time>2019-09-29T10:08:00Z</time>
</trkpt>
<trkpt lat="48.590927" lon="10.034487">
<ele>580</ele>
<time>2019-09-29T10:08:05Z</time>
</trkpt>
<trkpt lat="48.59092" lon="10.034488">
<ele>580</ele>
<time>2019-09-29T10:08:10Z</time>
</trkpt>
<trkpt lat="48.59092" lon="10.034487">
<ele>580</ele>
<time>2019-09-29T10:08:20Z</time>
</trkpt>
<trkpt lat="48.590915" lon="10.034492">
<ele>580</ele>
<time>2019-09-29T10:08:35Z</time>
</trkpt>
<trkpt lat="48.590858" lon="10.034533">
<ele>580</ele>
<time>2019-09-29T10:08:40Z</time>
</trkpt>
<trkpt lat="48.590742" lon="10.034535">
<ele>581</ele>
<time>2019-09-29T10:08:45Z</time>
</trkpt>
<trkpt lat="48.5906" lon="10.034545">
<ele>581</ele>
<time>2019-09-29T10:08:50Z</time>
</trkpt>
<trkpt lat="48.59046" lon="10.03457">
<ele>582</ele>
<time>2019-09-29T10:08:55Z</time>
</trkpt>
<trkpt lat="48.590313" lon="10.034593">
<ele>583</ele>
<time>2019-09-29T10:09:00Z</time>
</trkpt>
<trkpt lat="48.590182" lon="10.034617">
<ele>584</ele>
<time>2019-09-29T10:09:05Z</time>
</trkpt>
<trkpt lat="48.590042" lon="10.034625">
<ele>586</ele>
<time>2019-09-29T10:09:10Z</time>
</trkpt>
<trkpt lat="48.589893" lon="10.034658">
<ele>587</ele>
<time>2019-09-29T10:09:15Z</time>
</trkpt>
<trkpt lat="48.589737" lon="10.03472">
<ele>588</ele>
<time>2019-09-29T10:09:20Z</time>
</trkpt>
<trkpt lat="48.589585" lon="10.034788">
<ele>589</ele>
<time>2019-09-29T10:09:25Z</time>
</trkpt>
<trkpt lat="48.589438" lon="10.034868">
<ele>590</ele>
<time>2019-09-29T10:09:30Z</time>
</trkpt>
<trkpt lat="48.589292" lon="10.034967">
<ele>590</ele>
<time>2019-09-29T10:09:35Z</time>
</trkpt>
<trkpt lat="48.589142" lon="10.035083">
<ele>591</ele>
<time>2019-09-29T10:09:40Z</time>
</trkpt>
<trkpt lat="48.588995" lon="10.03521">
<ele>592</ele>
<time>2019-09-29T10:09:45Z</time>
</trkpt>
<trkpt lat="48.588848" lon="10.035363">
<ele>593</ele>
<time>2019-09-29T10:09:50Z</time>
</trkpt>
<trkpt lat="48.588707" lon="10.035548">
<ele>593</ele>
<time>2019-09-29T10:09:55Z</time>
</trkpt>
<trkpt lat="48.588572" lon="10.035767">
<ele>594</ele>
<time>2019-09-29T10:10:00Z</time>
</trkpt>
<trkpt lat="48.588443" lon="10.036017">
<ele>595</ele>
<time>2019-09-29T10:10:05Z</time>
</trkpt>
<trkpt lat="48.588302" lon="10.036277">
<ele>595</ele>
<time>2019-09-29T10:10:10Z</time>
</trkpt>
<trkpt lat="48.58816" lon="10.03653">
<ele>595</ele>
<time>2019-09-29T10:10:15Z</time>
</trkpt>
<trkpt lat="48.588007" lon="10.036778">
<ele>596</ele>
<time>2019-09-29T10:10:20Z</time>
</trkpt>
<trkpt lat="48.587813" lon="10.03695">
<ele>596</ele>
<time>2019-09-29T10:10:25Z</time>
</trkpt>
<trkpt lat="48.58761" lon="10.037032">
<ele>597</ele>
<time>2019-09-29T10:10:30Z</time>
</trkpt>
<trkpt lat="48.587403" lon="10.037108">
<ele>598</ele>
<time>2019-09-29T10:10:35Z</time>
</trkpt>
<trkpt lat="48.58722" lon="10.037227">
<ele>598</ele>
<time>2019-09-29T10:10:40Z</time>
</trkpt>
<trkpt lat="48.58708" lon="10.0374">
<ele>599</ele>
<time>2019-09-29T10:10:45Z</time>
</trkpt>
<trkpt lat="48.586948" lon="10.03768">
<ele>600</ele>
<time>2019-09-29T10:10:50Z</time>
</trkpt>
<trkpt lat="48.58688" lon="10.037998">
<ele>600</ele>
<time>2019-09-29T10:10:55Z</time>
</trkpt>
<trkpt lat="48.586842" lon="10.038328">
<ele>601</ele>
<time>2019-09-29T10:11:00Z</time>
</trkpt>
<trkpt lat="48.58683" lon="10.03866">
<ele>601</ele>
<time>2019-09-29T10:11:05Z</time>
</trkpt>
<trkpt lat="48.586808" lon="10.039003">
<ele>602</ele>
<time>2019-09-29T10:11:10Z</time>
</trkpt>
<trkpt lat="48.58678" lon="10.03935">
<ele>602</ele>
<time>2019-09-29T10:11:15Z</time>
</trkpt>
<trkpt lat="48.586708" lon="10.03969">
<ele>603</ele>
<time>2019-09-29T10:11:20Z</time>
</trkpt>
<trkpt lat="48.58663" lon="10.040035">
<ele>603</ele>
<time>2019-09-29T10:11:25Z</time>
</trkpt>
<trkpt lat="48.586538" lon="10.040355">
<ele>603</ele>
<time>2019-09-29T10:11:30Z</time>
</trkpt>
<trkpt lat="48.586452" lon="10.040668">
<ele>604</ele>
<time>2019-09-29T10:11:35Z</time>
</trkpt>
<trkpt lat="48.586343" lon="10.040982">
<ele>604</ele>
<time>2019-09-29T10:11:40Z</time>
</trkpt>
<trkpt lat="48.586197" lon="10.041263">
<ele>605</ele>
<time>2019-09-29T10:11:45Z</time>
</trkpt>
<trkpt lat="48.586022" lon="10.041493">
<ele>605</ele>
<time>2019-09-29T10:11:50Z</time>
</trkpt>
<trkpt lat="48.585813" lon="10.041667">
<ele>606</ele>
<time>2019-09-29T10:11:55Z</time>
</trkpt>
<trkpt lat="48.58558" lon="10.041783">
<ele>606</ele>
<time>2019-09-29T10:12:00Z</time>
</trkpt>
<trkpt lat="48.585308" lon="10.041827">
<ele>606</ele>
<time>2019-09-29T10:12:05Z</time>
</trkpt>
<trkpt lat="48.585028" lon="10.041763">
<ele>606</ele>
<time>2019-09-29T10:12:10Z</time>
</trkpt>
<trkpt lat="48.584725" lon="10.041583">
<ele>606</ele>
<time>2019-09-29T10:12:15Z</time>
</trkpt>
<trkpt lat="48.58444" lon="10.041293">
<ele>605</ele>
<time>2019-09-29T10:12:20Z</time>
</trkpt>
<trkpt lat="48.58419" lon="10.040927">
<ele>603</ele>
<time>2019-09-29T10:12:25Z</time>
</trkpt>
<trkpt lat="48.583963" lon="10.040497">
<ele>603</ele>
<time>2019-09-29T10:12:30Z</time>
</trkpt>
<trkpt lat="48.583772" lon="10.04001">
<ele>602</ele>
<time>2019-09-29T10:12:35Z</time>
</trkpt>
<trkpt lat="48.583623" lon="10.039488">
<ele>600</ele>
<time>2019-09-29T10:12:40Z</time>
</trkpt>
<trkpt lat="48.583513" lon="10.038952">
<ele>600</ele>
<time>2019-09-29T10:12:45Z</time>
</trkpt>
<trkpt lat="48.583418" lon="10.038428">
<ele>599</ele>
<time>2019-09-29T10:12:50Z</time>
</trkpt>
<trkpt lat="48.583323" lon="10.037953">
<ele>599</ele>
<time>2019-09-29T10:12:55Z</time>
</trkpt>
<trkpt lat="48.583222" lon="10.03752">
<ele>599</ele>
<time>2019-09-29T10:13:00Z</time>
</trkpt>
<trkpt lat="48.58312" lon="10.037112">
<ele>598</ele>
<time>2019-09-29T10:13:05Z</time>
</trkpt>
<trkpt lat="48.583018" lon="10.036713">
<ele>598</ele>
<time>2019-09-29T10:13:10Z</time>
</trkpt>
<trkpt lat="48.582918" lon="10.036327">
<ele>598</ele>
<time>2019-09-29T10:13:15Z</time>
</trkpt>
<trkpt lat="48.582832" lon="10.03596">
<ele>598</ele>
<time>2019-09-29T10:13:20Z</time>
</trkpt>
<trkpt lat="48.582748" lon="10.035598">
<ele>598</ele>
<time>2019-09-29T10:13:25Z</time>
</trkpt>
<trkpt lat="48.58268" lon="10.035233">
<ele>599</ele>
<time>2019-09-29T10:13:30Z</time>
</trkpt>
<trkpt lat="48.58262" lon="10.03487">
<ele>600</ele>
<time>2019-09-29T10:13:35Z</time>
</trkpt>
<trkpt lat="48.582573" lon="10.034515">
<ele>600</ele>
<time>2019-09-29T10:13:40Z</time>
</trkpt>
<trkpt lat="48.58252" lon="10.03418">
<ele>600</ele>
<time>2019-09-29T10:13:45Z</time>
</trkpt>
<trkpt lat="48.582477" lon="10.033872">
<ele>600</ele>
<time>2019-09-29T10:13:50Z</time>
</trkpt>
<trkpt lat="48.582437" lon="10.03357">
<ele>600</ele>
<time>2019-09-29T10:13:55Z</time>
</trkpt>
<trkpt lat="48.582402" lon="10.033297">
<ele>601</ele>
<time>2019-09-29T10:14:00Z</time>
</trkpt>
<trkpt lat="48.582373" lon="10.03309">
<ele>602</ele>
<time>2019-09-29T10:14:05Z</time>
</trkpt>
<trkpt lat="48.582393" lon="10.032957">
<ele>602</ele>
<time>2019-09-29T10:14:10Z</time>
</trkpt>
<trkpt lat="48.582375" lon="10.032883">
<ele>602</ele>
<time>2019-09-29T10:14:15Z</time>
</trkpt>
<trkpt lat="48.58237" lon="10.032877">
<ele>602</ele>
<time>2019-09-29T10:14:20Z</time>
</trkpt>
<trkpt lat="48.582372" lon="10.032877">
<ele>602</ele>
<time>2019-09-29T10:14:25Z</time>
</trkpt>
<trkpt lat="48.58237" lon="10.032875">
<ele>602</ele>
<time>2019-09-29T10:14:30Z</time>
</trkpt>
<trkpt lat="48.58237" lon="10.032877">
<ele>602</ele>
<time>2019-09-29T10:14:35Z</time>
</trkpt>
<trkpt lat="48.582372" lon="10.032875">
<ele>602</ele>
<time>2019-09-29T10:14:50Z</time>
</trkpt>
<trkpt lat="48.582355" lon="10.032852">
<ele>602</ele>
<time>2019-09-29T10:15:10Z</time>
</trkpt>
<trkpt lat="48.58231" lon="10.032697">
<ele>602</ele>
<time>2019-09-29T10:15:15Z</time>
</trkpt>
<trkpt lat="48.582273" lon="10.032393">
<ele>603</ele>
<time>2019-09-29T10:15:20Z</time>
</trkpt>
<trkpt lat="48.58224" lon="10.032105">
<ele>603</ele>
<time>2019-09-29T10:15:25Z</time>
</trkpt>
<trkpt lat="48.582193" lon="10.031787">
<ele>604</ele>
<time>2019-09-29T10:15:30Z</time>
</trkpt>
<trkpt lat="48.582135" lon="10.031445">
<ele>604</ele>
<time>2019-09-29T10:15:35Z</time>
</trkpt>
<trkpt lat="48.582085" lon="10.031068">
<ele>605</ele>
<time>2019-09-29T10:15:40Z</time>
</trkpt>
<trkpt lat="48.582087" lon="10.030653">
<ele>605</ele>
<time>2019-09-29T10:15:45Z</time>
</trkpt>
<trkpt lat="48.582088" lon="10.03026">
<ele>606</ele>
<time>2019-09-29T10:15:50Z</time>
</trkpt>
<trkpt lat="48.582083" lon="10.029903">
<ele>606</ele>
<time>2019-09-29T10:15:55Z</time>
</trkpt>
<trkpt lat="48.582065" lon="10.029573">
<ele>607</ele>
<time>2019-09-29T10:16:00Z</time>
</trkpt>
<trkpt lat="48.582038" lon="10.029242">
<ele>608</ele>
<time>2019-09-29T10:16:05Z</time>
</trkpt>
<trkpt lat="48.581982" lon="10.028892">
<ele>608</ele>
<time>2019-09-29T10:16:10Z</time>
</trkpt>
<trkpt lat="48.581917" lon="10.028502">
<ele>608</ele>
<time>2019-09-29T10:16:15Z</time>
</trkpt>
<trkpt lat="48.581898" lon="10.028048">
<ele>608</ele>
<time>2019-09-29T10:16:20Z</time>
</trkpt>
<trkpt lat="48.581895" lon="10.027577">
<ele>607</ele>
<time>2019-09-29T10:16:25Z</time>
</trkpt>
<trkpt lat="48.581907" lon="10.027057">
<ele>607</ele>
<time>2019-09-29T10:16:30Z</time>
</trkpt>
<trkpt lat="48.581928" lon="10.026513">
<ele>605</ele>
<time>2019-09-29T10:16:35Z</time>
</trkpt>
<trkpt lat="48.581925" lon="10.025935">
<ele>603</ele>
<time>2019-09-29T10:16:40Z</time>
</trkpt>
<trkpt lat="48.58185" lon="10.02536">
<ele>603</ele>
<time>2019-09-29T10:16:45Z</time>
</trkpt>
<trkpt lat="48.581603" lon="10.024963">
<ele>601</ele>
<time>2019-09-29T10:16:50Z</time>
</trkpt>
<trkpt lat="48.58123" lon="10.024918">
<ele>601</ele>
<time>2019-09-29T10:16:55Z</time>
</trkpt>
<trkpt lat="48.580865" lon="10.02485">
<ele>601</ele>
<time>2019-09-29T10:17:00Z</time>
</trkpt>
<trkpt lat="48.580512" lon="10.0247">
<ele>600</ele>
<time>2019-09-29T10:17:05Z</time>
</trkpt>
<trkpt lat="48.580173" lon="10.02452">
<ele>599</ele>
<time>2019-09-29T10:17:10Z</time>
</trkpt>
<trkpt lat="48.579818" lon="10.0243">
<ele>599</ele>
<time>2019-09-29T10:17:15Z</time>
</trkpt>
<trkpt lat="48.579505" lon="10.02405">
<ele>599</ele>
<time>2019-09-29T10:17:20Z</time>
</trkpt>
<trkpt lat="48.579197" lon="10.023803">
<ele>599</ele>
<time>2019-09-29T10:17:25Z</time>
</trkpt>
<trkpt lat="48.578862" lon="10.023592">
<ele>598</ele>
<time>2019-09-29T10:17:30Z</time>
</trkpt>
<trkpt lat="48.578518" lon="10.023425">
<ele>596</ele>
<time>2019-09-29T10:17:35Z</time>
</trkpt>
<trkpt lat="48.578253" lon="10.023188">
<ele>595</ele>
<time>2019-09-29T10:17:40Z</time>
</trkpt>
<trkpt lat="48.578085" lon="10.022747">
<ele>595</ele>
<time>2019-09-29T10:17:45Z</time>
</trkpt>
<trkpt lat="48.577955" lon="10.022263">
<ele>595</ele>
<time>2019-09-29T10:17:50Z</time>
</trkpt>
<trkpt lat="48.577868" lon="10.02181">
<ele>595</ele>
<time>2019-09-29T10:17:55Z</time>
</trkpt>
<trkpt lat="48.57779" lon="10.021398">
<ele>595</ele>
<time>2019-09-29T10:18:00Z</time>
</trkpt>
<trkpt lat="48.577733" lon="10.021037">
<ele>596</ele>
<time>2019-09-29T10:18:05Z</time>
</trkpt>
<trkpt lat="48.57765" lon="10.020777">
<ele>596</ele>
<time>2019-09-29T10:18:10Z</time>
</trkpt>
<trkpt lat="48.577428" lon="10.020858">
<ele>596</ele>
<time>2019-09-29T10:18:15Z</time>
</trkpt>
<trkpt lat="48.577152" lon="10.020987">
<ele>597</ele>
<time>2019-09-29T10:18:20Z</time>
</trkpt>
<trkpt lat="48.576872" lon="10.02114">
<ele>597</ele>
<time>2019-09-29T10:18:25Z</time>
</trkpt>
<trkpt lat="48.576563" lon="10.02127">
<ele>597</ele>
<time>2019-09-29T10:18:30Z</time>
</trkpt>
<trkpt lat="48.576265" lon="10.021392">
<ele>595</ele>
<time>2019-09-29T10:18:35Z</time>
</trkpt>
<trkpt lat="48.575972" lon="10.021525">
<ele>595</ele>
<time>2019-09-29T10:18:40Z</time>
</trkpt>
<trkpt lat="48.575675" lon="10.021618">
<ele>595</ele>
<time>2019-09-29T10:18:45Z</time>
</trkpt>
<trkpt lat="48.57535" lon="10.021617">
<ele>594</ele>
<time>2019-09-29T10:18:50Z</time>
</trkpt>
<trkpt lat="48.575018" lon="10.02162">
<ele>593</ele>
<time>2019-09-29T10:18:55Z</time>
</trkpt>
<trkpt lat="48.574738" lon="10.021622">
<ele>592</ele>
<time>2019-09-29T10:19:00Z</time>
</trkpt>
<trkpt lat="48.574662" lon="10.02131">
<ele>591</ele>
<time>2019-09-29T10:19:05Z</time>
</trkpt>
<trkpt lat="48.574673" lon="10.020935">
<ele>591</ele>
<time>2019-09-29T10:19:10Z</time>
</trkpt>
<trkpt lat="48.574652" lon="10.020613">
<ele>591</ele>
<time>2019-09-29T10:19:15Z</time>
</trkpt>
<trkpt lat="48.574425" lon="10.020425">
<ele>591</ele>
<time>2019-09-29T10:19:20Z</time>
</trkpt>
<trkpt lat="48.574125" lon="10.020218">
<ele>591</ele>
<time>2019-09-29T10:19:25Z</time>
</trkpt>
<trkpt lat="48.573778" lon="10.019982">
<ele>589</ele>
<time>2019-09-29T10:19:30Z</time>
</trkpt>
<trkpt lat="48.573408" lon="10.01974">
<ele>586</ele>
<time>2019-09-29T10:19:35Z</time>
</trkpt>
<trkpt lat="48.573172" lon="10.019512">
<ele>584</ele>
<time>2019-09-29T10:19:40Z</time>
</trkpt>
<trkpt lat="48.573162" lon="10.019127">
<ele>582</ele>
<time>2019-09-29T10:19:45Z</time>
</trkpt>
<trkpt lat="48.573183" lon="10.018677">
<ele>582</ele>
<time>2019-09-29T10:19:50Z</time>
</trkpt>
<trkpt lat="48.5732" lon="10.018202">
<ele>582</ele>
<time>2019-09-29T10:19:55Z</time>
</trkpt>
<trkpt lat="48.573207" lon="10.017718">
<ele>582</ele>
<time>2019-09-29T10:20:00Z</time>
</trkpt>
<trkpt lat="48.573215" lon="10.017245">
<ele>582</ele>
<time>2019-09-29T10:20:05Z</time>
</trkpt>
<trkpt lat="48.573222" lon="10.016768">
<ele>582</ele>
<time>2019-09-29T10:20:10Z</time>
</trkpt>
<trkpt lat="48.573232" lon="10.016267">
<ele>582</ele>
<time>2019-09-29T10:20:15Z</time>
</trkpt>
<trkpt lat="48.573238" lon="10.015767">
<ele>582</ele>
<time>2019-09-29T10:20:20Z</time>
</trkpt>
<trkpt lat="48.57325" lon="10.015278">
<ele>582</ele>
<time>2019-09-29T10:20:25Z</time>
</trkpt>
<trkpt lat="48.573258" lon="10.01479">
<ele>582</ele>
<time>2019-09-29T10:20:30Z</time>
</trkpt>
<trkpt lat="48.573262" lon="10.014313">
<ele>582</ele>
<time>2019-09-29T10:20:35Z</time>
</trkpt>
<trkpt lat="48.573263" lon="10.013843">
<ele>582</ele>
<time>2019-09-29T10:20:40Z</time>
</trkpt>
<trkpt lat="48.573267" lon="10.013403">
<ele>582</ele>
<time>2019-09-29T10:20:45Z</time>
</trkpt>
<trkpt lat="48.573267" lon="10.013015">
<ele>582</ele>
<time>2019-09-29T10:20:50Z</time>
</trkpt>
<trkpt lat="48.573263" lon="10.012583">
<ele>583</ele>
<time>2019-09-29T10:20:56Z</time>
</trkpt>
<trkpt lat="48.573262" lon="10.012227">
<ele>584</ele>
<time>2019-09-29T10:21:01Z</time>
</trkpt>
<trkpt lat="48.573268" lon="10.011877">
<ele>584</ele>
<time>2019-09-29T10:21:07Z</time>
</trkpt>
<trkpt lat="48.57327" lon="10.011673">
<ele>584</ele>
<time>2019-09-29T10:21:12Z</time>
</trkpt>
<trkpt lat="48.57327" lon="10.011435">
<ele>584</ele>
<time>2019-09-29T10:21:18Z</time>
</trkpt>
<trkpt lat="48.573278" lon="10.01115">
<ele>584</ele>
<time>2019-09-29T10:21:23Z</time>
</trkpt>
<trkpt lat="48.57329" lon="10.01082">
<ele>584</ele>
<time>2019-09-29T10:21:28Z</time>
</trkpt>
<trkpt lat="48.573293" lon="10.010475">
<ele>585</ele>
<time>2019-09-29T10:21:33Z</time>
</trkpt>
<trkpt lat="48.573302" lon="10.01014">
<ele>585</ele>
<time>2019-09-29T10:21:38Z</time>
</trkpt>
<trkpt lat="48.5733" lon="10.009703">
<ele>586</ele>
<time>2019-09-29T10:21:44Z</time>
</trkpt>
<trkpt lat="48.573293" lon="10.009347">
<ele>586</ele>
<time>2019-09-29T10:21:49Z</time>
</trkpt>
<trkpt lat="48.573295" lon="10.008975">
<ele>587</ele>
<time>2019-09-29T10:21:54Z</time>
</trkpt>
<trkpt lat="48.573305" lon="10.008568">
<ele>587</ele>
<time>2019-09-29T10:21:59Z</time>
</trkpt>
<trkpt lat="48.573307" lon="10.008082">
<ele>587</ele>
<time>2019-09-29T10:22:05Z</time>
</trkpt>
<trkpt lat="48.573313" lon="10.007613">
<ele>587</ele>
<time>2019-09-29T10:22:11Z</time>
</trkpt>
<trkpt lat="48.57332" lon="10.007288">
<ele>587</ele>
<time>2019-09-29T10:22:16Z</time>
</trkpt>
<trkpt lat="48.573275" lon="10.007053">
<ele>587</ele>
<time>2019-09-29T10:22:21Z</time>
</trkpt>
<trkpt lat="48.573033" lon="10.007045">
<ele>587</ele>
<time>2019-09-29T10:22:26Z</time>
</trkpt>
<trkpt lat="48.57268" lon="10.00703">
<ele>588</ele>
<time>2019-09-29T10:22:32Z</time>
</trkpt>
<trkpt lat="48.572392" lon="10.007032">
<ele>590</ele>
<time>2019-09-29T10:22:37Z</time>
</trkpt>
<trkpt lat="48.572098" lon="10.007027">
<ele>590</ele>
<time>2019-09-29T10:22:42Z</time>
</trkpt>
<trkpt lat="48.571727" lon="10.007015">
<ele>590</ele>
<time>2019-09-29T10:22:48Z</time>
</trkpt>
<trkpt lat="48.571405" lon="10.007017">
<ele>589</ele>
<time>2019-09-29T10:22:53Z</time>
</trkpt>
<trkpt lat="48.571027" lon="10.007018">
<ele>589</ele>
<time>2019-09-29T10:22:59Z</time>
</trkpt>
<trkpt lat="48.570727" lon="10.007022">
<ele>589</ele>
<time>2019-09-29T10:23:04Z</time>
</trkpt>
<trkpt lat="48.57047" lon="10.007017">
<ele>589</ele>
<time>2019-09-29T10:23:09Z</time>
</trkpt>
<trkpt lat="48.57022" lon="10.007005">
<ele>590</ele>
<time>2019-09-29T10:23:14Z</time>
</trkpt>
<trkpt lat="48.56996" lon="10.00699">
<ele>590</ele>
<time>2019-09-29T10:23:19Z</time>
</trkpt>
<trkpt lat="48.569692" lon="10.00697">
<ele>590</ele>
<time>2019-09-29T10:23:24Z</time>
</trkpt>
<trkpt lat="48.56934" lon="10.006957">
<ele>590</ele>
<time>2019-09-29T10:23:30Z</time>
</trkpt>
<trkpt lat="48.569025" lon="10.00694">
<ele>590</ele>
<time>2019-09-29T10:23:35Z</time>
</trkpt>
<trkpt lat="48.568632" lon="10.006878">
<ele>589</ele>
<time>2019-09-29T10:23:41Z</time>
</trkpt>
<trkpt lat="48.568285" lon="10.006738">
<ele>588</ele>
<time>2019-09-29T10:23:46Z</time>
</trkpt>
<trkpt lat="48.567955" lon="10.006597">
<ele>588</ele>
<time>2019-09-29T10:23:51Z</time>
</trkpt>
<trkpt lat="48.56761" lon="10.006452">
<ele>588</ele>
<time>2019-09-29T10:23:57Z</time>
</trkpt>
<trkpt lat="48.567282" lon="10.006317">
<ele>588</ele>
<time>2019-09-29T10:24:03Z</time>
</trkpt>
<trkpt lat="48.566958" lon="10.00618">
<ele>588</ele>
<time>2019-09-29T10:24:09Z</time>
</trkpt>
<trkpt lat="48.56665" lon="10.00606">
<ele>588</ele>
<time>2019-09-29T10:24:15Z</time>
</trkpt>
<trkpt lat="48.566417" lon="10.005957">
<ele>588</ele>
<time>2019-09-29T10:24:20Z</time>
</trkpt>
<trkpt lat="48.56615" lon="10.005848">
<ele>588</ele>
<time>2019-09-29T10:24:26Z</time>
</trkpt>
<trkpt lat="48.565922" lon="10.005752">
<ele>589</ele>
<time>2019-09-29T10:24:31Z</time>
</trkpt>
<trkpt lat="48.565675" lon="10.00565">
<ele>589</ele>
<time>2019-09-29T10:24:36Z</time>
</trkpt>
<trkpt lat="48.565427" lon="10.005547">
<ele>589</ele>
<time>2019-09-29T10:24:41Z</time>
</trkpt>
<trkpt lat="48.565172" lon="10.005433">
<ele>589</ele>
<time>2019-09-29T10:24:46Z</time>
</trkpt>
<trkpt lat="48.56489" lon="10.00533">
<ele>588</ele>
<time>2019-09-29T10:24:51Z</time>
</trkpt>
<trkpt lat="48.564557" lon="10.005193">
<ele>588</ele>
<time>2019-09-29T10:24:57Z</time>
</trkpt>
<trkpt lat="48.564295" lon="10.005083">
<ele>587</ele>
<time>2019-09-29T10:25:02Z</time>
</trkpt>
<trkpt lat="48.564053" lon="10.00494">
<ele>587</ele>
<time>2019-09-29T10:25:07Z</time>
</trkpt>
<trkpt lat="48.563778" lon="10.004792">
<ele>587</ele>
<time>2019-09-29T10:25:12Z</time>
</trkpt>
<trkpt lat="48.56351" lon="10.004638">
<ele>587</ele>
<time>2019-09-29T10:25:17Z</time>
</trkpt>
<trkpt lat="48.563242" lon="10.004478">
<ele>587</ele>
<time>2019-09-29T10:25:22Z</time>
</trkpt>
<trkpt lat="48.562982" lon="10.004338">
<ele>587</ele>
<time>2019-09-29T10:25:27Z</time>
</trkpt>
<trkpt lat="48.562705" lon="10.004185">
<ele>587</ele>
<time>2019-09-29T10:25:32Z</time>
</trkpt>
<trkpt lat="48.562427" lon="10.004038">
<ele>586</ele>
<time>2019-09-29T10:25:37Z</time>
</trkpt>
<trkpt lat="48.562153" lon="10.003888">
<ele>586</ele>
<time>2019-09-29T10:25:42Z</time>
</trkpt>
<trkpt lat="48.56187" lon="10.003732">
<ele>586</ele>
<time>2019-09-29T10:25:47Z</time>
</trkpt>
<trkpt lat="48.561598" lon="10.003578">
<ele>586</ele>
<time>2019-09-29T10:25:52Z</time>
</trkpt>
<trkpt lat="48.561312" lon="10.003415">
<ele>585</ele>
<time>2019-09-29T10:25:57Z</time>
</trkpt>
<trkpt lat="48.561038" lon="10.003253">
<ele>585</ele>
<time>2019-09-29T10:26:02Z</time>
</trkpt>
<trkpt lat="48.56077" lon="10.003107">
<ele>585</ele>
<time>2019-09-29T10:26:07Z</time>
</trkpt>
<trkpt lat="48.560518" lon="10.002972">
<ele>585</ele>
<time>2019-09-29T10:26:12Z</time>
</trkpt>
<trkpt lat="48.560262" lon="10.002828">
<ele>585</ele>
<time>2019-09-29T10:26:17Z</time>
</trkpt>
<trkpt lat="48.559995" lon="10.002682">
<ele>584</ele>
<time>2019-09-29T10:26:22Z</time>
</trkpt>
<trkpt lat="48.559743" lon="10.002543">
<ele>584</ele>
<time>2019-09-29T10:26:27Z</time>
</trkpt>
<trkpt lat="48.559528" lon="10.00241">
<ele>584</ele>
<time>2019-09-29T10:26:32Z</time>
</trkpt>
<trkpt lat="48.55934" lon="10.002303">
<ele>585</ele>
<time>2019-09-29T10:26:37Z</time>
</trkpt>
<trkpt lat="48.55915" lon="10.002195">
<ele>586</ele>
<time>2019-09-29T10:26:42Z</time>
</trkpt>
<trkpt lat="48.558957" lon="10.00209">
<ele>587</ele>
<time>2019-09-29T10:26:47Z</time>
</trkpt>
<trkpt lat="48.558767" lon="10.001983">
<ele>587</ele>
<time>2019-09-29T10:26:52Z</time>
</trkpt>
<trkpt lat="48.558565" lon="10.001875">
<ele>588</ele>
<time>2019-09-29T10:26:57Z</time>
</trkpt>
<trkpt lat="48.558358" lon="10.001767">
<ele>588</ele>
<time>2019-09-29T10:27:02Z</time>
</trkpt>
<trkpt lat="48.558137" lon="10.001663">
<ele>588</ele>
<time>2019-09-29T10:27:07Z</time>
</trkpt>
<trkpt lat="48.557897" lon="10.001532">
<ele>588</ele>
<time>2019-09-29T10:27:12Z</time>
</trkpt>
<trkpt lat="48.557657" lon="10.00139">
<ele>588</ele>
<time>2019-09-29T10:27:17Z</time>
</trkpt>
<trkpt lat="48.557427" lon="10.001263">
<ele>588</ele>
<time>2019-09-29T10:27:22Z</time>
</trkpt>
<trkpt lat="48.557215" lon="10.00114">
<ele>588</ele>
<time>2019-09-29T10:27:27Z</time>
</trkpt>
<trkpt lat="48.557002" lon="10.001022">
<ele>589</ele>
<time>2019-09-29T10:27:32Z</time>
</trkpt>
<trkpt lat="48.556802" lon="10.000908">
<ele>589</ele>
<time>2019-09-29T10:27:37Z</time>
</trkpt>
<trkpt lat="48.556608" lon="10.000798">
<ele>590</ele>
<time>2019-09-29T10:27:42Z</time>
</trkpt>
<trkpt lat="48.556437" lon="10.000697">
<ele>591</ele>
<time>2019-09-29T10:27:47Z</time>
</trkpt>
<trkpt lat="48.556253" lon="10.000623">
<ele>592</ele>
<time>2019-09-29T10:27:52Z</time>
</trkpt>
<trkpt lat="48.556088" lon="10.000515">
<ele>592</ele>
<time>2019-09-29T10:27:57Z</time>
</trkpt>
<trkpt lat="48.555917" lon="10.000437">
<ele>593</ele>
<time>2019-09-29T10:28:02Z</time>
</trkpt>
<trkpt lat="48.555733" lon="10.00033">
<ele>594</ele>
<time>2019-09-29T10:28:07Z</time>
</trkpt>
<trkpt lat="48.555562" lon="10.000238">
<ele>595</ele>
<time>2019-09-29T10:28:12Z</time>
</trkpt>
<trkpt lat="48.555398" lon="10.000155">
<ele>596</ele>
<time>2019-09-29T10:28:17Z</time>
</trkpt>
<trkpt lat="48.555243" lon="10.000023">
<ele>597</ele>
<time>2019-09-29T10:28:22Z</time>
</trkpt>
<trkpt lat="48.555135" lon="9.999915">
<ele>597</ele>
<time>2019-09-29T10:28:27Z</time>
</trkpt>
<trkpt lat="48.55502" lon="9.999935">
<ele>597</ele>
<time>2019-09-29T10:28:32Z</time>
</trkpt>
<trkpt lat="48.554855" lon="10.0001">
<ele>597</ele>
<time>2019-09-29T10:28:37Z</time>
</trkpt>
<trkpt lat="48.554645" lon="10.000033">
<ele>597</ele>
<time>2019-09-29T10:28:42Z</time>
</trkpt>
<trkpt lat="48.554472" lon="9.999752">
<ele>597</ele>
<time>2019-09-29T10:28:47Z</time>
</trkpt>
<trkpt lat="48.554262" lon="9.999468">
<ele>597</ele>
<time>2019-09-29T10:28:52Z</time>
</trkpt>
<trkpt lat="48.554012" lon="9.999175">
<ele>596</ele>
<time>2019-09-29T10:28:57Z</time>
</trkpt>
<trkpt lat="48.553792" lon="9.998975">
<ele>595</ele>
<time>2019-09-29T10:29:02Z</time>
</trkpt>
<trkpt lat="48.553608" lon="9.998983">
<ele>594</ele>
<time>2019-09-29T10:29:07Z</time>
</trkpt>
<trkpt lat="48.553513" lon="9.999288">
<ele>594</ele>
<time>2019-09-29T10:29:12Z</time>
</trkpt>
<trkpt lat="48.553405" lon="9.999605">
<ele>594</ele>
<time>2019-09-29T10:29:17Z</time>
</trkpt>
<trkpt lat="48.553232" lon="9.999732">
<ele>594</ele>
<time>2019-09-29T10:29:22Z</time>
</trkpt>
<trkpt lat="48.552978" lon="9.999607">
<ele>594</ele>
<time>2019-09-29T10:29:27Z</time>
</trkpt>
<trkpt lat="48.552695" lon="9.999453">
<ele>594</ele>
<time>2019-09-29T10:29:32Z</time>
</trkpt>
<trkpt lat="48.552403" lon="9.999298">
<ele>594</ele>
<time>2019-09-29T10:29:37Z</time>
</trkpt>
<trkpt lat="48.552083" lon="9.999123">
<ele>594</ele>
<time>2019-09-29T10:29:42Z</time>
</trkpt>
<trkpt lat="48.551777" lon="9.998963">
<ele>593</ele>
<time>2019-09-29T10:29:47Z</time>
</trkpt>
<trkpt lat="48.551477" lon="9.998783">
<ele>592</ele>
<time>2019-09-29T10:29:52Z</time>
</trkpt>
<trkpt lat="48.551173" lon="9.998608">
<ele>592</ele>
<time>2019-09-29T10:29:57Z</time>
</trkpt>
<trkpt lat="48.550878" lon="9.99845">
<ele>592</ele>
<time>2019-09-29T10:30:02Z</time>
</trkpt>
<trkpt lat="48.55057" lon="9.99829">
<ele>592</ele>
<time>2019-09-29T10:30:07Z</time>
</trkpt>
<trkpt lat="48.550263" lon="9.998132">
<ele>591</ele>
<time>2019-09-29T10:30:12Z</time>
</trkpt>
<trkpt lat="48.550005" lon="9.997988">
<ele>591</ele>
<time>2019-09-29T10:30:17Z</time>
</trkpt>
<trkpt lat="48.549793" lon="9.997838">
<ele>590</ele>
<time>2019-09-29T10:30:22Z</time>
</trkpt>
<trkpt lat="48.54959" lon="9.997843">
<ele>590</ele>
<time>2019-09-29T10:30:27Z</time>
</trkpt>
<trkpt lat="48.549417" lon="9.998148">
<ele>590</ele>
<time>2019-09-29T10:30:32Z</time>
</trkpt>
<trkpt lat="48.549212" lon="9.998472">
<ele>589</ele>
<time>2019-09-29T10:30:37Z</time>
</trkpt>
<trkpt lat="48.548985" lon="9.998785">
<ele>589</ele>
<time>2019-09-29T10:30:42Z</time>
</trkpt>
<trkpt lat="48.548725" lon="9.999083">
<ele>589</ele>
<time>2019-09-29T10:30:47Z</time>
</trkpt>
<trkpt lat="48.548475" lon="9.999373">
<ele>589</ele>
<time>2019-09-29T10:30:52Z</time>
</trkpt>
<trkpt lat="48.548255" lon="9.999648">
<ele>588</ele>
<time>2019-09-29T10:30:57Z</time>
</trkpt>
<trkpt lat="48.54803" lon="9.999948">
<ele>588</ele>
<time>2019-09-29T10:31:02Z</time>
</trkpt>
<trkpt lat="48.547735" lon="9.999957">
<ele>588</ele>
<time>2019-09-29T10:31:07Z</time>
</trkpt>
<trkpt lat="48.547455" lon="9.999888">
<ele>588</ele>
<time>2019-09-29T10:31:12Z</time>
</trkpt>
<trkpt lat="48.5472" lon="9.999813">
<ele>590</ele>
<time>2019-09-29T10:31:17Z</time>
</trkpt>
<trkpt lat="48.546987" lon="9.999758">
<ele>592</ele>
<time>2019-09-29T10:31:22Z</time>
</trkpt>
<trkpt lat="48.54679" lon="9.999702">
<ele>593</ele>
<time>2019-09-29T10:31:27Z</time>
</trkpt>
<trkpt lat="48.546568" lon="9.999658">
<ele>593</ele>
<time>2019-09-29T10:31:32Z</time>
</trkpt>
<trkpt lat="48.546347" lon="9.999603">
<ele>593</ele>
<time>2019-09-29T10:31:37Z</time>
</trkpt>
<trkpt lat="48.546118" lon="9.999547">
<ele>594</ele>
<time>2019-09-29T10:31:42Z</time>
</trkpt>
<trkpt lat="48.545868" lon="9.999498">
<ele>594</ele>
<time>2019-09-29T10:31:47Z</time>
</trkpt>
<trkpt lat="48.545607" lon="9.999438">
<ele>594</ele>
<time>2019-09-29T10:31:52Z</time>
</trkpt>
<trkpt lat="48.545338" lon="9.99938">
<ele>594</ele>
<time>2019-09-29T10:31:57Z</time>
</trkpt>
<trkpt lat="48.545038" lon="9.999318">
<ele>594</ele>
<time>2019-09-29T10:32:02Z</time>
</trkpt>
<trkpt lat="48.54471" lon="9.999238">
<ele>592</ele>
<time>2019-09-29T10:32:07Z</time>
</trkpt>
<trkpt lat="48.544378" lon="9.999173">
<ele>592</ele>
<time>2019-09-29T10:32:12Z</time>
</trkpt>
<trkpt lat="48.544093" lon="9.999108">
<ele>592</ele>
<time>2019-09-29T10:32:17Z</time>
</trkpt>
<trkpt lat="48.543833" lon="9.999043">
<ele>592</ele>
<time>2019-09-29T10:32:22Z</time>
</trkpt>
<trkpt lat="48.543568" lon="9.998975">
<ele>592</ele>
<time>2019-09-29T10:32:27Z</time>
</trkpt>
<trkpt lat="48.543298" lon="9.998922">
<ele>592</ele>
<time>2019-09-29T10:32:32Z</time>
</trkpt>
<trkpt lat="48.543035" lon="9.998862">
<ele>592</ele>
<time>2019-09-29T10:32:37Z</time>
</trkpt>
<trkpt lat="48.542773" lon="9.998807">
<ele>593</ele>
<time>2019-09-29T10:32:42Z</time>
</trkpt>
<trkpt lat="48.542503" lon="9.998747">
<ele>593</ele>
<time>2019-09-29T10:32:47Z</time>
</trkpt>
<trkpt lat="48.542233" lon="9.998677">
<ele>593</ele>
<time>2019-09-29T10:32:52Z</time>
</trkpt>
<trkpt lat="48.541938" lon="9.9986">
<ele>593</ele>
<time>2019-09-29T10:32:57Z</time>
</trkpt>
<trkpt lat="48.541607" lon="9.998528">
<ele>593</ele>
<time>2019-09-29T10:33:02Z</time>
</trkpt>
<trkpt lat="48.541242" lon="9.99844">
<ele>590</ele>
<time>2019-09-29T10:33:07Z</time>
</trkpt>
<trkpt lat="48.540885" lon="9.998365">
<ele>590</ele>
<time>2019-09-29T10:33:12Z</time>
</trkpt>
<trkpt lat="48.540572" lon="9.998287">
<ele>590</ele>
<time>2019-09-29T10:33:17Z</time>
</trkpt>
<trkpt lat="48.540317" lon="9.998203">
<ele>590</ele>
<time>2019-09-29T10:33:22Z</time>
</trkpt>
<trkpt lat="48.540117" lon="9.998112">
<ele>590</ele>
<time>2019-09-29T10:33:27Z</time>
</trkpt>
<trkpt lat="48.539912" lon="9.998002">
<ele>592</ele>
<time>2019-09-29T10:33:32Z</time>
</trkpt>
<trkpt lat="48.539708" lon="9.997912">
<ele>593</ele>
<time>2019-09-29T10:33:37Z</time>
</trkpt>
<trkpt lat="48.539483" lon="9.997803">
<ele>594</ele>
<time>2019-09-29T10:33:42Z</time>
</trkpt>
<trkpt lat="48.539257" lon="9.997692">
<ele>595</ele>
<time>2019-09-29T10:33:47Z</time>
</trkpt>
<trkpt lat="48.539038" lon="9.997583">
<ele>596</ele>
<time>2019-09-29T10:33:52Z</time>
</trkpt>
<trkpt lat="48.538817" lon="9.997472">
<ele>597</ele>
<time>2019-09-29T10:33:57Z</time>
</trkpt>
<trkpt lat="48.53859" lon="9.99736">
<ele>597</ele>
<time>2019-09-29T10:34:02Z</time>
</trkpt>
<trkpt lat="48.538362" lon="9.99725">
<ele>598</ele>
<time>2019-09-29T10:34:07Z</time>
</trkpt>
<trkpt lat="48.538135" lon="9.997142">
<ele>598</ele>
<time>2019-09-29T10:34:12Z</time>
</trkpt>
<trkpt lat="48.537908" lon="9.997018">
<ele>598</ele>
<time>2019-09-29T10:34:17Z</time>
</trkpt>
<trkpt lat="48.537673" lon="9.996908">
<ele>598</ele>
<time>2019-09-29T10:34:22Z</time>
</trkpt>
<trkpt lat="48.537435" lon="9.99679">
<ele>598</ele>
<time>2019-09-29T10:34:27Z</time>
</trkpt>
<trkpt lat="48.537197" lon="9.996675">
<ele>598</ele>
<time>2019-09-29T10:34:32Z</time>
</trkpt>
<trkpt lat="48.536937" lon="9.996552">
<ele>598</ele>
<time>2019-09-29T10:34:37Z</time>
</trkpt>
<trkpt lat="48.536672" lon="9.99643">
<ele>599</ele>
<time>2019-09-29T10:34:42Z</time>
</trkpt>
<trkpt lat="48.53642" lon="9.996313">
<ele>599</ele>
<time>2019-09-29T10:34:47Z</time>
</trkpt>
<trkpt lat="48.536173" lon="9.996198">
<ele>599</ele>
<time>2019-09-29T10:34:52Z</time>
</trkpt>
<trkpt lat="48.535915" lon="9.996083">
<ele>599</ele>
<time>2019-09-29T10:34:57Z</time>
</trkpt>
<trkpt lat="48.535658" lon="9.99596">
<ele>599</ele>
<time>2019-09-29T10:35:02Z</time>
</trkpt>
<trkpt lat="48.535385" lon="9.995832">
<ele>599</ele>
<time>2019-09-29T10:35:07Z</time>
</trkpt>
<trkpt lat="48.535088" lon="9.995682">
<ele>599</ele>
<time>2019-09-29T10:35:12Z</time>
</trkpt>
<trkpt lat="48.534778" lon="9.995485">
<ele>598</ele>
<time>2019-09-29T10:35:17Z</time>
</trkpt>
<trkpt lat="48.53447" lon="9.99528">
<ele>597</ele>
<time>2019-09-29T10:35:22Z</time>
</trkpt>
<trkpt lat="48.534167" lon="9.995107">
<ele>596</ele>
<time>2019-09-29T10:35:27Z</time>
</trkpt>
<trkpt lat="48.533875" lon="9.994977">
<ele>596</ele>
<time>2019-09-29T10:35:32Z</time>
</trkpt>
<trkpt lat="48.533582" lon="9.994857">
<ele>595</ele>
<time>2019-09-29T10:35:37Z</time>
</trkpt>
<trkpt lat="48.533307" lon="9.994767">
<ele>595</ele>
<time>2019-09-29T10:35:42Z</time>
</trkpt>
<trkpt lat="48.53302" lon="9.994712">
<ele>595</ele>
<time>2019-09-29T10:35:47Z</time>
</trkpt>
<trkpt lat="48.532765" lon="9.99466">
<ele>595</ele>
<time>2019-09-29T10:35:52Z</time>
</trkpt>
<trkpt lat="48.532493" lon="9.994613">
<ele>595</ele>
<time>2019-09-29T10:35:58Z</time>
</trkpt>
<trkpt lat="48.532245" lon="9.994507">
<ele>595</ele>
<time>2019-09-29T10:36:03Z</time>
</trkpt>
<trkpt lat="48.531985" lon="9.994472">
<ele>595</ele>
<time>2019-09-29T10:36:08Z</time>
</trkpt>
<trkpt lat="48.53175" lon="9.994495">
<ele>595</ele>
<time>2019-09-29T10:36:13Z</time>
</trkpt>
<trkpt lat="48.531508" lon="9.994697">
<ele>595</ele>
<time>2019-09-29T10:36:19Z</time>
</trkpt>
<trkpt lat="48.531575" lon="9.995115">
<ele>595</ele>
<time>2019-09-29T10:36:24Z</time>
</trkpt>
<trkpt lat="48.531627" lon="9.995578">
<ele>595</ele>
<time>2019-09-29T10:36:29Z</time>
</trkpt>
<trkpt lat="48.531495" lon="9.996017">
<ele>595</ele>
<time>2019-09-29T10:36:34Z</time>
</trkpt>
<trkpt lat="48.53121" lon="9.996307">
<ele>594</ele>
<time>2019-09-29T10:36:39Z</time>
</trkpt>
<trkpt lat="48.53097" lon="9.99671">
<ele>593</ele>
<time>2019-09-29T10:36:44Z</time>
</trkpt>
<trkpt lat="48.53074" lon="9.997113">
<ele>593</ele>
<time>2019-09-29T10:36:49Z</time>
</trkpt>
<trkpt lat="48.530447" lon="9.997408">
<ele>593</ele>
<time>2019-09-29T10:36:54Z</time>
</trkpt>
<trkpt lat="48.53013" lon="9.997662">
<ele>593</ele>
<time>2019-09-29T10:36:59Z</time>
</trkpt>
<trkpt lat="48.52981" lon="9.997922">
<ele>593</ele>
<time>2019-09-29T10:37:04Z</time>
</trkpt>
<trkpt lat="48.5295" lon="9.998193">
<ele>593</ele>
<time>2019-09-29T10:37:09Z</time>
</trkpt>
<trkpt lat="48.529192" lon="9.998452">
<ele>592</ele>
<time>2019-09-29T10:37:14Z</time>
</trkpt>
<trkpt lat="48.528877" lon="9.998743">
<ele>592</ele>
<time>2019-09-29T10:37:19Z</time>
</trkpt>
<trkpt lat="48.528558" lon="9.999078">
<ele>591</ele>
<time>2019-09-29T10:37:24Z</time>
</trkpt>
<trkpt lat="48.528263" lon="9.999443">
<ele>590</ele>
<time>2019-09-29T10:37:29Z</time>
</trkpt>
<trkpt lat="48.527992" lon="9.99984">
<ele>588</ele>
<time>2019-09-29T10:37:34Z</time>
</trkpt>
<trkpt lat="48.527743" lon="10.000267">
<ele>588</ele>
<time>2019-09-29T10:37:39Z</time>
</trkpt>
<trkpt lat="48.527517" lon="10.000747">
<ele>587</ele>
<time>2019-09-29T10:37:44Z</time>
</trkpt>
<trkpt lat="48.527315" lon="10.001243">
<ele>586</ele>
<time>2019-09-29T10:37:49Z</time>
</trkpt>
<trkpt lat="48.527145" lon="10.001787">
<ele>586</ele>
<time>2019-09-29T10:37:54Z</time>
</trkpt>
<trkpt lat="48.526992" lon="10.002363">
<ele>585</ele>
<time>2019-09-29T10:38:00Z</time>
</trkpt>
<trkpt lat="48.526867" lon="10.003043">
<ele>585</ele>
<time>2019-09-29T10:38:05Z</time>
</trkpt>
<trkpt lat="48.526777" lon="10.003602">
<ele>585</ele>
<time>2019-09-29T10:38:10Z</time>
</trkpt>
<trkpt lat="48.526695" lon="10.004168">
<ele>584</ele>
<time>2019-09-29T10:38:15Z</time>
</trkpt>
<trkpt lat="48.526615" lon="10.0047">
<ele>584</ele>
<time>2019-09-29T10:38:20Z</time>
</trkpt>
<trkpt lat="48.526525" lon="10.005225">
<ele>584</ele>
<time>2019-09-29T10:38:25Z</time>
</trkpt>
<trkpt lat="48.526413" lon="10.005738">
<ele>584</ele>
<time>2019-09-29T10:38:30Z</time>
</trkpt>
<trkpt lat="48.526278" lon="10.006195">
<ele>583</ele>
<time>2019-09-29T10:38:35Z</time>
</trkpt>
<trkpt lat="48.526128" lon="10.006598">
<ele>583</ele>
<time>2019-09-29T10:38:40Z</time>
</trkpt>
<trkpt lat="48.525847" lon="10.006648">
<ele>583</ele>
<time>2019-09-29T10:38:45Z</time>
</trkpt>
<trkpt lat="48.525518" lon="10.006435">
<ele>583</ele>
<time>2019-09-29T10:38:50Z</time>
</trkpt>
<trkpt lat="48.525197" lon="10.006217">
<ele>582</ele>
<time>2019-09-29T10:38:55Z</time>
</trkpt>
<trkpt lat="48.5249" lon="10.006125">
<ele>582</ele>
<time>2019-09-29T10:39:00Z</time>
</trkpt>
<trkpt lat="48.52469" lon="10.00646">
<ele>581</ele>
<time>2019-09-29T10:39:05Z</time>
</trkpt>
<trkpt lat="48.524445" lon="10.006722">
<ele>581</ele>
<time>2019-09-29T10:39:10Z</time>
</trkpt>
<trkpt lat="48.524148" lon="10.006852">
<ele>581</ele>
<time>2019-09-29T10:39:15Z</time>
</trkpt>
<trkpt lat="48.523813" lon="10.006948">
<ele>581</ele>
<time>2019-09-29T10:39:20Z</time>
</trkpt>
<trkpt lat="48.523392" lon="10.007078">
<ele>581</ele>
<time>2019-09-29T10:39:26Z</time>
</trkpt>
<trkpt lat="48.523037" lon="10.007182">
<ele>581</ele>
<time>2019-09-29T10:39:31Z</time>
</trkpt>
<trkpt lat="48.522687" lon="10.00728">
<ele>581</ele>
<time>2019-09-29T10:39:36Z</time>
</trkpt>
<trkpt lat="48.522247" lon="10.007407">
<ele>581</ele>
<time>2019-09-29T10:39:42Z</time>
</trkpt>
<trkpt lat="48.521885" lon="10.00751">
<ele>581</ele>
<time>2019-09-29T10:39:47Z</time>
</trkpt>
<trkpt lat="48.521512" lon="10.007637">
<ele>580</ele>
<time>2019-09-29T10:39:52Z</time>
</trkpt>
<trkpt lat="48.521118" lon="10.007793">
<ele>580</ele>
<time>2019-09-29T10:39:57Z</time>
</trkpt>
<trkpt lat="48.52067" lon="10.008052">
<ele>579</ele>
<time>2019-09-29T10:40:03Z</time>
</trkpt>
<trkpt lat="48.520317" lon="10.008323">
<ele>578</ele>
<time>2019-09-29T10:40:08Z</time>
</trkpt>
<trkpt lat="48.519962" lon="10.008662">
<ele>577</ele>
<time>2019-09-29T10:40:13Z</time>
</trkpt>
<trkpt lat="48.519608" lon="10.009063">
<ele>576</ele>
<time>2019-09-29T10:40:18Z</time>
</trkpt>
<trkpt lat="48.51926" lon="10.009488">
<ele>574</ele>
<time>2019-09-29T10:40:23Z</time>
</trkpt>
<trkpt lat="48.518865" lon="10.009942">
<ele>572</ele>
<time>2019-09-29T10:40:28Z</time>
</trkpt>
<trkpt lat="48.518427" lon="10.01039">
<ele>570</ele>
<time>2019-09-29T10:40:33Z</time>
</trkpt>
<trkpt lat="48.517937" lon="10.010815">
<ele>566</ele>
<time>2019-09-29T10:40:38Z</time>
</trkpt>
<trkpt lat="48.517408" lon="10.011225">
<ele>563</ele>
<time>2019-09-29T10:40:43Z</time>
</trkpt>
<trkpt lat="48.516877" lon="10.011552">
<ele>560</ele>
<time>2019-09-29T10:40:48Z</time>
</trkpt>
<trkpt lat="48.516353" lon="10.011822">
<ele>558</ele>
<time>2019-09-29T10:40:53Z</time>
</trkpt>
<trkpt lat="48.515782" lon="10.012057">
<ele>557</ele>
<time>2019-09-29T10:40:59Z</time>
</trkpt>
<trkpt lat="48.515248" lon="10.012248">
<ele>556</ele>
<time>2019-09-29T10:41:05Z</time>
</trkpt>
<trkpt lat="48.514827" lon="10.012393">
<ele>555</ele>
<time>2019-09-29T10:41:10Z</time>
</trkpt>
<trkpt lat="48.51441" lon="10.01254">
<ele>555</ele>
<time>2019-09-29T10:41:15Z</time>
</trkpt>
<trkpt lat="48.513935" lon="10.01271">
<ele>555</ele>
<time>2019-09-29T10:41:21Z</time>
</trkpt>
<trkpt lat="48.513493" lon="10.012863">
<ele>555</ele>
<time>2019-09-29T10:41:27Z</time>
</trkpt>
<trkpt lat="48.513058" lon="10.01302">
<ele>555</ele>
<time>2019-09-29T10:41:33Z</time>
</trkpt>
<trkpt lat="48.512663" lon="10.013198">
<ele>555</ele>
<time>2019-09-29T10:41:38Z</time>
</trkpt>
<trkpt lat="48.512262" lon="10.01352">
<ele>555</ele>
<time>2019-09-29T10:41:43Z</time>
</trkpt>
<trkpt lat="48.511915" lon="10.01403">
<ele>551</ele>
<time>2019-09-29T10:41:48Z</time>
</trkpt>
<trkpt lat="48.51163" lon="10.014858">
<ele>548</ele>
<time>2019-09-29T10:41:54Z</time>
</trkpt>
<trkpt lat="48.511515" lon="10.015705">
<ele>546</ele>
<time>2019-09-29T10:41:59Z</time>
</trkpt>
<trkpt lat="48.51144" lon="10.016568">
<ele>542</ele>
<time>2019-09-29T10:42:04Z</time>
</trkpt>
<trkpt lat="48.511242" lon="10.017407">
<ele>538</ele>
<time>2019-09-29T10:42:09Z</time>
</trkpt>
<trkpt lat="48.51073" lon="10.018358">
<ele>534</ele>
<time>2019-09-29T10:42:15Z</time>
</trkpt>
<trkpt lat="48.510208" lon="10.018835">
<ele>532</ele>
<time>2019-09-29T10:42:20Z</time>
</trkpt>
<trkpt lat="48.509835" lon="10.019112">
<ele>532</ele>
<time>2019-09-29T10:42:25Z</time>
</trkpt>
<trkpt lat="48.50956" lon="10.019297">
<ele>534</ele>
<time>2019-09-29T10:42:30Z</time>
</trkpt>
<trkpt lat="48.509352" lon="10.019457">
<ele>536</ele>
<time>2019-09-29T10:42:35Z</time>
</trkpt>
<trkpt lat="48.509165" lon="10.019597">
<ele>538</ele>
<time>2019-09-29T10:42:40Z</time>
</trkpt>
<trkpt lat="48.508972" lon="10.019752">
<ele>539</ele>
<time>2019-09-29T10:42:45Z</time>
</trkpt>
<trkpt lat="48.508797" lon="10.019887">
<ele>541</ele>
<time>2019-09-29T10:42:50Z</time>
</trkpt>
<trkpt lat="48.50861" lon="10.019992">
<ele>542</ele>
<time>2019-09-29T10:42:55Z</time>
</trkpt>
<trkpt lat="48.508423" lon="10.020063">
<ele>544</ele>
<time>2019-09-29T10:43:00Z</time>
</trkpt>
<trkpt lat="48.50824" lon="10.020138">
<ele>545</ele>
<time>2019-09-29T10:43:05Z</time>
</trkpt>
<trkpt lat="48.508058" lon="10.020172">
<ele>547</ele>
<time>2019-09-29T10:43:10Z</time>
</trkpt>
<trkpt lat="48.507892" lon="10.020193">
<ele>548</ele>
<time>2019-09-29T10:43:15Z</time>
</trkpt>
<trkpt lat="48.507712" lon="10.020187">
<ele>549</ele>
<time>2019-09-29T10:43:20Z</time>
</trkpt>
<trkpt lat="48.507508" lon="10.020142">
<ele>550</ele>
<time>2019-09-29T10:43:25Z</time>
</trkpt>
<trkpt lat="48.507297" lon="10.020087">
<ele>551</ele>
<time>2019-09-29T10:43:30Z</time>
</trkpt>
<trkpt lat="48.507095" lon="10.020017">
<ele>552</ele>
<time>2019-09-29T10:43:35Z</time>
</trkpt>
<trkpt lat="48.506892" lon="10.019953">
<ele>553</ele>
<time>2019-09-29T10:43:40Z</time>
</trkpt>
<trkpt lat="48.506692" lon="10.019888">
<ele>554</ele>
<time>2019-09-29T10:43:45Z</time>
</trkpt>
<trkpt lat="48.50649" lon="10.019817">
<ele>554</ele>
<time>2019-09-29T10:43:50Z</time>
</trkpt>
<trkpt lat="48.506292" lon="10.019748">
<ele>555</ele>
<time>2019-09-29T10:43:55Z</time>
</trkpt>
<trkpt lat="48.506095" lon="10.019677">
<ele>555</ele>
<time>2019-09-29T10:44:00Z</time>
</trkpt>
<trkpt lat="48.505887" lon="10.019607">
<ele>556</ele>
<time>2019-09-29T10:44:05Z</time>
</trkpt>
<trkpt lat="48.505677" lon="10.019532">
<ele>556</ele>
<time>2019-09-29T10:44:10Z</time>
</trkpt>
<trkpt lat="48.50546" lon="10.019455">
<ele>556</ele>
<time>2019-09-29T10:44:15Z</time>
</trkpt>
<trkpt lat="48.50524" lon="10.019383">
<ele>556</ele>
<time>2019-09-29T10:44:20Z</time>
</trkpt>
<trkpt lat="48.505012" lon="10.019303">
<ele>556</ele>
<time>2019-09-29T10:44:25Z</time>
</trkpt>
<trkpt lat="48.504775" lon="10.01922">
<ele>556</ele>
<time>2019-09-29T10:44:30Z</time>
</trkpt>
<trkpt lat="48.504538" lon="10.019143">
<ele>555</ele>
<time>2019-09-29T10:44:35Z</time>
</trkpt>
<trkpt lat="48.504268" lon="10.01905">
<ele>554</ele>
<time>2019-09-29T10:44:40Z</time>
</trkpt>
<trkpt lat="48.503933" lon="10.018962">
<ele>553</ele>
<time>2019-09-29T10:44:45Z</time>
</trkpt>
<trkpt lat="48.50352" lon="10.018903">
<ele>551</ele>
<time>2019-09-29T10:44:50Z</time>
</trkpt>
<trkpt lat="48.50305" lon="10.018988">
<ele>548</ele>
<time>2019-09-29T10:44:55Z</time>
</trkpt>
<trkpt lat="48.502568" lon="10.019245">
<ele>544</ele>
<time>2019-09-29T10:45:00Z</time>
</trkpt>
<trkpt lat="48.502153" lon="10.019618">
<ele>544</ele>
<time>2019-09-29T10:45:05Z</time>
</trkpt>
<trkpt lat="48.501802" lon="10.019932">
<ele>543</ele>
<time>2019-09-29T10:45:10Z</time>
</trkpt>
<trkpt lat="48.501458" lon="10.020052">
<ele>543</ele>
<time>2019-09-29T10:45:15Z</time>
</trkpt>
<trkpt lat="48.501152" lon="10.020017">
<ele>543</ele>
<time>2019-09-29T10:45:20Z</time>
</trkpt>
<trkpt lat="48.500915" lon="10.019807">
<ele>544</ele>
<time>2019-09-29T10:45:25Z</time>
</trkpt>
<trkpt lat="48.500598" lon="10.019688">
<ele>545</ele>
<time>2019-09-29T10:45:31Z</time>
</trkpt>
<trkpt lat="48.50033" lon="10.019513">
<ele>545</ele>
<time>2019-09-29T10:45:36Z</time>
</trkpt>
<trkpt lat="48.500052" lon="10.01935">
<ele>546</ele>
<time>2019-09-29T10:45:41Z</time>
</trkpt>
<trkpt lat="48.49976" lon="10.019233">
<ele>546</ele>
<time>2019-09-29T10:45:46Z</time>
</trkpt>
<trkpt lat="48.499467" lon="10.01919">
<ele>546</ele>
<time>2019-09-29T10:45:51Z</time>
</trkpt>
<trkpt lat="48.499168" lon="10.019205">
<ele>546</ele>
<time>2019-09-29T10:45:56Z</time>
</trkpt>
<trkpt lat="48.498865" lon="10.019247">
<ele>546</ele>
<time>2019-09-29T10:46:01Z</time>
</trkpt>
<trkpt lat="48.498577" lon="10.019277">
<ele>546</ele>
<time>2019-09-29T10:46:06Z</time>
</trkpt>
<trkpt lat="48.498298" lon="10.019273">
<ele>546</ele>
<time>2019-09-29T10:46:11Z</time>
</trkpt>
<trkpt lat="48.497987" lon="10.01923">
<ele>546</ele>
<time>2019-09-29T10:46:16Z</time>
</trkpt>
<trkpt lat="48.497667" lon="10.01915">
<ele>546</ele>
<time>2019-09-29T10:46:21Z</time>
</trkpt>
<trkpt lat="48.497307" lon="10.019013">
<ele>546</ele>
<time>2019-09-29T10:46:27Z</time>
</trkpt>
<trkpt lat="48.49702" lon="10.018887">
<ele>546</ele>
<time>2019-09-29T10:46:32Z</time>
</trkpt>
<trkpt lat="48.4968" lon="10.018705">
<ele>546</ele>
<time>2019-09-29T10:46:37Z</time>
</trkpt>
<trkpt lat="48.496635" lon="10.018748">
<ele>546</ele>
<time>2019-09-29T10:46:42Z</time>
</trkpt>
<trkpt lat="48.496647" lon="10.01907">
<ele>546</ele>
<time>2019-09-29T10:46:47Z</time>
</trkpt>
<trkpt lat="48.4965" lon="10.019058">
<ele>547</ele>
<time>2019-09-29T10:46:52Z</time>
</trkpt>
<trkpt lat="48.496378" lon="10.018812">
<ele>547</ele>
<time>2019-09-29T10:46:57Z</time>
</trkpt>
<trkpt lat="48.496213" lon="10.018542">
<ele>548</ele>
<time>2019-09-29T10:47:02Z</time>
</trkpt>
<trkpt lat="48.496048" lon="10.018283">
<ele>549</ele>
<time>2019-09-29T10:47:07Z</time>
</trkpt>
<trkpt lat="48.495868" lon="10.018053">
<ele>550</ele>
<time>2019-09-29T10:47:12Z</time>
</trkpt>
<trkpt lat="48.495688" lon="10.017815">
<ele>551</ele>
<time>2019-09-29T10:47:17Z</time>
</trkpt>
<trkpt lat="48.49552" lon="10.017577">
<ele>551</ele>
<time>2019-09-29T10:47:22Z</time>
</trkpt>
<trkpt lat="48.49536" lon="10.017318">
<ele>552</ele>
<time>2019-09-29T10:47:27Z</time>
</trkpt>
<trkpt lat="48.49519" lon="10.016997">
<ele>552</ele>
<time>2019-09-29T10:47:32Z</time>
</trkpt>
<trkpt lat="48.495025" lon="10.016667">
<ele>552</ele>
<time>2019-09-29T10:47:37Z</time>
</trkpt>
<trkpt lat="48.49484" lon="10.016452">
<ele>551</ele>
<time>2019-09-29T10:47:42Z</time>
</trkpt>
<trkpt lat="48.494587" lon="10.01637">
<ele>551</ele>
<time>2019-09-29T10:47:47Z</time>
</trkpt>
<trkpt lat="48.494328" lon="10.01631">
<ele>552</ele>
<time>2019-09-29T10:47:52Z</time>
</trkpt>
<trkpt lat="48.49407" lon="10.01625">
<ele>553</ele>
<time>2019-09-29T10:47:57Z</time>
</trkpt>
<trkpt lat="48.493783" lon="10.016192">
<ele>553</ele>
<time>2019-09-29T10:48:02Z</time>
</trkpt>
<trkpt lat="48.493452" lon="10.016125">
<ele>551</ele>
<time>2019-09-29T10:48:07Z</time>
</trkpt>
<trkpt lat="48.493105" lon="10.016055">
<ele>549</ele>
<time>2019-09-29T10:48:12Z</time>
</trkpt>
<trkpt lat="48.492767" lon="10.015978">
<ele>548</ele>
<time>2019-09-29T10:48:17Z</time>
</trkpt>
<trkpt lat="48.49244" lon="10.015898">
<ele>548</ele>
<time>2019-09-29T10:48:22Z</time>
</trkpt>
<trkpt lat="48.492123" lon="10.015823">
<ele>548</ele>
<time>2019-09-29T10:48:27Z</time>
</trkpt>
<trkpt lat="48.491758" lon="10.015745">
<ele>548</ele>
<time>2019-09-29T10:48:33Z</time>
</trkpt>
<trkpt lat="48.491468" lon="10.015672">
<ele>548</ele>
<time>2019-09-29T10:48:38Z</time>
</trkpt>
<trkpt lat="48.491192" lon="10.015612">
<ele>548</ele>
<time>2019-09-29T10:48:43Z</time>
</trkpt>
<trkpt lat="48.490953" lon="10.015568">
<ele>548</ele>
<time>2019-09-29T10:48:48Z</time>
</trkpt>
<trkpt lat="48.490752" lon="10.015507">
<ele>549</ele>
<time>2019-09-29T10:48:53Z</time>
</trkpt>
<trkpt lat="48.490535" lon="10.015455">
<ele>550</ele>
<time>2019-09-29T10:48:58Z</time>
</trkpt>
<trkpt lat="48.4903" lon="10.015392">
<ele>552</ele>
<time>2019-09-29T10:49:03Z</time>
</trkpt>
<trkpt lat="48.490052" lon="10.015332">
<ele>552</ele>
<time>2019-09-29T10:49:08Z</time>
</trkpt>
<trkpt lat="48.489797" lon="10.015272">
<ele>553</ele>
<time>2019-09-29T10:49:13Z</time>
</trkpt>
<trkpt lat="48.48953" lon="10.015205">
<ele>553</ele>
<time>2019-09-29T10:49:18Z</time>
</trkpt>
<trkpt lat="48.489265" lon="10.015138">
<ele>553</ele>
<time>2019-09-29T10:49:23Z</time>
</trkpt>
<trkpt lat="48.489033" lon="10.015078">
<ele>553</ele>
<time>2019-09-29T10:49:28Z</time>
</trkpt>
<trkpt lat="48.488822" lon="10.015037">
<ele>554</ele>
<time>2019-09-29T10:49:33Z</time>
</trkpt>
<trkpt lat="48.488602" lon="10.014988">
<ele>555</ele>
<time>2019-09-29T10:49:38Z</time>
</trkpt>
<trkpt lat="48.48837" lon="10.014927">
<ele>555</ele>
<time>2019-09-29T10:49:43Z</time>
</trkpt>
<trkpt lat="48.488128" lon="10.014867">
<ele>555</ele>
<time>2019-09-29T10:49:48Z</time>
</trkpt>
<trkpt lat="48.487877" lon="10.014813">
<ele>555</ele>
<time>2019-09-29T10:49:53Z</time>
</trkpt>
<trkpt lat="48.487633" lon="10.01475">
<ele>555</ele>
<time>2019-09-29T10:49:58Z</time>
</trkpt>
<trkpt lat="48.487393" lon="10.014695">
<ele>555</ele>
<time>2019-09-29T10:50:03Z</time>
</trkpt>
<trkpt lat="48.487177" lon="10.014642">
<ele>556</ele>
<time>2019-09-29T10:50:08Z</time>
</trkpt>
<trkpt lat="48.486997" lon="10.014592">
<ele>556</ele>
<time>2019-09-29T10:50:13Z</time>
</trkpt>
<trkpt lat="48.486843" lon="10.014403">
<ele>556</ele>
<time>2019-09-29T10:50:18Z</time>
</trkpt>
<trkpt lat="48.486718" lon="10.014145">
<ele>556</ele>
<time>2019-09-29T10:50:23Z</time>
</trkpt>
<trkpt lat="48.486567" lon="10.013955">
<ele>557</ele>
<time>2019-09-29T10:50:28Z</time>
</trkpt>
<trkpt lat="48.486417" lon="10.013867">
<ele>558</ele>
<time>2019-09-29T10:50:33Z</time>
</trkpt>
<trkpt lat="48.486232" lon="10.013877">
<ele>559</ele>
<time>2019-09-29T10:50:39Z</time>
</trkpt>
<trkpt lat="48.48608" lon="10.01398">
<ele>560</ele>
<time>2019-09-29T10:50:44Z</time>
</trkpt>
<trkpt lat="48.485935" lon="10.014103">
<ele>561</ele>
<time>2019-09-29T10:50:49Z</time>
</trkpt>
<trkpt lat="48.485797" lon="10.014242">
<ele>562</ele>
<time>2019-09-29T10:50:54Z</time>
</trkpt>
<trkpt lat="48.485647" lon="10.01436">
<ele>563</ele>
<time>2019-09-29T10:50:59Z</time>
</trkpt>
<trkpt lat="48.485493" lon="10.014475">
<ele>564</ele>
<time>2019-09-29T10:51:04Z</time>
</trkpt>
<trkpt lat="48.485373" lon="10.014583">
<ele>565</ele>
<time>2019-09-29T10:51:09Z</time>
</trkpt>
<trkpt lat="48.485263" lon="10.014673">
<ele>566</ele>
<time>2019-09-29T10:51:14Z</time>
</trkpt>
<trkpt lat="48.485125" lon="10.014738">
<ele>567</ele>
<time>2019-09-29T10:51:19Z</time>
</trkpt>
<trkpt lat="48.485" lon="10.014825">
<ele>568</ele>
<time>2019-09-29T10:51:24Z</time>
</trkpt>
<trkpt lat="48.484888" lon="10.01491">
<ele>569</ele>
<time>2019-09-29T10:51:29Z</time>
</trkpt>
<trkpt lat="48.484782" lon="10.014983">
<ele>569</ele>
<time>2019-09-29T10:51:34Z</time>
</trkpt>
<trkpt lat="48.484682" lon="10.01503">
<ele>571</ele>
<time>2019-09-29T10:51:39Z</time>
</trkpt>
<trkpt lat="48.484558" lon="10.015058">
<ele>572</ele>
<time>2019-09-29T10:51:44Z</time>
</trkpt>
<trkpt lat="48.484412" lon="10.015075">
<ele>573</ele>
<time>2019-09-29T10:51:49Z</time>
</trkpt>
<trkpt lat="48.484273" lon="10.015112">
<ele>574</ele>
<time>2019-09-29T10:51:54Z</time>
</trkpt>
<trkpt lat="48.484152" lon="10.015143">
<ele>574</ele>
<time>2019-09-29T10:51:59Z</time>
</trkpt>
<trkpt lat="48.484015" lon="10.015163">
<ele>575</ele>
<time>2019-09-29T10:52:04Z</time>
</trkpt>
<trkpt lat="48.48388" lon="10.015175">
<ele>576</ele>
<time>2019-09-29T10:52:09Z</time>
</trkpt>
<trkpt lat="48.483718" lon="10.015177">
<ele>577</ele>
<time>2019-09-29T10:52:14Z</time>
</trkpt>
<trkpt lat="48.48356" lon="10.015163">
<ele>577</ele>
<time>2019-09-29T10:52:19Z</time>
</trkpt>
<trkpt lat="48.483408" lon="10.015088">
<ele>578</ele>
<time>2019-09-29T10:52:24Z</time>
</trkpt>
<trkpt lat="48.48328" lon="10.014978">
<ele>578</ele>
<time>2019-09-29T10:52:29Z</time>
</trkpt>
<trkpt lat="48.483182" lon="10.014868">
<ele>579</ele>
<time>2019-09-29T10:52:34Z</time>
</trkpt>
<trkpt lat="48.483088" lon="10.014725">
<ele>580</ele>
<time>2019-09-29T10:52:39Z</time>
</trkpt>
<trkpt lat="48.483002" lon="10.014548">
<ele>581</ele>
<time>2019-09-29T10:52:44Z</time>
</trkpt>
<trkpt lat="48.482913" lon="10.01436">
<ele>581</ele>
<time>2019-09-29T10:52:49Z</time>
</trkpt>
<trkpt lat="48.482832" lon="10.014133">
<ele>581</ele>
<time>2019-09-29T10:52:54Z</time>
</trkpt>
<trkpt lat="48.482768" lon="10.013883">
<ele>582</ele>
<time>2019-09-29T10:52:59Z</time>
</trkpt>
<trkpt lat="48.482722" lon="10.01362">
<ele>582</ele>
<time>2019-09-29T10:53:04Z</time>
</trkpt>
<trkpt lat="48.482678" lon="10.013358">
<ele>582</ele>
<time>2019-09-29T10:53:09Z</time>
</trkpt>
<trkpt lat="48.482633" lon="10.013088">
<ele>583</ele>
<time>2019-09-29T10:53:14Z</time>
</trkpt>
<trkpt lat="48.482595" lon="10.012822">
<ele>584</ele>
<time>2019-09-29T10:53:19Z</time>
</trkpt>
<trkpt lat="48.482553" lon="10.012547">
<ele>584</ele>
<time>2019-09-29T10:53:24Z</time>
</trkpt>
<trkpt lat="48.48251" lon="10.012257">
<ele>585</ele>
<time>2019-09-29T10:53:29Z</time>
</trkpt>
<trkpt lat="48.48247" lon="10.011958">
<ele>585</ele>
<time>2019-09-29T10:53:34Z</time>
</trkpt>
<trkpt lat="48.482428" lon="10.011653">
<ele>585</ele>
<time>2019-09-29T10:53:39Z</time>
</trkpt>
<trkpt lat="48.482387" lon="10.011337">
<ele>585</ele>
<time>2019-09-29T10:53:44Z</time>
</trkpt>
<trkpt lat="48.482337" lon="10.011027">
<ele>586</ele>
<time>2019-09-29T10:53:49Z</time>
</trkpt>
<trkpt lat="48.482288" lon="10.010722">
<ele>586</ele>
<time>2019-09-29T10:53:54Z</time>
</trkpt>
<trkpt lat="48.482228" lon="10.010437">
<ele>587</ele>
<time>2019-09-29T10:53:59Z</time>
</trkpt>
<trkpt lat="48.482158" lon="10.01017">
<ele>587</ele>
<time>2019-09-29T10:54:04Z</time>
</trkpt>
<trkpt lat="48.482085" lon="10.009917">
<ele>587</ele>
<time>2019-09-29T10:54:09Z</time>
</trkpt>
<trkpt lat="48.482015" lon="10.009672">
<ele>587</ele>
<time>2019-09-29T10:54:14Z</time>
</trkpt>
<trkpt lat="48.481942" lon="10.009442">
<ele>588</ele>
<time>2019-09-29T10:54:19Z</time>
</trkpt>
<trkpt lat="48.48186" lon="10.009188">
<ele>588</ele>
<time>2019-09-29T10:54:24Z</time>
</trkpt>
<trkpt lat="48.48177" lon="10.008958">
<ele>589</ele>
<time>2019-09-29T10:54:29Z</time>
</trkpt>
<trkpt lat="48.481683" lon="10.008735">
<ele>590</ele>
<time>2019-09-29T10:54:34Z</time>
</trkpt>
<trkpt lat="48.48158" lon="10.008533">
<ele>590</ele>
<time>2019-09-29T10:54:39Z</time>
</trkpt>
<trkpt lat="48.481463" lon="10.008332">
<ele>591</ele>
<time>2019-09-29T10:54:44Z</time>
</trkpt>
<trkpt lat="48.481363" lon="10.008143">
<ele>591</ele>
<time>2019-09-29T10:54:49Z</time>
</trkpt>
<trkpt lat="48.481273" lon="10.007978">
<ele>590</ele>
<time>2019-09-29T10:54:54Z</time>
</trkpt>
<trkpt lat="48.481255" lon="10.007943">
<ele>589</ele>
<time>2019-09-29T10:54:59Z</time>
</trkpt>
<trkpt lat="48.481257" lon="10.007943">
<ele>589</ele>
<time>2019-09-29T10:55:04Z</time>
</trkpt>
<trkpt lat="48.481255" lon="10.007943">
<ele>589</ele>
<time>2019-09-29T10:55:09Z</time>
</trkpt>
<trkpt lat="48.48125" lon="10.007913">
<ele>588</ele>
<time>2019-09-29T10:55:19Z</time>
</trkpt>
<trkpt lat="48.481295" lon="10.007757">
<ele>588</ele>
<time>2019-09-29T10:55:24Z</time>
</trkpt>
<trkpt lat="48.481382" lon="10.007485">
<ele>589</ele>
<time>2019-09-29T10:55:29Z</time>
</trkpt>
<trkpt lat="48.481422" lon="10.007165">
<ele>590</ele>
<time>2019-09-29T10:55:34Z</time>
</trkpt>
<trkpt lat="48.481442" lon="10.006845">
<ele>591</ele>
<time>2019-09-29T10:55:39Z</time>
</trkpt>
<trkpt lat="48.481455" lon="10.00651">
<ele>592</ele>
<time>2019-09-29T10:55:44Z</time>
</trkpt>
<trkpt lat="48.481465" lon="10.00618">
<ele>593</ele>
<time>2019-09-29T10:55:49Z</time>
</trkpt>
<trkpt lat="48.48148" lon="10.005903">
<ele>593</ele>
<time>2019-09-29T10:55:54Z</time>
</trkpt>
<trkpt lat="48.48149" lon="10.005638">
<ele>593</ele>
<time>2019-09-29T10:55:59Z</time>
</trkpt>
<trkpt lat="48.481507" lon="10.005355">
<ele>594</ele>
<time>2019-09-29T10:56:04Z</time>
</trkpt>
<trkpt lat="48.481513" lon="10.00506">
<ele>594</ele>
<time>2019-09-29T10:56:09Z</time>
</trkpt>
<trkpt lat="48.481525" lon="10.00472">
<ele>594</ele>
<time>2019-09-29T10:56:14Z</time>
</trkpt>
<trkpt lat="48.481537" lon="10.004362">
<ele>594</ele>
<time>2019-09-29T10:56:19Z</time>
</trkpt>
<trkpt lat="48.481542" lon="10.003983">
<ele>594</ele>
<time>2019-09-29T10:56:24Z</time>
</trkpt>
<trkpt lat="48.481563" lon="10.003592">
<ele>594</ele>
<time>2019-09-29T10:56:29Z</time>
</trkpt>
<trkpt lat="48.48158" lon="10.003183">
<ele>595</ele>
<time>2019-09-29T10:56:34Z</time>
</trkpt>
<trkpt lat="48.481593" lon="10.002763">
<ele>595</ele>
<time>2019-09-29T10:56:39Z</time>
</trkpt>
<trkpt lat="48.481598" lon="10.00234">
<ele>595</ele>
<time>2019-09-29T10:56:44Z</time>
</trkpt>
<trkpt lat="48.481613" lon="10.001915">
<ele>595</ele>
<time>2019-09-29T10:56:49Z</time>
</trkpt>
<trkpt lat="48.481622" lon="10.001502">
<ele>595</ele>
<time>2019-09-29T10:56:54Z</time>
</trkpt>
<trkpt lat="48.481642" lon="10.001082">
<ele>595</ele>
<time>2019-09-29T10:56:59Z</time>
</trkpt>
<trkpt lat="48.481682" lon="10.000668">
<ele>595</ele>
<time>2019-09-29T10:57:04Z</time>
</trkpt>
<trkpt lat="48.481737" lon="10.000287">
<ele>595</ele>
<time>2019-09-29T10:57:09Z</time>
</trkpt>
<trkpt lat="48.481797" lon="9.999933">
<ele>595</ele>
<time>2019-09-29T10:57:14Z</time>
</trkpt>
<trkpt lat="48.48186" lon="9.99956">
<ele>595</ele>
<time>2019-09-29T10:57:19Z</time>
</trkpt>
<trkpt lat="48.481918" lon="9.999155">
<ele>595</ele>
<time>2019-09-29T10:57:24Z</time>
</trkpt>
<trkpt lat="48.481985" lon="9.998758">
<ele>596</ele>
<time>2019-09-29T10:57:29Z</time>
</trkpt>
<trkpt lat="48.482055" lon="9.998382">
<ele>596</ele>
<time>2019-09-29T10:57:34Z</time>
</trkpt>
<trkpt lat="48.48211" lon="9.997992">
<ele>597</ele>
<time>2019-09-29T10:57:39Z</time>
</trkpt>
<trkpt lat="48.482172" lon="9.997588">
<ele>597</ele>
<time>2019-09-29T10:57:44Z</time>
</trkpt>
<trkpt lat="48.482232" lon="9.997185">
<ele>597</ele>
<time>2019-09-29T10:57:49Z</time>
</trkpt>
<trkpt lat="48.482293" lon="9.996768">
<ele>597</ele>
<time>2019-09-29T10:57:54Z</time>
</trkpt>
<trkpt lat="48.48236" lon="9.996353">
<ele>597</ele>
<time>2019-09-29T10:57:59Z</time>
</trkpt>
<trkpt lat="48.482418" lon="9.99593">
<ele>597</ele>
<time>2019-09-29T10:58:04Z</time>
</trkpt>
<trkpt lat="48.482482" lon="9.995517">
<ele>597</ele>
<time>2019-09-29T10:58:09Z</time>
</trkpt>
<trkpt lat="48.482547" lon="9.995108">
<ele>597</ele>
<time>2019-09-29T10:58:14Z</time>
</trkpt>
<trkpt lat="48.48261" lon="9.99469">
<ele>597</ele>
<time>2019-09-29T10:58:19Z</time>
</trkpt>
<trkpt lat="48.482683" lon="9.994277">
<ele>597</ele>
<time>2019-09-29T10:58:24Z</time>
</trkpt>
<trkpt lat="48.482748" lon="9.993873">
<ele>597</ele>
<time>2019-09-29T10:58:29Z</time>
</trkpt>
<trkpt lat="48.482812" lon="9.993498">
<ele>597</ele>
<time>2019-09-29T10:58:34Z</time>
</trkpt>
<trkpt lat="48.482882" lon="9.993138">
<ele>597</ele>
<time>2019-09-29T10:58:39Z</time>
</trkpt>
<trkpt lat="48.482967" lon="9.99279">
<ele>597</ele>
<time>2019-09-29T10:58:44Z</time>
</trkpt>
<trkpt lat="48.483075" lon="9.992487">
<ele>598</ele>
<time>2019-09-29T10:58:49Z</time>
</trkpt>
<trkpt lat="48.483202" lon="9.992232">
<ele>598</ele>
<time>2019-09-29T10:58:54Z</time>
</trkpt>
<trkpt lat="48.483332" lon="9.992032">
<ele>599</ele>
<time>2019-09-29T10:58:59Z</time>
</trkpt>
<trkpt lat="48.483343" lon="9.991798">
<ele>599</ele>
<time>2019-09-29T10:59:04Z</time>
</trkpt>
<trkpt lat="48.483208" lon="9.991503">
<ele>600</ele>
<time>2019-09-29T10:59:09Z</time>
</trkpt>
<trkpt lat="48.483077" lon="9.991177">
<ele>600</ele>
<time>2019-09-29T10:59:14Z</time>
</trkpt>
<trkpt lat="48.482948" lon="9.990852">
<ele>600</ele>
<time>2019-09-29T10:59:19Z</time>
</trkpt>
<trkpt lat="48.482833" lon="9.990537">
<ele>600</ele>
<time>2019-09-29T10:59:24Z</time>
</trkpt>
<trkpt lat="48.482723" lon="9.990213">
<ele>600</ele>
<time>2019-09-29T10:59:29Z</time>
</trkpt>
<trkpt lat="48.482625" lon="9.989872">
<ele>600</ele>
<time>2019-09-29T10:59:34Z</time>
</trkpt>
<trkpt lat="48.482538" lon="9.989502">
<ele>600</ele>
<time>2019-09-29T10:59:39Z</time>
</trkpt>
<trkpt lat="48.482447" lon="9.989103">
<ele>600</ele>
<time>2019-09-29T10:59:44Z</time>
</trkpt>
<trkpt lat="48.482358" lon="9.988708">
<ele>600</ele>
<time>2019-09-29T10:59:49Z</time>
</trkpt>
<trkpt lat="48.48228" lon="9.988317">
<ele>598</ele>
<time>2019-09-29T10:59:54Z</time>
</trkpt>
<trkpt lat="48.482253" lon="9.987897">
<ele>598</ele>
<time>2019-09-29T10:59:59Z</time>
</trkpt>
<trkpt lat="48.482142" lon="9.987587">
<ele>597</ele>
<time>2019-09-29T11:00:04Z</time>
</trkpt>
<trkpt lat="48.48193" lon="9.987687">
<ele>597</ele>
<time>2019-09-29T11:00:09Z</time>
</trkpt>
<trkpt lat="48.481713" lon="9.98785">
<ele>597</ele>
<time>2019-09-29T11:00:14Z</time>
</trkpt>
<trkpt lat="48.481488" lon="9.988017">
<ele>599</ele>
<time>2019-09-29T11:00:19Z</time>
</trkpt>
<trkpt lat="48.481283" lon="9.988127">
<ele>601</ele>
<time>2019-09-29T11:00:24Z</time>
</trkpt>
<trkpt lat="48.481087" lon="9.988237">
<ele>602</ele>
<time>2019-09-29T11:00:29Z</time>
</trkpt>
<trkpt lat="48.4809" lon="9.988353">
<ele>602</ele>
<time>2019-09-29T11:00:34Z</time>
</trkpt>
<trkpt lat="48.4807" lon="9.98845">
<ele>603</ele>
<time>2019-09-29T11:00:39Z</time>
</trkpt>
<trkpt lat="48.480498" lon="9.988558">
<ele>604</ele>
<time>2019-09-29T11:00:44Z</time>
</trkpt>
<trkpt lat="48.480293" lon="9.988628">
<ele>604</ele>
<time>2019-09-29T11:00:49Z</time>
</trkpt>
<trkpt lat="48.48007" lon="9.988687">
<ele>605</ele>
<time>2019-09-29T11:00:54Z</time>
</trkpt>
<trkpt lat="48.479817" lon="9.988732">
<ele>605</ele>
<time>2019-09-29T11:00:59Z</time>
</trkpt>
<trkpt lat="48.47954" lon="9.988768">
<ele>605</ele>
<time>2019-09-29T11:01:04Z</time>
</trkpt>
<trkpt lat="48.47923" lon="9.98879">
<ele>605</ele>
<time>2019-09-29T11:01:09Z</time>
</trkpt>
<trkpt lat="48.478908" lon="9.98882">
<ele>602</ele>
<time>2019-09-29T11:01:14Z</time>
</trkpt>
<trkpt lat="48.478582" lon="9.988848">
<ele>602</ele>
<time>2019-09-29T11:01:19Z</time>
</trkpt>
<trkpt lat="48.478255" lon="9.98888">
<ele>600</ele>
<time>2019-09-29T11:01:24Z</time>
</trkpt>
<trkpt lat="48.47792" lon="9.988915">
<ele>598</ele>
<time>2019-09-29T11:01:29Z</time>
</trkpt>
<trkpt lat="48.477588" lon="9.989">
<ele>598</ele>
<time>2019-09-29T11:01:34Z</time>
</trkpt>
<trkpt lat="48.477257" lon="9.989113">
<ele>597</ele>
<time>2019-09-29T11:01:39Z</time>
</trkpt>
<trkpt lat="48.476918" lon="9.989227">
<ele>596</ele>
<time>2019-09-29T11:01:44Z</time>
</trkpt>
<trkpt lat="48.47657" lon="9.989325">
<ele>594</ele>
<time>2019-09-29T11:01:49Z</time>
</trkpt>
<trkpt lat="48.476205" lon="9.98942">
<ele>594</ele>
<time>2019-09-29T11:01:54Z</time>
</trkpt>
<trkpt lat="48.475847" lon="9.98951">
<ele>592</ele>
<time>2019-09-29T11:01:59Z</time>
</trkpt>
<trkpt lat="48.475512" lon="9.989592">
<ele>590</ele>
<time>2019-09-29T11:02:04Z</time>
</trkpt>
<trkpt lat="48.475155" lon="9.989683">
<ele>588</ele>
<time>2019-09-29T11:02:09Z</time>
</trkpt>
<trkpt lat="48.47473" lon="9.98984">
<ele>587</ele>
<time>2019-09-29T11:02:14Z</time>
</trkpt>
<trkpt lat="48.47426" lon="9.99007">
<ele>585</ele>
<time>2019-09-29T11:02:19Z</time>
</trkpt>
<trkpt lat="48.473748" lon="9.990338">
<ele>580</ele>
<time>2019-09-29T11:02:24Z</time>
</trkpt>
<trkpt lat="48.473297" lon="9.990683">
<ele>576</ele>
<time>2019-09-29T11:02:29Z</time>
</trkpt>
<trkpt lat="48.473143" lon="9.991283">
<ele>576</ele>
<time>2019-09-29T11:02:34Z</time>
</trkpt>
<trkpt lat="48.473083" lon="9.991847">
<ele>576</ele>
<time>2019-09-29T11:02:39Z</time>
</trkpt>
<trkpt lat="48.472928" lon="9.992348">
<ele>577</ele>
<time>2019-09-29T11:02:44Z</time>
</trkpt>
<trkpt lat="48.472673" lon="9.992725">
<ele>577</ele>
<time>2019-09-29T11:02:49Z</time>
</trkpt>
<trkpt lat="48.47237" lon="9.992942">
<ele>578</ele>
<time>2019-09-29T11:02:54Z</time>
</trkpt>
<trkpt lat="48.472065" lon="9.993032">
<ele>578</ele>
<time>2019-09-29T11:02:59Z</time>
</trkpt>
<trkpt lat="48.471808" lon="9.993075">
<ele>579</ele>
<time>2019-09-29T11:03:04Z</time>
</trkpt>
<trkpt lat="48.471598" lon="9.993075">
<ele>579</ele>
<time>2019-09-29T11:03:09Z</time>
</trkpt>
<trkpt lat="48.47144" lon="9.993057">
<ele>579</ele>
<time>2019-09-29T11:03:14Z</time>
</trkpt>
<trkpt lat="48.471287" lon="9.99303">
<ele>580</ele>
<time>2019-09-29T11:03:19Z</time>
</trkpt>
<trkpt lat="48.471137" lon="9.993">
<ele>582</ele>
<time>2019-09-29T11:03:24Z</time>
</trkpt>
<trkpt lat="48.470987" lon="9.99297">
<ele>584</ele>
<time>2019-09-29T11:03:29Z</time>
</trkpt>
<trkpt lat="48.470843" lon="9.992957">
<ele>585</ele>
<time>2019-09-29T11:03:34Z</time>
</trkpt>
<trkpt lat="48.470707" lon="9.992925">
<ele>586</ele>
<time>2019-09-29T11:03:39Z</time>
</trkpt>
<trkpt lat="48.470578" lon="9.992902">
<ele>587</ele>
<time>2019-09-29T11:03:44Z</time>
</trkpt>
<trkpt lat="48.470447" lon="9.992878">
<ele>589</ele>
<time>2019-09-29T11:03:49Z</time>
</trkpt>
<trkpt lat="48.470312" lon="9.992875">
<ele>590</ele>
<time>2019-09-29T11:03:54Z</time>
</trkpt>
<trkpt lat="48.47018" lon="9.992833">
<ele>591</ele>
<time>2019-09-29T11:03:59Z</time>
</trkpt>
<trkpt lat="48.470043" lon="9.99278">
<ele>592</ele>
<time>2019-09-29T11:04:04Z</time>
</trkpt>
<trkpt lat="48.469915" lon="9.99275">
<ele>592</ele>
<time>2019-09-29T11:04:09Z</time>
</trkpt>
<trkpt lat="48.469765" lon="9.992702">
<ele>593</ele>
<time>2019-09-29T11:04:14Z</time>
</trkpt>
<trkpt lat="48.46962" lon="9.992668">
<ele>593</ele>
<time>2019-09-29T11:04:19Z</time>
</trkpt>
<trkpt lat="48.469482" lon="9.992652">
<ele>594</ele>
<time>2019-09-29T11:04:24Z</time>
</trkpt>
<trkpt lat="48.469328" lon="9.992588">
<ele>595</ele>
<time>2019-09-29T11:04:29Z</time>
</trkpt>
<trkpt lat="48.469157" lon="9.992527">
<ele>595</ele>
<time>2019-09-29T11:04:34Z</time>
</trkpt>
<trkpt lat="48.469027" lon="9.992438">
<ele>595</ele>
<time>2019-09-29T11:04:39Z</time>
</trkpt>
<trkpt lat="48.469025" lon="9.992362">
<ele>595</ele>
<time>2019-09-29T11:04:45Z</time>
</trkpt>
<trkpt lat="48.469025" lon="9.992355">
<ele>595</ele>
<time>2019-09-29T11:04:50Z</time>
</trkpt>
<trkpt lat="48.469035" lon="9.992305">
<ele>595</ele>
<time>2019-09-29T11:04:56Z</time>
</trkpt>
<trkpt lat="48.469058" lon="9.992153">
<ele>595</ele>
<time>2019-09-29T11:05:01Z</time>
</trkpt>
<trkpt lat="48.469092" lon="9.991913">
<ele>595</ele>
<time>2019-09-29T11:05:06Z</time>
</trkpt>
<trkpt lat="48.469132" lon="9.99164">
<ele>595</ele>
<time>2019-09-29T11:05:12Z</time>
</trkpt>
<trkpt lat="48.469147" lon="9.991525">
<ele>595</ele>
<time>2019-09-29T11:05:17Z</time>
</trkpt>
<trkpt lat="48.469167" lon="9.991497">
<ele>595</ele>
<time>2019-09-29T11:05:22Z</time>
</trkpt>
<trkpt lat="48.469165" lon="9.991497">
<ele>595</ele>
<time>2019-09-29T11:05:27Z</time>
</trkpt>
<trkpt lat="48.469158" lon="9.991488">
<ele>595</ele>
<time>2019-09-29T11:06:11Z</time>
</trkpt>
<trkpt lat="48.469122" lon="9.991527">
<ele>595</ele>
<time>2019-09-29T11:06:16Z</time>
</trkpt>
<trkpt lat="48.469108" lon="9.99154">
<ele>595</ele>
<time>2019-09-29T11:06:21Z</time>
</trkpt>
<trkpt lat="48.469108" lon="9.991543">
<ele>595</ele>
<time>2019-09-29T11:06:27Z</time>
</trkpt>
<trkpt lat="48.469103" lon="9.991565">
<ele>595</ele>
<time>2019-09-29T11:06:32Z</time>
</trkpt>
<trkpt lat="48.469098" lon="9.991607">
<ele>595</ele>
<time>2019-09-29T11:06:37Z</time>
</trkpt>
<trkpt lat="48.469088" lon="9.991632">
<ele>595</ele>
<time>2019-09-29T11:06:42Z</time>
</trkpt>
<trkpt lat="48.469087" lon="9.991665">
<ele>595</ele>
<time>2019-09-29T11:06:47Z</time>
</trkpt>
<trkpt lat="48.469083" lon="9.991673">
<ele>595</ele>
<time>2019-09-29T11:06:52Z</time>
</trkpt>
<trkpt lat="48.469077" lon="9.991717">
<ele>595</ele>
<time>2019-09-29T11:06:57Z</time>
</trkpt>
<trkpt lat="48.469078" lon="9.99176">
<ele>595</ele>
<time>2019-09-29T11:07:02Z</time>
</trkpt>
<trkpt lat="48.469073" lon="9.991793">
<ele>595</ele>
<time>2019-09-29T11:07:07Z</time>
</trkpt>
<trkpt lat="48.469072" lon="9.991853">
<ele>595</ele>
<time>2019-09-29T11:07:13Z</time>
</trkpt>
<trkpt lat="48.469078" lon="9.991893">
<ele>595</ele>
<time>2019-09-29T11:07:19Z</time>
</trkpt>
<trkpt lat="48.469082" lon="9.99189">
<ele>595</ele>
<time>2019-09-29T11:07:24Z</time>
</trkpt>
<trkpt lat="48.469083" lon="9.991887">
<ele>595</ele>
<time>2019-09-29T11:07:29Z</time>
</trkpt>
<trkpt lat="48.46908" lon="9.991885">
<ele>595</ele>
<time>2019-09-29T11:07:34Z</time>
</trkpt>
<trkpt lat="48.46908" lon="9.991887">
<ele>595</ele>
<time>2019-09-29T11:07:39Z</time>
</trkpt>
<trkpt lat="48.469083" lon="9.991847">
<ele>595</ele>
<time>2019-09-29T11:07:51Z</time>
</trkpt>
<trkpt lat="48.469102" lon="9.991642">
<ele>595</ele>
<time>2019-09-29T11:07:56Z</time>
</trkpt>
<trkpt lat="48.469135" lon="9.991363">
<ele>595</ele>
<time>2019-09-29T11:08:01Z</time>
</trkpt>
<trkpt lat="48.469172" lon="9.991065">
<ele>595</ele>
<time>2019-09-29T11:08:06Z</time>
</trkpt>
<trkpt lat="48.469212" lon="9.99074">
<ele>595</ele>
<time>2019-09-29T11:08:11Z</time>
</trkpt>
<trkpt lat="48.469245" lon="9.99039">
<ele>596</ele>
<time>2019-09-29T11:08:16Z</time>
</trkpt>
<trkpt lat="48.469263" lon="9.990032">
<ele>596</ele>
<time>2019-09-29T11:08:21Z</time>
</trkpt>
<trkpt lat="48.469273" lon="9.989668">
<ele>596</ele>
<time>2019-09-29T11:08:26Z</time>
</trkpt>
<trkpt lat="48.469252" lon="9.989352">
<ele>596</ele>
<time>2019-09-29T11:08:31Z</time>
</trkpt>
<trkpt lat="48.469102" lon="9.989173">
<ele>596</ele>
<time>2019-09-29T11:08:36Z</time>
</trkpt>
<trkpt lat="48.468833" lon="9.989122">
<ele>597</ele>
<time>2019-09-29T11:08:42Z</time>
</trkpt>
<trkpt lat="48.46855" lon="9.989053">
<ele>597</ele>
<time>2019-09-29T11:08:48Z</time>
</trkpt>
<trkpt lat="48.468298" lon="9.988985">
<ele>598</ele>
<time>2019-09-29T11:08:53Z</time>
</trkpt>
<trkpt lat="48.468032" lon="9.988917">
<ele>598</ele>
<time>2019-09-29T11:08:58Z</time>
</trkpt>
<trkpt lat="48.467752" lon="9.988847">
<ele>597</ele>
<time>2019-09-29T11:09:03Z</time>
</trkpt>
<trkpt lat="48.467377" lon="9.988747">
<ele>596</ele>
<time>2019-09-29T11:09:09Z</time>
</trkpt>
<trkpt lat="48.467062" lon="9.988665">
<ele>596</ele>
<time>2019-09-29T11:09:14Z</time>
</trkpt>
<trkpt lat="48.466727" lon="9.988593">
<ele>595</ele>
<time>2019-09-29T11:09:19Z</time>
</trkpt>
<trkpt lat="48.466383" lon="9.988505">
<ele>593</ele>
<time>2019-09-29T11:09:24Z</time>
</trkpt>
<trkpt lat="48.466063" lon="9.98841">
<ele>593</ele>
<time>2019-09-29T11:09:29Z</time>
</trkpt>
<trkpt lat="48.465765" lon="9.988338">
<ele>593</ele>
<time>2019-09-29T11:09:34Z</time>
</trkpt>
<trkpt lat="48.465467" lon="9.98827">
<ele>593</ele>
<time>2019-09-29T11:09:39Z</time>
</trkpt>
<trkpt lat="48.465117" lon="9.988177">
<ele>593</ele>
<time>2019-09-29T11:09:45Z</time>
</trkpt>
<trkpt lat="48.4648" lon="9.988102">
<ele>593</ele>
<time>2019-09-29T11:09:50Z</time>
</trkpt>
<trkpt lat="48.46448" lon="9.988017">
<ele>592</ele>
<time>2019-09-29T11:09:55Z</time>
</trkpt>
<trkpt lat="48.464157" lon="9.987933">
<ele>592</ele>
<time>2019-09-29T11:10:00Z</time>
</trkpt>
<trkpt lat="48.463797" lon="9.987838">
<ele>590</ele>
<time>2019-09-29T11:10:05Z</time>
</trkpt>
<trkpt lat="48.463397" lon="9.987735">
<ele>588</ele>
<time>2019-09-29T11:10:10Z</time>
</trkpt>
<trkpt lat="48.46297" lon="9.98762">
<ele>587</ele>
<time>2019-09-29T11:10:15Z</time>
</trkpt>
<trkpt lat="48.462607" lon="9.987568">
<ele>585</ele>
<time>2019-09-29T11:10:20Z</time>
</trkpt>
<trkpt lat="48.462353" lon="9.987665">
<ele>586</ele>
<time>2019-09-29T11:10:25Z</time>
</trkpt>
<trkpt lat="48.462188" lon="9.987817">
<ele>588</ele>
<time>2019-09-29T11:10:30Z</time>
</trkpt>
<trkpt lat="48.462042" lon="9.987958">
<ele>589</ele>
<time>2019-09-29T11:10:35Z</time>
</trkpt>
<trkpt lat="48.461882" lon="9.988073">
<ele>590</ele>
<time>2019-09-29T11:10:40Z</time>
</trkpt>
<trkpt lat="48.461693" lon="9.988143">
<ele>591</ele>
<time>2019-09-29T11:10:45Z</time>
</trkpt>
<trkpt lat="48.461497" lon="9.988223">
<ele>592</ele>
<time>2019-09-29T11:10:50Z</time>
</trkpt>
<trkpt lat="48.461292" lon="9.988305">
<ele>593</ele>
<time>2019-09-29T11:10:55Z</time>
</trkpt>
<trkpt lat="48.461078" lon="9.988395">
<ele>593</ele>
<time>2019-09-29T11:11:00Z</time>
</trkpt>
<trkpt lat="48.460865" lon="9.988483">
<ele>594</ele>
<time>2019-09-29T11:11:05Z</time>
</trkpt>
<trkpt lat="48.460657" lon="9.988568">
<ele>595</ele>
<time>2019-09-29T11:11:10Z</time>
</trkpt>
<trkpt lat="48.46045" lon="9.988653">
<ele>595</ele>
<time>2019-09-29T11:11:15Z</time>
</trkpt>
<trkpt lat="48.460245" lon="9.988737">
<ele>596</ele>
<time>2019-09-29T11:11:20Z</time>
</trkpt>
<trkpt lat="48.460042" lon="9.988823">
<ele>596</ele>
<time>2019-09-29T11:11:25Z</time>
</trkpt>
<trkpt lat="48.459853" lon="9.988902">
<ele>596</ele>
<time>2019-09-29T11:11:30Z</time>
</trkpt>
<trkpt lat="48.459642" lon="9.988982">
<ele>596</ele>
<time>2019-09-29T11:11:35Z</time>
</trkpt>
<trkpt lat="48.45943" lon="9.989055">
<ele>597</ele>
<time>2019-09-29T11:11:40Z</time>
</trkpt>
<trkpt lat="48.459215" lon="9.989102">
<ele>597</ele>
<time>2019-09-29T11:11:45Z</time>
</trkpt>
<trkpt lat="48.459007" lon="9.989098">
<ele>597</ele>
<time>2019-09-29T11:11:50Z</time>
</trkpt>
<trkpt lat="48.458863" lon="9.989192">
<ele>597</ele>
<time>2019-09-29T11:11:55Z</time>
</trkpt>
<trkpt lat="48.458867" lon="9.989503">
<ele>597</ele>
<time>2019-09-29T11:12:00Z</time>
</trkpt>
<trkpt lat="48.458873" lon="9.98986">
<ele>597</ele>
<time>2019-09-29T11:12:05Z</time>
</trkpt>
<trkpt lat="48.458883" lon="9.990232">
<ele>597</ele>
<time>2019-09-29T11:12:10Z</time>
</trkpt>
<trkpt lat="48.458895" lon="9.990618">
<ele>598</ele>
<time>2019-09-29T11:12:15Z</time>
</trkpt>
<trkpt lat="48.458907" lon="9.991107">
<ele>598</ele>
<time>2019-09-29T11:12:21Z</time>
</trkpt>
<trkpt lat="48.458922" lon="9.991465">
<ele>599</ele>
<time>2019-09-29T11:12:26Z</time>
</trkpt>
<trkpt lat="48.458802" lon="9.991663">
<ele>600</ele>
<time>2019-09-29T11:12:31Z</time>
</trkpt>
<trkpt lat="48.458587" lon="9.991677">
<ele>600</ele>
<time>2019-09-29T11:12:36Z</time>
</trkpt>
<trkpt lat="48.458365" lon="9.991693">
<ele>600</ele>
<time>2019-09-29T11:12:41Z</time>
</trkpt>
<trkpt lat="48.458168" lon="9.991685">
<ele>601</ele>
<time>2019-09-29T11:12:46Z</time>
</trkpt>
<trkpt lat="48.45798" lon="9.991682">
<ele>603</ele>
<time>2019-09-29T11:12:51Z</time>
</trkpt>
<trkpt lat="48.457788" lon="9.991678">
<ele>603</ele>
<time>2019-09-29T11:12:56Z</time>
</trkpt>
<trkpt lat="48.457527" lon="9.991682">
<ele>603</ele>
<time>2019-09-29T11:13:01Z</time>
</trkpt>
<trkpt lat="48.457225" lon="9.99167">
<ele>603</ele>
<time>2019-09-29T11:13:06Z</time>
</trkpt>
<trkpt lat="48.456922" lon="9.991652">
<ele>603</ele>
<time>2019-09-29T11:13:11Z</time>
</trkpt>
<trkpt lat="48.456605" lon="9.991627">
<ele>603</ele>
<time>2019-09-29T11:13:16Z</time>
</trkpt>
<trkpt lat="48.456285" lon="9.991607">
<ele>603</ele>
<time>2019-09-29T11:13:21Z</time>
</trkpt>
<trkpt lat="48.455988" lon="9.99158">
<ele>603</ele>
<time>2019-09-29T11:13:26Z</time>
</trkpt>
<trkpt lat="48.45574" lon="9.991572">
<ele>603</ele>
<time>2019-09-29T11:13:31Z</time>
</trkpt>
<trkpt lat="48.455533" lon="9.99151">
<ele>603</ele>
<time>2019-09-29T11:13:36Z</time>
</trkpt>
<trkpt lat="48.455493" lon="9.991185">
<ele>603</ele>
<time>2019-09-29T11:13:41Z</time>
</trkpt>
<trkpt lat="48.455485" lon="9.990803">
<ele>603</ele>
<time>2019-09-29T11:13:46Z</time>
</trkpt>
<trkpt lat="48.455485" lon="9.990398">
<ele>603</ele>
<time>2019-09-29T11:13:51Z</time>
</trkpt>
<trkpt lat="48.455485" lon="9.990013">
<ele>603</ele>
<time>2019-09-29T11:13:56Z</time>
</trkpt>
<trkpt lat="48.455482" lon="9.989673">
<ele>603</ele>
<time>2019-09-29T11:14:01Z</time>
</trkpt>
<trkpt lat="48.455345" lon="9.989415">
<ele>603</ele>
<time>2019-09-29T11:14:06Z</time>
</trkpt>
<trkpt lat="48.455055" lon="9.989408">
<ele>603</ele>
<time>2019-09-29T11:14:11Z</time>
</trkpt>
<trkpt lat="48.454763" lon="9.989362">
<ele>603</ele>
<time>2019-09-29T11:14:16Z</time>
</trkpt>
<trkpt lat="48.454473" lon="9.989315">
<ele>602</ele>
<time>2019-09-29T11:14:21Z</time>
</trkpt>
<trkpt lat="48.454182" lon="9.989265">
<ele>601</ele>
<time>2019-09-29T11:14:26Z</time>
</trkpt>
<trkpt lat="48.453897" lon="9.989188">
<ele>600</ele>
<time>2019-09-29T11:14:31Z</time>
</trkpt>
<trkpt lat="48.453617" lon="9.989022">
<ele>600</ele>
<time>2019-09-29T11:14:36Z</time>
</trkpt>
<trkpt lat="48.453307" lon="9.988798">
<ele>599</ele>
<time>2019-09-29T11:14:41Z</time>
</trkpt>
<trkpt lat="48.452967" lon="9.98857">
<ele>597</ele>
<time>2019-09-29T11:14:46Z</time>
</trkpt>
<trkpt lat="48.452607" lon="9.988337">
<ele>596</ele>
<time>2019-09-29T11:14:51Z</time>
</trkpt>
<trkpt lat="48.452273" lon="9.988095">
<ele>593</ele>
<time>2019-09-29T11:14:56Z</time>
</trkpt>
<trkpt lat="48.451985" lon="9.987882">
<ele>593</ele>
<time>2019-09-29T11:15:01Z</time>
</trkpt>
<trkpt lat="48.451752" lon="9.987717">
<ele>594</ele>
<time>2019-09-29T11:15:06Z</time>
</trkpt>
<trkpt lat="48.451525" lon="9.98756">
<ele>596</ele>
<time>2019-09-29T11:15:11Z</time>
</trkpt>
<trkpt lat="48.45133" lon="9.987438">
<ele>598</ele>
<time>2019-09-29T11:15:16Z</time>
</trkpt>
<trkpt lat="48.451155" lon="9.987403">
<ele>599</ele>
<time>2019-09-29T11:15:21Z</time>
</trkpt>
<trkpt lat="48.450988" lon="9.98739">
<ele>600</ele>
<time>2019-09-29T11:15:26Z</time>
</trkpt>
<trkpt lat="48.450812" lon="9.987365">
<ele>601</ele>
<time>2019-09-29T11:15:31Z</time>
</trkpt>
<trkpt lat="48.450623" lon="9.987205">
<ele>601</ele>
<time>2019-09-29T11:15:36Z</time>
</trkpt>
<trkpt lat="48.450638" lon="9.986723">
<ele>599</ele>
<time>2019-09-29T11:15:41Z</time>
</trkpt>
<trkpt lat="48.450658" lon="9.98611">
<ele>598</ele>
<time>2019-09-29T11:15:46Z</time>
</trkpt>
<trkpt lat="48.450615" lon="9.985405">
<ele>595</ele>
<time>2019-09-29T11:15:51Z</time>
</trkpt>
<trkpt lat="48.450547" lon="9.984757">
<ele>595</ele>
<time>2019-09-29T11:15:56Z</time>
</trkpt>
<trkpt lat="48.450438" lon="9.984268">
<ele>595</ele>
<time>2019-09-29T11:16:01Z</time>
</trkpt>
<trkpt lat="48.45036" lon="9.984005">
<ele>595</ele>
<time>2019-09-29T11:16:06Z</time>
</trkpt>
<trkpt lat="48.450213" lon="9.983873">
<ele>595</ele>
<time>2019-09-29T11:16:11Z</time>
</trkpt>
<trkpt lat="48.450018" lon="9.984075">
<ele>595</ele>
<time>2019-09-29T11:16:16Z</time>
</trkpt>
<trkpt lat="48.4498" lon="9.984322">
<ele>595</ele>
<time>2019-09-29T11:16:21Z</time>
</trkpt>
<trkpt lat="48.449558" lon="9.984545">
<ele>595</ele>
<time>2019-09-29T11:16:26Z</time>
</trkpt>
<trkpt lat="48.449302" lon="9.984737">
<ele>595</ele>
<time>2019-09-29T11:16:31Z</time>
</trkpt>
<trkpt lat="48.449043" lon="9.984873">
<ele>595</ele>
<time>2019-09-29T11:16:36Z</time>
</trkpt>
<trkpt lat="48.448818" lon="9.984958">
<ele>596</ele>
<time>2019-09-29T11:16:41Z</time>
</trkpt>
<trkpt lat="48.44864" lon="9.985003">
<ele>597</ele>
<time>2019-09-29T11:16:46Z</time>
</trkpt>
<trkpt lat="48.44852" lon="9.985172">
<ele>597</ele>
<time>2019-09-29T11:16:51Z</time>
</trkpt>
<trkpt lat="48.448403" lon="9.985373">
<ele>597</ele>
<time>2019-09-29T11:16:56Z</time>
</trkpt>
<trkpt lat="48.448217" lon="9.98546">
<ele>598</ele>
<time>2019-09-29T11:17:01Z</time>
</trkpt>
<trkpt lat="48.448015" lon="9.985548">
<ele>598</ele>
<time>2019-09-29T11:17:06Z</time>
</trkpt>
<trkpt lat="48.447793" lon="9.985627">
<ele>600</ele>
<time>2019-09-29T11:17:11Z</time>
</trkpt>
<trkpt lat="48.447548" lon="9.985708">
<ele>600</ele>
<time>2019-09-29T11:17:16Z</time>
</trkpt>
<trkpt lat="48.447277" lon="9.985792">
<ele>600</ele>
<time>2019-09-29T11:17:21Z</time>
</trkpt>
<trkpt lat="48.447005" lon="9.98587">
<ele>600</ele>
<time>2019-09-29T11:17:26Z</time>
</trkpt>
<trkpt lat="48.44673" lon="9.985955">
<ele>600</ele>
<time>2019-09-29T11:17:31Z</time>
</trkpt>
<trkpt lat="48.446433" lon="9.986038">
<ele>600</ele>
<time>2019-09-29T11:17:36Z</time>
</trkpt>
<trkpt lat="48.446137" lon="9.986133">
<ele>600</ele>
<time>2019-09-29T11:17:41Z</time>
</trkpt>
<trkpt lat="48.445833" lon="9.98621">
<ele>599</ele>
<time>2019-09-29T11:17:46Z</time>
</trkpt>
<trkpt lat="48.445513" lon="9.986257">
<ele>599</ele>
<time>2019-09-29T11:17:51Z</time>
</trkpt>
<trkpt lat="48.445185" lon="9.986282">
<ele>599</ele>
<time>2019-09-29T11:17:56Z</time>
</trkpt>
<trkpt lat="48.44488" lon="9.986353">
<ele>598</ele>
<time>2019-09-29T11:18:01Z</time>
</trkpt>
<trkpt lat="48.44461" lon="9.986395">
<ele>598</ele>
<time>2019-09-29T11:18:06Z</time>
</trkpt>
<trkpt lat="48.444343" lon="9.986412">
<ele>598</ele>
<time>2019-09-29T11:18:11Z</time>
</trkpt>
<trkpt lat="48.44411" lon="9.986468">
<ele>599</ele>
<time>2019-09-29T11:18:16Z</time>
</trkpt>
<trkpt lat="48.443895" lon="9.986508">
<ele>599</ele>
<time>2019-09-29T11:18:21Z</time>
</trkpt>
<trkpt lat="48.443695" lon="9.986533">
<ele>601</ele>
<time>2019-09-29T11:18:26Z</time>
</trkpt>
<trkpt lat="48.443507" lon="9.986582">
<ele>601</ele>
<time>2019-09-29T11:18:31Z</time>
</trkpt>
<trkpt lat="48.44329" lon="9.986608">
<ele>602</ele>
<time>2019-09-29T11:18:36Z</time>
</trkpt>
<trkpt lat="48.443075" lon="9.986622">
<ele>603</ele>
<time>2019-09-29T11:18:41Z</time>
</trkpt>
<trkpt lat="48.442863" lon="9.986658">
<ele>603</ele>
<time>2019-09-29T11:18:46Z</time>
</trkpt>
<trkpt lat="48.44268" lon="9.986743">
<ele>603</ele>
<time>2019-09-29T11:18:51Z</time>
</trkpt>
<trkpt lat="48.44247" lon="9.986832">
<ele>603</ele>
<time>2019-09-29T11:18:56Z</time>
</trkpt>
<trkpt lat="48.442342" lon="9.986938">
<ele>603</ele>
<time>2019-09-29T11:19:01Z</time>
</trkpt>
<trkpt lat="48.442168" lon="9.986955">
<ele>603</ele>
<time>2019-09-29T11:19:06Z</time>
</trkpt>
<trkpt lat="48.441995" lon="9.986963">
<ele>603</ele>
<time>2019-09-29T11:19:11Z</time>
</trkpt>
<trkpt lat="48.441802" lon="9.986933">
<ele>603</ele>
<time>2019-09-29T11:19:16Z</time>
</trkpt>
<trkpt lat="48.441598" lon="9.986915">
<ele>603</ele>
<time>2019-09-29T11:19:21Z</time>
</trkpt>
<trkpt lat="48.441397" lon="9.98689">
<ele>603</ele>
<time>2019-09-29T11:19:26Z</time>
</trkpt>
<trkpt lat="48.441185" lon="9.986858">
<ele>602</ele>
<time>2019-09-29T11:19:31Z</time>
</trkpt>
<trkpt lat="48.441072" lon="9.986825">
<ele>601</ele>
<time>2019-09-29T11:19:36Z</time>
</trkpt>
<trkpt lat="48.44095" lon="9.986755">
<ele>601</ele>
<time>2019-09-29T11:19:41Z</time>
</trkpt>
<trkpt lat="48.440753" lon="9.98668">
<ele>601</ele>
<time>2019-09-29T11:19:46Z</time>
</trkpt>
<trkpt lat="48.44052" lon="9.986632">
<ele>601</ele>
<time>2019-09-29T11:19:51Z</time>
</trkpt>
<trkpt lat="48.44027" lon="9.986592">
<ele>601</ele>
<time>2019-09-29T11:19:56Z</time>
</trkpt>
<trkpt lat="48.440023" lon="9.986608">
<ele>601</ele>
<time>2019-09-29T11:20:01Z</time>
</trkpt>
<trkpt lat="48.439853" lon="9.986648">
<ele>601</ele>
<time>2019-09-29T11:20:06Z</time>
</trkpt>
<trkpt lat="48.439748" lon="9.986658">
<ele>599</ele>
<time>2019-09-29T11:20:11Z</time>
</trkpt>
<trkpt lat="48.439558" lon="9.98668">
<ele>599</ele>
<time>2019-09-29T11:20:16Z</time>
</trkpt>
<trkpt lat="48.439353" lon="9.986685">
<ele>599</ele>
<time>2019-09-29T11:20:21Z</time>
</trkpt>
<trkpt lat="48.439228" lon="9.986662">
<ele>599</ele>
<time>2019-09-29T11:20:26Z</time>
</trkpt>
<trkpt lat="48.439032" lon="9.986672">
<ele>599</ele>
<time>2019-09-29T11:20:31Z</time>
</trkpt>
<trkpt lat="48.438788" lon="9.98668">
<ele>599</ele>
<time>2019-09-29T11:20:36Z</time>
</trkpt>
<trkpt lat="48.438535" lon="9.986652">
<ele>600</ele>
<time>2019-09-29T11:20:41Z</time>
</trkpt>
<trkpt lat="48.438268" lon="9.98662">
<ele>601</ele>
<time>2019-09-29T11:20:46Z</time>
</trkpt>
<trkpt lat="48.437992" lon="9.98658">
<ele>601</ele>
<time>2019-09-29T11:20:51Z</time>
</trkpt>
<trkpt lat="48.437703" lon="9.986545">
<ele>601</ele>
<time>2019-09-29T11:20:56Z</time>
</trkpt>
<trkpt lat="48.437412" lon="9.9865">
<ele>601</ele>
<time>2019-09-29T11:21:01Z</time>
</trkpt>
<trkpt lat="48.437123" lon="9.986445">
<ele>601</ele>
<time>2019-09-29T11:21:06Z</time>
</trkpt>
<trkpt lat="48.43685" lon="9.986387">
<ele>601</ele>
<time>2019-09-29T11:21:11Z</time>
</trkpt>
<trkpt lat="48.43656" lon="9.986335">
<ele>600</ele>
<time>2019-09-29T11:21:16Z</time>
</trkpt>
<trkpt lat="48.436262" lon="9.986278">
<ele>599</ele>
<time>2019-09-29T11:21:21Z</time>
</trkpt>
<trkpt lat="48.435958" lon="9.986222">
<ele>599</ele>
<time>2019-09-29T11:21:26Z</time>
</trkpt>
<trkpt lat="48.435638" lon="9.986153">
<ele>598</ele>
<time>2019-09-29T11:21:31Z</time>
</trkpt>
<trkpt lat="48.435322" lon="9.986065">
<ele>598</ele>
<time>2019-09-29T11:21:36Z</time>
</trkpt>
<trkpt lat="48.435015" lon="9.986003">
<ele>598</ele>
<time>2019-09-29T11:21:41Z</time>
</trkpt>
<trkpt lat="48.434702" lon="9.98595">
<ele>598</ele>
<time>2019-09-29T11:21:46Z</time>
</trkpt>
<trkpt lat="48.434373" lon="9.9859">
<ele>598</ele>
<time>2019-09-29T11:21:51Z</time>
</trkpt>
<trkpt lat="48.434038" lon="9.985868">
<ele>598</ele>
<time>2019-09-29T11:21:56Z</time>
</trkpt>
<trkpt lat="48.43371" lon="9.98584">
<ele>598</ele>
<time>2019-09-29T11:22:01Z</time>
</trkpt>
<trkpt lat="48.433403" lon="9.985813">
<ele>598</ele>
<time>2019-09-29T11:22:06Z</time>
</trkpt>
<trkpt lat="48.433092" lon="9.985782">
<ele>598</ele>
<time>2019-09-29T11:22:11Z</time>
</trkpt>
<trkpt lat="48.432788" lon="9.985753">
<ele>598</ele>
<time>2019-09-29T11:22:16Z</time>
</trkpt>
<trkpt lat="48.432507" lon="9.985732">
<ele>598</ele>
<time>2019-09-29T11:22:21Z</time>
</trkpt>
<trkpt lat="48.432195" lon="9.9857">
<ele>598</ele>
<time>2019-09-29T11:22:26Z</time>
</trkpt>
<trkpt lat="48.431855" lon="9.985667">
<ele>598</ele>
<time>2019-09-29T11:22:31Z</time>
</trkpt>
<trkpt lat="48.431515" lon="9.985647">
<ele>598</ele>
<time>2019-09-29T11:22:36Z</time>
</trkpt>
<trkpt lat="48.4312" lon="9.985618">
<ele>598</ele>
<time>2019-09-29T11:22:41Z</time>
</trkpt>
<trkpt lat="48.43086" lon="9.985578">
<ele>598</ele>
<time>2019-09-29T11:22:46Z</time>
</trkpt>
<trkpt lat="48.430515" lon="9.985533">
<ele>598</ele>
<time>2019-09-29T11:22:51Z</time>
</trkpt>
<trkpt lat="48.430135" lon="9.985473">
<ele>596</ele>
<time>2019-09-29T11:22:56Z</time>
</trkpt>
<trkpt lat="48.429725" lon="9.985425">
<ele>595</ele>
<time>2019-09-29T11:23:01Z</time>
</trkpt>
<trkpt lat="48.429283" lon="9.985422">
<ele>592</ele>
<time>2019-09-29T11:23:06Z</time>
</trkpt>
<trkpt lat="48.428835" lon="9.985453">
<ele>590</ele>
<time>2019-09-29T11:23:11Z</time>
</trkpt>
<trkpt lat="48.428413" lon="9.985513">
<ele>590</ele>
<time>2019-09-29T11:23:16Z</time>
</trkpt>
<trkpt lat="48.428042" lon="9.985552">
<ele>590</ele>
<time>2019-09-29T11:23:21Z</time>
</trkpt>
<trkpt lat="48.4277" lon="9.985588">
<ele>590</ele>
<time>2019-09-29T11:23:26Z</time>
</trkpt>
<trkpt lat="48.427397" lon="9.985638">
<ele>589</ele>
<time>2019-09-29T11:23:31Z</time>
</trkpt>
<trkpt lat="48.427103" lon="9.985698">
<ele>589</ele>
<time>2019-09-29T11:23:36Z</time>
</trkpt>
<trkpt lat="48.426798" lon="9.985832">
<ele>588</ele>
<time>2019-09-29T11:23:41Z</time>
</trkpt>
<trkpt lat="48.42653" lon="9.986025">
<ele>587</ele>
<time>2019-09-29T11:23:46Z</time>
</trkpt>
<trkpt lat="48.426357" lon="9.98622">
<ele>586</ele>
<time>2019-09-29T11:23:51Z</time>
</trkpt>
<trkpt lat="48.426268" lon="9.986362">
<ele>585</ele>
<time>2019-09-29T11:23:56Z</time>
</trkpt>
<trkpt lat="48.4262" lon="9.986442">
<ele>585</ele>
<time>2019-09-29T11:24:01Z</time>
</trkpt>
<trkpt lat="48.426138" lon="9.98644">
<ele>585</ele>
<time>2019-09-29T11:24:06Z</time>
</trkpt>
<trkpt lat="48.426142" lon="9.986438">
<ele>585</ele>
<time>2019-09-29T11:24:11Z</time>
</trkpt>
<trkpt lat="48.426132" lon="9.98643">
<ele>585</ele>
<time>2019-09-29T11:24:16Z</time>
</trkpt>
<trkpt lat="48.426113" lon="9.986423">
<ele>585</ele>
<time>2019-09-29T11:24:21Z</time>
</trkpt>
<trkpt lat="48.42611" lon="9.986423">
<ele>585</ele>
<time>2019-09-29T11:24:26Z</time>
</trkpt>
<trkpt lat="48.426103" lon="9.986422">
<ele>585</ele>
<time>2019-09-29T11:24:46Z</time>
</trkpt>
<trkpt lat="48.42611" lon="9.986407">
<ele>585</ele>
<time>2019-09-29T11:24:51Z</time>
</trkpt>
<trkpt lat="48.42612" lon="9.986408">
<ele>585</ele>
<time>2019-09-29T11:24:56Z</time>
</trkpt>
<trkpt lat="48.426155" lon="9.986425">
<ele>585</ele>
<time>2019-09-29T11:25:16Z</time>
</trkpt>
<trkpt lat="48.426237" lon="9.986322">
<ele>585</ele>
<time>2019-09-29T11:25:21Z</time>
</trkpt>
<trkpt lat="48.426323" lon="9.986212">
<ele>585</ele>
<time>2019-09-29T11:25:26Z</time>
</trkpt>
<trkpt lat="48.426413" lon="9.986118">
<ele>586</ele>
<time>2019-09-29T11:25:31Z</time>
</trkpt>
<trkpt lat="48.426438" lon="9.98608">
<ele>586</ele>
<time>2019-09-29T11:25:36Z</time>
</trkpt>
<trkpt lat="48.426442" lon="9.986077">
<ele>586</ele>
<time>2019-09-29T11:25:41Z</time>
</trkpt>
<trkpt lat="48.42644" lon="9.986075">
<ele>586</ele>
<time>2019-09-29T11:25:46Z</time>
</trkpt>
<trkpt lat="48.42644" lon="9.98608">
<ele>586</ele>
<time>2019-09-29T11:26:11Z</time>
</trkpt>
<trkpt lat="48.426438" lon="9.986078">
<ele>586</ele>
<time>2019-09-29T11:26:16Z</time>
</trkpt>
<trkpt lat="48.426442" lon="9.986085">
<ele>586</ele>
<time>2019-09-29T11:26:21Z</time>
</trkpt>
<trkpt lat="48.426443" lon="9.986092">
<ele>586</ele>
<time>2019-09-29T11:26:26Z</time>
</trkpt>
<trkpt lat="48.426427" lon="9.986183">
<ele>586</ele>
<time>2019-09-29T11:26:31Z</time>
</trkpt>
<trkpt lat="48.426295" lon="9.98637">
<ele>586</ele>
<time>2019-09-29T11:26:36Z</time>
</trkpt>
<trkpt lat="48.426167" lon="9.986467">
<ele>586</ele>
<time>2019-09-29T11:26:41Z</time>
</trkpt>
<trkpt lat="48.426123" lon="9.986457">
<ele>586</ele>
<time>2019-09-29T11:26:46Z</time>
</trkpt>
<trkpt lat="48.426113" lon="9.986453">
<ele>586</ele>
<time>2019-09-29T11:26:51Z</time>
</trkpt>
<trkpt lat="48.426113" lon="9.98645">
<ele>586</ele>
<time>2019-09-29T11:26:56Z</time>
</trkpt>
<trkpt lat="48.426113" lon="9.986452">
<ele>586</ele>
<time>2019-09-29T11:27:01Z</time>
</trkpt>
<trkpt lat="48.426113" lon="9.98645">
<ele>586</ele>
<time>2019-09-29T11:27:06Z</time>
</trkpt>
<trkpt lat="48.426113" lon="9.986452">
<ele>586</ele>
<time>2019-09-29T11:27:26Z</time>
</trkpt>
<trkpt lat="48.426043" lon="9.986563">
<ele>586</ele>
<time>2019-09-29T11:27:31Z</time>
</trkpt>
<trkpt lat="48.425963" lon="9.986695">
<ele>586</ele>
<time>2019-09-29T11:27:36Z</time>
</trkpt>
<trkpt lat="48.425823" lon="9.986635">
<ele>585</ele>
<time>2019-09-29T11:27:41Z</time>
</trkpt>
<trkpt lat="48.425658" lon="9.986392">
<ele>585</ele>
<time>2019-09-29T11:27:46Z</time>
</trkpt>
<trkpt lat="48.425482" lon="9.986158">
<ele>585</ele>
<time>2019-09-29T11:27:51Z</time>
</trkpt>
<trkpt lat="48.425308" lon="9.985953">
<ele>585</ele>
<time>2019-09-29T11:27:56Z</time>
</trkpt>
<trkpt lat="48.425117" lon="9.985702">
<ele>586</ele>
<time>2019-09-29T11:28:01Z</time>
</trkpt>
<trkpt lat="48.424892" lon="9.985465">
<ele>586</ele>
<time>2019-09-29T11:28:06Z</time>
</trkpt>
<trkpt lat="48.424633" lon="9.985172">
<ele>584</ele>
<time>2019-09-29T11:28:11Z</time>
</trkpt>
<trkpt lat="48.424332" lon="9.984907">
<ele>583</ele>
<time>2019-09-29T11:28:16Z</time>
</trkpt>
<trkpt lat="48.424048" lon="9.984572">
<ele>583</ele>
<time>2019-09-29T11:28:21Z</time>
</trkpt>
<trkpt lat="48.42378" lon="9.984293">
<ele>582</ele>
<time>2019-09-29T11:28:26Z</time>
</trkpt>
<trkpt lat="48.423598" lon="9.984158">
<ele>581</ele>
<time>2019-09-29T11:28:31Z</time>
</trkpt>
<trkpt lat="48.423562" lon="9.983932">
<ele>581</ele>
<time>2019-09-29T11:28:36Z</time>
</trkpt>
<trkpt lat="48.423695" lon="9.98359">
<ele>581</ele>
<time>2019-09-29T11:28:41Z</time>
</trkpt>
<trkpt lat="48.423725" lon="9.983195">
<ele>579</ele>
<time>2019-09-29T11:28:46Z</time>
</trkpt>
<trkpt lat="48.423622" lon="9.982822">
<ele>579</ele>
<time>2019-09-29T11:28:51Z</time>
</trkpt>
<trkpt lat="48.423402" lon="9.982863">
<ele>579</ele>
<time>2019-09-29T11:28:56Z</time>
</trkpt>
<trkpt lat="48.423167" lon="9.98292">
<ele>579</ele>
<time>2019-09-29T11:29:01Z</time>
</trkpt>
<trkpt lat="48.422935" lon="9.982983">
<ele>579</ele>
<time>2019-09-29T11:29:06Z</time>
</trkpt>
<trkpt lat="48.422717" lon="9.983063">
<ele>581</ele>
<time>2019-09-29T11:29:11Z</time>
</trkpt>
<trkpt lat="48.422493" lon="9.983113">
<ele>583</ele>
<time>2019-09-29T11:29:16Z</time>
</trkpt>
<trkpt lat="48.422282" lon="9.983147">
<ele>585</ele>
<time>2019-09-29T11:29:21Z</time>
</trkpt>
<trkpt lat="48.422077" lon="9.983162">
<ele>586</ele>
<time>2019-09-29T11:29:26Z</time>
</trkpt>
<trkpt lat="48.421883" lon="9.983183">
<ele>587</ele>
<time>2019-09-29T11:29:31Z</time>
</trkpt>
<trkpt lat="48.421698" lon="9.983197">
<ele>588</ele>
<time>2019-09-29T11:29:36Z</time>
</trkpt>
<trkpt lat="48.421508" lon="9.983198">
<ele>589</ele>
<time>2019-09-29T11:29:41Z</time>
</trkpt>
<trkpt lat="48.421322" lon="9.983195">
<ele>590</ele>
<time>2019-09-29T11:29:46Z</time>
</trkpt>
<trkpt lat="48.42114" lon="9.983168">
<ele>590</ele>
<time>2019-09-29T11:29:51Z</time>
</trkpt>
<trkpt lat="48.420942" lon="9.983152">
<ele>590</ele>
<time>2019-09-29T11:29:56Z</time>
</trkpt>
<trkpt lat="48.420728" lon="9.983132">
<ele>591</ele>
<time>2019-09-29T11:30:01Z</time>
</trkpt>
<trkpt lat="48.420553" lon="9.983018">
<ele>591</ele>
<time>2019-09-29T11:30:06Z</time>
</trkpt>
<trkpt lat="48.42037" lon="9.983048">
<ele>592</ele>
<time>2019-09-29T11:30:11Z</time>
</trkpt>
<trkpt lat="48.42003" lon="9.983197">
<ele>591</ele>
<time>2019-09-29T11:30:16Z</time>
</trkpt>
<trkpt lat="48.419627" lon="9.983192">
<ele>589</ele>
<time>2019-09-29T11:30:21Z</time>
</trkpt>
<trkpt lat="48.419225" lon="9.983193">
<ele>587</ele>
<time>2019-09-29T11:30:26Z</time>
</trkpt>
<trkpt lat="48.41882" lon="9.983293">
<ele>586</ele>
<time>2019-09-29T11:30:31Z</time>
</trkpt>
<trkpt lat="48.418422" lon="9.983467">
<ele>584</ele>
<time>2019-09-29T11:30:36Z</time>
</trkpt>
<trkpt lat="48.418063" lon="9.983678">
<ele>583</ele>
<time>2019-09-29T11:30:41Z</time>
</trkpt>
<trkpt lat="48.417797" lon="9.983905">
<ele>582</ele>
<time>2019-09-29T11:30:46Z</time>
</trkpt>
<trkpt lat="48.417608" lon="9.984265">
<ele>580</ele>
<time>2019-09-29T11:30:51Z</time>
</trkpt>
<trkpt lat="48.417393" lon="9.984685">
<ele>578</ele>
<time>2019-09-29T11:30:56Z</time>
</trkpt>
<trkpt lat="48.417197" lon="9.985132">
<ele>578</ele>
<time>2019-09-29T11:31:01Z</time>
</trkpt>
<trkpt lat="48.416973" lon="9.985533">
<ele>576</ele>
<time>2019-09-29T11:31:06Z</time>
</trkpt>
<trkpt lat="48.416623" lon="9.985822">
<ele>575</ele>
<time>2019-09-29T11:31:11Z</time>
</trkpt>
<trkpt lat="48.416215" lon="9.98612">
<ele>573</ele>
<time>2019-09-29T11:31:16Z</time>
</trkpt>
<trkpt lat="48.415837" lon="9.986365">
<ele>570</ele>
<time>2019-09-29T11:31:21Z</time>
</trkpt>
<trkpt lat="48.415488" lon="9.98653">
<ele>568</ele>
<time>2019-09-29T11:31:26Z</time>
</trkpt>
<trkpt lat="48.415123" lon="9.98652">
<ele>567</ele>
<time>2019-09-29T11:31:31Z</time>
</trkpt>
<trkpt lat="48.414713" lon="9.986365">
<ele>565</ele>
<time>2019-09-29T11:31:36Z</time>
</trkpt>
<trkpt lat="48.414277" lon="9.986178">
<ele>563</ele>
<time>2019-09-29T11:31:41Z</time>
</trkpt>
<trkpt lat="48.413833" lon="9.98626">
<ele>560</ele>
<time>2019-09-29T11:31:46Z</time>
</trkpt>
<trkpt lat="48.413427" lon="9.986595">
<ele>558</ele>
<time>2019-09-29T11:31:51Z</time>
</trkpt>
<trkpt lat="48.413112" lon="9.987162">
<ele>556</ele>
<time>2019-09-29T11:31:56Z</time>
</trkpt>
<trkpt lat="48.41295" lon="9.987858">
<ele>555</ele>
<time>2019-09-29T11:32:01Z</time>
</trkpt>
<trkpt lat="48.412903" lon="9.988593">
<ele>552</ele>
<time>2019-09-29T11:32:06Z</time>
</trkpt>
<trkpt lat="48.412932" lon="9.989398">
<ele>549</ele>
<time>2019-09-29T11:32:11Z</time>
</trkpt>
<trkpt lat="48.41295" lon="9.990108">
<ele>545</ele>
<time>2019-09-29T11:32:16Z</time>
</trkpt>
<trkpt lat="48.412803" lon="9.990787">
<ele>542</ele>
<time>2019-09-29T11:32:21Z</time>
</trkpt>
<trkpt lat="48.412573" lon="9.991412">
<ele>539</ele>
<time>2019-09-29T11:32:26Z</time>
</trkpt>
<trkpt lat="48.41243" lon="9.991845">
<ele>537</ele>
<time>2019-09-29T11:32:31Z</time>
</trkpt>
<trkpt lat="48.412338" lon="9.992072">
<ele>534</ele>
<time>2019-09-29T11:32:36Z</time>
</trkpt>
<trkpt lat="48.412248" lon="9.992172">
<ele>534</ele>
<time>2019-09-29T11:32:41Z</time>
</trkpt>
<trkpt lat="48.412245" lon="9.992187">
<ele>534</ele>
<time>2019-09-29T11:32:47Z</time>
</trkpt>
<trkpt lat="48.412197" lon="9.992268">
<ele>533</ele>
<time>2019-09-29T11:32:52Z</time>
</trkpt>
<trkpt lat="48.412122" lon="9.99246">
<ele>533</ele>
<time>2019-09-29T11:32:57Z</time>
</trkpt>
<trkpt lat="48.411962" lon="9.992728">
<ele>531</ele>
<time>2019-09-29T11:33:02Z</time>
</trkpt>
<trkpt lat="48.41176" lon="9.993033">
<ele>531</ele>
<time>2019-09-29T11:33:07Z</time>
</trkpt>
<trkpt lat="48.411542" lon="9.993378">
<ele>529</ele>
<time>2019-09-29T11:33:12Z</time>
</trkpt>
<trkpt lat="48.411313" lon="9.993718">
<ele>528</ele>
<time>2019-09-29T11:33:17Z</time>
</trkpt>
<trkpt lat="48.411067" lon="9.993878">
<ele>526</ele>
<time>2019-09-29T11:33:22Z</time>
</trkpt>
<trkpt lat="48.410895" lon="9.994185">
<ele>526</ele>
<time>2019-09-29T11:33:27Z</time>
</trkpt>
<trkpt lat="48.410722" lon="9.994623">
<ele>523</ele>
<time>2019-09-29T11:33:32Z</time>
</trkpt>
<trkpt lat="48.410548" lon="9.995075">
<ele>521</ele>
<time>2019-09-29T11:33:37Z</time>
</trkpt>
<trkpt lat="48.410385" lon="9.99552">
<ele>520</ele>
<time>2019-09-29T11:33:42Z</time>
</trkpt>
<trkpt lat="48.410218" lon="9.99596">
<ele>518</ele>
<time>2019-09-29T11:33:47Z</time>
</trkpt>
<trkpt lat="48.410003" lon="9.996505">
<ele>516</ele>
<time>2019-09-29T11:33:52Z</time>
</trkpt>
<trkpt lat="48.409873" lon="9.997015">
<ele>515</ele>
<time>2019-09-29T11:33:57Z</time>
</trkpt>
<trkpt lat="48.409755" lon="9.997592">
<ele>513</ele>
<time>2019-09-29T11:34:02Z</time>
</trkpt>
<trkpt lat="48.409692" lon="9.998075">
<ele>511</ele>
<time>2019-09-29T11:34:07Z</time>
</trkpt>
<trkpt lat="48.409592" lon="9.99851">
<ele>509</ele>
<time>2019-09-29T11:34:12Z</time>
</trkpt>
<trkpt lat="48.409512" lon="9.998982">
<ele>507</ele>
<time>2019-09-29T11:34:17Z</time>
</trkpt>
<trkpt lat="48.409348" lon="9.99928">
<ele>505</ele>
<time>2019-09-29T11:34:22Z</time>
</trkpt>
<trkpt lat="48.409052" lon="9.999487">
<ele>504</ele>
<time>2019-09-29T11:34:27Z</time>
</trkpt>
<trkpt lat="48.40874" lon="9.999698">
<ele>502</ele>
<time>2019-09-29T11:34:32Z</time>
</trkpt>
<trkpt lat="48.40854" lon="9.999873">
<ele>500</ele>
<time>2019-09-29T11:34:37Z</time>
</trkpt>
<trkpt lat="48.408437" lon="10.000015">
<ele>499</ele>
<time>2019-09-29T11:34:42Z</time>
</trkpt>
<trkpt lat="48.408222" lon="10.000258">
<ele>498</ele>
<time>2019-09-29T11:34:47Z</time>
</trkpt>
<trkpt lat="48.408025" lon="10.0002">
<ele>496</ele>
<time>2019-09-29T11:34:52Z</time>
</trkpt>
<trkpt lat="48.407918" lon="9.999978">
<ele>494</ele>
<time>2019-09-29T11:34:57Z</time>
</trkpt>
<trkpt lat="48.407852" lon="9.999833">
<ele>490</ele>
<time>2019-09-29T11:35:02Z</time>
</trkpt>
<trkpt lat="48.407842" lon="9.999828">
<ele>490</ele>
<time>2019-09-29T11:35:07Z</time>
</trkpt>
<trkpt lat="48.407837" lon="9.999832">
<ele>490</ele>
<time>2019-09-29T11:35:12Z</time>
</trkpt>
<trkpt lat="48.407835" lon="9.999833">
<ele>490</ele>
<time>2019-09-29T11:35:27Z</time>
</trkpt>
<trkpt lat="48.407833" lon="9.999833">
<ele>490</ele>
<time>2019-09-29T11:35:32Z</time>
</trkpt>
<trkpt lat="48.40779" lon="9.999867">
<ele>490</ele>
<time>2019-09-29T11:35:37Z</time>
</trkpt>
<trkpt lat="48.407727" lon="9.999905">
<ele>490</ele>
<time>2019-09-29T11:35:42Z</time>
</trkpt>
<trkpt lat="48.407712" lon="9.999873">
<ele>490</ele>
<time>2019-09-29T11:35:47Z</time>
</trkpt>
<trkpt lat="48.407647" lon="9.999732">
<ele>490</ele>
<time>2019-09-29T11:35:52Z</time>
</trkpt>
<trkpt lat="48.40745" lon="9.999522">
<ele>489</ele>
<time>2019-09-29T11:35:57Z</time>
</trkpt>
<trkpt lat="48.407193" lon="9.999545">
<ele>487</ele>
<time>2019-09-29T11:36:02Z</time>
</trkpt>
<trkpt lat="48.40697" lon="9.999702">
<ele>486</ele>
<time>2019-09-29T11:36:07Z</time>
</trkpt>
<trkpt lat="48.406807" lon="9.999833">
<ele>486</ele>
<time>2019-09-29T11:36:12Z</time>
</trkpt>
<trkpt lat="48.406737" lon="9.999867">
<ele>486</ele>
<time>2019-09-29T11:36:17Z</time>
</trkpt>
<trkpt lat="48.406743" lon="9.99987">
<ele>486</ele>
<time>2019-09-29T11:36:22Z</time>
</trkpt>
<trkpt lat="48.406655" lon="9.999927">
<ele>486</ele>
<time>2019-09-29T11:37:07Z</time>
</trkpt>
<trkpt lat="48.406478" lon="10.000045">
<ele>486</ele>
<time>2019-09-29T11:37:12Z</time>
</trkpt>
<trkpt lat="48.406252" lon="10.00016">
<ele>486</ele>
<time>2019-09-29T11:37:17Z</time>
</trkpt>
<trkpt lat="48.406102" lon="10.000427">
<ele>486</ele>
<time>2019-09-29T11:37:22Z</time>
</trkpt>
<trkpt lat="48.406027" lon="10.000812">
<ele>486</ele>
<time>2019-09-29T11:37:27Z</time>
</trkpt>
<trkpt lat="48.405958" lon="10.001198">
<ele>486</ele>
<time>2019-09-29T11:37:32Z</time>
</trkpt>
<trkpt lat="48.405827" lon="10.001605">
<ele>486</ele>
<time>2019-09-29T11:37:37Z</time>
</trkpt>
<trkpt lat="48.405667" lon="10.001987">
<ele>486</ele>
<time>2019-09-29T11:37:42Z</time>
</trkpt>
<trkpt lat="48.405493" lon="10.002317">
<ele>486</ele>
<time>2019-09-29T11:37:47Z</time>
</trkpt>
<trkpt lat="48.405278" lon="10.002558">
<ele>485</ele>
<time>2019-09-29T11:37:52Z</time>
</trkpt>
<trkpt lat="48.405135" lon="10.002652">
<ele>485</ele>
<time>2019-09-29T11:37:57Z</time>
</trkpt>
<trkpt lat="48.405068" lon="10.002695">
<ele>485</ele>
<time>2019-09-29T11:38:02Z</time>
</trkpt>
<trkpt lat="48.405063" lon="10.002695">
<ele>485</ele>
<time>2019-09-29T11:38:07Z</time>
</trkpt>
<trkpt lat="48.405058" lon="10.002698">
<ele>485</ele>
<time>2019-09-29T11:38:17Z</time>
</trkpt>
<trkpt lat="48.404918" lon="10.00282">
<ele>485</ele>
<time>2019-09-29T11:38:22Z</time>
</trkpt>
<trkpt lat="48.40472" lon="10.002977">
<ele>485</ele>
<time>2019-09-29T11:38:27Z</time>
</trkpt>
<trkpt lat="48.404515" lon="10.003127">
<ele>485</ele>
<time>2019-09-29T11:38:32Z</time>
</trkpt>
<trkpt lat="48.404307" lon="10.003292">
<ele>485</ele>
<time>2019-09-29T11:38:37Z</time>
</trkpt>
<trkpt lat="48.40406" lon="10.003448">
<ele>485</ele>
<time>2019-09-29T11:38:42Z</time>
</trkpt>
<trkpt lat="48.403825" lon="10.003618">
<ele>485</ele>
<time>2019-09-29T11:38:47Z</time>
</trkpt>
<trkpt lat="48.403647" lon="10.003712">
<ele>485</ele>
<time>2019-09-29T11:38:52Z</time>
</trkpt>
<trkpt lat="48.40355" lon="10.003773">
<ele>485</ele>
<time>2019-09-29T11:38:57Z</time>
</trkpt>
<trkpt lat="48.403517" lon="10.003798">
<ele>485</ele>
<time>2019-09-29T11:39:02Z</time>
</trkpt>
<trkpt lat="48.4035" lon="10.003807">
<ele>485</ele>
<time>2019-09-29T11:39:07Z</time>
</trkpt>
<trkpt lat="48.40341" lon="10.00387">
<ele>485</ele>
<time>2019-09-29T11:39:17Z</time>
</trkpt>
<trkpt lat="48.403253" lon="10.004008">
<ele>485</ele>
<time>2019-09-29T11:39:22Z</time>
</trkpt>
<trkpt lat="48.403135" lon="10.004318">
<ele>485</ele>
<time>2019-09-29T11:39:27Z</time>
</trkpt>
<trkpt lat="48.403022" lon="10.004668">
<ele>485</ele>
<time>2019-09-29T11:39:32Z</time>
</trkpt>
<trkpt lat="48.40292" lon="10.004992">
<ele>485</ele>
<time>2019-09-29T11:39:37Z</time>
</trkpt>
<trkpt lat="48.40285" lon="10.0052">
<ele>485</ele>
<time>2019-09-29T11:39:42Z</time>
</trkpt>
<trkpt lat="48.402743" lon="10.005242">
<ele>485</ele>
<time>2019-09-29T11:39:47Z</time>
</trkpt>
<trkpt lat="48.40258" lon="10.005098">
<ele>485</ele>
<time>2019-09-29T11:39:52Z</time>
</trkpt>
<trkpt lat="48.40233" lon="10.00491">
<ele>485</ele>
<time>2019-09-29T11:39:57Z</time>
</trkpt>
<trkpt lat="48.402133" lon="10.004653">
<ele>485</ele>
<time>2019-09-29T11:40:02Z</time>
</trkpt>
<trkpt lat="48.402003" lon="10.004247">
<ele>485</ele>
<time>2019-09-29T11:40:07Z</time>
</trkpt>
<trkpt lat="48.401833" lon="10.003968">
<ele>485</ele>
<time>2019-09-29T11:40:12Z</time>
</trkpt>
<trkpt lat="48.401605" lon="10.003865">
<ele>485</ele>
<time>2019-09-29T11:40:17Z</time>
</trkpt>
<trkpt lat="48.401378" lon="10.00379">
<ele>485</ele>
<time>2019-09-29T11:40:22Z</time>
</trkpt>
<trkpt lat="48.401147" lon="10.003702">
<ele>485</ele>
<time>2019-09-29T11:40:27Z</time>
</trkpt>
<trkpt lat="48.400938" lon="10.003612">
<ele>485</ele>
<time>2019-09-29T11:40:32Z</time>
</trkpt>
<trkpt lat="48.400792" lon="10.003518">
<ele>485</ele>
<time>2019-09-29T11:40:37Z</time>
</trkpt>
<trkpt lat="48.400673" lon="10.00343">
<ele>485</ele>
<time>2019-09-29T11:40:42Z</time>
</trkpt>
<trkpt lat="48.400553" lon="10.003337">
<ele>486</ele>
<time>2019-09-29T11:40:47Z</time>
</trkpt>
<trkpt lat="48.40044" lon="10.003255">
<ele>486</ele>
<time>2019-09-29T11:40:52Z</time>
</trkpt>
<trkpt lat="48.400338" lon="10.003145">
<ele>486</ele>
<time>2019-09-29T11:40:57Z</time>
</trkpt>
<trkpt lat="48.400247" lon="10.003033">
<ele>486</ele>
<time>2019-09-29T11:41:02Z</time>
</trkpt>
<trkpt lat="48.400155" lon="10.003032">
<ele>486</ele>
<time>2019-09-29T11:41:07Z</time>
</trkpt>
<trkpt lat="48.40013" lon="10.00321">
<ele>486</ele>
<time>2019-09-29T11:41:12Z</time>
</trkpt>
<trkpt lat="48.40001" lon="10.003153">
<ele>486</ele>
<time>2019-09-29T11:41:17Z</time>
</trkpt>
<trkpt lat="48.399813" lon="10.003073">
<ele>487</ele>
<time>2019-09-29T11:41:22Z</time>
</trkpt>
<trkpt lat="48.399642" lon="10.003193">
<ele>487</ele>
<time>2019-09-29T11:41:27Z</time>
</trkpt>
<trkpt lat="48.399443" lon="10.003168">
<ele>487</ele>
<time>2019-09-29T11:41:32Z</time>
</trkpt>
<trkpt lat="48.399268" lon="10.00316">
<ele>487</ele>
<time>2019-09-29T11:41:37Z</time>
</trkpt>
<trkpt lat="48.399103" lon="10.003242">
<ele>487</ele>
<time>2019-09-29T11:41:42Z</time>
</trkpt>
<trkpt lat="48.398947" lon="10.003412">
<ele>488</ele>
<time>2019-09-29T11:41:47Z</time>
</trkpt>
<trkpt lat="48.398805" lon="10.003567">
<ele>488</ele>
<time>2019-09-29T11:41:52Z</time>
</trkpt>
<trkpt lat="48.3987" lon="10.003692">
<ele>489</ele>
<time>2019-09-29T11:41:57Z</time>
</trkpt>
<trkpt lat="48.398597" lon="10.003807">
<ele>489</ele>
<time>2019-09-29T11:42:02Z</time>
</trkpt>
<trkpt lat="48.39849" lon="10.003913">
<ele>489</ele>
<time>2019-09-29T11:42:07Z</time>
</trkpt>
<trkpt lat="48.398472" lon="10.003938">
<ele>489</ele>
<time>2019-09-29T11:42:12Z</time>
</trkpt>
<trkpt lat="48.398475" lon="10.003937">
<ele>489</ele>
<time>2019-09-29T11:42:17Z</time>
</trkpt>
<trkpt lat="48.398475" lon="10.003935">
<ele>489</ele>
<time>2019-09-29T11:42:22Z</time>
</trkpt>
<trkpt lat="48.39847" lon="10.003935">
<ele>489</ele>
<time>2019-09-29T11:42:27Z</time>
</trkpt>
<trkpt lat="48.398467" lon="10.003935">
<ele>489</ele>
<time>2019-09-29T11:42:32Z</time>
</trkpt>
<trkpt lat="48.398467" lon="10.003937">
<ele>489</ele>
<time>2019-09-29T11:42:37Z</time>
</trkpt>
<trkpt lat="48.398465" lon="10.003937">
<ele>489</ele>
<time>2019-09-29T11:43:17Z</time>
</trkpt>
<trkpt lat="48.398455" lon="10.003945">
<ele>489</ele>
<time>2019-09-29T11:43:22Z</time>
</trkpt>
<trkpt lat="48.398448" lon="10.00394">
<ele>489</ele>
<time>2019-09-29T11:43:27Z</time>
</trkpt>
<trkpt lat="48.398442" lon="10.003945">
<ele>489</ele>
<time>2019-09-29T11:43:32Z</time>
</trkpt>
<trkpt lat="48.398437" lon="10.003947">
<ele>489</ele>
<time>2019-09-29T11:43:37Z</time>
</trkpt>
<trkpt lat="48.398437" lon="10.003948">
<ele>489</ele>
<time>2019-09-29T11:43:42Z</time>
</trkpt>
<trkpt lat="48.398437" lon="10.003947">
<ele>489</ele>
<time>2019-09-29T11:43:52Z</time>
</trkpt>
<trkpt lat="48.398435" lon="10.00395">
<ele>489</ele>
<time>2019-09-29T11:43:57Z</time>
</trkpt>
<trkpt lat="48.398435" lon="10.003948">
<ele>489</ele>
<time>2019-09-29T11:44:22Z</time>
</trkpt>
<trkpt lat="48.398432" lon="10.003947">
<ele>489</ele>
<time>2019-09-29T11:44:32Z</time>
</trkpt>
<trkpt lat="48.39843" lon="10.003945">
<ele>489</ele>
<time>2019-09-29T11:44:37Z</time>
</trkpt>
<trkpt lat="48.398398" lon="10.003938">
<ele>489</ele>
<time>2019-09-29T11:44:42Z</time>
</trkpt>
<trkpt lat="48.398393" lon="10.003838">
<ele>489</ele>
<time>2019-09-29T11:44:47Z</time>
</trkpt>
<trkpt lat="48.398402" lon="10.003768">
<ele>489</ele>
<time>2019-09-29T11:44:52Z</time>
</trkpt>
<trkpt lat="48.3984" lon="10.003763">
<ele>489</ele>
<time>2019-09-29T11:44:57Z</time>
</trkpt>
<trkpt lat="48.398408" lon="10.003748">
<ele>489</ele>
<time>2019-09-29T11:45:02Z</time>
</trkpt>
<trkpt lat="48.398428" lon="10.003727">
<ele>489</ele>
<time>2019-09-29T11:45:07Z</time>
</trkpt>
<trkpt lat="48.398432" lon="10.003725">
<ele>489</ele>
<time>2019-09-29T11:45:12Z</time>
</trkpt>
<trkpt lat="48.39843" lon="10.003727">
<ele>489</ele>
<time>2019-09-29T11:45:17Z</time>
</trkpt>
<trkpt lat="48.398428" lon="10.003727">
<ele>489</ele>
<time>2019-09-29T11:45:22Z</time>
</trkpt>
<trkpt lat="48.398428" lon="10.003725">
<ele>489</ele>
<time>2019-09-29T11:45:27Z</time>
</trkpt>
<trkpt lat="48.398428" lon="10.003727">
<ele>489</ele>
<time>2019-09-29T11:45:37Z</time>
</trkpt>
<trkpt lat="48.398432" lon="10.003728">
<ele>489</ele>
<time>2019-09-29T11:45:42Z</time>
</trkpt>
<trkpt lat="48.398428" lon="10.00373">
<ele>489</ele>
<time>2019-09-29T11:46:07Z</time>
</trkpt>
<trkpt lat="48.398428" lon="10.003728">
<ele>489</ele>
<time>2019-09-29T11:46:17Z</time>
</trkpt>
<trkpt lat="48.398428" lon="10.00373">
<ele>489</ele>
<time>2019-09-29T11:46:22Z</time>
</trkpt>
<trkpt lat="48.398432" lon="10.00373">
<ele>489</ele>
<time>2019-09-29T11:46:27Z</time>
</trkpt>
<trkpt lat="48.398435" lon="10.00373">
<ele>489</ele>
<time>2019-09-29T11:46:32Z</time>
</trkpt>
<trkpt lat="48.398435" lon="10.003732">
<ele>489</ele>
<time>2019-09-29T11:46:37Z</time>
</trkpt>
<trkpt lat="48.398435" lon="10.00373">
<ele>489</ele>
<time>2019-09-29T11:46:42Z</time>
</trkpt>
<trkpt lat="48.398437" lon="10.00373">
<ele>489</ele>
<time>2019-09-29T11:46:47Z</time>
</trkpt>
<trkpt lat="48.398438" lon="10.00373">
<ele>489</ele>
<time>2019-09-29T11:46:52Z</time>
</trkpt>
<trkpt lat="48.398438" lon="10.003732">
<ele>489</ele>
<time>2019-09-29T11:47:12Z</time>
</trkpt>
<trkpt lat="48.398438" lon="10.003728">
<ele>489</ele>
<time>2019-09-29T11:47:17Z</time>
</trkpt>
<trkpt lat="48.39844" lon="10.003727">
<ele>489</ele>
<time>2019-09-29T11:47:27Z</time>
</trkpt>
<trkpt lat="48.398445" lon="10.003728">
<ele>489</ele>
<time>2019-09-29T11:47:37Z</time>
</trkpt>
<trkpt lat="48.398443" lon="10.003728">
<ele>489</ele>
<time>2019-09-29T11:47:42Z</time>
</trkpt>
<trkpt lat="48.398445" lon="10.00373">
<ele>489</ele>
<time>2019-09-29T11:47:47Z</time>
</trkpt>
<trkpt lat="48.398448" lon="10.003725">
<ele>489</ele>
<time>2019-09-29T11:47:57Z</time>
</trkpt>
<trkpt lat="48.398458" lon="10.00371">
<ele>489</ele>
<time>2019-09-29T11:48:02Z</time>
</trkpt>
<trkpt lat="48.398458" lon="10.003708">
<ele>489</ele>
<time>2019-09-29T11:48:07Z</time>
</trkpt>
<trkpt lat="48.398488" lon="10.003667">
<ele>489</ele>
<time>2019-09-29T11:48:27Z</time>
</trkpt>
<trkpt lat="48.398558" lon="10.003585">
<ele>489</ele>
<time>2019-09-29T11:48:32Z</time>
</trkpt>
<trkpt lat="48.398707" lon="10.003442">
<ele>490</ele>
<time>2019-09-29T11:48:37Z</time>
</trkpt>
<trkpt lat="48.3989" lon="10.003248">
<ele>491</ele>
<time>2019-09-29T11:48:42Z</time>
</trkpt>
<trkpt lat="48.399067" lon="10.003087">
<ele>491</ele>
<time>2019-09-29T11:48:47Z</time>
</trkpt>
<trkpt lat="48.39909" lon="10.002928">
<ele>491</ele>
<time>2019-09-29T11:48:52Z</time>
</trkpt>
<trkpt lat="48.399072" lon="10.002803">
<ele>490</ele>
<time>2019-09-29T11:48:57Z</time>
</trkpt>
<trkpt lat="48.398953" lon="10.002572">
<ele>490</ele>
<time>2019-09-29T11:49:02Z</time>
</trkpt>
<trkpt lat="48.398825" lon="10.00229">
<ele>489</ele>
<time>2019-09-29T11:49:07Z</time>
</trkpt>
<trkpt lat="48.398707" lon="10.002007">
<ele>489</ele>
<time>2019-09-29T11:49:12Z</time>
</trkpt>
<trkpt lat="48.398587" lon="10.001745">
<ele>489</ele>
<time>2019-09-29T11:49:17Z</time>
</trkpt>
<trkpt lat="48.398552" lon="10.001668">
<ele>489</ele>
<time>2019-09-29T11:49:22Z</time>
</trkpt>
<trkpt lat="48.398527" lon="10.001568">
<ele>489</ele>
<time>2019-09-29T11:49:27Z</time>
</trkpt>
<trkpt lat="48.398497" lon="10.00144">
<ele>489</ele>
<time>2019-09-29T11:49:32Z</time>
</trkpt>
<trkpt lat="48.398452" lon="10.001232">
<ele>489</ele>
<time>2019-09-29T11:49:37Z</time>
</trkpt>
<trkpt lat="48.398413" lon="10.001028">
<ele>490</ele>
<time>2019-09-29T11:49:42Z</time>
</trkpt>
<trkpt lat="48.398408" lon="10.000932">
<ele>491</ele>
<time>2019-09-29T11:49:47Z</time>
</trkpt>
<trkpt lat="48.398408" lon="10.000868">
<ele>491</ele>
<time>2019-09-29T11:49:52Z</time>
</trkpt>
<trkpt lat="48.398407" lon="10.000795">
<ele>491</ele>
<time>2019-09-29T11:49:57Z</time>
</trkpt>
<trkpt lat="48.398405" lon="10.000767">
<ele>491</ele>
<time>2019-09-29T11:50:02Z</time>
</trkpt>
<trkpt lat="48.398402" lon="10.000745">
<ele>491</ele>
<time>2019-09-29T11:50:07Z</time>
</trkpt>
<trkpt lat="48.3984" lon="10.000743">
<ele>491</ele>
<time>2019-09-29T11:50:12Z</time>
</trkpt>
<trkpt lat="48.398405" lon="10.000735">
<ele>491</ele>
<time>2019-09-29T11:50:17Z</time>
</trkpt>
<trkpt lat="48.398403" lon="10.000718">
<ele>491</ele>
<time>2019-09-29T11:50:22Z</time>
</trkpt>
<trkpt lat="48.398403" lon="10.00072">
<ele>491</ele>
<time>2019-09-29T11:50:27Z</time>
</trkpt>
<trkpt lat="48.398407" lon="10.000718">
<ele>491</ele>
<time>2019-09-29T11:50:32Z</time>
</trkpt>
<trkpt lat="48.398405" lon="10.00072">
<ele>491</ele>
<time>2019-09-29T11:51:17Z</time>
</trkpt>
<trkpt lat="48.3984" lon="10.000732">
<ele>491</ele>
<time>2019-09-29T11:51:42Z</time>
</trkpt>
<trkpt lat="48.39839" lon="10.00074">
<ele>491</ele>
<time>2019-09-29T11:51:47Z</time>
</trkpt>
<trkpt lat="48.398387" lon="10.00074">
<ele>491</ele>
<time>2019-09-29T11:51:52Z</time>
</trkpt>
<trkpt lat="48.398385" lon="10.00074">
<ele>492</ele>
<time>2019-09-29T11:52:32Z</time>
</trkpt>
<trkpt lat="48.398368" lon="10.00074">
<ele>492</ele>
<time>2019-09-29T11:52:37Z</time>
</trkpt>
<trkpt lat="48.398352" lon="10.000747">
<ele>492</ele>
<time>2019-09-29T11:52:42Z</time>
</trkpt>
<trkpt lat="48.39835" lon="10.000748">
<ele>492</ele>
<time>2019-09-29T11:52:45Z</time>
</trkpt>
<trkpt lat="48.398975" lon="10.006297">
<ele>491</ele>
<time>2019-09-29T11:52:51Z</time>
</trkpt>
<trkpt lat="48.398983" lon="10.006333">
<ele>491</ele>
<time>2019-09-29T11:52:56Z</time>
</trkpt>
<trkpt lat="48.399005" lon="10.006398">
<ele>491</ele>
<time>2019-09-29T11:53:01Z</time>
</trkpt>
<trkpt lat="48.399035" lon="10.006448">
<ele>491</ele>
<time>2019-09-29T11:53:06Z</time>
</trkpt>
<trkpt lat="48.39906" lon="10.006503">
<ele>491</ele>
<time>2019-09-29T11:53:11Z</time>
</trkpt>
<trkpt lat="48.399065" lon="10.00653">
<ele>491</ele>
<time>2019-09-29T11:53:16Z</time>
</trkpt>
<trkpt lat="48.399072" lon="10.006592">
<ele>491</ele>
<time>2019-09-29T11:53:21Z</time>
</trkpt>
<trkpt lat="48.399092" lon="10.006647">
<ele>490</ele>
<time>2019-09-29T11:53:26Z</time>
</trkpt>
<trkpt lat="48.399122" lon="10.00671">
<ele>490</ele>
<time>2019-09-29T11:53:31Z</time>
</trkpt>
<trkpt lat="48.399143" lon="10.00678">
<ele>490</ele>
<time>2019-09-29T11:53:36Z</time>
</trkpt>
<trkpt lat="48.399155" lon="10.00683">
<ele>490</ele>
<time>2019-09-29T11:53:41Z</time>
</trkpt>
<trkpt lat="48.399155" lon="10.00687">
<ele>490</ele>
<time>2019-09-29T11:53:46Z</time>
</trkpt>
<trkpt lat="48.399135" lon="10.0069">
<ele>490</ele>
<time>2019-09-29T11:53:51Z</time>
</trkpt>
<trkpt lat="48.399128" lon="10.006903">
<ele>489</ele>
<time>2019-09-29T11:53:56Z</time>
</trkpt>
<trkpt lat="48.399128" lon="10.006905">
<ele>489</ele>
<time>2019-09-29T11:54:06Z</time>
</trkpt>
<trkpt lat="48.39912" lon="10.006905">
<ele>489</ele>
<time>2019-09-29T11:54:11Z</time>
</trkpt>
<trkpt lat="48.39912" lon="10.006892">
<ele>489</ele>
<time>2019-09-29T11:54:21Z</time>
</trkpt>
<trkpt lat="48.39912" lon="10.00689">
<ele>489</ele>
<time>2019-09-29T11:54:26Z</time>
</trkpt>
<trkpt lat="48.39912" lon="10.006888">
<ele>489</ele>
<time>2019-09-29T11:54:31Z</time>
</trkpt>
<trkpt lat="48.399118" lon="10.006873">
<ele>489</ele>
<time>2019-09-29T11:54:41Z</time>
</trkpt>
<trkpt lat="48.399122" lon="10.006872">
<ele>489</ele>
<time>2019-09-29T11:54:46Z</time>
</trkpt>
<trkpt lat="48.399123" lon="10.006873">
<ele>489</ele>
<time>2019-09-29T11:54:51Z</time>
</trkpt>
<trkpt lat="48.399122" lon="10.006873">
<ele>489</ele>
<time>2019-09-29T11:55:02Z</time>
</trkpt>
<trkpt lat="48.399122" lon="10.006875">
<ele>489</ele>
<time>2019-09-29T11:55:17Z</time>
</trkpt>
<trkpt lat="48.399122" lon="10.006863">
<ele>489</ele>
<time>2019-09-29T11:55:37Z</time>
</trkpt>
<trkpt lat="48.399122" lon="10.006865">
<ele>489</ele>
<time>2019-09-29T11:55:42Z</time>
</trkpt>
<trkpt lat="48.39912" lon="10.006865">
<ele>489</ele>
<time>2019-09-29T11:55:52Z</time>
</trkpt>
<trkpt lat="48.39911" lon="10.006872">
<ele>490</ele>
<time>2019-09-29T11:56:17Z</time>
</trkpt>
<trkpt lat="48.399058" lon="10.006817">
<ele>490</ele>
<time>2019-09-29T11:56:22Z</time>
</trkpt>
<trkpt lat="48.398992" lon="10.006718">
<ele>490</ele>
<time>2019-09-29T11:56:27Z</time>
</trkpt>
<trkpt lat="48.398895" lon="10.006585">
<ele>490</ele>
<time>2019-09-29T11:56:32Z</time>
</trkpt>
<trkpt lat="48.398772" lon="10.006448">
<ele>490</ele>
<time>2019-09-29T11:56:37Z</time>
</trkpt>
<trkpt lat="48.398652" lon="10.006282">
<ele>490</ele>
<time>2019-09-29T11:56:42Z</time>
</trkpt>
<trkpt lat="48.39855" lon="10.006112">
<ele>490</ele>
<time>2019-09-29T11:56:47Z</time>
</trkpt>
<trkpt lat="48.398448" lon="10.005878">
<ele>490</ele>
<time>2019-09-29T11:56:52Z</time>
</trkpt>
<trkpt lat="48.398365" lon="10.005663">
<ele>490</ele>
<time>2019-09-29T11:56:57Z</time>
</trkpt>
<trkpt lat="48.398292" lon="10.005443">
<ele>490</ele>
<time>2019-09-29T11:57:02Z</time>
</trkpt>
<trkpt lat="48.398245" lon="10.00527">
<ele>490</ele>
<time>2019-09-29T11:57:07Z</time>
</trkpt>
<trkpt lat="48.398183" lon="10.005048">
<ele>490</ele>
<time>2019-09-29T11:57:12Z</time>
</trkpt>
<trkpt lat="48.398127" lon="10.004852">
<ele>490</ele>
<time>2019-09-29T11:57:17Z</time>
</trkpt>
<trkpt lat="48.398062" lon="10.004633">
<ele>490</ele>
<time>2019-09-29T11:57:22Z</time>
</trkpt>
<trkpt lat="48.397992" lon="10.004555">
<ele>490</ele>
<time>2019-09-29T11:57:27Z</time>
</trkpt>
<trkpt lat="48.39799" lon="10.004445">
<ele>490</ele>
<time>2019-09-29T11:57:32Z</time>
</trkpt>
<trkpt lat="48.398137" lon="10.004297">
<ele>490</ele>
<time>2019-09-29T11:57:37Z</time>
</trkpt>
<trkpt lat="48.398233" lon="10.004193">
<ele>491</ele>
<time>2019-09-29T11:57:42Z</time>
</trkpt>
<trkpt lat="48.398308" lon="10.004117">
<ele>491</ele>
<time>2019-09-29T11:57:47Z</time>
</trkpt>
<trkpt lat="48.398377" lon="10.004048">
<ele>492</ele>
<time>2019-09-29T11:57:52Z</time>
</trkpt>
<trkpt lat="48.398433" lon="10.00397">
<ele>492</ele>
<time>2019-09-29T11:57:57Z</time>
</trkpt>
<trkpt lat="48.398542" lon="10.003848">
<ele>493</ele>
<time>2019-09-29T11:58:02Z</time>
</trkpt>
<trkpt lat="48.398662" lon="10.00372">
<ele>493</ele>
<time>2019-09-29T11:58:07Z</time>
</trkpt>
<trkpt lat="48.398768" lon="10.003618">
<ele>494</ele>
<time>2019-09-29T11:58:12Z</time>
</trkpt>
<trkpt lat="48.398858" lon="10.003515">
<ele>494</ele>
<time>2019-09-29T11:58:17Z</time>
</trkpt>
<trkpt lat="48.398978" lon="10.003385">
<ele>494</ele>
<time>2019-09-29T11:58:23Z</time>
</trkpt>
<trkpt lat="48.399052" lon="10.003323">
<ele>494</ele>
<time>2019-09-29T11:58:28Z</time>
</trkpt>
<trkpt lat="48.399125" lon="10.003252">
<ele>494</ele>
<time>2019-09-29T11:58:33Z</time>
</trkpt>
<trkpt lat="48.399188" lon="10.003222">
<ele>493</ele>
<time>2019-09-29T11:58:38Z</time>
</trkpt>
<trkpt lat="48.399297" lon="10.003185">
<ele>493</ele>
<time>2019-09-29T11:58:43Z</time>
</trkpt>
<trkpt lat="48.399445" lon="10.003195">
<ele>492</ele>
<time>2019-09-29T11:58:48Z</time>
</trkpt>
<trkpt lat="48.399627" lon="10.003227">
<ele>492</ele>
<time>2019-09-29T11:58:53Z</time>
</trkpt>
<trkpt lat="48.399825" lon="10.003133">
<ele>492</ele>
<time>2019-09-29T11:58:58Z</time>
</trkpt>
<trkpt lat="48.400023" lon="10.003178">
<ele>492</ele>
<time>2019-09-29T11:59:03Z</time>
</trkpt>
<trkpt lat="48.400222" lon="10.003285">
<ele>492</ele>
<time>2019-09-29T11:59:08Z</time>
</trkpt>
<trkpt lat="48.400427" lon="10.003415">
<ele>492</ele>
<time>2019-09-29T11:59:13Z</time>
</trkpt>
<trkpt lat="48.400603" lon="10.003553">
<ele>492</ele>
<time>2019-09-29T11:59:18Z</time>
</trkpt>
<trkpt lat="48.400788" lon="10.003675">
<ele>492</ele>
<time>2019-09-29T11:59:23Z</time>
</trkpt>
<trkpt lat="48.401" lon="10.003782">
<ele>492</ele>
<time>2019-09-29T11:59:28Z</time>
</trkpt>
<trkpt lat="48.401328" lon="10.003923">
<ele>491</ele>
<time>2019-09-29T11:59:34Z</time>
</trkpt>
<trkpt lat="48.401597" lon="10.003995">
<ele>491</ele>
<time>2019-09-29T11:59:39Z</time>
</trkpt>
<trkpt lat="48.401822" lon="10.004058">
<ele>491</ele>
<time>2019-09-29T11:59:44Z</time>
</trkpt>
<trkpt lat="48.402053" lon="10.004405">
<ele>491</ele>
<time>2019-09-29T11:59:50Z</time>
</trkpt>
<trkpt lat="48.402228" lon="10.004825">
<ele>491</ele>
<time>2019-09-29T11:59:56Z</time>
</trkpt>
<trkpt lat="48.40246" lon="10.005052">
<ele>491</ele>
<time>2019-09-29T12:00:01Z</time>
</trkpt>
<trkpt lat="48.402648" lon="10.005258">
<ele>491</ele>
<time>2019-09-29T12:00:06Z</time>
</trkpt>
<trkpt lat="48.402832" lon="10.0053">
<ele>491</ele>
<time>2019-09-29T12:00:11Z</time>
</trkpt>
<trkpt lat="48.402942" lon="10.00498">
<ele>491</ele>
<time>2019-09-29T12:00:16Z</time>
</trkpt>
<trkpt lat="48.403048" lon="10.004645">
<ele>491</ele>
<time>2019-09-29T12:00:21Z</time>
</trkpt>
<trkpt lat="48.403142" lon="10.0044">
<ele>491</ele>
<time>2019-09-29T12:00:26Z</time>
</trkpt>
<trkpt lat="48.403215" lon="10.004225">
<ele>491</ele>
<time>2019-09-29T12:00:31Z</time>
</trkpt>
<trkpt lat="48.403275" lon="10.004168">
<ele>491</ele>
<time>2019-09-29T12:00:36Z</time>
</trkpt>
<trkpt lat="48.40329" lon="10.004147">
<ele>491</ele>
<time>2019-09-29T12:00:41Z</time>
</trkpt>
<trkpt lat="48.403392" lon="10.004012">
<ele>491</ele>
<time>2019-09-29T12:00:46Z</time>
</trkpt>
<trkpt lat="48.40353" lon="10.003848">
<ele>491</ele>
<time>2019-09-29T12:00:51Z</time>
</trkpt>
<trkpt lat="48.403713" lon="10.003703">
<ele>491</ele>
<time>2019-09-29T12:00:56Z</time>
</trkpt>
<trkpt lat="48.403912" lon="10.00356">
<ele>491</ele>
<time>2019-09-29T12:01:01Z</time>
</trkpt>
<trkpt lat="48.404168" lon="10.003348">
<ele>491</ele>
<time>2019-09-29T12:01:07Z</time>
</trkpt>
<trkpt lat="48.404412" lon="10.00317">
<ele>491</ele>
<time>2019-09-29T12:01:12Z</time>
</trkpt>
<trkpt lat="48.404643" lon="10.003007">
<ele>491</ele>
<time>2019-09-29T12:01:17Z</time>
</trkpt>
<trkpt lat="48.404798" lon="10.00293">
<ele>491</ele>
<time>2019-09-29T12:01:22Z</time>
</trkpt>
<trkpt lat="48.404867" lon="10.002897">
<ele>491</ele>
<time>2019-09-29T12:01:27Z</time>
</trkpt>
<trkpt lat="48.40487" lon="10.002895">
<ele>491</ele>
<time>2019-09-29T12:01:32Z</time>
</trkpt>
<trkpt lat="48.404868" lon="10.002897">
<ele>491</ele>
<time>2019-09-29T12:01:37Z</time>
</trkpt>
<trkpt lat="48.40487" lon="10.002897">
<ele>491</ele>
<time>2019-09-29T12:01:43Z</time>
</trkpt>
<trkpt lat="48.404943" lon="10.002845">
<ele>491</ele>
<time>2019-09-29T12:02:18Z</time>
</trkpt>
<trkpt lat="48.405118" lon="10.002717">
<ele>491</ele>
<time>2019-09-29T12:02:23Z</time>
</trkpt>
<trkpt lat="48.405332" lon="10.002545">
<ele>491</ele>
<time>2019-09-29T12:02:28Z</time>
</trkpt>
<trkpt lat="48.405527" lon="10.002325">
<ele>491</ele>
<time>2019-09-29T12:02:33Z</time>
</trkpt>
<trkpt lat="48.405697" lon="10.002053">
<ele>491</ele>
<time>2019-09-29T12:02:38Z</time>
</trkpt>
<trkpt lat="48.405862" lon="10.001678">
<ele>491</ele>
<time>2019-09-29T12:02:44Z</time>
</trkpt>
<trkpt lat="48.405988" lon="10.00126">
<ele>492</ele>
<time>2019-09-29T12:02:50Z</time>
</trkpt>
<trkpt lat="48.406073" lon="10.000915">
<ele>492</ele>
<time>2019-09-29T12:02:55Z</time>
</trkpt>
<trkpt lat="48.406168" lon="10.000552">
<ele>492</ele>
<time>2019-09-29T12:03:00Z</time>
</trkpt>
<trkpt lat="48.40634" lon="10.000227">
<ele>492</ele>
<time>2019-09-29T12:03:05Z</time>
</trkpt>
<trkpt lat="48.406587" lon="10.000062">
<ele>492</ele>
<time>2019-09-29T12:03:10Z</time>
</trkpt>
<trkpt lat="48.40683" lon="9.999887">
<ele>492</ele>
<time>2019-09-29T12:03:15Z</time>
</trkpt>
<trkpt lat="48.407058" lon="9.999653">
<ele>492</ele>
<time>2019-09-29T12:03:20Z</time>
</trkpt>
<trkpt lat="48.40733" lon="9.999567">
<ele>492</ele>
<time>2019-09-29T12:03:25Z</time>
</trkpt>
<trkpt lat="48.407537" lon="9.999742">
<ele>493</ele>
<time>2019-09-29T12:03:30Z</time>
</trkpt>
<trkpt lat="48.407617" lon="10.000033">
<ele>495</ele>
<time>2019-09-29T12:03:35Z</time>
</trkpt>
<trkpt lat="48.407673" lon="10.000212">
<ele>496</ele>
<time>2019-09-29T12:03:40Z</time>
</trkpt>
<trkpt lat="48.407723" lon="10.00036">
<ele>496</ele>
<time>2019-09-29T12:03:45Z</time>
</trkpt>
<trkpt lat="48.407793" lon="10.000387">
<ele>497</ele>
<time>2019-09-29T12:03:50Z</time>
</trkpt>
<trkpt lat="48.407895" lon="10.00032">
<ele>497</ele>
<time>2019-09-29T12:03:55Z</time>
</trkpt>
<trkpt lat="48.407977" lon="10.000328">
<ele>497</ele>
<time>2019-09-29T12:04:00Z</time>
</trkpt>
<trkpt lat="48.408062" lon="10.000435">
<ele>498</ele>
<time>2019-09-29T12:04:05Z</time>
</trkpt>
<trkpt lat="48.408148" lon="10.000482">
<ele>500</ele>
<time>2019-09-29T12:04:10Z</time>
</trkpt>
<trkpt lat="48.408188" lon="10.000428">
<ele>501</ele>
<time>2019-09-29T12:04:15Z</time>
</trkpt>
<trkpt lat="48.408275" lon="10.000297">
<ele>502</ele>
<time>2019-09-29T12:04:20Z</time>
</trkpt>
<trkpt lat="48.408283" lon="10.000245">
<ele>503</ele>
<time>2019-09-29T12:04:25Z</time>
</trkpt>
<trkpt lat="48.408325" lon="10.000197">
<ele>503</ele>
<time>2019-09-29T12:04:30Z</time>
</trkpt>
<trkpt lat="48.408365" lon="10.000115">
<ele>504</ele>
<time>2019-09-29T12:04:35Z</time>
</trkpt>
<trkpt lat="48.408443" lon="9.999985">
<ele>505</ele>
<time>2019-09-29T12:04:40Z</time>
</trkpt>
<trkpt lat="48.408542" lon="9.999847">
<ele>506</ele>
<time>2019-09-29T12:04:45Z</time>
</trkpt>
<trkpt lat="48.40868" lon="9.99971">
<ele>507</ele>
<time>2019-09-29T12:04:50Z</time>
</trkpt>
<trkpt lat="48.408863" lon="9.999598">
<ele>508</ele>
<time>2019-09-29T12:04:56Z</time>
</trkpt>
<trkpt lat="48.408992" lon="9.999525">
<ele>509</ele>
<time>2019-09-29T12:05:01Z</time>
</trkpt>
<trkpt lat="48.409142" lon="9.999445">
<ele>509</ele>
<time>2019-09-29T12:05:06Z</time>
</trkpt>
<trkpt lat="48.409273" lon="9.999318">
<ele>510</ele>
<time>2019-09-29T12:05:11Z</time>
</trkpt>
<trkpt lat="48.409393" lon="9.999138">
<ele>511</ele>
<time>2019-09-29T12:05:16Z</time>
</trkpt>
<trkpt lat="48.40949" lon="9.998922">
<ele>512</ele>
<time>2019-09-29T12:05:21Z</time>
</trkpt>
<trkpt lat="48.40955" lon="9.998647">
<ele>513</ele>
<time>2019-09-29T12:05:27Z</time>
</trkpt>
<trkpt lat="48.40959" lon="9.998415">
<ele>514</ele>
<time>2019-09-29T12:05:32Z</time>
</trkpt>
<trkpt lat="48.40964" lon="9.998213">
<ele>515</ele>
<time>2019-09-29T12:05:37Z</time>
</trkpt>
<trkpt lat="48.409657" lon="9.997947">
<ele>516</ele>
<time>2019-09-29T12:05:42Z</time>
</trkpt>
<trkpt lat="48.4097" lon="9.997722">
<ele>517</ele>
<time>2019-09-29T12:05:47Z</time>
</trkpt>
<trkpt lat="48.409758" lon="9.997465">
<ele>518</ele>
<time>2019-09-29T12:05:52Z</time>
</trkpt>
<trkpt lat="48.409842" lon="9.997207">
<ele>519</ele>
<time>2019-09-29T12:05:57Z</time>
</trkpt>
<trkpt lat="48.409877" lon="9.996942">
<ele>519</ele>
<time>2019-09-29T12:06:02Z</time>
</trkpt>
<trkpt lat="48.409907" lon="9.996698">
<ele>521</ele>
<time>2019-09-29T12:06:07Z</time>
</trkpt>
<trkpt lat="48.410013" lon="9.996455">
<ele>521</ele>
<time>2019-09-29T12:06:12Z</time>
</trkpt>
<trkpt lat="48.410115" lon="9.996205">
<ele>522</ele>
<time>2019-09-29T12:06:17Z</time>
</trkpt>
<trkpt lat="48.410205" lon="9.995927">
<ele>522</ele>
<time>2019-09-29T12:06:22Z</time>
</trkpt>
<trkpt lat="48.410273" lon="9.995727">
<ele>524</ele>
<time>2019-09-29T12:06:27Z</time>
</trkpt>
<trkpt lat="48.410362" lon="9.995508">
<ele>525</ele>
<time>2019-09-29T12:06:32Z</time>
</trkpt>
<trkpt lat="48.410435" lon="9.99529">
<ele>526</ele>
<time>2019-09-29T12:06:37Z</time>
</trkpt>
<trkpt lat="48.410523" lon="9.99508">
<ele>527</ele>
<time>2019-09-29T12:06:42Z</time>
</trkpt>
<trkpt lat="48.4106" lon="9.994858">
<ele>528</ele>
<time>2019-09-29T12:06:47Z</time>
</trkpt>
<trkpt lat="48.410717" lon="9.994602">
<ele>529</ele>
<time>2019-09-29T12:06:53Z</time>
</trkpt>
<trkpt lat="48.410818" lon="9.994397">
<ele>529</ele>
<time>2019-09-29T12:06:58Z</time>
</trkpt>
<trkpt lat="48.41091" lon="9.994195">
<ele>530</ele>
<time>2019-09-29T12:07:03Z</time>
</trkpt>
<trkpt lat="48.410968" lon="9.993995">
<ele>531</ele>
<time>2019-09-29T12:07:08Z</time>
</trkpt>
<trkpt lat="48.41109" lon="9.993815">
<ele>533</ele>
<time>2019-09-29T12:07:14Z</time>
</trkpt>
<trkpt lat="48.411228" lon="9.993737">
<ele>533</ele>
<time>2019-09-29T12:07:19Z</time>
</trkpt>
<trkpt lat="48.411407" lon="9.99354">
<ele>533</ele>
<time>2019-09-29T12:07:24Z</time>
</trkpt>
<trkpt lat="48.41157" lon="9.993335">
<ele>534</ele>
<time>2019-09-29T12:07:29Z</time>
</trkpt>
<trkpt lat="48.41169" lon="9.993127">
<ele>535</ele>
<time>2019-09-29T12:07:34Z</time>
</trkpt>
<trkpt lat="48.411795" lon="9.992938">
<ele>536</ele>
<time>2019-09-29T12:07:39Z</time>
</trkpt>
<trkpt lat="48.411913" lon="9.992758">
<ele>537</ele>
<time>2019-09-29T12:07:44Z</time>
</trkpt>
<trkpt lat="48.412025" lon="9.99257">
<ele>538</ele>
<time>2019-09-29T12:07:49Z</time>
</trkpt>
<trkpt lat="48.41213" lon="9.992358">
<ele>539</ele>
<time>2019-09-29T12:07:54Z</time>
</trkpt>
<trkpt lat="48.412245" lon="9.992182">
<ele>540</ele>
<time>2019-09-29T12:07:59Z</time>
</trkpt>
<trkpt lat="48.41236" lon="9.992018">
<ele>541</ele>
<time>2019-09-29T12:08:04Z</time>
</trkpt>
<trkpt lat="48.41244" lon="9.991798">
<ele>542</ele>
<time>2019-09-29T12:08:09Z</time>
</trkpt>
<trkpt lat="48.412517" lon="9.991568">
<ele>542</ele>
<time>2019-09-29T12:08:14Z</time>
</trkpt>
<trkpt lat="48.412607" lon="9.991338">
<ele>543</ele>
<time>2019-09-29T12:08:19Z</time>
</trkpt>
<trkpt lat="48.41269" lon="9.991108">
<ele>544</ele>
<time>2019-09-29T12:08:24Z</time>
</trkpt>
<trkpt lat="48.412762" lon="9.990897">
<ele>545</ele>
<time>2019-09-29T12:08:29Z</time>
</trkpt>
<trkpt lat="48.412838" lon="9.990673">
<ele>546</ele>
<time>2019-09-29T12:08:34Z</time>
</trkpt>
<trkpt lat="48.4129" lon="9.990453">
<ele>547</ele>
<time>2019-09-29T12:08:39Z</time>
</trkpt>
<trkpt lat="48.412943" lon="9.990215">
<ele>548</ele>
<time>2019-09-29T12:08:44Z</time>
</trkpt>
<trkpt lat="48.412948" lon="9.989948">
<ele>549</ele>
<time>2019-09-29T12:08:49Z</time>
</trkpt>
<trkpt lat="48.412935" lon="9.989708">
<ele>550</ele>
<time>2019-09-29T12:08:54Z</time>
</trkpt>
<trkpt lat="48.412922" lon="9.989477">
<ele>551</ele>
<time>2019-09-29T12:08:59Z</time>
</trkpt>
<trkpt lat="48.4129" lon="9.989222">
<ele>552</ele>
<time>2019-09-29T12:09:04Z</time>
</trkpt>
<trkpt lat="48.412897" lon="9.988952">
<ele>553</ele>
<time>2019-09-29T12:09:09Z</time>
</trkpt>
<trkpt lat="48.412882" lon="9.988705">
<ele>554</ele>
<time>2019-09-29T12:09:14Z</time>
</trkpt>
<trkpt lat="48.412883" lon="9.988447">
<ele>555</ele>
<time>2019-09-29T12:09:19Z</time>
</trkpt>
<trkpt lat="48.412882" lon="9.988212">
<ele>556</ele>
<time>2019-09-29T12:09:24Z</time>
</trkpt>
<trkpt lat="48.41291" lon="9.98797">
<ele>557</ele>
<time>2019-09-29T12:09:29Z</time>
</trkpt>
<trkpt lat="48.412947" lon="9.987742">
<ele>558</ele>
<time>2019-09-29T12:09:34Z</time>
</trkpt>
<trkpt lat="48.412995" lon="9.987503">
<ele>559</ele>
<time>2019-09-29T12:09:39Z</time>
</trkpt>
<trkpt lat="48.413065" lon="9.987267">
<ele>560</ele>
<time>2019-09-29T12:09:44Z</time>
</trkpt>
<trkpt lat="48.413183" lon="9.987028">
<ele>561</ele>
<time>2019-09-29T12:09:49Z</time>
</trkpt>
<trkpt lat="48.413307" lon="9.9868">
<ele>561</ele>
<time>2019-09-29T12:09:54Z</time>
</trkpt>
<trkpt lat="48.413413" lon="9.986603">
<ele>562</ele>
<time>2019-09-29T12:09:59Z</time>
</trkpt>
<trkpt lat="48.41352" lon="9.986448">
<ele>563</ele>
<time>2019-09-29T12:10:04Z</time>
</trkpt>
<trkpt lat="48.413677" lon="9.986338">
<ele>564</ele>
<time>2019-09-29T12:10:09Z</time>
</trkpt>
<trkpt lat="48.413855" lon="9.986277">
<ele>565</ele>
<time>2019-09-29T12:10:14Z</time>
</trkpt>
<trkpt lat="48.41409" lon="9.986228">
<ele>566</ele>
<time>2019-09-29T12:10:20Z</time>
</trkpt>
<trkpt lat="48.414275" lon="9.986228">
<ele>567</ele>
<time>2019-09-29T12:10:25Z</time>
</trkpt>
<trkpt lat="48.414453" lon="9.986273">
<ele>567</ele>
<time>2019-09-29T12:10:30Z</time>
</trkpt>
<trkpt lat="48.414635" lon="9.986348">
<ele>568</ele>
<time>2019-09-29T12:10:35Z</time>
</trkpt>
<trkpt lat="48.414815" lon="9.98643">
<ele>569</ele>
<time>2019-09-29T12:10:40Z</time>
</trkpt>
<trkpt lat="48.415005" lon="9.986492">
<ele>570</ele>
<time>2019-09-29T12:10:45Z</time>
</trkpt>
<trkpt lat="48.415195" lon="9.986527">
<ele>571</ele>
<time>2019-09-29T12:10:50Z</time>
</trkpt>
<trkpt lat="48.415368" lon="9.98655">
<ele>572</ele>
<time>2019-09-29T12:10:55Z</time>
</trkpt>
<trkpt lat="48.415532" lon="9.986537">
<ele>572</ele>
<time>2019-09-29T12:11:00Z</time>
</trkpt>
<trkpt lat="48.415693" lon="9.986483">
<ele>573</ele>
<time>2019-09-29T12:11:05Z</time>
</trkpt>
<trkpt lat="48.415845" lon="9.986383">
<ele>574</ele>
<time>2019-09-29T12:11:10Z</time>
</trkpt>
<trkpt lat="48.416005" lon="9.986277">
<ele>575</ele>
<time>2019-09-29T12:11:15Z</time>
</trkpt>
<trkpt lat="48.416177" lon="9.986155">
<ele>576</ele>
<time>2019-09-29T12:11:20Z</time>
</trkpt>
<trkpt lat="48.416345" lon="9.986032">
<ele>577</ele>
<time>2019-09-29T12:11:25Z</time>
</trkpt>
<trkpt lat="48.41651" lon="9.985905">
<ele>578</ele>
<time>2019-09-29T12:11:30Z</time>
</trkpt>
<trkpt lat="48.416667" lon="9.985787">
<ele>579</ele>
<time>2019-09-29T12:11:35Z</time>
</trkpt>
<trkpt lat="48.416835" lon="9.985667">
<ele>580</ele>
<time>2019-09-29T12:11:40Z</time>
</trkpt>
<trkpt lat="48.417005" lon="9.985502">
<ele>580</ele>
<time>2019-09-29T12:11:45Z</time>
</trkpt>
<trkpt lat="48.417148" lon="9.985282">
<ele>581</ele>
<time>2019-09-29T12:11:50Z</time>
</trkpt>
<trkpt lat="48.417285" lon="9.985002">
<ele>582</ele>
<time>2019-09-29T12:11:56Z</time>
</trkpt>
<trkpt lat="48.417402" lon="9.984717">
<ele>583</ele>
<time>2019-09-29T12:12:02Z</time>
</trkpt>
<trkpt lat="48.417515" lon="9.984488">
<ele>584</ele>
<time>2019-09-29T12:12:07Z</time>
</trkpt>
<trkpt lat="48.41761" lon="9.984295">
<ele>584</ele>
<time>2019-09-29T12:12:12Z</time>
</trkpt>
<trkpt lat="48.417648" lon="9.98423">
<ele>585</ele>
<time>2019-09-29T12:12:17Z</time>
</trkpt>
<trkpt lat="48.41765" lon="9.984228">
<ele>585</ele>
<time>2019-09-29T12:12:27Z</time>
</trkpt>
<trkpt lat="48.41765" lon="9.98423">
<ele>585</ele>
<time>2019-09-29T12:12:42Z</time>
</trkpt>
<trkpt lat="48.417648" lon="9.984228">
<ele>585</ele>
<time>2019-09-29T12:12:52Z</time>
</trkpt>
<trkpt lat="48.417735" lon="9.984085">
<ele>586</ele>
<time>2019-09-29T12:14:32Z</time>
</trkpt>
<trkpt lat="48.417853" lon="9.983902">
<ele>586</ele>
<time>2019-09-29T12:14:37Z</time>
</trkpt>
<trkpt lat="48.418003" lon="9.98377">
<ele>587</ele>
<time>2019-09-29T12:14:42Z</time>
</trkpt>
<trkpt lat="48.418162" lon="9.983622">
<ele>588</ele>
<time>2019-09-29T12:14:47Z</time>
</trkpt>
<trkpt lat="48.418352" lon="9.983503">
<ele>588</ele>
<time>2019-09-29T12:14:52Z</time>
</trkpt>
<trkpt lat="48.418548" lon="9.983402">
<ele>589</ele>
<time>2019-09-29T12:14:57Z</time>
</trkpt>
<trkpt lat="48.418758" lon="9.983318">
<ele>590</ele>
<time>2019-09-29T12:15:02Z</time>
</trkpt>
<trkpt lat="48.41895" lon="9.983247">
<ele>590</ele>
<time>2019-09-29T12:15:07Z</time>
</trkpt>
<trkpt lat="48.419145" lon="9.983205">
<ele>591</ele>
<time>2019-09-29T12:15:12Z</time>
</trkpt>
<trkpt lat="48.419345" lon="9.98318">
<ele>592</ele>
<time>2019-09-29T12:15:17Z</time>
</trkpt>
<trkpt lat="48.419535" lon="9.983175">
<ele>593</ele>
<time>2019-09-29T12:15:22Z</time>
</trkpt>
<trkpt lat="48.419712" lon="9.983182">
<ele>593</ele>
<time>2019-09-29T12:15:27Z</time>
</trkpt>
<trkpt lat="48.419895" lon="9.983207">
<ele>594</ele>
<time>2019-09-29T12:15:32Z</time>
</trkpt>
<trkpt lat="48.420078" lon="9.983202">
<ele>595</ele>
<time>2019-09-29T12:15:37Z</time>
</trkpt>
<trkpt lat="48.420262" lon="9.983117">
<ele>595</ele>
<time>2019-09-29T12:15:42Z</time>
</trkpt>
<trkpt lat="48.420388" lon="9.983038">
<ele>597</ele>
<time>2019-09-29T12:15:47Z</time>
</trkpt>
<trkpt lat="48.420502" lon="9.983">
<ele>599</ele>
<time>2019-09-29T12:15:52Z</time>
</trkpt>
<trkpt lat="48.42068" lon="9.983052">
<ele>599</ele>
<time>2019-09-29T12:15:57Z</time>
</trkpt>
<trkpt lat="48.420885" lon="9.983117">
<ele>599</ele>
<time>2019-09-29T12:16:02Z</time>
</trkpt>
<trkpt lat="48.421137" lon="9.983157">
<ele>599</ele>
<time>2019-09-29T12:16:07Z</time>
</trkpt>
<trkpt lat="48.42139" lon="9.983193">
<ele>599</ele>
<time>2019-09-29T12:16:12Z</time>
</trkpt>
<trkpt lat="48.421672" lon="9.983198">
<ele>598</ele>
<time>2019-09-29T12:16:17Z</time>
</trkpt>
<trkpt lat="48.421982" lon="9.983173">
<ele>598</ele>
<time>2019-09-29T12:16:22Z</time>
</trkpt>
<trkpt lat="48.42234" lon="9.983112">
<ele>596</ele>
<time>2019-09-29T12:16:27Z</time>
</trkpt>
<trkpt lat="48.422743" lon="9.983035">
<ele>594</ele>
<time>2019-09-29T12:16:32Z</time>
</trkpt>
<trkpt lat="48.423153" lon="9.98293">
<ele>591</ele>
<time>2019-09-29T12:16:37Z</time>
</trkpt>
<trkpt lat="48.423505" lon="9.982832">
<ele>588</ele>
<time>2019-09-29T12:16:42Z</time>
</trkpt>
<trkpt lat="48.423713" lon="9.98294">
<ele>586</ele>
<time>2019-09-29T12:16:47Z</time>
</trkpt>
<trkpt lat="48.42378" lon="9.983265">
<ele>586</ele>
<time>2019-09-29T12:16:52Z</time>
</trkpt>
<trkpt lat="48.423718" lon="9.983593">
<ele>586</ele>
<time>2019-09-29T12:16:57Z</time>
</trkpt>
<trkpt lat="48.423615" lon="9.983835">
<ele>587</ele>
<time>2019-09-29T12:17:02Z</time>
</trkpt>
<trkpt lat="48.423615" lon="9.984108">
<ele>588</ele>
<time>2019-09-29T12:17:07Z</time>
</trkpt>
<trkpt lat="48.423818" lon="9.984312">
<ele>588</ele>
<time>2019-09-29T12:17:12Z</time>
</trkpt>
<trkpt lat="48.424027" lon="9.984533">
<ele>588</ele>
<time>2019-09-29T12:17:17Z</time>
</trkpt>
<trkpt lat="48.424223" lon="9.984762">
<ele>588</ele>
<time>2019-09-29T12:17:22Z</time>
</trkpt>
<trkpt lat="48.424417" lon="9.984975">
<ele>588</ele>
<time>2019-09-29T12:17:27Z</time>
</trkpt>
<trkpt lat="48.424608" lon="9.985153">
<ele>589</ele>
<time>2019-09-29T12:17:32Z</time>
</trkpt>
<trkpt lat="48.424788" lon="9.985348">
<ele>590</ele>
<time>2019-09-29T12:17:37Z</time>
</trkpt>
<trkpt lat="48.424958" lon="9.985532">
<ele>591</ele>
<time>2019-09-29T12:17:42Z</time>
</trkpt>
<trkpt lat="48.425132" lon="9.985713">
<ele>592</ele>
<time>2019-09-29T12:17:47Z</time>
</trkpt>
<trkpt lat="48.425297" lon="9.98591">
<ele>593</ele>
<time>2019-09-29T12:17:52Z</time>
</trkpt>
<trkpt lat="48.425437" lon="9.986103">
<ele>593</ele>
<time>2019-09-29T12:17:57Z</time>
</trkpt>
<trkpt lat="48.425585" lon="9.986278">
<ele>593</ele>
<time>2019-09-29T12:18:02Z</time>
</trkpt>
<trkpt lat="48.425727" lon="9.986455">
<ele>593</ele>
<time>2019-09-29T12:18:07Z</time>
</trkpt>
<trkpt lat="48.425853" lon="9.986642">
<ele>593</ele>
<time>2019-09-29T12:18:12Z</time>
</trkpt>
<trkpt lat="48.425927" lon="9.986723">
<ele>593</ele>
<time>2019-09-29T12:18:17Z</time>
</trkpt>
<trkpt lat="48.425995" lon="9.986702">
<ele>593</ele>
<time>2019-09-29T12:18:22Z</time>
</trkpt>
<trkpt lat="48.425997" lon="9.9867">
<ele>593</ele>
<time>2019-09-29T12:18:27Z</time>
</trkpt>
<trkpt lat="48.426023" lon="9.98665">
<ele>593</ele>
<time>2019-09-29T12:18:32Z</time>
</trkpt>
<trkpt lat="48.426093" lon="9.98651">
<ele>593</ele>
<time>2019-09-29T12:18:37Z</time>
</trkpt>
<trkpt lat="48.426222" lon="9.986383">
<ele>593</ele>
<time>2019-09-29T12:18:42Z</time>
</trkpt>
<trkpt lat="48.42638" lon="9.98617">
<ele>594</ele>
<time>2019-09-29T12:18:47Z</time>
</trkpt>
<trkpt lat="48.426538" lon="9.985988">
<ele>595</ele>
<time>2019-09-29T12:18:52Z</time>
</trkpt>
<trkpt lat="48.42672" lon="9.98582">
<ele>596</ele>
<time>2019-09-29T12:18:57Z</time>
</trkpt>
<trkpt lat="48.426932" lon="9.985688">
<ele>597</ele>
<time>2019-09-29T12:19:02Z</time>
</trkpt>
<trkpt lat="48.427168" lon="9.985605">
<ele>597</ele>
<time>2019-09-29T12:19:07Z</time>
</trkpt>
<trkpt lat="48.427412" lon="9.985572">
<ele>597</ele>
<time>2019-09-29T12:19:12Z</time>
</trkpt>
<trkpt lat="48.427662" lon="9.985535">
<ele>597</ele>
<time>2019-09-29T12:19:17Z</time>
</trkpt>
<trkpt lat="48.427932" lon="9.985505">
<ele>598</ele>
<time>2019-09-29T12:19:22Z</time>
</trkpt>
<trkpt lat="48.428188" lon="9.985447">
<ele>599</ele>
<time>2019-09-29T12:19:27Z</time>
</trkpt>
<trkpt lat="48.428433" lon="9.985408">
<ele>599</ele>
<time>2019-09-29T12:19:32Z</time>
</trkpt>
<trkpt lat="48.428677" lon="9.985365">
<ele>599</ele>
<time>2019-09-29T12:19:37Z</time>
</trkpt>
<trkpt lat="48.428898" lon="9.985318">
<ele>599</ele>
<time>2019-09-29T12:19:42Z</time>
</trkpt>
<trkpt lat="48.429077" lon="9.985305">
<ele>600</ele>
<time>2019-09-29T12:19:47Z</time>
</trkpt>
<trkpt lat="48.429287" lon="9.985347">
<ele>600</ele>
<time>2019-09-29T12:19:52Z</time>
</trkpt>
<trkpt lat="48.42951" lon="9.985358">
<ele>601</ele>
<time>2019-09-29T12:19:57Z</time>
</trkpt>
<trkpt lat="48.429742" lon="9.985363">
<ele>602</ele>
<time>2019-09-29T12:20:02Z</time>
</trkpt>
<trkpt lat="48.42997" lon="9.985372">
<ele>603</ele>
<time>2019-09-29T12:20:07Z</time>
</trkpt>
<trkpt lat="48.430198" lon="9.985405">
<ele>604</ele>
<time>2019-09-29T12:20:12Z</time>
</trkpt>
<trkpt lat="48.430427" lon="9.985433">
<ele>605</ele>
<time>2019-09-29T12:20:17Z</time>
</trkpt>
<trkpt lat="48.430652" lon="9.985462">
<ele>606</ele>
<time>2019-09-29T12:20:22Z</time>
</trkpt>
<trkpt lat="48.430898" lon="9.985493">
<ele>606</ele>
<time>2019-09-29T12:20:27Z</time>
</trkpt>
<trkpt lat="48.431167" lon="9.985518">
<ele>607</ele>
<time>2019-09-29T12:20:32Z</time>
</trkpt>
<trkpt lat="48.431433" lon="9.985542">
<ele>607</ele>
<time>2019-09-29T12:20:37Z</time>
</trkpt>
<trkpt lat="48.43171" lon="9.98556">
<ele>607</ele>
<time>2019-09-29T12:20:42Z</time>
</trkpt>
<trkpt lat="48.431995" lon="9.985585">
<ele>607</ele>
<time>2019-09-29T12:20:47Z</time>
</trkpt>
<trkpt lat="48.43228" lon="9.98561">
<ele>607</ele>
<time>2019-09-29T12:20:52Z</time>
</trkpt>
<trkpt lat="48.432538" lon="9.985638">
<ele>607</ele>
<time>2019-09-29T12:20:57Z</time>
</trkpt>
<trkpt lat="48.432708" lon="9.985608">
<ele>607</ele>
<time>2019-09-29T12:21:02Z</time>
</trkpt>
<trkpt lat="48.432855" lon="9.985568">
<ele>607</ele>
<time>2019-09-29T12:21:07Z</time>
</trkpt>
<trkpt lat="48.433097" lon="9.985643">
<ele>607</ele>
<time>2019-09-29T12:21:12Z</time>
</trkpt>
<trkpt lat="48.433363" lon="9.985705">
<ele>607</ele>
<time>2019-09-29T12:21:17Z</time>
</trkpt>
<trkpt lat="48.433633" lon="9.985737">
<ele>607</ele>
<time>2019-09-29T12:21:22Z</time>
</trkpt>
<trkpt lat="48.433915" lon="9.985762">
<ele>607</ele>
<time>2019-09-29T12:21:27Z</time>
</trkpt>
<trkpt lat="48.43421" lon="9.985795">
<ele>607</ele>
<time>2019-09-29T12:21:32Z</time>
</trkpt>
<trkpt lat="48.434483" lon="9.98584">
<ele>608</ele>
<time>2019-09-29T12:21:37Z</time>
</trkpt>
<trkpt lat="48.434725" lon="9.985857">
<ele>608</ele>
<time>2019-09-29T12:21:42Z</time>
</trkpt>
<trkpt lat="48.434958" lon="9.985892">
<ele>608</ele>
<time>2019-09-29T12:21:47Z</time>
</trkpt>
<trkpt lat="48.435218" lon="9.985955">
<ele>608</ele>
<time>2019-09-29T12:21:52Z</time>
</trkpt>
<trkpt lat="48.435492" lon="9.986027">
<ele>608</ele>
<time>2019-09-29T12:21:57Z</time>
</trkpt>
<trkpt lat="48.43578" lon="9.986092">
<ele>608</ele>
<time>2019-09-29T12:22:02Z</time>
</trkpt>
<trkpt lat="48.436068" lon="9.986158">
<ele>608</ele>
<time>2019-09-29T12:22:07Z</time>
</trkpt>
<trkpt lat="48.436388" lon="9.986217">
<ele>609</ele>
<time>2019-09-29T12:22:12Z</time>
</trkpt>
<trkpt lat="48.43673" lon="9.986288">
<ele>609</ele>
<time>2019-09-29T12:22:17Z</time>
</trkpt>
<trkpt lat="48.437073" lon="9.986348">
<ele>609</ele>
<time>2019-09-29T12:22:22Z</time>
</trkpt>
<trkpt lat="48.437387" lon="9.986408">
<ele>609</ele>
<time>2019-09-29T12:22:27Z</time>
</trkpt>
<trkpt lat="48.437708" lon="9.986453">
<ele>609</ele>
<time>2019-09-29T12:22:32Z</time>
</trkpt>
<trkpt lat="48.438035" lon="9.986508">
<ele>610</ele>
<time>2019-09-29T12:22:37Z</time>
</trkpt>
<trkpt lat="48.43834" lon="9.986542">
<ele>610</ele>
<time>2019-09-29T12:22:42Z</time>
</trkpt>
<trkpt lat="48.438633" lon="9.98658">
<ele>610</ele>
<time>2019-09-29T12:22:47Z</time>
</trkpt>
<trkpt lat="48.43889" lon="9.986612">
<ele>610</ele>
<time>2019-09-29T12:22:52Z</time>
</trkpt>
<trkpt lat="48.439135" lon="9.986558">
<ele>610</ele>
<time>2019-09-29T12:22:57Z</time>
</trkpt>
<trkpt lat="48.43935" lon="9.986603">
<ele>610</ele>
<time>2019-09-29T12:23:02Z</time>
</trkpt>
<trkpt lat="48.439552" lon="9.986672">
<ele>610</ele>
<time>2019-09-29T12:23:07Z</time>
</trkpt>
<trkpt lat="48.439792" lon="9.986655">
<ele>610</ele>
<time>2019-09-29T12:23:12Z</time>
</trkpt>
<trkpt lat="48.440027" lon="9.986607">
<ele>610</ele>
<time>2019-09-29T12:23:17Z</time>
</trkpt>
<trkpt lat="48.440292" lon="9.986605">
<ele>610</ele>
<time>2019-09-29T12:23:22Z</time>
</trkpt>
<trkpt lat="48.440582" lon="9.986655">
<ele>610</ele>
<time>2019-09-29T12:23:27Z</time>
</trkpt>
<trkpt lat="48.44087" lon="9.986738">
<ele>610</ele>
<time>2019-09-29T12:23:32Z</time>
</trkpt>
<trkpt lat="48.441147" lon="9.986797">
<ele>610</ele>
<time>2019-09-29T12:23:37Z</time>
</trkpt>
<trkpt lat="48.441407" lon="9.98683">
<ele>611</ele>
<time>2019-09-29T12:23:42Z</time>
</trkpt>
<trkpt lat="48.441658" lon="9.986845">
<ele>611</ele>
<time>2019-09-29T12:23:47Z</time>
</trkpt>
<trkpt lat="48.441902" lon="9.98685">
<ele>612</ele>
<time>2019-09-29T12:23:52Z</time>
</trkpt>
<trkpt lat="48.442137" lon="9.986875">
<ele>613</ele>
<time>2019-09-29T12:23:57Z</time>
</trkpt>
<trkpt lat="48.442313" lon="9.98686">
<ele>614</ele>
<time>2019-09-29T12:24:02Z</time>
</trkpt>
<trkpt lat="48.442413" lon="9.986818">
<ele>614</ele>
<time>2019-09-29T12:24:07Z</time>
</trkpt>
<trkpt lat="48.442585" lon="9.986712">
<ele>614</ele>
<time>2019-09-29T12:24:12Z</time>
</trkpt>
<trkpt lat="48.442812" lon="9.986615">
<ele>614</ele>
<time>2019-09-29T12:24:17Z</time>
</trkpt>
<trkpt lat="48.44306" lon="9.98655">
<ele>614</ele>
<time>2019-09-29T12:24:22Z</time>
</trkpt>
<trkpt lat="48.443322" lon="9.986547">
<ele>614</ele>
<time>2019-09-29T12:24:27Z</time>
</trkpt>
<trkpt lat="48.443575" lon="9.986548">
<ele>614</ele>
<time>2019-09-29T12:24:32Z</time>
</trkpt>
<trkpt lat="48.443893" lon="9.986488">
<ele>614</ele>
<time>2019-09-29T12:24:37Z</time>
</trkpt>
<trkpt lat="48.44426" lon="9.986417">
<ele>613</ele>
<time>2019-09-29T12:24:42Z</time>
</trkpt>
<trkpt lat="48.444668" lon="9.986352">
<ele>611</ele>
<time>2019-09-29T12:24:47Z</time>
</trkpt>
<trkpt lat="48.445085" lon="9.986283">
<ele>611</ele>
<time>2019-09-29T12:24:52Z</time>
</trkpt>
<trkpt lat="48.44547" lon="9.98624">
<ele>611</ele>
<time>2019-09-29T12:24:57Z</time>
</trkpt>
<trkpt lat="48.445835" lon="9.986187">
<ele>611</ele>
<time>2019-09-29T12:25:02Z</time>
</trkpt>
<trkpt lat="48.446197" lon="9.986118">
<ele>611</ele>
<time>2019-09-29T12:25:07Z</time>
</trkpt>
<trkpt lat="48.446527" lon="9.986047">
<ele>611</ele>
<time>2019-09-29T12:25:12Z</time>
</trkpt>
<trkpt lat="48.446843" lon="9.985963">
<ele>611</ele>
<time>2019-09-29T12:25:17Z</time>
</trkpt>
<trkpt lat="48.447172" lon="9.985878">
<ele>612</ele>
<time>2019-09-29T12:25:22Z</time>
</trkpt>
<trkpt lat="48.447488" lon="9.985783">
<ele>612</ele>
<time>2019-09-29T12:25:27Z</time>
</trkpt>
<trkpt lat="48.447797" lon="9.985685">
<ele>612</ele>
<time>2019-09-29T12:25:32Z</time>
</trkpt>
<trkpt lat="48.44811" lon="9.98554">
<ele>612</ele>
<time>2019-09-29T12:25:37Z</time>
</trkpt>
<trkpt lat="48.448392" lon="9.98539">
<ele>612</ele>
<time>2019-09-29T12:25:42Z</time>
</trkpt>
<trkpt lat="48.448583" lon="9.985137">
<ele>612</ele>
<time>2019-09-29T12:25:47Z</time>
</trkpt>
<trkpt lat="48.448838" lon="9.984927">
<ele>611</ele>
<time>2019-09-29T12:25:52Z</time>
</trkpt>
<trkpt lat="48.449208" lon="9.98478">
<ele>610</ele>
<time>2019-09-29T12:25:57Z</time>
</trkpt>
<trkpt lat="48.449585" lon="9.984542">
<ele>608</ele>
<time>2019-09-29T12:26:02Z</time>
</trkpt>
<trkpt lat="48.449908" lon="9.984202">
<ele>608</ele>
<time>2019-09-29T12:26:07Z</time>
</trkpt>
<trkpt lat="48.45017" lon="9.983898">
<ele>607</ele>
<time>2019-09-29T12:26:12Z</time>
</trkpt>
<trkpt lat="48.450387" lon="9.984043">
<ele>607</ele>
<time>2019-09-29T12:26:17Z</time>
</trkpt>
<trkpt lat="48.450518" lon="9.984485">
<ele>607</ele>
<time>2019-09-29T12:26:22Z</time>
</trkpt>
<trkpt lat="48.450592" lon="9.984972">
<ele>607</ele>
<time>2019-09-29T12:26:27Z</time>
</trkpt>
<trkpt lat="48.450627" lon="9.985517">
<ele>607</ele>
<time>2019-09-29T12:26:32Z</time>
</trkpt>
<trkpt lat="48.450655" lon="9.986025">
<ele>607</ele>
<time>2019-09-29T12:26:37Z</time>
</trkpt>
<trkpt lat="48.45066" lon="9.98646">
<ele>607</ele>
<time>2019-09-29T12:26:42Z</time>
</trkpt>
<trkpt lat="48.450645" lon="9.986827">
<ele>609</ele>
<time>2019-09-29T12:26:47Z</time>
</trkpt>
<trkpt lat="48.45063" lon="9.987153">
<ele>610</ele>
<time>2019-09-29T12:26:52Z</time>
</trkpt>
<trkpt lat="48.450762" lon="9.987382">
<ele>612</ele>
<time>2019-09-29T12:26:57Z</time>
</trkpt>
<trkpt lat="48.45099" lon="9.987397">
<ele>613</ele>
<time>2019-09-29T12:27:02Z</time>
</trkpt>
<trkpt lat="48.451232" lon="9.987425">
<ele>613</ele>
<time>2019-09-29T12:27:07Z</time>
</trkpt>
<trkpt lat="48.451552" lon="9.987577">
<ele>613</ele>
<time>2019-09-29T12:27:12Z</time>
</trkpt>
<trkpt lat="48.451958" lon="9.987858">
<ele>612</ele>
<time>2019-09-29T12:27:17Z</time>
</trkpt>
<trkpt lat="48.452432" lon="9.988178">
<ele>608</ele>
<time>2019-09-29T12:27:22Z</time>
</trkpt>
<trkpt lat="48.452873" lon="9.988485">
<ele>608</ele>
<time>2019-09-29T12:27:27Z</time>
</trkpt>
<trkpt lat="48.453212" lon="9.988708">
<ele>608</ele>
<time>2019-09-29T12:27:32Z</time>
</trkpt>
<trkpt lat="48.453483" lon="9.988905">
<ele>608</ele>
<time>2019-09-29T12:27:37Z</time>
</trkpt>
<trkpt lat="48.453745" lon="9.989083">
<ele>610</ele>
<time>2019-09-29T12:27:42Z</time>
</trkpt>
<trkpt lat="48.454012" lon="9.989207">
<ele>612</ele>
<time>2019-09-29T12:27:47Z</time>
</trkpt>
<trkpt lat="48.454303" lon="9.989275">
<ele>612</ele>
<time>2019-09-29T12:27:52Z</time>
</trkpt>
<trkpt lat="48.454613" lon="9.989323">
<ele>613</ele>
<time>2019-09-29T12:27:57Z</time>
</trkpt>
<trkpt lat="48.454922" lon="9.98937">
<ele>613</ele>
<time>2019-09-29T12:28:02Z</time>
</trkpt>
<trkpt lat="48.45521" lon="9.989413">
<ele>613</ele>
<time>2019-09-29T12:28:07Z</time>
</trkpt>
<trkpt lat="48.455448" lon="9.989427">
<ele>614</ele>
<time>2019-09-29T12:28:12Z</time>
</trkpt>
<trkpt lat="48.455527" lon="9.989702">
<ele>616</ele>
<time>2019-09-29T12:28:17Z</time>
</trkpt>
<trkpt lat="48.455522" lon="9.990125">
<ele>616</ele>
<time>2019-09-29T12:28:22Z</time>
</trkpt>
<trkpt lat="48.455513" lon="9.990588">
<ele>616</ele>
<time>2019-09-29T12:28:27Z</time>
</trkpt>
<trkpt lat="48.455507" lon="9.991048">
<ele>616</ele>
<time>2019-09-29T12:28:32Z</time>
</trkpt>
<trkpt lat="48.455528" lon="9.991473">
<ele>616</ele>
<time>2019-09-29T12:28:37Z</time>
</trkpt>
<trkpt lat="48.455798" lon="9.991557">
<ele>616</ele>
<time>2019-09-29T12:28:42Z</time>
</trkpt>
<trkpt lat="48.456127" lon="9.991568">
<ele>616</ele>
<time>2019-09-29T12:28:47Z</time>
</trkpt>
<trkpt lat="48.456455" lon="9.991585">
<ele>616</ele>
<time>2019-09-29T12:28:52Z</time>
</trkpt>
<trkpt lat="48.456765" lon="9.991607">
<ele>616</ele>
<time>2019-09-29T12:28:57Z</time>
</trkpt>
<trkpt lat="48.457082" lon="9.99162">
<ele>616</ele>
<time>2019-09-29T12:29:02Z</time>
</trkpt>
<trkpt lat="48.45743" lon="9.991627">
<ele>616</ele>
<time>2019-09-29T12:29:07Z</time>
</trkpt>
<trkpt lat="48.457755" lon="9.991647">
<ele>616</ele>
<time>2019-09-29T12:29:12Z</time>
</trkpt>
<trkpt lat="48.458002" lon="9.991642">
<ele>616</ele>
<time>2019-09-29T12:29:17Z</time>
</trkpt>
<trkpt lat="48.45826" lon="9.991648">
<ele>616</ele>
<time>2019-09-29T12:29:22Z</time>
</trkpt>
<trkpt lat="48.458593" lon="9.991645">
<ele>616</ele>
<time>2019-09-29T12:29:27Z</time>
</trkpt>
<trkpt lat="48.458883" lon="9.991618">
<ele>615</ele>
<time>2019-09-29T12:29:32Z</time>
</trkpt>
<trkpt lat="48.458927" lon="9.991233">
<ele>615</ele>
<time>2019-09-29T12:29:37Z</time>
</trkpt>
<trkpt lat="48.45893" lon="9.990718">
<ele>615</ele>
<time>2019-09-29T12:29:42Z</time>
</trkpt>
<trkpt lat="48.458902" lon="9.990158">
<ele>615</ele>
<time>2019-09-29T12:29:47Z</time>
</trkpt>
<trkpt lat="48.458878" lon="9.989608">
<ele>615</ele>
<time>2019-09-29T12:29:52Z</time>
</trkpt>
<trkpt lat="48.458865" lon="9.989145">
<ele>613</ele>
<time>2019-09-29T12:29:57Z</time>
</trkpt>
<trkpt lat="48.45907" lon="9.989045">
<ele>612</ele>
<time>2019-09-29T12:30:02Z</time>
</trkpt>
<trkpt lat="48.459387" lon="9.989045">
<ele>611</ele>
<time>2019-09-29T12:30:07Z</time>
</trkpt>
<trkpt lat="48.459732" lon="9.988928">
<ele>611</ele>
<time>2019-09-29T12:30:12Z</time>
</trkpt>
<trkpt lat="48.460073" lon="9.988797">
<ele>611</ele>
<time>2019-09-29T12:30:17Z</time>
</trkpt>
<trkpt lat="48.460423" lon="9.988663">
<ele>611</ele>
<time>2019-09-29T12:30:22Z</time>
</trkpt>
<trkpt lat="48.460795" lon="9.988518">
<ele>611</ele>
<time>2019-09-29T12:30:27Z</time>
</trkpt>
<trkpt lat="48.461162" lon="9.988368">
<ele>610</ele>
<time>2019-09-29T12:30:32Z</time>
</trkpt>
<trkpt lat="48.461515" lon="9.988223">
<ele>609</ele>
<time>2019-09-29T12:30:37Z</time>
</trkpt>
<trkpt lat="48.461867" lon="9.988073">
<ele>609</ele>
<time>2019-09-29T12:30:42Z</time>
</trkpt>
<trkpt lat="48.462217" lon="9.987818">
<ele>608</ele>
<time>2019-09-29T12:30:47Z</time>
</trkpt>
<trkpt lat="48.462587" lon="9.987588">
<ele>604</ele>
<time>2019-09-29T12:30:52Z</time>
</trkpt>
<trkpt lat="48.463062" lon="9.987615">
<ele>603</ele>
<time>2019-09-29T12:30:57Z</time>
</trkpt>
<trkpt lat="48.463518" lon="9.98774">
<ele>602</ele>
<time>2019-09-29T12:31:02Z</time>
</trkpt>
<trkpt lat="48.463908" lon="9.987837">
<ele>602</ele>
<time>2019-09-29T12:31:07Z</time>
</trkpt>
<trkpt lat="48.464293" lon="9.987932">
<ele>604</ele>
<time>2019-09-29T12:31:12Z</time>
</trkpt>
<trkpt lat="48.464658" lon="9.988025">
<ele>606</ele>
<time>2019-09-29T12:31:17Z</time>
</trkpt>
<trkpt lat="48.465028" lon="9.988122">
<ele>607</ele>
<time>2019-09-29T12:31:22Z</time>
</trkpt>
<trkpt lat="48.46539" lon="9.988222">
<ele>607</ele>
<time>2019-09-29T12:31:27Z</time>
</trkpt>
<trkpt lat="48.465765" lon="9.988322">
<ele>607</ele>
<time>2019-09-29T12:31:32Z</time>
</trkpt>
<trkpt lat="48.466158" lon="9.988423">
<ele>608</ele>
<time>2019-09-29T12:31:37Z</time>
</trkpt>
<trkpt lat="48.466572" lon="9.988523">
<ele>608</ele>
<time>2019-09-29T12:31:42Z</time>
</trkpt>
<trkpt lat="48.466973" lon="9.988627">
<ele>608</ele>
<time>2019-09-29T12:31:47Z</time>
</trkpt>
<trkpt lat="48.467347" lon="9.988718">
<ele>608</ele>
<time>2019-09-29T12:31:52Z</time>
</trkpt>
<trkpt lat="48.467685" lon="9.988813">
<ele>610</ele>
<time>2019-09-29T12:31:57Z</time>
</trkpt>
<trkpt lat="48.468007" lon="9.988895">
<ele>611</ele>
<time>2019-09-29T12:32:02Z</time>
</trkpt>
<trkpt lat="48.468297" lon="9.988973">
<ele>611</ele>
<time>2019-09-29T12:32:07Z</time>
</trkpt>
<trkpt lat="48.46856" lon="9.989037">
<ele>612</ele>
<time>2019-09-29T12:32:12Z</time>
</trkpt>
<trkpt lat="48.46881" lon="9.989095">
<ele>612</ele>
<time>2019-09-29T12:32:17Z</time>
</trkpt>
<trkpt lat="48.469053" lon="9.989163">
<ele>612</ele>
<time>2019-09-29T12:32:22Z</time>
</trkpt>
<trkpt lat="48.469287" lon="9.989355">
<ele>612</ele>
<time>2019-09-29T12:32:27Z</time>
</trkpt>
<trkpt lat="48.46929" lon="9.989822">
<ele>612</ele>
<time>2019-09-29T12:32:32Z</time>
</trkpt>
<trkpt lat="48.46925" lon="9.990323">
<ele>612</ele>
<time>2019-09-29T12:32:37Z</time>
</trkpt>
<trkpt lat="48.469205" lon="9.99082">
<ele>612</ele>
<time>2019-09-29T12:32:42Z</time>
</trkpt>
<trkpt lat="48.46915" lon="9.99131">
<ele>612</ele>
<time>2019-09-29T12:32:47Z</time>
</trkpt>
<trkpt lat="48.469093" lon="9.991783">
<ele>612</ele>
<time>2019-09-29T12:32:52Z</time>
</trkpt>
<trkpt lat="48.46904" lon="9.992212">
<ele>612</ele>
<time>2019-09-29T12:32:57Z</time>
</trkpt>
<trkpt lat="48.46911" lon="9.992547">
<ele>612</ele>
<time>2019-09-29T12:33:02Z</time>
</trkpt>
<trkpt lat="48.469405" lon="9.992633">
<ele>611</ele>
<time>2019-09-29T12:33:07Z</time>
</trkpt>
<trkpt lat="48.469695" lon="9.99271">
<ele>611</ele>
<time>2019-09-29T12:33:12Z</time>
</trkpt>
<trkpt lat="48.470005" lon="9.992783">
<ele>610</ele>
<time>2019-09-29T12:33:17Z</time>
</trkpt>
<trkpt lat="48.470393" lon="9.992872">
<ele>608</ele>
<time>2019-09-29T12:33:22Z</time>
</trkpt>
<trkpt lat="48.470868" lon="9.992952">
<ele>605</ele>
<time>2019-09-29T12:33:27Z</time>
</trkpt>
<trkpt lat="48.471408" lon="9.993032">
<ele>603</ele>
<time>2019-09-29T12:33:32Z</time>
</trkpt>
<trkpt lat="48.472015" lon="9.993025">
<ele>599</ele>
<time>2019-09-29T12:33:37Z</time>
</trkpt>
<trkpt lat="48.472583" lon="9.992827">
<ele>595</ele>
<time>2019-09-29T12:33:42Z</time>
</trkpt>
<trkpt lat="48.472992" lon="9.99232">
<ele>595</ele>
<time>2019-09-29T12:33:47Z</time>
</trkpt>
<trkpt lat="48.473182" lon="9.99164">
<ele>595</ele>
<time>2019-09-29T12:33:52Z</time>
</trkpt>
<trkpt lat="48.473238" lon="9.990943">
<ele>594</ele>
<time>2019-09-29T12:33:57Z</time>
</trkpt>
<trkpt lat="48.473518" lon="9.990462">
<ele>594</ele>
<time>2019-09-29T12:34:02Z</time>
</trkpt>
<trkpt lat="48.473907" lon="9.990243">
<ele>593</ele>
<time>2019-09-29T12:34:07Z</time>
</trkpt>
<trkpt lat="48.474228" lon="9.990073">
<ele>594</ele>
<time>2019-09-29T12:34:12Z</time>
</trkpt>
<trkpt lat="48.474497" lon="9.989935">
<ele>596</ele>
<time>2019-09-29T12:34:17Z</time>
</trkpt>
<trkpt lat="48.474737" lon="9.989832">
<ele>598</ele>
<time>2019-09-29T12:34:22Z</time>
</trkpt>
<trkpt lat="48.474937" lon="9.989738">
<ele>600</ele>
<time>2019-09-29T12:34:27Z</time>
</trkpt>
<trkpt lat="48.475125" lon="9.989688">
<ele>602</ele>
<time>2019-09-29T12:34:32Z</time>
</trkpt>
<trkpt lat="48.475308" lon="9.989628">
<ele>603</ele>
<time>2019-09-29T12:34:37Z</time>
</trkpt>
<trkpt lat="48.475467" lon="9.989587">
<ele>604</ele>
<time>2019-09-29T12:34:42Z</time>
</trkpt>
<trkpt lat="48.475637" lon="9.989547">
<ele>605</ele>
<time>2019-09-29T12:34:47Z</time>
</trkpt>
<trkpt lat="48.475822" lon="9.989495">
<ele>606</ele>
<time>2019-09-29T12:34:52Z</time>
</trkpt>
<trkpt lat="48.476018" lon="9.989437">
<ele>606</ele>
<time>2019-09-29T12:34:57Z</time>
</trkpt>
<trkpt lat="48.476213" lon="9.989388">
<ele>607</ele>
<time>2019-09-29T12:35:02Z</time>
</trkpt>
<trkpt lat="48.476413" lon="9.989337">
<ele>608</ele>
<time>2019-09-29T12:35:07Z</time>
</trkpt>
<trkpt lat="48.47661" lon="9.989293">
<ele>609</ele>
<time>2019-09-29T12:35:12Z</time>
</trkpt>
<trkpt lat="48.476817" lon="9.989227">
<ele>609</ele>
<time>2019-09-29T12:35:17Z</time>
</trkpt>
<trkpt lat="48.477025" lon="9.989163">
<ele>610</ele>
<time>2019-09-29T12:35:22Z</time>
</trkpt>
<trkpt lat="48.477243" lon="9.989092">
<ele>611</ele>
<time>2019-09-29T12:35:27Z</time>
</trkpt>
<trkpt lat="48.477467" lon="9.989027">
<ele>611</ele>
<time>2019-09-29T12:35:32Z</time>
</trkpt>
<trkpt lat="48.477692" lon="9.988965">
<ele>612</ele>
<time>2019-09-29T12:35:37Z</time>
</trkpt>
<trkpt lat="48.47792" lon="9.988918">
<ele>613</ele>
<time>2019-09-29T12:35:42Z</time>
</trkpt>
<trkpt lat="48.478157" lon="9.98888">
<ele>614</ele>
<time>2019-09-29T12:35:47Z</time>
</trkpt>
<trkpt lat="48.47836" lon="9.988843">
<ele>614</ele>
<time>2019-09-29T12:35:52Z</time>
</trkpt>
<trkpt lat="48.478505" lon="9.988812">
<ele>615</ele>
<time>2019-09-29T12:35:57Z</time>
</trkpt>
<trkpt lat="48.478582" lon="9.988638">
<ele>616</ele>
<time>2019-09-29T12:36:02Z</time>
</trkpt>
<trkpt lat="48.478553" lon="9.988358">
<ele>617</ele>
<time>2019-09-29T12:36:07Z</time>
</trkpt>
<trkpt lat="48.478535" lon="9.988052">
<ele>617</ele>
<time>2019-09-29T12:36:12Z</time>
</trkpt>
<trkpt lat="48.478497" lon="9.987717">
<ele>617</ele>
<time>2019-09-29T12:36:17Z</time>
</trkpt>
<trkpt lat="48.478462" lon="9.987375">
<ele>618</ele>
<time>2019-09-29T12:36:22Z</time>
</trkpt>
<trkpt lat="48.478433" lon="9.98702">
<ele>618</ele>
<time>2019-09-29T12:36:27Z</time>
</trkpt>
<trkpt lat="48.478408" lon="9.986662">
<ele>618</ele>
<time>2019-09-29T12:36:32Z</time>
</trkpt>
<trkpt lat="48.478377" lon="9.98629">
<ele>618</ele>
<time>2019-09-29T12:36:37Z</time>
</trkpt>
<trkpt lat="48.478345" lon="9.985903">
<ele>618</ele>
<time>2019-09-29T12:36:42Z</time>
</trkpt>
<trkpt lat="48.47831" lon="9.985508">
<ele>618</ele>
<time>2019-09-29T12:36:47Z</time>
</trkpt>
<trkpt lat="48.478277" lon="9.985128">
<ele>618</ele>
<time>2019-09-29T12:36:52Z</time>
</trkpt>
<trkpt lat="48.47825" lon="9.984773">
<ele>619</ele>
<time>2019-09-29T12:36:57Z</time>
</trkpt>
<trkpt lat="48.478217" lon="9.984445">
<ele>619</ele>
<time>2019-09-29T12:37:02Z</time>
</trkpt>
<trkpt lat="48.47819" lon="9.984148">
<ele>618</ele>
<time>2019-09-29T12:37:07Z</time>
</trkpt>
<trkpt lat="48.478187" lon="9.983983">
<ele>617</ele>
<time>2019-09-29T12:37:12Z</time>
</trkpt>
<trkpt lat="48.47817" lon="9.983812">
<ele>616</ele>
<time>2019-09-29T12:37:17Z</time>
</trkpt>
<trkpt lat="48.478163" lon="9.983535">
<ele>616</ele>
<time>2019-09-29T12:37:22Z</time>
</trkpt>
<trkpt lat="48.478148" lon="9.983235">
<ele>617</ele>
<time>2019-09-29T12:37:27Z</time>
</trkpt>
<trkpt lat="48.47813" lon="9.982885">
<ele>617</ele>
<time>2019-09-29T12:37:32Z</time>
</trkpt>
<trkpt lat="48.47811" lon="9.982497">
<ele>617</ele>
<time>2019-09-29T12:37:37Z</time>
</trkpt>
<trkpt lat="48.478082" lon="9.982107">
<ele>617</ele>
<time>2019-09-29T12:37:42Z</time>
</trkpt>
<trkpt lat="48.478053" lon="9.981728">
<ele>617</ele>
<time>2019-09-29T12:37:47Z</time>
</trkpt>
<trkpt lat="48.478022" lon="9.981333">
<ele>617</ele>
<time>2019-09-29T12:37:52Z</time>
</trkpt>
<trkpt lat="48.478" lon="9.980908">
<ele>617</ele>
<time>2019-09-29T12:37:57Z</time>
</trkpt>
<trkpt lat="48.477972" lon="9.980512">
<ele>617</ele>
<time>2019-09-29T12:38:02Z</time>
</trkpt>
<trkpt lat="48.477952" lon="9.980178">
<ele>616</ele>
<time>2019-09-29T12:38:07Z</time>
</trkpt>
<trkpt lat="48.478018" lon="9.979942">
<ele>616</ele>
<time>2019-09-29T12:38:12Z</time>
</trkpt>
<trkpt lat="48.478252" lon="9.979943">
<ele>616</ele>
<time>2019-09-29T12:38:17Z</time>
</trkpt>
<trkpt lat="48.47851" lon="9.979978">
<ele>616</ele>
<time>2019-09-29T12:38:22Z</time>
</trkpt>
<trkpt lat="48.478775" lon="9.980018">
<ele>616</ele>
<time>2019-09-29T12:38:27Z</time>
</trkpt>
<trkpt lat="48.479035" lon="9.980053">
<ele>617</ele>
<time>2019-09-29T12:38:32Z</time>
</trkpt>
<trkpt lat="48.479285" lon="9.980087">
<ele>618</ele>
<time>2019-09-29T12:38:37Z</time>
</trkpt>
<trkpt lat="48.479517" lon="9.980113">
<ele>619</ele>
<time>2019-09-29T12:38:42Z</time>
</trkpt>
<trkpt lat="48.4797" lon="9.980123">
<ele>619</ele>
<time>2019-09-29T12:38:47Z</time>
</trkpt>
<trkpt lat="48.479875" lon="9.980007">
<ele>620</ele>
<time>2019-09-29T12:38:52Z</time>
</trkpt>
<trkpt lat="48.480003" lon="9.97994">
<ele>621</ele>
<time>2019-09-29T12:38:57Z</time>
</trkpt>
<trkpt lat="48.480057" lon="9.979927">
<ele>622</ele>
<time>2019-09-29T12:39:02Z</time>
</trkpt>
<trkpt lat="48.480057" lon="9.979928">
<ele>622</ele>
<time>2019-09-29T12:39:07Z</time>
</trkpt>
<trkpt lat="48.48008" lon="9.979917">
<ele>623</ele>
<time>2019-09-29T12:39:17Z</time>
</trkpt>
<trkpt lat="48.480125" lon="9.979743">
<ele>623</ele>
<time>2019-09-29T12:39:22Z</time>
</trkpt>
<trkpt lat="48.48007" lon="9.97941">
<ele>623</ele>
<time>2019-09-29T12:39:27Z</time>
</trkpt>
<trkpt lat="48.480023" lon="9.979022">
<ele>623</ele>
<time>2019-09-29T12:39:32Z</time>
</trkpt>
<trkpt lat="48.479997" lon="9.978623">
<ele>623</ele>
<time>2019-09-29T12:39:37Z</time>
</trkpt>
<trkpt lat="48.479985" lon="9.978207">
<ele>623</ele>
<time>2019-09-29T12:39:42Z</time>
</trkpt>
<trkpt lat="48.479988" lon="9.977768">
<ele>624</ele>
<time>2019-09-29T12:39:47Z</time>
</trkpt>
<trkpt lat="48.480003" lon="9.977322">
<ele>624</ele>
<time>2019-09-29T12:39:52Z</time>
</trkpt>
<trkpt lat="48.480027" lon="9.976878">
<ele>624</ele>
<time>2019-09-29T12:39:57Z</time>
</trkpt>
<trkpt lat="48.48007" lon="9.976445">
<ele>624</ele>
<time>2019-09-29T12:40:02Z</time>
</trkpt>
<trkpt lat="48.48013" lon="9.976008">
<ele>625</ele>
<time>2019-09-29T12:40:07Z</time>
</trkpt>
<trkpt lat="48.480213" lon="9.975592">
<ele>626</ele>
<time>2019-09-29T12:40:12Z</time>
</trkpt>
<trkpt lat="48.480305" lon="9.975182">
<ele>626</ele>
<time>2019-09-29T12:40:17Z</time>
</trkpt>
<trkpt lat="48.48043" lon="9.974758">
<ele>626</ele>
<time>2019-09-29T12:40:22Z</time>
</trkpt>
<trkpt lat="48.480567" lon="9.974307">
<ele>626</ele>
<time>2019-09-29T12:40:27Z</time>
</trkpt>
<trkpt lat="48.480722" lon="9.973847">
<ele>626</ele>
<time>2019-09-29T12:40:32Z</time>
</trkpt>
<trkpt lat="48.480898" lon="9.973393">
<ele>626</ele>
<time>2019-09-29T12:40:37Z</time>
</trkpt>
<trkpt lat="48.481085" lon="9.972958">
<ele>626</ele>
<time>2019-09-29T12:40:42Z</time>
</trkpt>
<trkpt lat="48.481293" lon="9.972542">
<ele>626</ele>
<time>2019-09-29T12:40:47Z</time>
</trkpt>
<trkpt lat="48.48152" lon="9.972158">
<ele>626</ele>
<time>2019-09-29T12:40:52Z</time>
</trkpt>
<trkpt lat="48.481763" lon="9.971787">
<ele>626</ele>
<time>2019-09-29T12:40:57Z</time>
</trkpt>
<trkpt lat="48.482022" lon="9.971418">
<ele>626</ele>
<time>2019-09-29T12:41:02Z</time>
</trkpt>
<trkpt lat="48.482283" lon="9.971048">
<ele>626</ele>
<time>2019-09-29T12:41:07Z</time>
</trkpt>
<trkpt lat="48.482537" lon="9.970685">
<ele>626</ele>
<time>2019-09-29T12:41:12Z</time>
</trkpt>
<trkpt lat="48.482783" lon="9.970312">
<ele>626</ele>
<time>2019-09-29T12:41:17Z</time>
</trkpt>
<trkpt lat="48.483023" lon="9.96992">
<ele>626</ele>
<time>2019-09-29T12:41:22Z</time>
</trkpt>
<trkpt lat="48.483255" lon="9.969498">
<ele>626</ele>
<time>2019-09-29T12:41:27Z</time>
</trkpt>
<trkpt lat="48.483463" lon="9.969073">
<ele>626</ele>
<time>2019-09-29T12:41:32Z</time>
</trkpt>
<trkpt lat="48.483652" lon="9.968633">
<ele>626</ele>
<time>2019-09-29T12:41:37Z</time>
</trkpt>
<trkpt lat="48.483832" lon="9.968177">
<ele>626</ele>
<time>2019-09-29T12:41:42Z</time>
</trkpt>
<trkpt lat="48.483993" lon="9.967697">
<ele>626</ele>
<time>2019-09-29T12:41:47Z</time>
</trkpt>
<trkpt lat="48.48414" lon="9.967217">
<ele>626</ele>
<time>2019-09-29T12:41:52Z</time>
</trkpt>
<trkpt lat="48.484258" lon="9.966737">
<ele>626</ele>
<time>2019-09-29T12:41:57Z</time>
</trkpt>
<trkpt lat="48.484353" lon="9.966283">
<ele>626</ele>
<time>2019-09-29T12:42:02Z</time>
</trkpt>
<trkpt lat="48.484447" lon="9.965817">
<ele>626</ele>
<time>2019-09-29T12:42:07Z</time>
</trkpt>
<trkpt lat="48.484538" lon="9.965285">
<ele>626</ele>
<time>2019-09-29T12:42:12Z</time>
</trkpt>
<trkpt lat="48.484625" lon="9.964707">
<ele>626</ele>
<time>2019-09-29T12:42:17Z</time>
</trkpt>
<trkpt lat="48.484698" lon="9.964125">
<ele>626</ele>
<time>2019-09-29T12:42:22Z</time>
</trkpt>
<trkpt lat="48.484758" lon="9.963533">
<ele>626</ele>
<time>2019-09-29T12:42:27Z</time>
</trkpt>
<trkpt lat="48.484803" lon="9.962968">
<ele>626</ele>
<time>2019-09-29T12:42:32Z</time>
</trkpt>
<trkpt lat="48.484842" lon="9.962405">
<ele>626</ele>
<time>2019-09-29T12:42:37Z</time>
</trkpt>
<trkpt lat="48.48487" lon="9.961857">
<ele>626</ele>
<time>2019-09-29T12:42:42Z</time>
</trkpt>
<trkpt lat="48.484892" lon="9.961335">
<ele>626</ele>
<time>2019-09-29T12:42:47Z</time>
</trkpt>
<trkpt lat="48.484898" lon="9.96081">
<ele>626</ele>
<time>2019-09-29T12:42:52Z</time>
</trkpt>
<trkpt lat="48.484898" lon="9.960282">
<ele>626</ele>
<time>2019-09-29T12:42:57Z</time>
</trkpt>
<trkpt lat="48.48489" lon="9.959753">
<ele>626</ele>
<time>2019-09-29T12:43:02Z</time>
</trkpt>
<trkpt lat="48.484877" lon="9.959242">
<ele>627</ele>
<time>2019-09-29T12:43:07Z</time>
</trkpt>
<trkpt lat="48.484855" lon="9.958745">
<ele>627</ele>
<time>2019-09-29T12:43:12Z</time>
</trkpt>
<trkpt lat="48.484823" lon="9.958255">
<ele>628</ele>
<time>2019-09-29T12:43:17Z</time>
</trkpt>
<trkpt lat="48.484785" lon="9.957768">
<ele>628</ele>
<time>2019-09-29T12:43:22Z</time>
</trkpt>
<trkpt lat="48.484745" lon="9.957292">
<ele>628</ele>
<time>2019-09-29T12:43:27Z</time>
</trkpt>
<trkpt lat="48.484695" lon="9.95682">
<ele>629</ele>
<time>2019-09-29T12:43:32Z</time>
</trkpt>
<trkpt lat="48.484647" lon="9.956352">
<ele>630</ele>
<time>2019-09-29T12:43:37Z</time>
</trkpt>
<trkpt lat="48.484607" lon="9.955903">
<ele>630</ele>
<time>2019-09-29T12:43:42Z</time>
</trkpt>
<trkpt lat="48.484583" lon="9.95548">
<ele>630</ele>
<time>2019-09-29T12:43:47Z</time>
</trkpt>
<trkpt lat="48.484582" lon="9.955113">
<ele>631</ele>
<time>2019-09-29T12:43:52Z</time>
</trkpt>
<trkpt lat="48.484732" lon="9.954812">
<ele>631</ele>
<time>2019-09-29T12:43:57Z</time>
</trkpt>
<trkpt lat="48.485045" lon="9.95468">
<ele>631</ele>
<time>2019-09-29T12:44:02Z</time>
</trkpt>
<trkpt lat="48.485347" lon="9.954555">
<ele>632</ele>
<time>2019-09-29T12:44:07Z</time>
</trkpt>
<trkpt lat="48.48565" lon="9.954397">
<ele>632</ele>
<time>2019-09-29T12:44:12Z</time>
</trkpt>
<trkpt lat="48.485942" lon="9.9542">
<ele>632</ele>
<time>2019-09-29T12:44:17Z</time>
</trkpt>
<trkpt lat="48.486222" lon="9.95398">
<ele>633</ele>
<time>2019-09-29T12:44:22Z</time>
</trkpt>
<trkpt lat="48.486495" lon="9.953728">
<ele>633</ele>
<time>2019-09-29T12:44:27Z</time>
</trkpt>
<trkpt lat="48.486778" lon="9.953433">
<ele>633</ele>
<time>2019-09-29T12:44:32Z</time>
</trkpt>
<trkpt lat="48.487063" lon="9.953118">
<ele>633</ele>
<time>2019-09-29T12:44:37Z</time>
</trkpt>
<trkpt lat="48.487358" lon="9.952805">
<ele>633</ele>
<time>2019-09-29T12:44:42Z</time>
</trkpt>
<trkpt lat="48.487663" lon="9.952552">
<ele>633</ele>
<time>2019-09-29T12:44:47Z</time>
</trkpt>
<trkpt lat="48.487975" lon="9.9524">
<ele>633</ele>
<time>2019-09-29T12:44:52Z</time>
</trkpt>
<trkpt lat="48.48828" lon="9.952322">
<ele>633</ele>
<time>2019-09-29T12:44:57Z</time>
</trkpt>
<trkpt lat="48.488573" lon="9.952283">
<ele>633</ele>
<time>2019-09-29T12:45:02Z</time>
</trkpt>
<trkpt lat="48.48885" lon="9.952252">
<ele>633</ele>
<time>2019-09-29T12:45:07Z</time>
</trkpt>
<trkpt lat="48.489122" lon="9.952242">
<ele>634</ele>
<time>2019-09-29T12:45:12Z</time>
</trkpt>
<trkpt lat="48.489408" lon="9.95221">
<ele>635</ele>
<time>2019-09-29T12:45:17Z</time>
</trkpt>
<trkpt lat="48.489708" lon="9.952175">
<ele>635</ele>
<time>2019-09-29T12:45:22Z</time>
</trkpt>
<trkpt lat="48.490018" lon="9.952145">
<ele>636</ele>
<time>2019-09-29T12:45:27Z</time>
</trkpt>
<trkpt lat="48.49033" lon="9.95211">
<ele>636</ele>
<time>2019-09-29T12:45:32Z</time>
</trkpt>
<trkpt lat="48.490658" lon="9.952087">
<ele>636</ele>
<time>2019-09-29T12:45:37Z</time>
</trkpt>
<trkpt lat="48.490998" lon="9.952053">
<ele>636</ele>
<time>2019-09-29T12:45:42Z</time>
</trkpt>
<trkpt lat="48.491353" lon="9.952022">
<ele>635</ele>
<time>2019-09-29T12:45:47Z</time>
</trkpt>
<trkpt lat="48.491725" lon="9.951977">
<ele>635</ele>
<time>2019-09-29T12:45:52Z</time>
</trkpt>
<trkpt lat="48.492082" lon="9.951928">
<ele>635</ele>
<time>2019-09-29T12:45:57Z</time>
</trkpt>
<trkpt lat="48.492408" lon="9.951887">
<ele>634</ele>
<time>2019-09-29T12:46:02Z</time>
</trkpt>
<trkpt lat="48.492692" lon="9.951952">
<ele>634</ele>
<time>2019-09-29T12:46:07Z</time>
</trkpt>
<trkpt lat="48.492767" lon="9.9524">
<ele>634</ele>
<time>2019-09-29T12:46:12Z</time>
</trkpt>
<trkpt lat="48.492852" lon="9.952853">
<ele>632</ele>
<time>2019-09-29T12:46:17Z</time>
</trkpt>
<trkpt lat="48.49317" lon="9.952972">
<ele>632</ele>
<time>2019-09-29T12:46:22Z</time>
</trkpt>
<trkpt lat="48.49351" lon="9.952953">
<ele>632</ele>
<time>2019-09-29T12:46:27Z</time>
</trkpt>
<trkpt lat="48.493838" lon="9.952948">
<ele>632</ele>
<time>2019-09-29T12:46:32Z</time>
</trkpt>
<trkpt lat="48.494123" lon="9.95297">
<ele>632</ele>
<time>2019-09-29T12:46:37Z</time>
</trkpt>
<trkpt lat="48.494408" lon="9.953015">
<ele>632</ele>
<time>2019-09-29T12:46:42Z</time>
</trkpt>
<trkpt lat="48.4947" lon="9.953068">
<ele>633</ele>
<time>2019-09-29T12:46:47Z</time>
</trkpt>
<trkpt lat="48.494985" lon="9.953052">
<ele>634</ele>
<time>2019-09-29T12:46:52Z</time>
</trkpt>
<trkpt lat="48.49525" lon="9.953032">
<ele>634</ele>
<time>2019-09-29T12:46:57Z</time>
</trkpt>
<trkpt lat="48.495522" lon="9.953065">
<ele>634</ele>
<time>2019-09-29T12:47:02Z</time>
</trkpt>
<trkpt lat="48.495825" lon="9.95328">
<ele>634</ele>
<time>2019-09-29T12:47:07Z</time>
</trkpt>
<trkpt lat="48.49614" lon="9.953615">
<ele>632</ele>
<time>2019-09-29T12:47:12Z</time>
</trkpt>
<trkpt lat="48.49648" lon="9.953627">
<ele>630</ele>
<time>2019-09-29T12:47:17Z</time>
</trkpt>
<trkpt lat="48.496692" lon="9.95299">
<ele>627</ele>
<time>2019-09-29T12:47:22Z</time>
</trkpt>
<trkpt lat="48.496953" lon="9.952237">
<ele>622</ele>
<time>2019-09-29T12:47:27Z</time>
</trkpt>
<trkpt lat="48.497232" lon="9.951568">
<ele>616</ele>
<time>2019-09-29T12:47:32Z</time>
</trkpt>
<trkpt lat="48.497715" lon="9.951485">
<ele>611</ele>
<time>2019-09-29T12:47:37Z</time>
</trkpt>
<trkpt lat="48.498287" lon="9.951633">
<ele>609</ele>
<time>2019-09-29T12:47:42Z</time>
</trkpt>
<trkpt lat="48.498837" lon="9.951442">
<ele>604</ele>
<time>2019-09-29T12:47:47Z</time>
</trkpt>
<trkpt lat="48.49927" lon="9.95099">
<ele>602</ele>
<time>2019-09-29T12:47:52Z</time>
</trkpt>
<trkpt lat="48.499717" lon="9.950667">
<ele>602</ele>
<time>2019-09-29T12:47:57Z</time>
</trkpt>
<trkpt lat="48.500205" lon="9.950523">
<ele>601</ele>
<time>2019-09-29T12:48:02Z</time>
</trkpt>
<trkpt lat="48.500695" lon="9.95061">
<ele>601</ele>
<time>2019-09-29T12:48:07Z</time>
</trkpt>
<trkpt lat="48.501207" lon="9.950983">
<ele>599</ele>
<time>2019-09-29T12:48:12Z</time>
</trkpt>
<trkpt lat="48.50177" lon="9.951068">
<ele>597</ele>
<time>2019-09-29T12:48:17Z</time>
</trkpt>
<trkpt lat="48.502283" lon="9.951098">
<ele>597</ele>
<time>2019-09-29T12:48:22Z</time>
</trkpt>
<trkpt lat="48.502705" lon="9.95111">
<ele>598</ele>
<time>2019-09-29T12:48:27Z</time>
</trkpt>
<trkpt lat="48.503037" lon="9.95111">
<ele>600</ele>
<time>2019-09-29T12:48:32Z</time>
</trkpt>
<trkpt lat="48.503218" lon="9.950797">
<ele>602</ele>
<time>2019-09-29T12:48:37Z</time>
</trkpt>
<trkpt lat="48.503243" lon="9.950473">
<ele>604</ele>
<time>2019-09-29T12:48:42Z</time>
</trkpt>
<trkpt lat="48.503292" lon="9.950197">
<ele>605</ele>
<time>2019-09-29T12:48:47Z</time>
</trkpt>
<trkpt lat="48.503357" lon="9.94996">
<ele>606</ele>
<time>2019-09-29T12:48:52Z</time>
</trkpt>
<trkpt lat="48.503428" lon="9.94976">
<ele>607</ele>
<time>2019-09-29T12:48:57Z</time>
</trkpt>
<trkpt lat="48.50352" lon="9.94966">
<ele>609</ele>
<time>2019-09-29T12:49:02Z</time>
</trkpt>
<trkpt lat="48.503598" lon="9.94986">
<ele>609</ele>
<time>2019-09-29T12:49:07Z</time>
</trkpt>
<trkpt lat="48.503697" lon="9.950172">
<ele>609</ele>
<time>2019-09-29T12:49:12Z</time>
</trkpt>
<trkpt lat="48.503845" lon="9.950513">
<ele>609</ele>
<time>2019-09-29T12:49:17Z</time>
</trkpt>
<trkpt lat="48.504052" lon="9.950862">
<ele>609</ele>
<time>2019-09-29T12:49:22Z</time>
</trkpt>
<trkpt lat="48.504317" lon="9.951153">
<ele>608</ele>
<time>2019-09-29T12:49:27Z</time>
</trkpt>
<trkpt lat="48.504647" lon="9.951388">
<ele>607</ele>
<time>2019-09-29T12:49:32Z</time>
</trkpt>
<trkpt lat="48.505043" lon="9.951528">
<ele>606</ele>
<time>2019-09-29T12:49:37Z</time>
</trkpt>
<trkpt lat="48.505508" lon="9.951578">
<ele>604</ele>
<time>2019-09-29T12:49:42Z</time>
</trkpt>
<trkpt lat="48.506027" lon="9.951588">
<ele>603</ele>
<time>2019-09-29T12:49:47Z</time>
</trkpt>
<trkpt lat="48.506573" lon="9.951587">
<ele>601</ele>
<time>2019-09-29T12:49:52Z</time>
</trkpt>
<trkpt lat="48.507118" lon="9.951597">
<ele>598</ele>
<time>2019-09-29T12:49:57Z</time>
</trkpt>
<trkpt lat="48.50765" lon="9.95161">
<ele>598</ele>
<time>2019-09-29T12:50:02Z</time>
</trkpt>
<trkpt lat="48.508197" lon="9.951622">
<ele>596</ele>
<time>2019-09-29T12:50:07Z</time>
</trkpt>
<trkpt lat="48.508758" lon="9.951697">
<ele>593</ele>
<time>2019-09-29T12:50:12Z</time>
</trkpt>
<trkpt lat="48.509323" lon="9.951855">
<ele>592</ele>
<time>2019-09-29T12:50:17Z</time>
</trkpt>
<trkpt lat="48.509858" lon="9.952095">
<ele>591</ele>
<time>2019-09-29T12:50:22Z</time>
</trkpt>
<trkpt lat="48.510355" lon="9.952385">
<ele>591</ele>
<time>2019-09-29T12:50:27Z</time>
</trkpt>
<trkpt lat="48.510847" lon="9.952685">
<ele>590</ele>
<time>2019-09-29T12:50:32Z</time>
</trkpt>
<trkpt lat="48.51136" lon="9.953">
<ele>588</ele>
<time>2019-09-29T12:50:37Z</time>
</trkpt>
<trkpt lat="48.511918" lon="9.953348">
<ele>585</ele>
<time>2019-09-29T12:50:42Z</time>
</trkpt>
<trkpt lat="48.512552" lon="9.95374">
<ele>582</ele>
<time>2019-09-29T12:50:47Z</time>
</trkpt>
<trkpt lat="48.51322" lon="9.954142">
<ele>578</ele>
<time>2019-09-29T12:50:52Z</time>
</trkpt>
<trkpt lat="48.513838" lon="9.954523">
<ele>576</ele>
<time>2019-09-29T12:50:57Z</time>
</trkpt>
<trkpt lat="48.514395" lon="9.95486">
<ele>574</ele>
<time>2019-09-29T12:51:02Z</time>
</trkpt>
<trkpt lat="48.514892" lon="9.955122">
<ele>573</ele>
<time>2019-09-29T12:51:07Z</time>
</trkpt>
<trkpt lat="48.515375" lon="9.955302">
<ele>571</ele>
<time>2019-09-29T12:51:12Z</time>
</trkpt>
<trkpt lat="48.51588" lon="9.95547">
<ele>569</ele>
<time>2019-09-29T12:51:17Z</time>
</trkpt>
<trkpt lat="48.516352" lon="9.9556">
<ele>567</ele>
<time>2019-09-29T12:51:22Z</time>
</trkpt>
<trkpt lat="48.516697" lon="9.95585">
<ele>565</ele>
<time>2019-09-29T12:51:27Z</time>
</trkpt>
<trkpt lat="48.516928" lon="9.955978">
<ele>565</ele>
<time>2019-09-29T12:51:32Z</time>
</trkpt>
<trkpt lat="48.517117" lon="9.955572">
<ele>565</ele>
<time>2019-09-29T12:51:37Z</time>
</trkpt>
<trkpt lat="48.517338" lon="9.95515">
<ele>564</ele>
<time>2019-09-29T12:51:42Z</time>
</trkpt>
<trkpt lat="48.517597" lon="9.954743">
<ele>564</ele>
<time>2019-09-29T12:51:47Z</time>
</trkpt>
<trkpt lat="48.517877" lon="9.954427">
<ele>564</ele>
<time>2019-09-29T12:51:52Z</time>
</trkpt>
<trkpt lat="48.518153" lon="9.954155">
<ele>564</ele>
<time>2019-09-29T12:51:57Z</time>
</trkpt>
<trkpt lat="48.518425" lon="9.953897">
<ele>564</ele>
<time>2019-09-29T12:52:02Z</time>
</trkpt>
<trkpt lat="48.518675" lon="9.953647">
<ele>564</ele>
<time>2019-09-29T12:52:07Z</time>
</trkpt>
<trkpt lat="48.51893" lon="9.953427">
<ele>564</ele>
<time>2019-09-29T12:52:12Z</time>
</trkpt>
<trkpt lat="48.519188" lon="9.953158">
<ele>564</ele>
<time>2019-09-29T12:52:17Z</time>
</trkpt>
<trkpt lat="48.519463" lon="9.952897">
<ele>564</ele>
<time>2019-09-29T12:52:22Z</time>
</trkpt>
<trkpt lat="48.519747" lon="9.952652">
<ele>564</ele>
<time>2019-09-29T12:52:27Z</time>
</trkpt>
<trkpt lat="48.520035" lon="9.95238">
<ele>564</ele>
<time>2019-09-29T12:52:32Z</time>
</trkpt>
<trkpt lat="48.520313" lon="9.952122">
<ele>564</ele>
<time>2019-09-29T12:52:37Z</time>
</trkpt>
<trkpt lat="48.520553" lon="9.951885">
<ele>565</ele>
<time>2019-09-29T12:52:42Z</time>
</trkpt>
<trkpt lat="48.520762" lon="9.951705">
<ele>566</ele>
<time>2019-09-29T12:52:47Z</time>
</trkpt>
<trkpt lat="48.520963" lon="9.951527">
<ele>567</ele>
<time>2019-09-29T12:52:52Z</time>
</trkpt>
<trkpt lat="48.521157" lon="9.951342">
<ele>568</ele>
<time>2019-09-29T12:52:57Z</time>
</trkpt>
<trkpt lat="48.521362" lon="9.951162">
<ele>569</ele>
<time>2019-09-29T12:53:02Z</time>
</trkpt>
<trkpt lat="48.521578" lon="9.950932">
<ele>569</ele>
<time>2019-09-29T12:53:07Z</time>
</trkpt>
<trkpt lat="48.52171" lon="9.95055">
<ele>569</ele>
<time>2019-09-29T12:53:12Z</time>
</trkpt>
<trkpt lat="48.521587" lon="9.95013">
<ele>569</ele>
<time>2019-09-29T12:53:17Z</time>
</trkpt>
<trkpt lat="48.521432" lon="9.94979">
<ele>570</ele>
<time>2019-09-29T12:53:22Z</time>
</trkpt>
<trkpt lat="48.521292" lon="9.949488">
<ele>571</ele>
<time>2019-09-29T12:53:27Z</time>
</trkpt>
<trkpt lat="48.52116" lon="9.949233">
<ele>572</ele>
<time>2019-09-29T12:53:32Z</time>
</trkpt>
<trkpt lat="48.521052" lon="9.948937">
<ele>573</ele>
<time>2019-09-29T12:53:37Z</time>
</trkpt>
<trkpt lat="48.520945" lon="9.948678">
<ele>574</ele>
<time>2019-09-29T12:53:42Z</time>
</trkpt>
<trkpt lat="48.520878" lon="9.948355">
<ele>574</ele>
<time>2019-09-29T12:53:47Z</time>
</trkpt>
<trkpt lat="48.520832" lon="9.947917">
<ele>574</ele>
<time>2019-09-29T12:53:52Z</time>
</trkpt>
<trkpt lat="48.520798" lon="9.947432">
<ele>574</ele>
<time>2019-09-29T12:53:57Z</time>
</trkpt>
<trkpt lat="48.520662" lon="9.94686">
<ele>574</ele>
<time>2019-09-29T12:54:02Z</time>
</trkpt>
<trkpt lat="48.520498" lon="9.946263">
<ele>572</ele>
<time>2019-09-29T12:54:07Z</time>
</trkpt>
<trkpt lat="48.5204" lon="9.945658">
<ele>570</ele>
<time>2019-09-29T12:54:12Z</time>
</trkpt>
<trkpt lat="48.520368" lon="9.945078">
<ele>570</ele>
<time>2019-09-29T12:54:17Z</time>
</trkpt>
<trkpt lat="48.520378" lon="9.944517">
<ele>570</ele>
<time>2019-09-29T12:54:22Z</time>
</trkpt>
<trkpt lat="48.520427" lon="9.943993">
<ele>570</ele>
<time>2019-09-29T12:54:27Z</time>
</trkpt>
<trkpt lat="48.520573" lon="9.943535">
<ele>570</ele>
<time>2019-09-29T12:54:32Z</time>
</trkpt>
<trkpt lat="48.520813" lon="9.943165">
<ele>570</ele>
<time>2019-09-29T12:54:37Z</time>
</trkpt>
<trkpt lat="48.521107" lon="9.94291">
<ele>570</ele>
<time>2019-09-29T12:54:42Z</time>
</trkpt>
<trkpt lat="48.521418" lon="9.942797">
<ele>570</ele>
<time>2019-09-29T12:54:47Z</time>
</trkpt>
<trkpt lat="48.521732" lon="9.94276">
<ele>570</ele>
<time>2019-09-29T12:54:52Z</time>
</trkpt>
<trkpt lat="48.522028" lon="9.942747">
<ele>571</ele>
<time>2019-09-29T12:54:57Z</time>
</trkpt>
<trkpt lat="48.522322" lon="9.942722">
<ele>571</ele>
<time>2019-09-29T12:55:02Z</time>
</trkpt>
<trkpt lat="48.522615" lon="9.942655">
<ele>572</ele>
<time>2019-09-29T12:55:07Z</time>
</trkpt>
<trkpt lat="48.522903" lon="9.942522">
<ele>574</ele>
<time>2019-09-29T12:55:12Z</time>
</trkpt>
<trkpt lat="48.52317" lon="9.942295">
<ele>575</ele>
<time>2019-09-29T12:55:17Z</time>
</trkpt>
<trkpt lat="48.523393" lon="9.941933">
<ele>575</ele>
<time>2019-09-29T12:55:22Z</time>
</trkpt>
<trkpt lat="48.523532" lon="9.941452">
<ele>576</ele>
<time>2019-09-29T12:55:27Z</time>
</trkpt>
<trkpt lat="48.523597" lon="9.940923">
<ele>576</ele>
<time>2019-09-29T12:55:32Z</time>
</trkpt>
<trkpt lat="48.523645" lon="9.940348">
<ele>576</ele>
<time>2019-09-29T12:55:37Z</time>
</trkpt>
<trkpt lat="48.523752" lon="9.939805">
<ele>576</ele>
<time>2019-09-29T12:55:42Z</time>
</trkpt>
<trkpt lat="48.523947" lon="9.939305">
<ele>576</ele>
<time>2019-09-29T12:55:47Z</time>
</trkpt>
<trkpt lat="48.524207" lon="9.938857">
<ele>575</ele>
<time>2019-09-29T12:55:52Z</time>
</trkpt>
<trkpt lat="48.524475" lon="9.938485">
<ele>575</ele>
<time>2019-09-29T12:55:57Z</time>
</trkpt>
<trkpt lat="48.524767" lon="9.938163">
<ele>574</ele>
<time>2019-09-29T12:56:02Z</time>
</trkpt>
<trkpt lat="48.525087" lon="9.93791">
<ele>574</ele>
<time>2019-09-29T12:56:07Z</time>
</trkpt>
<trkpt lat="48.525408" lon="9.937715">
<ele>574</ele>
<time>2019-09-29T12:56:12Z</time>
</trkpt>
<trkpt lat="48.525748" lon="9.937577">
<ele>574</ele>
<time>2019-09-29T12:56:17Z</time>
</trkpt>
<trkpt lat="48.52609" lon="9.937503">
<ele>574</ele>
<time>2019-09-29T12:56:22Z</time>
</trkpt>
<trkpt lat="48.526445" lon="9.937485">
<ele>574</ele>
<time>2019-09-29T12:56:27Z</time>
</trkpt>
<trkpt lat="48.5268" lon="9.937517">
<ele>575</ele>
<time>2019-09-29T12:56:32Z</time>
</trkpt>
<trkpt lat="48.527128" lon="9.937635">
<ele>575</ele>
<time>2019-09-29T12:56:37Z</time>
</trkpt>
<trkpt lat="48.527443" lon="9.937875">
<ele>575</ele>
<time>2019-09-29T12:56:42Z</time>
</trkpt>
<trkpt lat="48.527702" lon="9.938125">
<ele>575</ele>
<time>2019-09-29T12:56:47Z</time>
</trkpt>
<trkpt lat="48.527997" lon="9.938275">
<ele>575</ele>
<time>2019-09-29T12:56:52Z</time>
</trkpt>
<trkpt lat="48.528315" lon="9.938145">
<ele>576</ele>
<time>2019-09-29T12:56:57Z</time>
</trkpt>
<trkpt lat="48.52855" lon="9.937747">
<ele>576</ele>
<time>2019-09-29T12:57:02Z</time>
</trkpt>
<trkpt lat="48.528643" lon="9.937232">
<ele>576</ele>
<time>2019-09-29T12:57:07Z</time>
</trkpt>
<trkpt lat="48.528682" lon="9.936715">
<ele>576</ele>
<time>2019-09-29T12:57:12Z</time>
</trkpt>
<trkpt lat="48.528733" lon="9.936215">
<ele>576</ele>
<time>2019-09-29T12:57:17Z</time>
</trkpt>
<trkpt lat="48.5288" lon="9.935743">
<ele>577</ele>
<time>2019-09-29T12:57:22Z</time>
</trkpt>
<trkpt lat="48.528922" lon="9.935322">
<ele>577</ele>
<time>2019-09-29T12:57:27Z</time>
</trkpt>
<trkpt lat="48.529067" lon="9.934925">
<ele>578</ele>
<time>2019-09-29T12:57:32Z</time>
</trkpt>
<trkpt lat="48.529255" lon="9.934555">
<ele>579</ele>
<time>2019-09-29T12:57:37Z</time>
</trkpt>
<trkpt lat="48.529492" lon="9.934215">
<ele>580</ele>
<time>2019-09-29T12:57:42Z</time>
</trkpt>
<trkpt lat="48.529735" lon="9.933913">
<ele>581</ele>
<time>2019-09-29T12:57:47Z</time>
</trkpt>
<trkpt lat="48.529973" lon="9.933622">
<ele>582</ele>
<time>2019-09-29T12:57:52Z</time>
</trkpt>
<trkpt lat="48.530193" lon="9.933342">
<ele>583</ele>
<time>2019-09-29T12:57:57Z</time>
</trkpt>
<trkpt lat="48.530413" lon="9.93305">
<ele>583</ele>
<time>2019-09-29T12:58:02Z</time>
</trkpt>
<trkpt lat="48.53068" lon="9.932648">
<ele>584</ele>
<time>2019-09-29T12:58:08Z</time>
</trkpt>
<trkpt lat="48.530945" lon="9.93218">
<ele>584</ele>
<time>2019-09-29T12:58:14Z</time>
</trkpt>
<trkpt lat="48.53119" lon="9.931735">
<ele>583</ele>
<time>2019-09-29T12:58:19Z</time>
</trkpt>
<trkpt lat="48.531442" lon="9.931222">
<ele>581</ele>
<time>2019-09-29T12:58:24Z</time>
</trkpt>
<trkpt lat="48.531697" lon="9.930662">
<ele>581</ele>
<time>2019-09-29T12:58:29Z</time>
</trkpt>
<trkpt lat="48.53193" lon="9.930083">
<ele>579</ele>
<time>2019-09-29T12:58:34Z</time>
</trkpt>
<trkpt lat="48.532127" lon="9.92955">
<ele>579</ele>
<time>2019-09-29T12:58:39Z</time>
</trkpt>
<trkpt lat="48.53228" lon="9.929028">
<ele>579</ele>
<time>2019-09-29T12:58:44Z</time>
</trkpt>
<trkpt lat="48.532418" lon="9.928518">
<ele>579</ele>
<time>2019-09-29T12:58:49Z</time>
</trkpt>
<trkpt lat="48.532552" lon="9.928025">
<ele>579</ele>
<time>2019-09-29T12:58:54Z</time>
</trkpt>
<trkpt lat="48.53268" lon="9.927573">
<ele>579</ele>
<time>2019-09-29T12:58:59Z</time>
</trkpt>
<trkpt lat="48.532823" lon="9.927105">
<ele>579</ele>
<time>2019-09-29T12:59:05Z</time>
</trkpt>
<trkpt lat="48.532945" lon="9.926783">
<ele>580</ele>
<time>2019-09-29T12:59:10Z</time>
</trkpt>
<trkpt lat="48.532977" lon="9.926503">
<ele>581</ele>
<time>2019-09-29T12:59:15Z</time>
</trkpt>
<trkpt lat="48.53274" lon="9.926183">
<ele>581</ele>
<time>2019-09-29T12:59:21Z</time>
</trkpt>
<trkpt lat="48.532565" lon="9.925823">
<ele>581</ele>
<time>2019-09-29T12:59:26Z</time>
</trkpt>
<trkpt lat="48.532612" lon="9.925297">
<ele>580</ele>
<time>2019-09-29T12:59:32Z</time>
</trkpt>
<trkpt lat="48.532603" lon="9.92479">
<ele>580</ele>
<time>2019-09-29T12:59:38Z</time>
</trkpt>
<trkpt lat="48.532582" lon="9.924527">
<ele>580</ele>
<time>2019-09-29T12:59:44Z</time>
</trkpt>
<trkpt lat="48.532672" lon="9.924393">
<ele>580</ele>
<time>2019-09-29T12:59:50Z</time>
</trkpt>
<trkpt lat="48.532817" lon="9.924175">
<ele>579</ele>
<time>2019-09-29T12:59:55Z</time>
</trkpt>
<trkpt lat="48.53304" lon="9.923982">
<ele>579</ele>
<time>2019-09-29T13:00:00Z</time>
</trkpt>
<trkpt lat="48.533252" lon="9.923837">
<ele>579</ele>
<time>2019-09-29T13:00:05Z</time>
</trkpt>
<trkpt lat="48.53349" lon="9.923755">
<ele>579</ele>
<time>2019-09-29T13:00:10Z</time>
</trkpt>
<trkpt lat="48.533758" lon="9.923692">
<ele>579</ele>
<time>2019-09-29T13:00:15Z</time>
</trkpt>
<trkpt lat="48.534037" lon="9.923617">
<ele>579</ele>
<time>2019-09-29T13:00:20Z</time>
</trkpt>
<trkpt lat="48.534313" lon="9.923528">
<ele>579</ele>
<time>2019-09-29T13:00:25Z</time>
</trkpt>
<trkpt lat="48.534585" lon="9.923433">
<ele>579</ele>
<time>2019-09-29T13:00:30Z</time>
</trkpt>
<trkpt lat="48.53486" lon="9.923325">
<ele>579</ele>
<time>2019-09-29T13:00:35Z</time>
</trkpt>
<trkpt lat="48.53513" lon="9.923217">
<ele>579</ele>
<time>2019-09-29T13:00:40Z</time>
</trkpt>
<trkpt lat="48.535405" lon="9.923108">
<ele>579</ele>
<time>2019-09-29T13:00:45Z</time>
</trkpt>
<trkpt lat="48.535665" lon="9.92302">
<ele>579</ele>
<time>2019-09-29T13:00:50Z</time>
</trkpt>
<trkpt lat="48.535922" lon="9.922935">
<ele>579</ele>
<time>2019-09-29T13:00:55Z</time>
</trkpt>
<trkpt lat="48.536182" lon="9.922855">
<ele>579</ele>
<time>2019-09-29T13:01:00Z</time>
</trkpt>
<trkpt lat="48.536417" lon="9.922803">
<ele>579</ele>
<time>2019-09-29T13:01:05Z</time>
</trkpt>
<trkpt lat="48.536647" lon="9.922742">
<ele>579</ele>
<time>2019-09-29T13:01:10Z</time>
</trkpt>
<trkpt lat="48.536862" lon="9.922615">
<ele>580</ele>
<time>2019-09-29T13:01:15Z</time>
</trkpt>
<trkpt lat="48.53703" lon="9.922407">
<ele>580</ele>
<time>2019-09-29T13:01:20Z</time>
</trkpt>
<trkpt lat="48.537227" lon="9.922292">
<ele>580</ele>
<time>2019-09-29T13:01:25Z</time>
</trkpt>
<trkpt lat="48.537445" lon="9.922205">
<ele>580</ele>
<time>2019-09-29T13:01:30Z</time>
</trkpt>
<trkpt lat="48.537685" lon="9.922128">
<ele>580</ele>
<time>2019-09-29T13:01:35Z</time>
</trkpt>
<trkpt lat="48.537935" lon="9.922048">
<ele>581</ele>
<time>2019-09-29T13:01:40Z</time>
</trkpt>
<trkpt lat="48.538167" lon="9.921972">
<ele>581</ele>
<time>2019-09-29T13:01:45Z</time>
</trkpt>
<trkpt lat="48.538392" lon="9.921897">
<ele>581</ele>
<time>2019-09-29T13:01:50Z</time>
</trkpt>
<trkpt lat="48.53863" lon="9.92183">
<ele>581</ele>
<time>2019-09-29T13:01:55Z</time>
</trkpt>
<trkpt lat="48.538872" lon="9.921788">
<ele>581</ele>
<time>2019-09-29T13:02:00Z</time>
</trkpt>
<trkpt lat="48.539087" lon="9.92176">
<ele>583</ele>
<time>2019-09-29T13:02:05Z</time>
</trkpt>
<trkpt lat="48.539267" lon="9.92175">
<ele>584</ele>
<time>2019-09-29T13:02:10Z</time>
</trkpt>
<trkpt lat="48.53944" lon="9.921713">
<ele>586</ele>
<time>2019-09-29T13:02:15Z</time>
</trkpt>
<trkpt lat="48.539612" lon="9.921578">
<ele>588</ele>
<time>2019-09-29T13:02:20Z</time>
</trkpt>
<trkpt lat="48.539795" lon="9.921423">
<ele>588</ele>
<time>2019-09-29T13:02:25Z</time>
</trkpt>
<trkpt lat="48.539983" lon="9.921272">
<ele>588</ele>
<time>2019-09-29T13:02:30Z</time>
</trkpt>
<trkpt lat="48.540178" lon="9.92116">
<ele>589</ele>
<time>2019-09-29T13:02:35Z</time>
</trkpt>
<trkpt lat="48.5404" lon="9.92106">
<ele>589</ele>
<time>2019-09-29T13:02:40Z</time>
</trkpt>
<trkpt lat="48.540633" lon="9.92096">
<ele>589</ele>
<time>2019-09-29T13:02:45Z</time>
</trkpt>
<trkpt lat="48.540865" lon="9.920825">
<ele>590</ele>
<time>2019-09-29T13:02:50Z</time>
</trkpt>
<trkpt lat="48.541085" lon="9.92068">
<ele>590</ele>
<time>2019-09-29T13:02:55Z</time>
</trkpt>
<trkpt lat="48.54126" lon="9.920527">
<ele>590</ele>
<time>2019-09-29T13:03:00Z</time>
</trkpt>
<trkpt lat="48.541212" lon="9.920188">
<ele>590</ele>
<time>2019-09-29T13:03:05Z</time>
</trkpt>
<trkpt lat="48.541103" lon="9.919728">
<ele>589</ele>
<time>2019-09-29T13:03:10Z</time>
</trkpt>
<trkpt lat="48.5411" lon="9.919198">
<ele>586</ele>
<time>2019-09-29T13:03:15Z</time>
</trkpt>
<trkpt lat="48.541067" lon="9.918765">
<ele>586</ele>
<time>2019-09-29T13:03:20Z</time>
</trkpt>
<trkpt lat="48.540908" lon="9.91837">
<ele>585</ele>
<time>2019-09-29T13:03:26Z</time>
</trkpt>
<trkpt lat="48.540832" lon="9.918213">
<ele>585</ele>
<time>2019-09-29T13:03:32Z</time>
</trkpt>
<trkpt lat="48.540817" lon="9.918163">
<ele>584</ele>
<time>2019-09-29T13:03:38Z</time>
</trkpt>
<trkpt lat="48.540798" lon="9.918135">
<ele>584</ele>
<time>2019-09-29T13:03:43Z</time>
</trkpt>
<trkpt lat="48.540775" lon="9.918122">
<ele>584</ele>
<time>2019-09-29T13:03:48Z</time>
</trkpt>
<trkpt lat="48.540777" lon="9.918125">
<ele>584</ele>
<time>2019-09-29T13:03:53Z</time>
</trkpt>
<trkpt lat="48.540777" lon="9.918127">
<ele>584</ele>
<time>2019-09-29T13:03:58Z</time>
</trkpt>
<trkpt lat="48.540778" lon="9.918127">
<ele>584</ele>
<time>2019-09-29T13:04:08Z</time>
</trkpt>
<trkpt lat="48.540778" lon="9.918128">
<ele>584</ele>
<time>2019-09-29T13:05:10Z</time>
</trkpt>
<trkpt lat="48.540785" lon="9.918133">
<ele>584</ele>
<time>2019-09-29T13:05:32Z</time>
</trkpt>
<trkpt lat="48.540798" lon="9.91816">
<ele>584</ele>
<time>2019-09-29T13:05:37Z</time>
</trkpt>
<trkpt lat="48.5408" lon="9.91816">
<ele>584</ele>
<time>2019-09-29T13:05:42Z</time>
</trkpt>
<trkpt lat="48.540798" lon="9.918163">
<ele>584</ele>
<time>2019-09-29T13:05:47Z</time>
</trkpt>
<trkpt lat="48.540798" lon="9.918162">
<ele>584</ele>
<time>2019-09-29T13:05:52Z</time>
</trkpt>
<trkpt lat="48.540798" lon="9.918163">
<ele>584</ele>
<time>2019-09-29T13:05:57Z</time>
</trkpt>
<trkpt lat="48.540798" lon="9.918162">
<ele>584</ele>
<time>2019-09-29T13:06:02Z</time>
</trkpt>
<trkpt lat="48.540798" lon="9.918163">
<ele>584</ele>
<time>2019-09-29T13:06:12Z</time>
</trkpt>
<trkpt lat="48.540798" lon="9.918162">
<ele>584</ele>
<time>2019-09-29T13:06:17Z</time>
</trkpt>
<trkpt lat="48.540798" lon="9.918165">
<ele>584</ele>
<time>2019-09-29T13:06:22Z</time>
</trkpt>
<trkpt lat="48.540797" lon="9.918165">
<ele>584</ele>
<time>2019-09-29T13:06:27Z</time>
</trkpt>
<trkpt lat="48.5408" lon="9.91817">
<ele>584</ele>
<time>2019-09-29T13:06:48Z</time>
</trkpt>
<trkpt lat="48.540798" lon="9.918168">
<ele>584</ele>
<time>2019-09-29T13:06:53Z</time>
</trkpt>
<trkpt lat="48.540798" lon="9.91817">
<ele>584</ele>
<time>2019-09-29T13:07:20Z</time>
</trkpt>
<trkpt lat="48.5408" lon="9.918168">
<ele>584</ele>
<time>2019-09-29T13:07:35Z</time>
</trkpt>
<trkpt lat="48.540798" lon="9.91817">
<ele>584</ele>
<time>2019-09-29T13:07:40Z</time>
</trkpt>
<trkpt lat="48.540798" lon="9.918163">
<ele>584</ele>
<time>2019-09-29T13:07:50Z</time>
</trkpt>
<trkpt lat="48.540805" lon="9.918132">
<ele>584</ele>
<time>2019-09-29T13:07:56Z</time>
</trkpt>
<trkpt lat="48.540805" lon="9.918135">
<ele>584</ele>
<time>2019-09-29T13:08:02Z</time>
</trkpt>
<trkpt lat="48.540807" lon="9.918137">
<ele>584</ele>
<time>2019-09-29T13:08:18Z</time>
</trkpt>
<trkpt lat="48.540815" lon="9.918173">
<ele>584</ele>
<time>2019-09-29T13:08:23Z</time>
</trkpt>
<trkpt lat="48.540813" lon="9.918177">
<ele>584</ele>
<time>2019-09-29T13:08:29Z</time>
</trkpt>
<trkpt lat="48.54081" lon="9.918175">
<ele>584</ele>
<time>2019-09-29T13:08:39Z</time>
</trkpt>
<trkpt lat="48.54084" lon="9.918218">
<ele>585</ele>
<time>2019-09-29T13:09:25Z</time>
</trkpt>
<trkpt lat="48.540977" lon="9.91819">
<ele>585</ele>
<time>2019-09-29T13:09:30Z</time>
</trkpt>
<trkpt lat="48.541207" lon="9.918177">
<ele>585</ele>
<time>2019-09-29T13:09:35Z</time>
</trkpt>
<trkpt lat="48.541455" lon="9.918143">
<ele>585</ele>
<time>2019-09-29T13:09:40Z</time>
</trkpt>
<trkpt lat="48.541707" lon="9.918038">
<ele>585</ele>
<time>2019-09-29T13:09:45Z</time>
</trkpt>
<trkpt lat="48.541928" lon="9.91783">
<ele>585</ele>
<time>2019-09-29T13:09:50Z</time>
</trkpt>
<trkpt lat="48.542072" lon="9.917582">
<ele>585</ele>
<time>2019-09-29T13:09:55Z</time>
</trkpt>
<trkpt lat="48.54221" lon="9.917613">
<ele>585</ele>
<time>2019-09-29T13:10:00Z</time>
</trkpt>
<trkpt lat="48.542322" lon="9.917767">
<ele>585</ele>
<time>2019-09-29T13:10:05Z</time>
</trkpt>
<trkpt lat="48.542403" lon="9.917868">
<ele>586</ele>
<time>2019-09-29T13:10:10Z</time>
</trkpt>
<trkpt lat="48.542508" lon="9.917797">
<ele>586</ele>
<time>2019-09-29T13:10:15Z</time>
</trkpt>
<trkpt lat="48.54261" lon="9.917552">
<ele>586</ele>
<time>2019-09-29T13:10:20Z</time>
</trkpt>
<trkpt lat="48.542818" lon="9.917637">
<ele>586</ele>
<time>2019-09-29T13:10:25Z</time>
</trkpt>
<trkpt lat="48.5431" lon="9.91763">
<ele>586</ele>
<time>2019-09-29T13:10:30Z</time>
</trkpt>
<trkpt lat="48.543295" lon="9.917472">
<ele>586</ele>
<time>2019-09-29T13:10:35Z</time>
</trkpt>
<trkpt lat="48.543393" lon="9.917203">
<ele>586</ele>
<time>2019-09-29T13:10:40Z</time>
</trkpt>
<trkpt lat="48.543535" lon="9.916905">
<ele>586</ele>
<time>2019-09-29T13:10:45Z</time>
</trkpt>
<trkpt lat="48.543718" lon="9.91664">
<ele>586</ele>
<time>2019-09-29T13:10:50Z</time>
</trkpt>
<trkpt lat="48.543915" lon="9.916415">
<ele>586</ele>
<time>2019-09-29T13:10:55Z</time>
</trkpt>
<trkpt lat="48.544143" lon="9.916192">
<ele>586</ele>
<time>2019-09-29T13:11:00Z</time>
</trkpt>
<trkpt lat="48.54437" lon="9.915968">
<ele>586</ele>
<time>2019-09-29T13:11:05Z</time>
</trkpt>
<trkpt lat="48.544558" lon="9.915717">
<ele>586</ele>
<time>2019-09-29T13:11:10Z</time>
</trkpt>
<trkpt lat="48.544797" lon="9.915602">
<ele>586</ele>
<time>2019-09-29T13:11:15Z</time>
</trkpt>
<trkpt lat="48.544985" lon="9.915595">
<ele>586</ele>
<time>2019-09-29T13:11:20Z</time>
</trkpt>
<trkpt lat="48.545147" lon="9.915633">
<ele>587</ele>
<time>2019-09-29T13:11:26Z</time>
</trkpt>
<trkpt lat="48.545302" lon="9.915418">
<ele>588</ele>
<time>2019-09-29T13:11:31Z</time>
</trkpt>
<trkpt lat="48.545462" lon="9.915122">
<ele>588</ele>
<time>2019-09-29T13:11:36Z</time>
</trkpt>
<trkpt lat="48.545622" lon="9.914763">
<ele>588</ele>
<time>2019-09-29T13:11:41Z</time>
</trkpt>
<trkpt lat="48.545805" lon="9.914383">
<ele>588</ele>
<time>2019-09-29T13:11:46Z</time>
</trkpt>
<trkpt lat="48.546045" lon="9.913928">
<ele>588</ele>
<time>2019-09-29T13:11:52Z</time>
</trkpt>
<trkpt lat="48.546268" lon="9.913573">
<ele>588</ele>
<time>2019-09-29T13:11:57Z</time>
</trkpt>
<trkpt lat="48.5465" lon="9.91325">
<ele>589</ele>
<time>2019-09-29T13:12:02Z</time>
</trkpt>
<trkpt lat="48.546742" lon="9.912918">
<ele>589</ele>
<time>2019-09-29T13:12:07Z</time>
</trkpt>
<trkpt lat="48.546973" lon="9.912602">
<ele>590</ele>
<time>2019-09-29T13:12:12Z</time>
</trkpt>
<trkpt lat="48.547172" lon="9.912267">
<ele>591</ele>
<time>2019-09-29T13:12:17Z</time>
</trkpt>
<trkpt lat="48.5473" lon="9.911885">
<ele>591</ele>
<time>2019-09-29T13:12:22Z</time>
</trkpt>
<trkpt lat="48.547363" lon="9.911445">
<ele>592</ele>
<time>2019-09-29T13:12:27Z</time>
</trkpt>
<trkpt lat="48.547393" lon="9.911008">
<ele>592</ele>
<time>2019-09-29T13:12:32Z</time>
</trkpt>
<trkpt lat="48.547425" lon="9.9106">
<ele>592</ele>
<time>2019-09-29T13:12:38Z</time>
</trkpt>
<trkpt lat="48.547522" lon="9.910397">
<ele>592</ele>
<time>2019-09-29T13:12:43Z</time>
</trkpt>
<trkpt lat="48.547625" lon="9.91006">
<ele>592</ele>
<time>2019-09-29T13:12:48Z</time>
</trkpt>
<trkpt lat="48.547615" lon="9.909585">
<ele>592</ele>
<time>2019-09-29T13:12:53Z</time>
</trkpt>
<trkpt lat="48.54761" lon="9.909093">
<ele>592</ele>
<time>2019-09-29T13:12:58Z</time>
</trkpt>
<trkpt lat="48.547562" lon="9.908602">
<ele>592</ele>
<time>2019-09-29T13:13:03Z</time>
</trkpt>
<trkpt lat="48.547485" lon="9.908122">
<ele>592</ele>
<time>2019-09-29T13:13:08Z</time>
</trkpt>
<trkpt lat="48.547405" lon="9.907665">
<ele>592</ele>
<time>2019-09-29T13:13:13Z</time>
</trkpt>
<trkpt lat="48.547328" lon="9.90723">
<ele>592</ele>
<time>2019-09-29T13:13:18Z</time>
</trkpt>
<trkpt lat="48.547257" lon="9.906792">
<ele>592</ele>
<time>2019-09-29T13:13:23Z</time>
</trkpt>
<trkpt lat="48.54718" lon="9.906347">
<ele>592</ele>
<time>2019-09-29T13:13:28Z</time>
</trkpt>
<trkpt lat="48.5471" lon="9.905893">
<ele>592</ele>
<time>2019-09-29T13:13:33Z</time>
</trkpt>
<trkpt lat="48.54701" lon="9.905432">
<ele>592</ele>
<time>2019-09-29T13:13:38Z</time>
</trkpt>
<trkpt lat="48.546917" lon="9.90489">
<ele>593</ele>
<time>2019-09-29T13:13:44Z</time>
</trkpt>
<trkpt lat="48.546828" lon="9.90437">
<ele>593</ele>
<time>2019-09-29T13:13:50Z</time>
</trkpt>
<trkpt lat="48.546773" lon="9.903958">
<ele>593</ele>
<time>2019-09-29T13:13:55Z</time>
</trkpt>
<trkpt lat="48.546705" lon="9.903533">
<ele>593</ele>
<time>2019-09-29T13:14:00Z</time>
</trkpt>
<trkpt lat="48.546635" lon="9.903095">
<ele>593</ele>
<time>2019-09-29T13:14:05Z</time>
</trkpt>
<trkpt lat="48.546562" lon="9.90264">
<ele>593</ele>
<time>2019-09-29T13:14:10Z</time>
</trkpt>
<trkpt lat="48.546483" lon="9.902167">
<ele>593</ele>
<time>2019-09-29T13:14:15Z</time>
</trkpt>
<trkpt lat="48.546408" lon="9.901687">
<ele>593</ele>
<time>2019-09-29T13:14:20Z</time>
</trkpt>
<trkpt lat="48.546362" lon="9.901223">
<ele>593</ele>
<time>2019-09-29T13:14:25Z</time>
</trkpt>
<trkpt lat="48.546358" lon="9.900767">
<ele>593</ele>
<time>2019-09-29T13:14:30Z</time>
</trkpt>
<trkpt lat="48.546348" lon="9.900327">
<ele>593</ele>
<time>2019-09-29T13:14:35Z</time>
</trkpt>
<trkpt lat="48.546352" lon="9.899878">
<ele>593</ele>
<time>2019-09-29T13:14:40Z</time>
</trkpt>
<trkpt lat="48.546348" lon="9.899445">
<ele>593</ele>
<time>2019-09-29T13:14:45Z</time>
</trkpt>
<trkpt lat="48.546332" lon="9.899023">
<ele>594</ele>
<time>2019-09-29T13:14:50Z</time>
</trkpt>
<trkpt lat="48.546312" lon="9.898618">
<ele>594</ele>
<time>2019-09-29T13:14:55Z</time>
</trkpt>
<trkpt lat="48.546307" lon="9.898227">
<ele>595</ele>
<time>2019-09-29T13:15:00Z</time>
</trkpt>
<trkpt lat="48.546308" lon="9.897863">
<ele>595</ele>
<time>2019-09-29T13:15:05Z</time>
</trkpt>
<trkpt lat="48.546342" lon="9.89747">
<ele>595</ele>
<time>2019-09-29T13:15:10Z</time>
</trkpt>
<trkpt lat="48.546395" lon="9.897072">
<ele>596</ele>
<time>2019-09-29T13:15:15Z</time>
</trkpt>
<trkpt lat="48.54645" lon="9.896668">
<ele>597</ele>
<time>2019-09-29T13:15:20Z</time>
</trkpt>
<trkpt lat="48.54652" lon="9.896208">
<ele>598</ele>
<time>2019-09-29T13:15:26Z</time>
</trkpt>
<trkpt lat="48.546565" lon="9.895795">
<ele>598</ele>
<time>2019-09-29T13:15:31Z</time>
</trkpt>
<trkpt lat="48.546613" lon="9.895377">
<ele>598</ele>
<time>2019-09-29T13:15:36Z</time>
</trkpt>
<trkpt lat="48.546663" lon="9.894928">
<ele>597</ele>
<time>2019-09-29T13:15:41Z</time>
</trkpt>
<trkpt lat="48.546727" lon="9.894573">
<ele>597</ele>
<time>2019-09-29T13:15:46Z</time>
</trkpt>
<trkpt lat="48.546738" lon="9.894252">
<ele>597</ele>
<time>2019-09-29T13:15:51Z</time>
</trkpt>
<trkpt lat="48.546827" lon="9.893945">
<ele>597</ele>
<time>2019-09-29T13:15:56Z</time>
</trkpt>
<trkpt lat="48.547015" lon="9.893633">
<ele>597</ele>
<time>2019-09-29T13:16:02Z</time>
</trkpt>
<trkpt lat="48.54719" lon="9.893455">
<ele>597</ele>
<time>2019-09-29T13:16:07Z</time>
</trkpt>
<trkpt lat="48.547387" lon="9.893288">
<ele>597</ele>
<time>2019-09-29T13:16:12Z</time>
</trkpt>
<trkpt lat="48.547622" lon="9.89307">
<ele>597</ele>
<time>2019-09-29T13:16:17Z</time>
</trkpt>
<trkpt lat="48.54785" lon="9.892808">
<ele>597</ele>
<time>2019-09-29T13:16:22Z</time>
</trkpt>
<trkpt lat="48.548075" lon="9.892523">
<ele>597</ele>
<time>2019-09-29T13:16:27Z</time>
</trkpt>
<trkpt lat="48.548305" lon="9.89226">
<ele>597</ele>
<time>2019-09-29T13:16:32Z</time>
</trkpt>
<trkpt lat="48.548582" lon="9.892015">
<ele>597</ele>
<time>2019-09-29T13:16:37Z</time>
</trkpt>
<trkpt lat="48.548932" lon="9.891892">
<ele>597</ele>
<time>2019-09-29T13:16:42Z</time>
</trkpt>
<trkpt lat="48.549268" lon="9.891847">
<ele>596</ele>
<time>2019-09-29T13:16:47Z</time>
</trkpt>
<trkpt lat="48.549558" lon="9.891777">
<ele>596</ele>
<time>2019-09-29T13:16:52Z</time>
</trkpt>
<trkpt lat="48.549838" lon="9.89171">
<ele>596</ele>
<time>2019-09-29T13:16:57Z</time>
</trkpt>
<trkpt lat="48.550133" lon="9.891642">
<ele>596</ele>
<time>2019-09-29T13:17:02Z</time>
</trkpt>
<trkpt lat="48.550403" lon="9.891602">
<ele>596</ele>
<time>2019-09-29T13:17:07Z</time>
</trkpt>
<trkpt lat="48.55058" lon="9.89142">
<ele>596</ele>
<time>2019-09-29T13:17:12Z</time>
</trkpt>
<trkpt lat="48.550785" lon="9.891278">
<ele>596</ele>
<time>2019-09-29T13:17:17Z</time>
</trkpt>
<trkpt lat="48.551088" lon="9.8913">
<ele>596</ele>
<time>2019-09-29T13:17:22Z</time>
</trkpt>
<trkpt lat="48.551405" lon="9.891218">
<ele>596</ele>
<time>2019-09-29T13:17:27Z</time>
</trkpt>
<trkpt lat="48.5517" lon="9.891057">
<ele>596</ele>
<time>2019-09-29T13:17:32Z</time>
</trkpt>
<trkpt lat="48.551962" lon="9.890843">
<ele>596</ele>
<time>2019-09-29T13:17:37Z</time>
</trkpt>
<trkpt lat="48.55226" lon="9.890682">
<ele>596</ele>
<time>2019-09-29T13:17:42Z</time>
</trkpt>
<trkpt lat="48.55255" lon="9.890445">
<ele>596</ele>
<time>2019-09-29T13:17:47Z</time>
</trkpt>
<trkpt lat="48.552817" lon="9.890235">
<ele>596</ele>
<time>2019-09-29T13:17:52Z</time>
</trkpt>
<trkpt lat="48.553092" lon="9.890047">
<ele>596</ele>
<time>2019-09-29T13:17:57Z</time>
</trkpt>
<trkpt lat="48.553382" lon="9.889872">
<ele>596</ele>
<time>2019-09-29T13:18:02Z</time>
</trkpt>
<trkpt lat="48.553682" lon="9.889743">
<ele>596</ele>
<time>2019-09-29T13:18:07Z</time>
</trkpt>
<trkpt lat="48.553972" lon="9.889638">
<ele>597</ele>
<time>2019-09-29T13:18:12Z</time>
</trkpt>
<trkpt lat="48.554232" lon="9.889567">
<ele>598</ele>
<time>2019-09-29T13:18:17Z</time>
</trkpt>
<trkpt lat="48.554478" lon="9.889533">
<ele>599</ele>
<time>2019-09-29T13:18:22Z</time>
</trkpt>
<trkpt lat="48.554717" lon="9.889503">
<ele>600</ele>
<time>2019-09-29T13:18:27Z</time>
</trkpt>
<trkpt lat="48.554965" lon="9.88947">
<ele>600</ele>
<time>2019-09-29T13:18:32Z</time>
</trkpt>
<trkpt lat="48.55521" lon="9.889428">
<ele>600</ele>
<time>2019-09-29T13:18:37Z</time>
</trkpt>
<trkpt lat="48.555438" lon="9.8894">
<ele>601</ele>
<time>2019-09-29T13:18:42Z</time>
</trkpt>
<trkpt lat="48.555665" lon="9.88937">
<ele>601</ele>
<time>2019-09-29T13:18:47Z</time>
</trkpt>
<trkpt lat="48.55591" lon="9.889333">
<ele>602</ele>
<time>2019-09-29T13:18:52Z</time>
</trkpt>
<trkpt lat="48.556168" lon="9.889365">
<ele>602</ele>
<time>2019-09-29T13:18:57Z</time>
</trkpt>
<trkpt lat="48.556425" lon="9.889448">
<ele>602</ele>
<time>2019-09-29T13:19:02Z</time>
</trkpt>
<trkpt lat="48.55668" lon="9.889572">
<ele>602</ele>
<time>2019-09-29T13:19:07Z</time>
</trkpt>
<trkpt lat="48.556947" lon="9.889812">
<ele>602</ele>
<time>2019-09-29T13:19:12Z</time>
</trkpt>
<trkpt lat="48.557237" lon="9.890122">
<ele>602</ele>
<time>2019-09-29T13:19:17Z</time>
</trkpt>
<trkpt lat="48.557565" lon="9.890378">
<ele>602</ele>
<time>2019-09-29T13:19:22Z</time>
</trkpt>
<trkpt lat="48.557897" lon="9.890517">
<ele>600</ele>
<time>2019-09-29T13:19:27Z</time>
</trkpt>
<trkpt lat="48.55818" lon="9.890697">
<ele>600</ele>
<time>2019-09-29T13:19:32Z</time>
</trkpt>
<trkpt lat="48.558452" lon="9.89092">
<ele>600</ele>
<time>2019-09-29T13:19:37Z</time>
</trkpt>
<trkpt lat="48.558753" lon="9.891117">
<ele>600</ele>
<time>2019-09-29T13:19:42Z</time>
</trkpt>
<trkpt lat="48.559063" lon="9.89126">
<ele>600</ele>
<time>2019-09-29T13:19:47Z</time>
</trkpt>
<trkpt lat="48.559375" lon="9.891375">
<ele>600</ele>
<time>2019-09-29T13:19:52Z</time>
</trkpt>
<trkpt lat="48.559672" lon="9.891458">
<ele>600</ele>
<time>2019-09-29T13:19:57Z</time>
</trkpt>
<trkpt lat="48.55997" lon="9.891545">
<ele>600</ele>
<time>2019-09-29T13:20:02Z</time>
</trkpt>
<trkpt lat="48.560243" lon="9.891613">
<ele>602</ele>
<time>2019-09-29T13:20:07Z</time>
</trkpt>
<trkpt lat="48.560505" lon="9.891593">
<ele>603</ele>
<time>2019-09-29T13:20:12Z</time>
</trkpt>
<trkpt lat="48.560788" lon="9.89148">
<ele>603</ele>
<time>2019-09-29T13:20:17Z</time>
</trkpt>
<trkpt lat="48.56113" lon="9.891358">
<ele>603</ele>
<time>2019-09-29T13:20:22Z</time>
</trkpt>
<trkpt lat="48.561478" lon="9.89121">
<ele>603</ele>
<time>2019-09-29T13:20:27Z</time>
</trkpt>
<trkpt lat="48.561738" lon="9.890895">
<ele>603</ele>
<time>2019-09-29T13:20:32Z</time>
</trkpt>
<trkpt lat="48.561905" lon="9.890485">
<ele>603</ele>
<time>2019-09-29T13:20:37Z</time>
</trkpt>
<trkpt lat="48.562052" lon="9.890063">
<ele>603</ele>
<time>2019-09-29T13:20:42Z</time>
</trkpt>
<trkpt lat="48.562208" lon="9.889645">
<ele>603</ele>
<time>2019-09-29T13:20:47Z</time>
</trkpt>
<trkpt lat="48.562372" lon="9.889225">
<ele>603</ele>
<time>2019-09-29T13:20:52Z</time>
</trkpt>
<trkpt lat="48.562542" lon="9.888817">
<ele>603</ele>
<time>2019-09-29T13:20:57Z</time>
</trkpt>
<trkpt lat="48.56272" lon="9.888423">
<ele>603</ele>
<time>2019-09-29T13:21:02Z</time>
</trkpt>
<trkpt lat="48.562912" lon="9.888033">
<ele>603</ele>
<time>2019-09-29T13:21:07Z</time>
</trkpt>
<trkpt lat="48.563108" lon="9.88766">
<ele>603</ele>
<time>2019-09-29T13:21:12Z</time>
</trkpt>
<trkpt lat="48.563312" lon="9.887277">
<ele>603</ele>
<time>2019-09-29T13:21:17Z</time>
</trkpt>
<trkpt lat="48.563512" lon="9.886885">
<ele>604</ele>
<time>2019-09-29T13:21:22Z</time>
</trkpt>
<trkpt lat="48.563722" lon="9.886495">
<ele>604</ele>
<time>2019-09-29T13:21:27Z</time>
</trkpt>
<trkpt lat="48.563942" lon="9.886092">
<ele>604</ele>
<time>2019-09-29T13:21:32Z</time>
</trkpt>
<trkpt lat="48.564147" lon="9.885702">
<ele>604</ele>
<time>2019-09-29T13:21:37Z</time>
</trkpt>
<trkpt lat="48.564345" lon="9.885327">
<ele>604</ele>
<time>2019-09-29T13:21:42Z</time>
</trkpt>
<trkpt lat="48.56455" lon="9.884948">
<ele>604</ele>
<time>2019-09-29T13:21:47Z</time>
</trkpt>
<trkpt lat="48.564757" lon="9.884555">
<ele>604</ele>
<time>2019-09-29T13:21:52Z</time>
</trkpt>
<trkpt lat="48.564958" lon="9.884152">
<ele>605</ele>
<time>2019-09-29T13:21:57Z</time>
</trkpt>
<trkpt lat="48.565157" lon="9.883735">
<ele>605</ele>
<time>2019-09-29T13:22:02Z</time>
</trkpt>
<trkpt lat="48.565308" lon="9.88333">
<ele>605</ele>
<time>2019-09-29T13:22:07Z</time>
</trkpt>
<trkpt lat="48.565427" lon="9.882867">
<ele>605</ele>
<time>2019-09-29T13:22:12Z</time>
</trkpt>
<trkpt lat="48.565497" lon="9.88236">
<ele>605</ele>
<time>2019-09-29T13:22:17Z</time>
</trkpt>
<trkpt lat="48.565608" lon="9.881898">
<ele>605</ele>
<time>2019-09-29T13:22:22Z</time>
</trkpt>
<trkpt lat="48.565747" lon="9.88148">
<ele>605</ele>
<time>2019-09-29T13:22:27Z</time>
</trkpt>
<trkpt lat="48.565912" lon="9.881033">
<ele>605</ele>
<time>2019-09-29T13:22:32Z</time>
</trkpt>
<trkpt lat="48.566097" lon="9.880608">
<ele>605</ele>
<time>2019-09-29T13:22:37Z</time>
</trkpt>
<trkpt lat="48.566297" lon="9.880217">
<ele>605</ele>
<time>2019-09-29T13:22:42Z</time>
</trkpt>
<trkpt lat="48.566523" lon="9.879852">
<ele>605</ele>
<time>2019-09-29T13:22:47Z</time>
</trkpt>
<trkpt lat="48.56677" lon="9.879525">
<ele>605</ele>
<time>2019-09-29T13:22:52Z</time>
</trkpt>
<trkpt lat="48.567022" lon="9.879213">
<ele>606</ele>
<time>2019-09-29T13:22:57Z</time>
</trkpt>
<trkpt lat="48.567265" lon="9.878923">
<ele>607</ele>
<time>2019-09-29T13:23:02Z</time>
</trkpt>
<trkpt lat="48.56751" lon="9.878658">
<ele>607</ele>
<time>2019-09-29T13:23:07Z</time>
</trkpt>
<trkpt lat="48.567758" lon="9.878423">
<ele>607</ele>
<time>2019-09-29T13:23:12Z</time>
</trkpt>
<trkpt lat="48.568025" lon="9.878217">
<ele>607</ele>
<time>2019-09-29T13:23:17Z</time>
</trkpt>
<trkpt lat="48.568285" lon="9.878022">
<ele>607</ele>
<time>2019-09-29T13:23:22Z</time>
</trkpt>
<trkpt lat="48.568563" lon="9.87784">
<ele>607</ele>
<time>2019-09-29T13:23:27Z</time>
</trkpt>
<trkpt lat="48.568852" lon="9.877675">
<ele>607</ele>
<time>2019-09-29T13:23:32Z</time>
</trkpt>
<trkpt lat="48.569157" lon="9.877547">
<ele>607</ele>
<time>2019-09-29T13:23:37Z</time>
</trkpt>
<trkpt lat="48.569472" lon="9.877448">
<ele>607</ele>
<time>2019-09-29T13:23:42Z</time>
</trkpt>
<trkpt lat="48.569768" lon="9.877353">
<ele>608</ele>
<time>2019-09-29T13:23:47Z</time>
</trkpt>
<trkpt lat="48.570063" lon="9.8773">
<ele>608</ele>
<time>2019-09-29T13:23:52Z</time>
</trkpt>
<trkpt lat="48.570362" lon="9.877225">
<ele>608</ele>
<time>2019-09-29T13:23:57Z</time>
</trkpt>
<trkpt lat="48.570645" lon="9.877163">
<ele>608</ele>
<time>2019-09-29T13:24:02Z</time>
</trkpt>
<trkpt lat="48.570848" lon="9.877067">
<ele>609</ele>
<time>2019-09-29T13:24:07Z</time>
</trkpt>
<trkpt lat="48.571098" lon="9.877058">
<ele>609</ele>
<time>2019-09-29T13:24:12Z</time>
</trkpt>
<trkpt lat="48.571372" lon="9.876993">
<ele>609</ele>
<time>2019-09-29T13:24:17Z</time>
</trkpt>
<trkpt lat="48.571642" lon="9.876893">
<ele>609</ele>
<time>2019-09-29T13:24:22Z</time>
</trkpt>
<trkpt lat="48.571927" lon="9.876788">
<ele>610</ele>
<time>2019-09-29T13:24:27Z</time>
</trkpt>
<trkpt lat="48.572125" lon="9.87671">
<ele>612</ele>
<time>2019-09-29T13:24:32Z</time>
</trkpt>
<trkpt lat="48.572288" lon="9.876645">
<ele>613</ele>
<time>2019-09-29T13:24:37Z</time>
</trkpt>
<trkpt lat="48.572527" lon="9.876583">
<ele>614</ele>
<time>2019-09-29T13:24:42Z</time>
</trkpt>
<trkpt lat="48.572812" lon="9.87646">
<ele>614</ele>
<time>2019-09-29T13:24:47Z</time>
</trkpt>
<trkpt lat="48.57306" lon="9.876287">
<ele>613</ele>
<time>2019-09-29T13:24:52Z</time>
</trkpt>
<trkpt lat="48.573207" lon="9.876108">
<ele>613</ele>
<time>2019-09-29T13:24:57Z</time>
</trkpt>
<trkpt lat="48.573215" lon="9.876007">
<ele>614</ele>
<time>2019-09-29T13:25:02Z</time>
</trkpt>
<trkpt lat="48.573043" lon="9.875968">
<ele>614</ele>
<time>2019-09-29T13:25:07Z</time>
</trkpt>
<trkpt lat="48.572817" lon="9.875933">
<ele>615</ele>
<time>2019-09-29T13:25:12Z</time>
</trkpt>
<trkpt lat="48.5726" lon="9.875852">
<ele>616</ele>
<time>2019-09-29T13:25:17Z</time>
</trkpt>
<trkpt lat="48.572387" lon="9.875718">
<ele>616</ele>
<time>2019-09-29T13:25:22Z</time>
</trkpt>
<trkpt lat="48.572163" lon="9.875545">
<ele>616</ele>
<time>2019-09-29T13:25:27Z</time>
</trkpt>
<trkpt lat="48.571938" lon="9.875392">
<ele>616</ele>
<time>2019-09-29T13:25:32Z</time>
</trkpt>
<trkpt lat="48.57172" lon="9.875323">
<ele>617</ele>
<time>2019-09-29T13:25:37Z</time>
</trkpt>
<trkpt lat="48.571532" lon="9.875327">
<ele>617</ele>
<time>2019-09-29T13:25:42Z</time>
</trkpt>
<trkpt lat="48.571413" lon="9.875467">
<ele>617</ele>
<time>2019-09-29T13:25:47Z</time>
</trkpt>
<trkpt lat="48.571448" lon="9.875828">
<ele>617</ele>
<time>2019-09-29T13:25:52Z</time>
</trkpt>
<trkpt lat="48.571533" lon="9.876235">
<ele>618</ele>
<time>2019-09-29T13:25:57Z</time>
</trkpt>
<trkpt lat="48.571605" lon="9.876632">
<ele>618</ele>
<time>2019-09-29T13:26:02Z</time>
</trkpt>
<trkpt lat="48.571673" lon="9.877043">
<ele>618</ele>
<time>2019-09-29T13:26:07Z</time>
</trkpt>
<trkpt lat="48.57173" lon="9.877492">
<ele>618</ele>
<time>2019-09-29T13:26:12Z</time>
</trkpt>
<trkpt lat="48.57178" lon="9.877947">
<ele>618</ele>
<time>2019-09-29T13:26:17Z</time>
</trkpt>
<trkpt lat="48.571823" lon="9.878413">
<ele>618</ele>
<time>2019-09-29T13:26:22Z</time>
</trkpt>
<trkpt lat="48.571848" lon="9.878913">
<ele>618</ele>
<time>2019-09-29T13:26:27Z</time>
</trkpt>
<trkpt lat="48.571873" lon="9.87948">
<ele>618</ele>
<time>2019-09-29T13:26:32Z</time>
</trkpt>
<trkpt lat="48.5719" lon="9.880085">
<ele>617</ele>
<time>2019-09-29T13:26:37Z</time>
</trkpt>
<trkpt lat="48.571907" lon="9.8807">
<ele>617</ele>
<time>2019-09-29T13:26:42Z</time>
</trkpt>
<trkpt lat="48.571898" lon="9.881312">
<ele>616</ele>
<time>2019-09-29T13:26:47Z</time>
</trkpt>
<trkpt lat="48.571863" lon="9.881915">
<ele>615</ele>
<time>2019-09-29T13:26:52Z</time>
</trkpt>
<trkpt lat="48.571815" lon="9.882527">
<ele>615</ele>
<time>2019-09-29T13:26:57Z</time>
</trkpt>
<trkpt lat="48.571735" lon="9.883098">
<ele>615</ele>
<time>2019-09-29T13:27:02Z</time>
</trkpt>
<trkpt lat="48.571662" lon="9.88351">
<ele>615</ele>
<time>2019-09-29T13:27:07Z</time>
</trkpt>
<trkpt lat="48.571605" lon="9.883803">
<ele>615</ele>
<time>2019-09-29T13:27:12Z</time>
</trkpt>
<trkpt lat="48.571753" lon="9.883925">
<ele>615</ele>
<time>2019-09-29T13:27:17Z</time>
</trkpt>
<trkpt lat="48.571982" lon="9.883602">
<ele>615</ele>
<time>2019-09-29T13:27:22Z</time>
</trkpt>
<trkpt lat="48.572215" lon="9.88327">
<ele>615</ele>
<time>2019-09-29T13:27:27Z</time>
</trkpt>
<trkpt lat="48.572457" lon="9.882895">
<ele>615</ele>
<time>2019-09-29T13:27:32Z</time>
</trkpt>
<trkpt lat="48.572725" lon="9.882537">
<ele>615</ele>
<time>2019-09-29T13:27:37Z</time>
</trkpt>
<trkpt lat="48.573013" lon="9.882222">
<ele>615</ele>
<time>2019-09-29T13:27:42Z</time>
</trkpt>
<trkpt lat="48.573347" lon="9.882008">
<ele>615</ele>
<time>2019-09-29T13:27:47Z</time>
</trkpt>
<trkpt lat="48.573627" lon="9.881718">
<ele>615</ele>
<time>2019-09-29T13:27:52Z</time>
</trkpt>
<trkpt lat="48.573895" lon="9.88141">
<ele>615</ele>
<time>2019-09-29T13:27:57Z</time>
</trkpt>
<trkpt lat="48.574167" lon="9.881092">
<ele>615</ele>
<time>2019-09-29T13:28:02Z</time>
</trkpt>
<trkpt lat="48.574422" lon="9.880737">
<ele>615</ele>
<time>2019-09-29T13:28:07Z</time>
</trkpt>
<trkpt lat="48.574632" lon="9.880335">
<ele>615</ele>
<time>2019-09-29T13:28:12Z</time>
</trkpt>
<trkpt lat="48.574792" lon="9.87993">
<ele>615</ele>
<time>2019-09-29T13:28:17Z</time>
</trkpt>
<trkpt lat="48.574932" lon="9.879557">
<ele>615</ele>
<time>2019-09-29T13:28:22Z</time>
</trkpt>
<trkpt lat="48.575058" lon="9.879298">
<ele>615</ele>
<time>2019-09-29T13:28:27Z</time>
</trkpt>
<trkpt lat="48.575268" lon="9.879493">
<ele>615</ele>
<time>2019-09-29T13:28:32Z</time>
</trkpt>
<trkpt lat="48.575482" lon="9.879772">
<ele>615</ele>
<time>2019-09-29T13:28:37Z</time>
</trkpt>
<trkpt lat="48.575727" lon="9.87998">
<ele>615</ele>
<time>2019-09-29T13:28:42Z</time>
</trkpt>
<trkpt lat="48.575988" lon="9.880148">
<ele>615</ele>
<time>2019-09-29T13:28:47Z</time>
</trkpt>
<trkpt lat="48.576258" lon="9.880308">
<ele>616</ele>
<time>2019-09-29T13:28:52Z</time>
</trkpt>
<trkpt lat="48.576522" lon="9.880462">
<ele>617</ele>
<time>2019-09-29T13:28:57Z</time>
</trkpt>
<trkpt lat="48.576797" lon="9.880615">
<ele>617</ele>
<time>2019-09-29T13:29:02Z</time>
</trkpt>
<trkpt lat="48.57708" lon="9.880782">
<ele>617</ele>
<time>2019-09-29T13:29:07Z</time>
</trkpt>
<trkpt lat="48.577355" lon="9.880992">
<ele>617</ele>
<time>2019-09-29T13:29:12Z</time>
</trkpt>
<trkpt lat="48.577615" lon="9.881222">
<ele>617</ele>
<time>2019-09-29T13:29:17Z</time>
</trkpt>
<trkpt lat="48.577862" lon="9.881475">
<ele>618</ele>
<time>2019-09-29T13:29:22Z</time>
</trkpt>
<trkpt lat="48.578088" lon="9.88174">
<ele>619</ele>
<time>2019-09-29T13:29:27Z</time>
</trkpt>
<trkpt lat="48.578307" lon="9.88201">
<ele>619</ele>
<time>2019-09-29T13:29:32Z</time>
</trkpt>
<trkpt lat="48.578527" lon="9.882298">
<ele>620</ele>
<time>2019-09-29T13:29:37Z</time>
</trkpt>
<trkpt lat="48.578755" lon="9.882587">
<ele>620</ele>
<time>2019-09-29T13:29:42Z</time>
</trkpt>
<trkpt lat="48.578977" lon="9.882868">
<ele>620</ele>
<time>2019-09-29T13:29:47Z</time>
</trkpt>
<trkpt lat="48.5792" lon="9.88315">
<ele>621</ele>
<time>2019-09-29T13:29:52Z</time>
</trkpt>
<trkpt lat="48.579423" lon="9.883433">
<ele>621</ele>
<time>2019-09-29T13:29:57Z</time>
</trkpt>
<trkpt lat="48.579648" lon="9.883727">
<ele>621</ele>
<time>2019-09-29T13:30:02Z</time>
</trkpt>
<trkpt lat="48.579878" lon="9.884018">
<ele>621</ele>
<time>2019-09-29T13:30:07Z</time>
</trkpt>
<trkpt lat="48.580097" lon="9.88433">
<ele>621</ele>
<time>2019-09-29T13:30:12Z</time>
</trkpt>
<trkpt lat="48.580305" lon="9.884643">
<ele>621</ele>
<time>2019-09-29T13:30:17Z</time>
</trkpt>
<trkpt lat="48.580503" lon="9.884977">
<ele>622</ele>
<time>2019-09-29T13:30:22Z</time>
</trkpt>
<trkpt lat="48.58069" lon="9.885325">
<ele>623</ele>
<time>2019-09-29T13:30:27Z</time>
</trkpt>
<trkpt lat="48.580873" lon="9.885707">
<ele>623</ele>
<time>2019-09-29T13:30:32Z</time>
</trkpt>
<trkpt lat="48.581042" lon="9.886112">
<ele>623</ele>
<time>2019-09-29T13:30:37Z</time>
</trkpt>
<trkpt lat="48.581198" lon="9.886508">
<ele>624</ele>
<time>2019-09-29T13:30:42Z</time>
</trkpt>
<trkpt lat="48.581363" lon="9.886908">
<ele>624</ele>
<time>2019-09-29T13:30:47Z</time>
</trkpt>
<trkpt lat="48.581517" lon="9.887317">
<ele>625</ele>
<time>2019-09-29T13:30:52Z</time>
</trkpt>
<trkpt lat="48.581668" lon="9.887733">
<ele>625</ele>
<time>2019-09-29T13:30:57Z</time>
</trkpt>
<trkpt lat="48.581813" lon="9.88814">
<ele>626</ele>
<time>2019-09-29T13:31:02Z</time>
</trkpt>
<trkpt lat="48.581947" lon="9.888532">
<ele>626</ele>
<time>2019-09-29T13:31:07Z</time>
</trkpt>
<trkpt lat="48.58207" lon="9.888925">
<ele>626</ele>
<time>2019-09-29T13:31:12Z</time>
</trkpt>
<trkpt lat="48.582165" lon="9.889305">
<ele>627</ele>
<time>2019-09-29T13:31:17Z</time>
</trkpt>
<trkpt lat="48.582237" lon="9.889683">
<ele>628</ele>
<time>2019-09-29T13:31:22Z</time>
</trkpt>
<trkpt lat="48.582287" lon="9.89007">
<ele>629</ele>
<time>2019-09-29T13:31:27Z</time>
</trkpt>
<trkpt lat="48.582323" lon="9.890443">
<ele>630</ele>
<time>2019-09-29T13:31:32Z</time>
</trkpt>
<trkpt lat="48.582333" lon="9.8908">
<ele>632</ele>
<time>2019-09-29T13:31:37Z</time>
</trkpt>
<trkpt lat="48.582318" lon="9.891152">
<ele>632</ele>
<time>2019-09-29T13:31:42Z</time>
</trkpt>
<trkpt lat="48.582298" lon="9.89147">
<ele>633</ele>
<time>2019-09-29T13:31:47Z</time>
</trkpt>
<trkpt lat="48.582263" lon="9.891765">
<ele>634</ele>
<time>2019-09-29T13:31:52Z</time>
</trkpt>
<trkpt lat="48.582232" lon="9.89207">
<ele>635</ele>
<time>2019-09-29T13:31:57Z</time>
</trkpt>
<trkpt lat="48.582195" lon="9.892345">
<ele>636</ele>
<time>2019-09-29T13:32:02Z</time>
</trkpt>
<trkpt lat="48.582165" lon="9.892603">
<ele>637</ele>
<time>2019-09-29T13:32:07Z</time>
</trkpt>
<trkpt lat="48.582125" lon="9.892868">
<ele>638</ele>
<time>2019-09-29T13:32:12Z</time>
</trkpt>
<trkpt lat="48.58209" lon="9.893163">
<ele>639</ele>
<time>2019-09-29T13:32:17Z</time>
</trkpt>
<trkpt lat="48.582062" lon="9.89345">
<ele>639</ele>
<time>2019-09-29T13:32:22Z</time>
</trkpt>
<trkpt lat="48.582033" lon="9.893722">
<ele>640</ele>
<time>2019-09-29T13:32:27Z</time>
</trkpt>
<trkpt lat="48.582002" lon="9.89399">
<ele>641</ele>
<time>2019-09-29T13:32:32Z</time>
</trkpt>
<trkpt lat="48.58197" lon="9.894267">
<ele>642</ele>
<time>2019-09-29T13:32:37Z</time>
</trkpt>
<trkpt lat="48.581945" lon="9.894543">
<ele>642</ele>
<time>2019-09-29T13:32:42Z</time>
</trkpt>
<trkpt lat="48.581928" lon="9.894808">
<ele>643</ele>
<time>2019-09-29T13:32:47Z</time>
</trkpt>
<trkpt lat="48.581917" lon="9.89508">
<ele>644</ele>
<time>2019-09-29T13:32:52Z</time>
</trkpt>
<trkpt lat="48.581907" lon="9.895357">
<ele>645</ele>
<time>2019-09-29T13:32:57Z</time>
</trkpt>
<trkpt lat="48.5819" lon="9.895667">
<ele>646</ele>
<time>2019-09-29T13:33:02Z</time>
</trkpt>
<trkpt lat="48.581902" lon="9.895963">
<ele>646</ele>
<time>2019-09-29T13:33:07Z</time>
</trkpt>
<trkpt lat="48.581897" lon="9.896243">
<ele>647</ele>
<time>2019-09-29T13:33:12Z</time>
</trkpt>
<trkpt lat="48.58191" lon="9.896555">
<ele>648</ele>
<time>2019-09-29T13:33:17Z</time>
</trkpt>
<trkpt lat="48.581932" lon="9.896852">
<ele>648</ele>
<time>2019-09-29T13:33:22Z</time>
</trkpt>
<trkpt lat="48.581943" lon="9.897138">
<ele>649</ele>
<time>2019-09-29T13:33:27Z</time>
</trkpt>
<trkpt lat="48.581965" lon="9.897437">
<ele>650</ele>
<time>2019-09-29T13:33:32Z</time>
</trkpt>
<trkpt lat="48.581985" lon="9.897722">
<ele>651</ele>
<time>2019-09-29T13:33:37Z</time>
</trkpt>
<trkpt lat="48.582012" lon="9.898017">
<ele>651</ele>
<time>2019-09-29T13:33:42Z</time>
</trkpt>
<trkpt lat="48.582033" lon="9.898327">
<ele>652</ele>
<time>2019-09-29T13:33:47Z</time>
</trkpt>
<trkpt lat="48.582057" lon="9.898625">
<ele>653</ele>
<time>2019-09-29T13:33:52Z</time>
</trkpt>
<trkpt lat="48.58208" lon="9.898925">
<ele>654</ele>
<time>2019-09-29T13:33:57Z</time>
</trkpt>
<trkpt lat="48.582105" lon="9.899213">
<ele>655</ele>
<time>2019-09-29T13:34:02Z</time>
</trkpt>
<trkpt lat="48.582127" lon="9.899505">
<ele>655</ele>
<time>2019-09-29T13:34:07Z</time>
</trkpt>
<trkpt lat="48.58215" lon="9.899795">
<ele>656</ele>
<time>2019-09-29T13:34:12Z</time>
</trkpt>
<trkpt lat="48.582173" lon="9.900075">
<ele>657</ele>
<time>2019-09-29T13:34:17Z</time>
</trkpt>
<trkpt lat="48.582195" lon="9.900367">
<ele>658</ele>
<time>2019-09-29T13:34:22Z</time>
</trkpt>
<trkpt lat="48.582212" lon="9.900655">
<ele>658</ele>
<time>2019-09-29T13:34:27Z</time>
</trkpt>
<trkpt lat="48.58223" lon="9.900955">
<ele>659</ele>
<time>2019-09-29T13:34:32Z</time>
</trkpt>
<trkpt lat="48.582237" lon="9.901253">
<ele>660</ele>
<time>2019-09-29T13:34:37Z</time>
</trkpt>
<trkpt lat="48.582242" lon="9.901558">
<ele>660</ele>
<time>2019-09-29T13:34:42Z</time>
</trkpt>
<trkpt lat="48.582238" lon="9.90186">
<ele>661</ele>
<time>2019-09-29T13:34:47Z</time>
</trkpt>
<trkpt lat="48.582227" lon="9.902125">
<ele>661</ele>
<time>2019-09-29T13:34:52Z</time>
</trkpt>
<trkpt lat="48.58222" lon="9.902417">
<ele>662</ele>
<time>2019-09-29T13:34:57Z</time>
</trkpt>
<trkpt lat="48.582202" lon="9.9027">
<ele>663</ele>
<time>2019-09-29T13:35:02Z</time>
</trkpt>
<trkpt lat="48.582183" lon="9.90298">
<ele>664</ele>
<time>2019-09-29T13:35:07Z</time>
</trkpt>
<trkpt lat="48.582157" lon="9.903255">
<ele>665</ele>
<time>2019-09-29T13:35:12Z</time>
</trkpt>
<trkpt lat="48.582123" lon="9.903523">
<ele>666</ele>
<time>2019-09-29T13:35:17Z</time>
</trkpt>
<trkpt lat="48.582085" lon="9.90379">
<ele>666</ele>
<time>2019-09-29T13:35:22Z</time>
</trkpt>
<trkpt lat="48.58204" lon="9.904047">
<ele>667</ele>
<time>2019-09-29T13:35:27Z</time>
</trkpt>
<trkpt lat="48.581992" lon="9.904308">
<ele>667</ele>
<time>2019-09-29T13:35:32Z</time>
</trkpt>
<trkpt lat="48.581937" lon="9.904572">
<ele>668</ele>
<time>2019-09-29T13:35:37Z</time>
</trkpt>
<trkpt lat="48.581863" lon="9.904893">
<ele>669</ele>
<time>2019-09-29T13:35:43Z</time>
</trkpt>
<trkpt lat="48.581797" lon="9.905158">
<ele>670</ele>
<time>2019-09-29T13:35:48Z</time>
</trkpt>
<trkpt lat="48.581732" lon="9.905412">
<ele>671</ele>
<time>2019-09-29T13:35:53Z</time>
</trkpt>
<trkpt lat="48.58166" lon="9.905677">
<ele>671</ele>
<time>2019-09-29T13:35:58Z</time>
</trkpt>
<trkpt lat="48.581588" lon="9.905922">
<ele>672</ele>
<time>2019-09-29T13:36:03Z</time>
</trkpt>
<trkpt lat="48.58153" lon="9.906142">
<ele>673</ele>
<time>2019-09-29T13:36:08Z</time>
</trkpt>
<trkpt lat="48.58147" lon="9.906343">
<ele>674</ele>
<time>2019-09-29T13:36:13Z</time>
</trkpt>
<trkpt lat="48.58141" lon="9.906547">
<ele>675</ele>
<time>2019-09-29T13:36:18Z</time>
</trkpt>
<trkpt lat="48.58135" lon="9.906753">
<ele>675</ele>
<time>2019-09-29T13:36:23Z</time>
</trkpt>
<trkpt lat="48.581288" lon="9.906955">
<ele>676</ele>
<time>2019-09-29T13:36:28Z</time>
</trkpt>
<trkpt lat="48.581237" lon="9.907145">
<ele>677</ele>
<time>2019-09-29T13:36:33Z</time>
</trkpt>
<trkpt lat="48.58118" lon="9.907312">
<ele>679</ele>
<time>2019-09-29T13:36:38Z</time>
</trkpt>
<trkpt lat="48.58113" lon="9.907485">
<ele>679</ele>
<time>2019-09-29T13:36:43Z</time>
</trkpt>
<trkpt lat="48.58107" lon="9.907655">
<ele>680</ele>
<time>2019-09-29T13:36:48Z</time>
</trkpt>
<trkpt lat="48.581002" lon="9.90781">
<ele>681</ele>
<time>2019-09-29T13:36:53Z</time>
</trkpt>
<trkpt lat="48.580928" lon="9.907967">
<ele>682</ele>
<time>2019-09-29T13:36:58Z</time>
</trkpt>
<trkpt lat="48.580853" lon="9.908095">
<ele>683</ele>
<time>2019-09-29T13:37:03Z</time>
</trkpt>
<trkpt lat="48.580767" lon="9.908222">
<ele>684</ele>
<time>2019-09-29T13:37:08Z</time>
</trkpt>
<trkpt lat="48.580675" lon="9.90836">
<ele>684</ele>
<time>2019-09-29T13:37:13Z</time>
</trkpt>
<trkpt lat="48.580592" lon="9.908525">
<ele>685</ele>
<time>2019-09-29T13:37:18Z</time>
</trkpt>
<trkpt lat="48.580482" lon="9.908693">
<ele>686</ele>
<time>2019-09-29T13:37:23Z</time>
</trkpt>
<trkpt lat="48.580395" lon="9.908855">
<ele>687</ele>
<time>2019-09-29T13:37:28Z</time>
</trkpt>
<trkpt lat="48.580338" lon="9.909033">
<ele>688</ele>
<time>2019-09-29T13:37:33Z</time>
</trkpt>
<trkpt lat="48.580327" lon="9.909242">
<ele>688</ele>
<time>2019-09-29T13:37:38Z</time>
</trkpt>
<trkpt lat="48.580358" lon="9.909485">
<ele>689</ele>
<time>2019-09-29T13:37:43Z</time>
</trkpt>
<trkpt lat="48.580415" lon="9.909752">
<ele>689</ele>
<time>2019-09-29T13:37:48Z</time>
</trkpt>
<trkpt lat="48.58048" lon="9.91003">
<ele>690</ele>
<time>2019-09-29T13:37:53Z</time>
</trkpt>
<trkpt lat="48.580537" lon="9.910345">
<ele>690</ele>
<time>2019-09-29T13:37:58Z</time>
</trkpt>
<trkpt lat="48.580603" lon="9.910665">
<ele>690</ele>
<time>2019-09-29T13:38:03Z</time>
</trkpt>
<trkpt lat="48.580697" lon="9.91099">
<ele>690</ele>
<time>2019-09-29T13:38:08Z</time>
</trkpt>
<trkpt lat="48.580777" lon="9.911278">
<ele>691</ele>
<time>2019-09-29T13:38:13Z</time>
</trkpt>
<trkpt lat="48.580828" lon="9.91151">
<ele>691</ele>
<time>2019-09-29T13:38:18Z</time>
</trkpt>
<trkpt lat="48.580827" lon="9.911545">
<ele>691</ele>
<time>2019-09-29T13:38:23Z</time>
</trkpt>
<trkpt lat="48.580827" lon="9.911543">
<ele>691</ele>
<time>2019-09-29T13:38:28Z</time>
</trkpt>
<trkpt lat="48.580827" lon="9.911542">
<ele>691</ele>
<time>2019-09-29T13:38:33Z</time>
</trkpt>
<trkpt lat="48.580828" lon="9.911542">
<ele>691</ele>
<time>2019-09-29T13:38:38Z</time>
</trkpt>
<trkpt lat="48.580878" lon="9.911643">
<ele>691</ele>
<time>2019-09-29T13:40:28Z</time>
</trkpt>
<trkpt lat="48.580937" lon="9.91184">
<ele>691</ele>
<time>2019-09-29T13:40:33Z</time>
</trkpt>
<trkpt lat="48.581015" lon="9.912085">
<ele>691</ele>
<time>2019-09-29T13:40:38Z</time>
</trkpt>
<trkpt lat="48.581113" lon="9.912357">
<ele>692</ele>
<time>2019-09-29T13:40:43Z</time>
</trkpt>
<trkpt lat="48.58122" lon="9.91262">
<ele>693</ele>
<time>2019-09-29T13:40:48Z</time>
</trkpt>
<trkpt lat="48.581343" lon="9.912932">
<ele>694</ele>
<time>2019-09-29T13:40:54Z</time>
</trkpt>
<trkpt lat="48.581417" lon="9.913208">
<ele>695</ele>
<time>2019-09-29T13:40:59Z</time>
</trkpt>
<trkpt lat="48.581473" lon="9.91347">
<ele>696</ele>
<time>2019-09-29T13:41:04Z</time>
</trkpt>
<trkpt lat="48.581525" lon="9.913742">
<ele>697</ele>
<time>2019-09-29T13:41:09Z</time>
</trkpt>
<trkpt lat="48.581568" lon="9.913985">
<ele>698</ele>
<time>2019-09-29T13:41:14Z</time>
</trkpt>
<trkpt lat="48.581618" lon="9.914257">
<ele>699</ele>
<time>2019-09-29T13:41:19Z</time>
</trkpt>
<trkpt lat="48.581673" lon="9.914518">
<ele>701</ele>
<time>2019-09-29T13:41:24Z</time>
</trkpt>
<trkpt lat="48.581725" lon="9.914787">
<ele>701</ele>
<time>2019-09-29T13:41:29Z</time>
</trkpt>
<trkpt lat="48.58179" lon="9.915042">
<ele>702</ele>
<time>2019-09-29T13:41:34Z</time>
</trkpt>
<trkpt lat="48.581852" lon="9.915292">
<ele>703</ele>
<time>2019-09-29T13:41:39Z</time>
</trkpt>
<trkpt lat="48.581907" lon="9.91551">
<ele>703</ele>
<time>2019-09-29T13:41:44Z</time>
</trkpt>
<trkpt lat="48.581913" lon="9.915713">
<ele>704</ele>
<time>2019-09-29T13:41:50Z</time>
</trkpt>
<trkpt lat="48.582005" lon="9.915825">
<ele>704</ele>
<time>2019-09-29T13:41:55Z</time>
</trkpt>
<trkpt lat="48.582162" lon="9.915895">
<ele>705</ele>
<time>2019-09-29T13:42:00Z</time>
</trkpt>
<trkpt lat="48.58234" lon="9.915977">
<ele>706</ele>
<time>2019-09-29T13:42:05Z</time>
</trkpt>
<trkpt lat="48.582538" lon="9.916082">
<ele>707</ele>
<time>2019-09-29T13:42:10Z</time>
</trkpt>
<trkpt lat="48.582725" lon="9.916178">
<ele>708</ele>
<time>2019-09-29T13:42:15Z</time>
</trkpt>
<trkpt lat="48.582957" lon="9.916305">
<ele>708</ele>
<time>2019-09-29T13:42:20Z</time>
</trkpt>
<trkpt lat="48.583177" lon="9.91645">
<ele>709</ele>
<time>2019-09-29T13:42:25Z</time>
</trkpt>
<trkpt lat="48.583377" lon="9.916587">
<ele>709</ele>
<time>2019-09-29T13:42:30Z</time>
</trkpt>
<trkpt lat="48.583623" lon="9.916837">
<ele>710</ele>
<time>2019-09-29T13:42:36Z</time>
</trkpt>
<trkpt lat="48.583795" lon="9.917105">
<ele>711</ele>
<time>2019-09-29T13:42:41Z</time>
</trkpt>
<trkpt lat="48.58395" lon="9.917387">
<ele>711</ele>
<time>2019-09-29T13:42:46Z</time>
</trkpt>
<trkpt lat="48.584158" lon="9.917658">
<ele>712</ele>
<time>2019-09-29T13:42:51Z</time>
</trkpt>
<trkpt lat="48.58442" lon="9.917882">
<ele>712</ele>
<time>2019-09-29T13:42:56Z</time>
</trkpt>
<trkpt lat="48.584733" lon="9.91803">
<ele>712</ele>
<time>2019-09-29T13:43:01Z</time>
</trkpt>
<trkpt lat="48.585032" lon="9.918148">
<ele>712</ele>
<time>2019-09-29T13:43:06Z</time>
</trkpt>
<trkpt lat="48.58532" lon="9.918262">
<ele>712</ele>
<time>2019-09-29T13:43:11Z</time>
</trkpt>
<trkpt lat="48.585627" lon="9.918387">
<ele>713</ele>
<time>2019-09-29T13:43:17Z</time>
</trkpt>
<trkpt lat="48.585877" lon="9.918503">
<ele>715</ele>
<time>2019-09-29T13:43:22Z</time>
</trkpt>
<trkpt lat="48.586123" lon="9.918665">
<ele>716</ele>
<time>2019-09-29T13:43:27Z</time>
</trkpt>
<trkpt lat="48.58635" lon="9.918878">
<ele>716</ele>
<time>2019-09-29T13:43:32Z</time>
</trkpt>
<trkpt lat="48.586562" lon="9.919142">
<ele>717</ele>
<time>2019-09-29T13:43:37Z</time>
</trkpt>
<trkpt lat="48.586753" lon="9.91945">
<ele>717</ele>
<time>2019-09-29T13:43:42Z</time>
</trkpt>
<trkpt lat="48.58699" lon="9.91983">
<ele>718</ele>
<time>2019-09-29T13:43:48Z</time>
</trkpt>
<trkpt lat="48.587223" lon="9.920122">
<ele>718</ele>
<time>2019-09-29T13:43:53Z</time>
</trkpt>
<trkpt lat="48.587498" lon="9.920352">
<ele>718</ele>
<time>2019-09-29T13:43:58Z</time>
</trkpt>
<trkpt lat="48.587813" lon="9.920503">
<ele>718</ele>
<time>2019-09-29T13:44:03Z</time>
</trkpt>
<trkpt lat="48.588152" lon="9.920572">
<ele>719</ele>
<time>2019-09-29T13:44:08Z</time>
</trkpt>
<trkpt lat="48.588502" lon="9.920542">
<ele>719</ele>
<time>2019-09-29T13:44:13Z</time>
</trkpt>
<trkpt lat="48.58885" lon="9.920403">
<ele>719</ele>
<time>2019-09-29T13:44:18Z</time>
</trkpt>
<trkpt lat="48.589265" lon="9.920157">
<ele>719</ele>
<time>2019-09-29T13:44:24Z</time>
</trkpt>
<trkpt lat="48.58972" lon="9.919878">
<ele>717</ele>
<time>2019-09-29T13:44:30Z</time>
</trkpt>
<trkpt lat="48.590138" lon="9.919652">
<ele>717</ele>
<time>2019-09-29T13:44:35Z</time>
</trkpt>
<trkpt lat="48.590537" lon="9.91944">
<ele>717</ele>
<time>2019-09-29T13:44:40Z</time>
</trkpt>
<trkpt lat="48.591008" lon="9.91921">
<ele>717</ele>
<time>2019-09-29T13:44:46Z</time>
</trkpt>
<trkpt lat="48.591418" lon="9.91902">
<ele>716</ele>
<time>2019-09-29T13:44:51Z</time>
</trkpt>
<trkpt lat="48.591855" lon="9.918838">
<ele>714</ele>
<time>2019-09-29T13:44:56Z</time>
</trkpt>
<trkpt lat="48.592393" lon="9.918628">
<ele>712</ele>
<time>2019-09-29T13:45:02Z</time>
</trkpt>
<trkpt lat="48.592815" lon="9.918503">
<ele>712</ele>
<time>2019-09-29T13:45:07Z</time>
</trkpt>
<trkpt lat="48.593197" lon="9.918395">
<ele>712</ele>
<time>2019-09-29T13:45:12Z</time>
</trkpt>
<trkpt lat="48.593482" lon="9.918283">
<ele>714</ele>
<time>2019-09-29T13:45:17Z</time>
</trkpt>
<trkpt lat="48.593672" lon="9.918057">
<ele>716</ele>
<time>2019-09-29T13:45:23Z</time>
</trkpt>
<trkpt lat="48.593765" lon="9.917833">
<ele>717</ele>
<time>2019-09-29T13:45:28Z</time>
</trkpt>
<trkpt lat="48.59392" lon="9.917638">
<ele>719</ele>
<time>2019-09-29T13:45:33Z</time>
</trkpt>
<trkpt lat="48.594172" lon="9.917587">
<ele>720</ele>
<time>2019-09-29T13:45:39Z</time>
</trkpt>
<trkpt lat="48.594428" lon="9.9176">
<ele>720</ele>
<time>2019-09-29T13:45:45Z</time>
</trkpt>
<trkpt lat="48.594687" lon="9.917587">
<ele>720</ele>
<time>2019-09-29T13:45:50Z</time>
</trkpt>
<trkpt lat="48.594948" lon="9.917353">
<ele>720</ele>
<time>2019-09-29T13:45:55Z</time>
</trkpt>
<trkpt lat="48.595205" lon="9.916933">
<ele>718</ele>
<time>2019-09-29T13:46:00Z</time>
</trkpt>
<trkpt lat="48.5956" lon="9.916682">
<ele>716</ele>
<time>2019-09-29T13:46:05Z</time>
</trkpt>
<trkpt lat="48.595985" lon="9.916012">
<ele>714</ele>
<time>2019-09-29T13:46:11Z</time>
</trkpt>
<trkpt lat="48.596305" lon="9.915342">
<ele>710</ele>
<time>2019-09-29T13:46:16Z</time>
</trkpt>
<trkpt lat="48.596823" lon="9.914883">
<ele>708</ele>
<time>2019-09-29T13:46:21Z</time>
</trkpt>
<trkpt lat="48.597447" lon="9.91486">
<ele>703</ele>
<time>2019-09-29T13:46:26Z</time>
</trkpt>
<trkpt lat="48.598035" lon="9.915172">
<ele>702</ele>
<time>2019-09-29T13:46:31Z</time>
</trkpt>
<trkpt lat="48.5986" lon="9.915522">
<ele>699</ele>
<time>2019-09-29T13:46:36Z</time>
</trkpt>
<trkpt lat="48.599113" lon="9.915825">
<ele>699</ele>
<time>2019-09-29T13:46:41Z</time>
</trkpt>
<trkpt lat="48.599602" lon="9.915967">
<ele>697</ele>
<time>2019-09-29T13:46:46Z</time>
</trkpt>
<trkpt lat="48.600073" lon="9.915897">
<ele>696</ele>
<time>2019-09-29T13:46:51Z</time>
</trkpt>
<trkpt lat="48.600488" lon="9.915655">
<ele>697</ele>
<time>2019-09-29T13:46:56Z</time>
</trkpt>
<trkpt lat="48.600843" lon="9.91536">
<ele>697</ele>
<time>2019-09-29T13:47:01Z</time>
</trkpt>
<trkpt lat="48.601148" lon="9.915092">
<ele>697</ele>
<time>2019-09-29T13:47:06Z</time>
</trkpt>
<trkpt lat="48.601427" lon="9.914867">
<ele>699</ele>
<time>2019-09-29T13:47:11Z</time>
</trkpt>
<trkpt lat="48.601693" lon="9.914667">
<ele>699</ele>
<time>2019-09-29T13:47:16Z</time>
</trkpt>
<trkpt lat="48.601947" lon="9.91446">
<ele>700</ele>
<time>2019-09-29T13:47:21Z</time>
</trkpt>
<trkpt lat="48.602208" lon="9.914247">
<ele>700</ele>
<time>2019-09-29T13:47:26Z</time>
</trkpt>
<trkpt lat="48.602483" lon="9.914025">
<ele>700</ele>
<time>2019-09-29T13:47:31Z</time>
</trkpt>
<trkpt lat="48.602777" lon="9.913803">
<ele>701</ele>
<time>2019-09-29T13:47:36Z</time>
</trkpt>
<trkpt lat="48.603102" lon="9.913588">
<ele>701</ele>
<time>2019-09-29T13:47:41Z</time>
</trkpt>
<trkpt lat="48.603468" lon="9.913427">
<ele>699</ele>
<time>2019-09-29T13:47:46Z</time>
</trkpt>
<trkpt lat="48.603852" lon="9.913308">
<ele>697</ele>
<time>2019-09-29T13:47:51Z</time>
</trkpt>
<trkpt lat="48.60424" lon="9.91319">
<ele>697</ele>
<time>2019-09-29T13:47:57Z</time>
</trkpt>
<trkpt lat="48.604518" lon="9.913118">
<ele>697</ele>
<time>2019-09-29T13:48:02Z</time>
</trkpt>
<trkpt lat="48.604787" lon="9.913038">
<ele>697</ele>
<time>2019-09-29T13:48:07Z</time>
</trkpt>
<trkpt lat="48.605045" lon="9.91296">
<ele>697</ele>
<time>2019-09-29T13:48:12Z</time>
</trkpt>
<trkpt lat="48.605305" lon="9.912855">
<ele>697</ele>
<time>2019-09-29T13:48:17Z</time>
</trkpt>
<trkpt lat="48.605552" lon="9.912772">
<ele>697</ele>
<time>2019-09-29T13:48:22Z</time>
</trkpt>
<trkpt lat="48.605767" lon="9.912683">
<ele>698</ele>
<time>2019-09-29T13:48:27Z</time>
</trkpt>
<trkpt lat="48.605968" lon="9.912597">
<ele>699</ele>
<time>2019-09-29T13:48:32Z</time>
</trkpt>
<trkpt lat="48.606207" lon="9.912493">
<ele>700</ele>
<time>2019-09-29T13:48:38Z</time>
</trkpt>
<trkpt lat="48.606435" lon="9.912397">
<ele>701</ele>
<time>2019-09-29T13:48:44Z</time>
</trkpt>
<trkpt lat="48.606655" lon="9.912312">
<ele>702</ele>
<time>2019-09-29T13:48:50Z</time>
</trkpt>
<trkpt lat="48.60683" lon="9.912245">
<ele>703</ele>
<time>2019-09-29T13:48:55Z</time>
</trkpt>
<trkpt lat="48.606992" lon="9.9122">
<ele>704</ele>
<time>2019-09-29T13:49:00Z</time>
</trkpt>
<trkpt lat="48.607147" lon="9.912185">
<ele>705</ele>
<time>2019-09-29T13:49:05Z</time>
</trkpt>
<trkpt lat="48.607282" lon="9.91218">
<ele>706</ele>
<time>2019-09-29T13:49:10Z</time>
</trkpt>
<trkpt lat="48.607442" lon="9.912177">
<ele>707</ele>
<time>2019-09-29T13:49:16Z</time>
</trkpt>
<trkpt lat="48.60758" lon="9.91216">
<ele>708</ele>
<time>2019-09-29T13:49:21Z</time>
</trkpt>
<trkpt lat="48.607743" lon="9.912152">
<ele>710</ele>
<time>2019-09-29T13:49:27Z</time>
</trkpt>
<trkpt lat="48.607888" lon="9.912142">
<ele>711</ele>
<time>2019-09-29T13:49:32Z</time>
</trkpt>
<trkpt lat="48.608043" lon="9.912127">
<ele>712</ele>
<time>2019-09-29T13:49:37Z</time>
</trkpt>
<trkpt lat="48.60822" lon="9.912105">
<ele>713</ele>
<time>2019-09-29T13:49:42Z</time>
</trkpt>
<trkpt lat="48.608462" lon="9.912087">
<ele>714</ele>
<time>2019-09-29T13:49:48Z</time>
</trkpt>
<trkpt lat="48.608688" lon="9.91207">
<ele>715</ele>
<time>2019-09-29T13:49:53Z</time>
</trkpt>
<trkpt lat="48.608937" lon="9.912047">
<ele>715</ele>
<time>2019-09-29T13:49:58Z</time>
</trkpt>
<trkpt lat="48.609182" lon="9.912027">
<ele>716</ele>
<time>2019-09-29T13:50:03Z</time>
</trkpt>
<trkpt lat="48.609408" lon="9.912015">
<ele>716</ele>
<time>2019-09-29T13:50:08Z</time>
</trkpt>
<trkpt lat="48.609608" lon="9.91204">
<ele>716</ele>
<time>2019-09-29T13:50:13Z</time>
</trkpt>
<trkpt lat="48.609853" lon="9.912067">
<ele>716</ele>
<time>2019-09-29T13:50:19Z</time>
</trkpt>
<trkpt lat="48.610055" lon="9.912097">
<ele>716</ele>
<time>2019-09-29T13:50:24Z</time>
</trkpt>
<trkpt lat="48.610292" lon="9.912118">
<ele>717</ele>
<time>2019-09-29T13:50:30Z</time>
</trkpt>
<trkpt lat="48.61046" lon="9.912133">
<ele>718</ele>
<time>2019-09-29T13:50:35Z</time>
</trkpt>
<trkpt lat="48.610625" lon="9.912163">
<ele>719</ele>
<time>2019-09-29T13:50:40Z</time>
</trkpt>
<trkpt lat="48.610925" lon="9.912198">
<ele>719</ele>
<time>2019-09-29T13:50:46Z</time>
</trkpt>
<trkpt lat="48.611233" lon="9.91219">
<ele>719</ele>
<time>2019-09-29T13:50:52Z</time>
</trkpt>
<trkpt lat="48.61147" lon="9.91211">
<ele>719</ele>
<time>2019-09-29T13:50:57Z</time>
</trkpt>
<trkpt lat="48.611708" lon="9.912">
<ele>719</ele>
<time>2019-09-29T13:51:02Z</time>
</trkpt>
<trkpt lat="48.61199" lon="9.911827">
<ele>719</ele>
<time>2019-09-29T13:51:08Z</time>
</trkpt>
<trkpt lat="48.612228" lon="9.911693">
<ele>719</ele>
<time>2019-09-29T13:51:13Z</time>
</trkpt>
<trkpt lat="48.612485" lon="9.911655">
<ele>719</ele>
<time>2019-09-29T13:51:18Z</time>
</trkpt>
<trkpt lat="48.612735" lon="9.911733">
<ele>717</ele>
<time>2019-09-29T13:51:23Z</time>
</trkpt>
<trkpt lat="48.612992" lon="9.9119">
<ele>717</ele>
<time>2019-09-29T13:51:28Z</time>
</trkpt>
<trkpt lat="48.613268" lon="9.912178">
<ele>717</ele>
<time>2019-09-29T13:51:33Z</time>
</trkpt>
<trkpt lat="48.613542" lon="9.91259">
<ele>715</ele>
<time>2019-09-29T13:51:38Z</time>
</trkpt>
<trkpt lat="48.613745" lon="9.913132">
<ele>713</ele>
<time>2019-09-29T13:51:43Z</time>
</trkpt>
<trkpt lat="48.613808" lon="9.913747">
<ele>713</ele>
<time>2019-09-29T13:51:48Z</time>
</trkpt>
<trkpt lat="48.613863" lon="9.914408">
<ele>710</ele>
<time>2019-09-29T13:51:53Z</time>
</trkpt>
<trkpt lat="48.614008" lon="9.915107">
<ele>709</ele>
<time>2019-09-29T13:51:58Z</time>
</trkpt>
<trkpt lat="48.614238" lon="9.91575">
<ele>707</ele>
<time>2019-09-29T13:52:03Z</time>
</trkpt>
<trkpt lat="48.614672" lon="9.916098">
<ele>705</ele>
<time>2019-09-29T13:52:08Z</time>
</trkpt>
<trkpt lat="48.615147" lon="9.915952">
<ele>703</ele>
<time>2019-09-29T13:52:13Z</time>
</trkpt>
<trkpt lat="48.61561" lon="9.915452">
<ele>703</ele>
<time>2019-09-29T13:52:19Z</time>
</trkpt>
<trkpt lat="48.615878" lon="9.915172">
<ele>703</ele>
<time>2019-09-29T13:52:24Z</time>
</trkpt>
<trkpt lat="48.616055" lon="9.915012">
<ele>704</ele>
<time>2019-09-29T13:52:29Z</time>
</trkpt>
<trkpt lat="48.6162" lon="9.914857">
<ele>706</ele>
<time>2019-09-29T13:52:34Z</time>
</trkpt>
<trkpt lat="48.616343" lon="9.91468">
<ele>708</ele>
<time>2019-09-29T13:52:40Z</time>
</trkpt>
<trkpt lat="48.616468" lon="9.914518">
<ele>710</ele>
<time>2019-09-29T13:52:45Z</time>
</trkpt>
<trkpt lat="48.6166" lon="9.914393">
<ele>711</ele>
<time>2019-09-29T13:52:50Z</time>
</trkpt>
<trkpt lat="48.616748" lon="9.914307">
<ele>712</ele>
<time>2019-09-29T13:52:55Z</time>
</trkpt>
<trkpt lat="48.6169" lon="9.914243">
<ele>713</ele>
<time>2019-09-29T13:53:00Z</time>
</trkpt>
<trkpt lat="48.617087" lon="9.91419">
<ele>714</ele>
<time>2019-09-29T13:53:06Z</time>
</trkpt>
<trkpt lat="48.617262" lon="9.91414">
<ele>715</ele>
<time>2019-09-29T13:53:11Z</time>
</trkpt>
<trkpt lat="48.617475" lon="9.914103">
<ele>715</ele>
<time>2019-09-29T13:53:16Z</time>
</trkpt>
<trkpt lat="48.61771" lon="9.914055">
<ele>716</ele>
<time>2019-09-29T13:53:21Z</time>
</trkpt>
<trkpt lat="48.61793" lon="9.914018">
<ele>717</ele>
<time>2019-09-29T13:53:26Z</time>
</trkpt>
<trkpt lat="48.618185" lon="9.913967">
<ele>719</ele>
<time>2019-09-29T13:53:32Z</time>
</trkpt>
<trkpt lat="48.618402" lon="9.91392">
<ele>720</ele>
<time>2019-09-29T13:53:37Z</time>
</trkpt>
<trkpt lat="48.618613" lon="9.913878">
<ele>720</ele>
<time>2019-09-29T13:53:42Z</time>
</trkpt>
<trkpt lat="48.618847" lon="9.913833">
<ele>721</ele>
<time>2019-09-29T13:53:47Z</time>
</trkpt>
<trkpt lat="48.619098" lon="9.913775">
<ele>721</ele>
<time>2019-09-29T13:53:52Z</time>
</trkpt>
<trkpt lat="48.619373" lon="9.913703">
<ele>721</ele>
<time>2019-09-29T13:53:57Z</time>
</trkpt>
<trkpt lat="48.619658" lon="9.913625">
<ele>721</ele>
<time>2019-09-29T13:54:02Z</time>
</trkpt>
<trkpt lat="48.620015" lon="9.913518">
<ele>720</ele>
<time>2019-09-29T13:54:08Z</time>
</trkpt>
<trkpt lat="48.620343" lon="9.913413">
<ele>719</ele>
<time>2019-09-29T13:54:13Z</time>
</trkpt>
<trkpt lat="48.620758" lon="9.913293">
<ele>717</ele>
<time>2019-09-29T13:54:19Z</time>
</trkpt>
<trkpt lat="48.621117" lon="9.913183">
<ele>717</ele>
<time>2019-09-29T13:54:24Z</time>
</trkpt>
<trkpt lat="48.621503" lon="9.913077">
<ele>716</ele>
<time>2019-09-29T13:54:29Z</time>
</trkpt>
<trkpt lat="48.621902" lon="9.913082">
<ele>715</ele>
<time>2019-09-29T13:54:34Z</time>
</trkpt>
<trkpt lat="48.622245" lon="9.913238">
<ele>715</ele>
<time>2019-09-29T13:54:39Z</time>
</trkpt>
<trkpt lat="48.62259" lon="9.91348">
<ele>715</ele>
<time>2019-09-29T13:54:45Z</time>
</trkpt>
<trkpt lat="48.622818" lon="9.913633">
<ele>716</ele>
<time>2019-09-29T13:54:50Z</time>
</trkpt>
<trkpt lat="48.623063" lon="9.913728">
<ele>718</ele>
<time>2019-09-29T13:54:55Z</time>
</trkpt>
<trkpt lat="48.623308" lon="9.91378">
<ele>719</ele>
<time>2019-09-29T13:55:00Z</time>
</trkpt>
<trkpt lat="48.623535" lon="9.913762">
<ele>719</ele>
<time>2019-09-29T13:55:05Z</time>
</trkpt>
<trkpt lat="48.623792" lon="9.913703">
<ele>720</ele>
<time>2019-09-29T13:55:10Z</time>
</trkpt>
<trkpt lat="48.624087" lon="9.913623">
<ele>720</ele>
<time>2019-09-29T13:55:15Z</time>
</trkpt>
<trkpt lat="48.624425" lon="9.913545">
<ele>720</ele>
<time>2019-09-29T13:55:20Z</time>
</trkpt>
<trkpt lat="48.624805" lon="9.913457">
<ele>718</ele>
<time>2019-09-29T13:55:25Z</time>
</trkpt>
<trkpt lat="48.625218" lon="9.91334">
<ele>716</ele>
<time>2019-09-29T13:55:30Z</time>
</trkpt>
<trkpt lat="48.62566" lon="9.91315">
<ele>713</ele>
<time>2019-09-29T13:55:35Z</time>
</trkpt>
<trkpt lat="48.626107" lon="9.912923">
<ele>711</ele>
<time>2019-09-29T13:55:40Z</time>
</trkpt>
<trkpt lat="48.626535" lon="9.912715">
<ele>711</ele>
<time>2019-09-29T13:55:46Z</time>
</trkpt>
<trkpt lat="48.626813" lon="9.912583">
<ele>711</ele>
<time>2019-09-29T13:55:51Z</time>
</trkpt>
<trkpt lat="48.627037" lon="9.912473">
<ele>711</ele>
<time>2019-09-29T13:55:56Z</time>
</trkpt>
<trkpt lat="48.627278" lon="9.912382">
<ele>711</ele>
<time>2019-09-29T13:56:02Z</time>
</trkpt>
<trkpt lat="48.627497" lon="9.912275">
<ele>712</ele>
<time>2019-09-29T13:56:07Z</time>
</trkpt>
<trkpt lat="48.627743" lon="9.912192">
<ele>713</ele>
<time>2019-09-29T13:56:12Z</time>
</trkpt>
<trkpt lat="48.628048" lon="9.912095">
<ele>713</ele>
<time>2019-09-29T13:56:17Z</time>
</trkpt>
<trkpt lat="48.628383" lon="9.912012">
<ele>713</ele>
<time>2019-09-29T13:56:22Z</time>
</trkpt>
<trkpt lat="48.628747" lon="9.91197">
<ele>711</ele>
<time>2019-09-29T13:56:27Z</time>
</trkpt>
<trkpt lat="48.629118" lon="9.911953">
<ele>709</ele>
<time>2019-09-29T13:56:32Z</time>
</trkpt>
<trkpt lat="48.629492" lon="9.911938">
<ele>710</ele>
<time>2019-09-29T13:56:37Z</time>
</trkpt>
<trkpt lat="48.629877" lon="9.911922">
<ele>710</ele>
<time>2019-09-29T13:56:42Z</time>
</trkpt>
<trkpt lat="48.630265" lon="9.911892">
<ele>710</ele>
<time>2019-09-29T13:56:47Z</time>
</trkpt>
<trkpt lat="48.630638" lon="9.911867">
<ele>707</ele>
<time>2019-09-29T13:56:52Z</time>
</trkpt>
<trkpt lat="48.631002" lon="9.911828">
<ele>707</ele>
<time>2019-09-29T13:56:57Z</time>
</trkpt>
<trkpt lat="48.631357" lon="9.911797">
<ele>707</ele>
<time>2019-09-29T13:57:02Z</time>
</trkpt>
<trkpt lat="48.631702" lon="9.911768">
<ele>706</ele>
<time>2019-09-29T13:57:07Z</time>
</trkpt>
<trkpt lat="48.632062" lon="9.911725">
<ele>705</ele>
<time>2019-09-29T13:57:12Z</time>
</trkpt>
<trkpt lat="48.632417" lon="9.911685">
<ele>705</ele>
<time>2019-09-29T13:57:17Z</time>
</trkpt>
<trkpt lat="48.632753" lon="9.911627">
<ele>704</ele>
<time>2019-09-29T13:57:22Z</time>
</trkpt>
<trkpt lat="48.633092" lon="9.911547">
<ele>704</ele>
<time>2019-09-29T13:57:27Z</time>
</trkpt>
<trkpt lat="48.63343" lon="9.91141">
<ele>704</ele>
<time>2019-09-29T13:57:32Z</time>
</trkpt>
<trkpt lat="48.633775" lon="9.911267">
<ele>703</ele>
<time>2019-09-29T13:57:37Z</time>
</trkpt>
<trkpt lat="48.634102" lon="9.91113">
<ele>701</ele>
<time>2019-09-29T13:57:42Z</time>
</trkpt>
<trkpt lat="48.634412" lon="9.911003">
<ele>701</ele>
<time>2019-09-29T13:57:47Z</time>
</trkpt>
<trkpt lat="48.634717" lon="9.910903">
<ele>701</ele>
<time>2019-09-29T13:57:52Z</time>
</trkpt>
<trkpt lat="48.635017" lon="9.910832">
<ele>701</ele>
<time>2019-09-29T13:57:57Z</time>
</trkpt>
<trkpt lat="48.635313" lon="9.910823">
<ele>701</ele>
<time>2019-09-29T13:58:02Z</time>
</trkpt>
<trkpt lat="48.635663" lon="9.91075">
<ele>701</ele>
<time>2019-09-29T13:58:08Z</time>
</trkpt>
<trkpt lat="48.635968" lon="9.910695">
<ele>701</ele>
<time>2019-09-29T13:58:13Z</time>
</trkpt>
<trkpt lat="48.636297" lon="9.910647">
<ele>701</ele>
<time>2019-09-29T13:58:18Z</time>
</trkpt>
<trkpt lat="48.636652" lon="9.910657">
<ele>699</ele>
<time>2019-09-29T13:58:23Z</time>
</trkpt>
<trkpt lat="48.63704" lon="9.910742">
<ele>699</ele>
<time>2019-09-29T13:58:28Z</time>
</trkpt>
<trkpt lat="48.637425" lon="9.910862">
<ele>698</ele>
<time>2019-09-29T13:58:33Z</time>
</trkpt>
<trkpt lat="48.637805" lon="9.911002">
<ele>698</ele>
<time>2019-09-29T13:58:38Z</time>
</trkpt>
<trkpt lat="48.638157" lon="9.911158">
<ele>698</ele>
<time>2019-09-29T13:58:43Z</time>
</trkpt>
<trkpt lat="48.638457" lon="9.911342">
<ele>699</ele>
<time>2019-09-29T13:58:48Z</time>
</trkpt>
<trkpt lat="48.638722" lon="9.911543">
<ele>700</ele>
<time>2019-09-29T13:58:53Z</time>
</trkpt>
<trkpt lat="48.638957" lon="9.911765">
<ele>701</ele>
<time>2019-09-29T13:58:58Z</time>
</trkpt>
<trkpt lat="48.639178" lon="9.912022">
<ele>701</ele>
<time>2019-09-29T13:59:03Z</time>
</trkpt>
<trkpt lat="48.639385" lon="9.912292">
<ele>702</ele>
<time>2019-09-29T13:59:08Z</time>
</trkpt>
<trkpt lat="48.639575" lon="9.912572">
<ele>702</ele>
<time>2019-09-29T13:59:13Z</time>
</trkpt>
<trkpt lat="48.639792" lon="9.912957">
<ele>703</ele>
<time>2019-09-29T13:59:19Z</time>
</trkpt>
<trkpt lat="48.639963" lon="9.913305">
<ele>703</ele>
<time>2019-09-29T13:59:24Z</time>
</trkpt>
<trkpt lat="48.640118" lon="9.913673">
<ele>703</ele>
<time>2019-09-29T13:59:29Z</time>
</trkpt>
<trkpt lat="48.640262" lon="9.914017">
<ele>703</ele>
<time>2019-09-29T13:59:34Z</time>
</trkpt>
<trkpt lat="48.640385" lon="9.91434">
<ele>703</ele>
<time>2019-09-29T13:59:39Z</time>
</trkpt>
<trkpt lat="48.640503" lon="9.914698">
<ele>703</ele>
<time>2019-09-29T13:59:44Z</time>
</trkpt>
<trkpt lat="48.640622" lon="9.915135">
<ele>703</ele>
<time>2019-09-29T13:59:49Z</time>
</trkpt>
<trkpt lat="48.64074" lon="9.915618">
<ele>703</ele>
<time>2019-09-29T13:59:54Z</time>
</trkpt>
<trkpt lat="48.640838" lon="9.916112">
<ele>703</ele>
<time>2019-09-29T13:59:59Z</time>
</trkpt>
<trkpt lat="48.64093" lon="9.916547">
<ele>703</ele>
<time>2019-09-29T14:00:04Z</time>
</trkpt>
<trkpt lat="48.641005" lon="9.916935">
<ele>703</ele>
<time>2019-09-29T14:00:09Z</time>
</trkpt>
<trkpt lat="48.641078" lon="9.917313">
<ele>703</ele>
<time>2019-09-29T14:00:14Z</time>
</trkpt>
<trkpt lat="48.641172" lon="9.917663">
<ele>702</ele>
<time>2019-09-29T14:00:19Z</time>
</trkpt>
<trkpt lat="48.641408" lon="9.917753">
<ele>702</ele>
<time>2019-09-29T14:00:24Z</time>
</trkpt>
<trkpt lat="48.641667" lon="9.91769">
<ele>702</ele>
<time>2019-09-29T14:00:29Z</time>
</trkpt>
<trkpt lat="48.641975" lon="9.91762">
<ele>702</ele>
<time>2019-09-29T14:00:34Z</time>
</trkpt>
<trkpt lat="48.642303" lon="9.91755">
<ele>701</ele>
<time>2019-09-29T14:00:39Z</time>
</trkpt>
<trkpt lat="48.642652" lon="9.917485">
<ele>700</ele>
<time>2019-09-29T14:00:44Z</time>
</trkpt>
<trkpt lat="48.643012" lon="9.917412">
<ele>699</ele>
<time>2019-09-29T14:00:49Z</time>
</trkpt>
<trkpt lat="48.643397" lon="9.917375">
<ele>698</ele>
<time>2019-09-29T14:00:54Z</time>
</trkpt>
<trkpt lat="48.643772" lon="9.917392">
<ele>698</ele>
<time>2019-09-29T14:00:59Z</time>
</trkpt>
<trkpt lat="48.644115" lon="9.917457">
<ele>698</ele>
<time>2019-09-29T14:01:04Z</time>
</trkpt>
<trkpt lat="48.644477" lon="9.917547">
<ele>698</ele>
<time>2019-09-29T14:01:09Z</time>
</trkpt>
<trkpt lat="48.644875" lon="9.91766">
<ele>695</ele>
<time>2019-09-29T14:01:14Z</time>
</trkpt>
<trkpt lat="48.645275" lon="9.917778">
<ele>693</ele>
<time>2019-09-29T14:01:19Z</time>
</trkpt>
<trkpt lat="48.64572" lon="9.917897">
<ele>690</ele>
<time>2019-09-29T14:01:24Z</time>
</trkpt>
<trkpt lat="48.646198" lon="9.918033">
<ele>688</ele>
<time>2019-09-29T14:01:29Z</time>
</trkpt>
<trkpt lat="48.64671" lon="9.918143">
<ele>686</ele>
<time>2019-09-29T14:01:34Z</time>
</trkpt>
<trkpt lat="48.647233" lon="9.918193">
<ele>685</ele>
<time>2019-09-29T14:01:39Z</time>
</trkpt>
<trkpt lat="48.64773" lon="9.918177">
<ele>683</ele>
<time>2019-09-29T14:01:44Z</time>
</trkpt>
<trkpt lat="48.648173" lon="9.918095">
<ele>683</ele>
<time>2019-09-29T14:01:49Z</time>
</trkpt>
<trkpt lat="48.648543" lon="9.91802">
<ele>682</ele>
<time>2019-09-29T14:01:54Z</time>
</trkpt>
<trkpt lat="48.648888" lon="9.917953">
<ele>682</ele>
<time>2019-09-29T14:01:59Z</time>
</trkpt>
<trkpt lat="48.649258" lon="9.917913">
<ele>682</ele>
<time>2019-09-29T14:02:04Z</time>
</trkpt>
<trkpt lat="48.649638" lon="9.917938">
<ele>680</ele>
<time>2019-09-29T14:02:09Z</time>
</trkpt>
<trkpt lat="48.650015" lon="9.918037">
<ele>680</ele>
<time>2019-09-29T14:02:14Z</time>
</trkpt>
<trkpt lat="48.650428" lon="9.918152">
<ele>679</ele>
<time>2019-09-29T14:02:19Z</time>
</trkpt>
<trkpt lat="48.650932" lon="9.91808">
<ele>675</ele>
<time>2019-09-29T14:02:24Z</time>
</trkpt>
<trkpt lat="48.65148" lon="9.917868">
<ele>671</ele>
<time>2019-09-29T14:02:29Z</time>
</trkpt>
<trkpt lat="48.652037" lon="9.917663">
<ele>668</ele>
<time>2019-09-29T14:02:34Z</time>
</trkpt>
<trkpt lat="48.65255" lon="9.917538">
<ele>664</ele>
<time>2019-09-29T14:02:39Z</time>
</trkpt>
<trkpt lat="48.652998" lon="9.917852">
<ele>662</ele>
<time>2019-09-29T14:02:44Z</time>
</trkpt>
<trkpt lat="48.6533" lon="9.918582">
<ele>657</ele>
<time>2019-09-29T14:02:49Z</time>
</trkpt>
<trkpt lat="48.653527" lon="9.91948">
<ele>654</ele>
<time>2019-09-29T14:02:54Z</time>
</trkpt>
<trkpt lat="48.65373" lon="9.920297">
<ele>654</ele>
<time>2019-09-29T14:02:59Z</time>
</trkpt>
<trkpt lat="48.65391" lon="9.92092">
<ele>654</ele>
<time>2019-09-29T14:03:04Z</time>
</trkpt>
<trkpt lat="48.654053" lon="9.921222">
<ele>654</ele>
<time>2019-09-29T14:03:09Z</time>
</trkpt>
<trkpt lat="48.654125" lon="9.921342">
<ele>656</ele>
<time>2019-09-29T14:03:14Z</time>
</trkpt>
<trkpt lat="48.654222" lon="9.921437">
<ele>658</ele>
<time>2019-09-29T14:03:19Z</time>
</trkpt>
<trkpt lat="48.654312" lon="9.921537">
<ele>659</ele>
<time>2019-09-29T14:03:24Z</time>
</trkpt>
<trkpt lat="48.654418" lon="9.921595">
<ele>660</ele>
<time>2019-09-29T14:03:29Z</time>
</trkpt>
<trkpt lat="48.65452" lon="9.921625">
<ele>661</ele>
<time>2019-09-29T14:03:34Z</time>
</trkpt>
<trkpt lat="48.654653" lon="9.92162">
<ele>663</ele>
<time>2019-09-29T14:03:39Z</time>
</trkpt>
<trkpt lat="48.654778" lon="9.921623">
<ele>664</ele>
<time>2019-09-29T14:03:44Z</time>
</trkpt>
<trkpt lat="48.654888" lon="9.921597">
<ele>665</ele>
<time>2019-09-29T14:03:49Z</time>
</trkpt>
<trkpt lat="48.655008" lon="9.921552">
<ele>666</ele>
<time>2019-09-29T14:03:54Z</time>
</trkpt>
<trkpt lat="48.655113" lon="9.921482">
<ele>667</ele>
<time>2019-09-29T14:03:59Z</time>
</trkpt>
<trkpt lat="48.65521" lon="9.921377">
<ele>668</ele>
<time>2019-09-29T14:04:04Z</time>
</trkpt>
<trkpt lat="48.655313" lon="9.921257">
<ele>669</ele>
<time>2019-09-29T14:04:09Z</time>
</trkpt>
<trkpt lat="48.655417" lon="9.921122">
<ele>670</ele>
<time>2019-09-29T14:04:14Z</time>
</trkpt>
<trkpt lat="48.655513" lon="9.920978">
<ele>671</ele>
<time>2019-09-29T14:04:19Z</time>
</trkpt>
<trkpt lat="48.655598" lon="9.920852">
<ele>671</ele>
<time>2019-09-29T14:04:24Z</time>
</trkpt>
<trkpt lat="48.655685" lon="9.920732">
<ele>672</ele>
<time>2019-09-29T14:04:29Z</time>
</trkpt>
<trkpt lat="48.655772" lon="9.92062">
<ele>673</ele>
<time>2019-09-29T14:04:34Z</time>
</trkpt>
<trkpt lat="48.65586" lon="9.920497">
<ele>674</ele>
<time>2019-09-29T14:04:39Z</time>
</trkpt>
<trkpt lat="48.65596" lon="9.920397">
<ele>675</ele>
<time>2019-09-29T14:04:44Z</time>
</trkpt>
<trkpt lat="48.656058" lon="9.920298">
<ele>676</ele>
<time>2019-09-29T14:04:49Z</time>
</trkpt>
<trkpt lat="48.65616" lon="9.920225">
<ele>677</ele>
<time>2019-09-29T14:04:54Z</time>
</trkpt>
<trkpt lat="48.656275" lon="9.920158">
<ele>678</ele>
<time>2019-09-29T14:04:59Z</time>
</trkpt>
<trkpt lat="48.656398" lon="9.920118">
<ele>678</ele>
<time>2019-09-29T14:05:04Z</time>
</trkpt>
<trkpt lat="48.656533" lon="9.920092">
<ele>679</ele>
<time>2019-09-29T14:05:09Z</time>
</trkpt>
<trkpt lat="48.656675" lon="9.92007">
<ele>680</ele>
<time>2019-09-29T14:05:14Z</time>
</trkpt>
<trkpt lat="48.656812" lon="9.920063">
<ele>681</ele>
<time>2019-09-29T14:05:19Z</time>
</trkpt>
<trkpt lat="48.65695" lon="9.920073">
<ele>682</ele>
<time>2019-09-29T14:05:24Z</time>
</trkpt>
<trkpt lat="48.657083" lon="9.920097">
<ele>683</ele>
<time>2019-09-29T14:05:29Z</time>
</trkpt>
<trkpt lat="48.657222" lon="9.920128">
<ele>684</ele>
<time>2019-09-29T14:05:34Z</time>
</trkpt>
<trkpt lat="48.657357" lon="9.920153">
<ele>685</ele>
<time>2019-09-29T14:05:39Z</time>
</trkpt>
<trkpt lat="48.657492" lon="9.92018">
<ele>686</ele>
<time>2019-09-29T14:05:44Z</time>
</trkpt>
<trkpt lat="48.657622" lon="9.920203">
<ele>687</ele>
<time>2019-09-29T14:05:49Z</time>
</trkpt>
<trkpt lat="48.657752" lon="9.920227">
<ele>687</ele>
<time>2019-09-29T14:05:54Z</time>
</trkpt>
<trkpt lat="48.657895" lon="9.920238">
<ele>688</ele>
<time>2019-09-29T14:05:59Z</time>
</trkpt>
<trkpt lat="48.658053" lon="9.920255">
<ele>689</ele>
<time>2019-09-29T14:06:04Z</time>
</trkpt>
<trkpt lat="48.658228" lon="9.920265">
<ele>689</ele>
<time>2019-09-29T14:06:09Z</time>
</trkpt>
<trkpt lat="48.6584" lon="9.920253">
<ele>689</ele>
<time>2019-09-29T14:06:14Z</time>
</trkpt>
<trkpt lat="48.658578" lon="9.920252">
<ele>690</ele>
<time>2019-09-29T14:06:19Z</time>
</trkpt>
<trkpt lat="48.658762" lon="9.920247">
<ele>690</ele>
<time>2019-09-29T14:06:24Z</time>
</trkpt>
<trkpt lat="48.658962" lon="9.920243">
<ele>691</ele>
<time>2019-09-29T14:06:29Z</time>
</trkpt>
<trkpt lat="48.65916" lon="9.920258">
<ele>691</ele>
<time>2019-09-29T14:06:34Z</time>
</trkpt>
<trkpt lat="48.659352" lon="9.920313">
<ele>692</ele>
<time>2019-09-29T14:06:39Z</time>
</trkpt>
<trkpt lat="48.659568" lon="9.920427">
<ele>692</ele>
<time>2019-09-29T14:06:44Z</time>
</trkpt>
<trkpt lat="48.65983" lon="9.920637">
<ele>692</ele>
<time>2019-09-29T14:06:49Z</time>
</trkpt>
<trkpt lat="48.660165" lon="9.920933">
<ele>690</ele>
<time>2019-09-29T14:06:54Z</time>
</trkpt>
<trkpt lat="48.660505" lon="9.921195">
<ele>690</ele>
<time>2019-09-29T14:06:59Z</time>
</trkpt>
<trkpt lat="48.660795" lon="9.921313">
<ele>690</ele>
<time>2019-09-29T14:07:04Z</time>
</trkpt>
<trkpt lat="48.661038" lon="9.921355">
<ele>690</ele>
<time>2019-09-29T14:07:09Z</time>
</trkpt>
<trkpt lat="48.66127" lon="9.921387">
<ele>690</ele>
<time>2019-09-29T14:07:14Z</time>
</trkpt>
<trkpt lat="48.661413" lon="9.921407">
<ele>690</ele>
<time>2019-09-29T14:07:19Z</time>
</trkpt>
<trkpt lat="48.661508" lon="9.92142">
<ele>690</ele>
<time>2019-09-29T14:07:24Z</time>
</trkpt>
<trkpt lat="48.661605" lon="9.921218">
<ele>690</ele>
<time>2019-09-29T14:07:29Z</time>
</trkpt>
<trkpt lat="48.661675" lon="9.920885">
<ele>690</ele>
<time>2019-09-29T14:07:34Z</time>
</trkpt>
<trkpt lat="48.661745" lon="9.920527">
<ele>690</ele>
<time>2019-09-29T14:07:39Z</time>
</trkpt>
<trkpt lat="48.661812" lon="9.920188">
<ele>691</ele>
<time>2019-09-29T14:07:44Z</time>
</trkpt>
<trkpt lat="48.661867" lon="9.919895">
<ele>692</ele>
<time>2019-09-29T14:07:49Z</time>
</trkpt>
<trkpt lat="48.661927" lon="9.919607">
<ele>693</ele>
<time>2019-09-29T14:07:54Z</time>
</trkpt>
<trkpt lat="48.661998" lon="9.919323">
<ele>693</ele>
<time>2019-09-29T14:07:59Z</time>
</trkpt>
<trkpt lat="48.662095" lon="9.919035">
<ele>693</ele>
<time>2019-09-29T14:08:04Z</time>
</trkpt>
<trkpt lat="48.662213" lon="9.918748">
<ele>693</ele>
<time>2019-09-29T14:08:09Z</time>
</trkpt>
<trkpt lat="48.662335" lon="9.918458">
<ele>694</ele>
<time>2019-09-29T14:08:14Z</time>
</trkpt>
<trkpt lat="48.66246" lon="9.918167">
<ele>694</ele>
<time>2019-09-29T14:08:19Z</time>
</trkpt>
<trkpt lat="48.662543" lon="9.917873">
<ele>694</ele>
<time>2019-09-29T14:08:24Z</time>
</trkpt>
<trkpt lat="48.662622" lon="9.917585">
<ele>694</ele>
<time>2019-09-29T14:08:29Z</time>
</trkpt>
<trkpt lat="48.662688" lon="9.917278">
<ele>694</ele>
<time>2019-09-29T14:08:34Z</time>
</trkpt>
<trkpt lat="48.66276" lon="9.916972">
<ele>695</ele>
<time>2019-09-29T14:08:39Z</time>
</trkpt>
<trkpt lat="48.662822" lon="9.916673">
<ele>695</ele>
<time>2019-09-29T14:08:44Z</time>
</trkpt>
<trkpt lat="48.662893" lon="9.916383">
<ele>695</ele>
<time>2019-09-29T14:08:49Z</time>
</trkpt>
<trkpt lat="48.662962" lon="9.916122">
<ele>695</ele>
<time>2019-09-29T14:08:54Z</time>
</trkpt>
<trkpt lat="48.663043" lon="9.915878">
<ele>695</ele>
<time>2019-09-29T14:08:59Z</time>
</trkpt>
<trkpt lat="48.663137" lon="9.915613">
<ele>695</ele>
<time>2019-09-29T14:09:04Z</time>
</trkpt>
<trkpt lat="48.663227" lon="9.915368">
<ele>696</ele>
<time>2019-09-29T14:09:09Z</time>
</trkpt>
<trkpt lat="48.663315" lon="9.915118">
<ele>697</ele>
<time>2019-09-29T14:09:14Z</time>
</trkpt>
<trkpt lat="48.663408" lon="9.914865">
<ele>697</ele>
<time>2019-09-29T14:09:19Z</time>
</trkpt>
<trkpt lat="48.663512" lon="9.914615">
<ele>698</ele>
<time>2019-09-29T14:09:24Z</time>
</trkpt>
<trkpt lat="48.663608" lon="9.91436">
<ele>699</ele>
<time>2019-09-29T14:09:29Z</time>
</trkpt>
<trkpt lat="48.663707" lon="9.91412">
<ele>700</ele>
<time>2019-09-29T14:09:34Z</time>
</trkpt>
<trkpt lat="48.663798" lon="9.91389">
<ele>701</ele>
<time>2019-09-29T14:09:39Z</time>
</trkpt>
<trkpt lat="48.663895" lon="9.913647">
<ele>701</ele>
<time>2019-09-29T14:09:44Z</time>
</trkpt>
<trkpt lat="48.663992" lon="9.913402">
<ele>702</ele>
<time>2019-09-29T14:09:49Z</time>
</trkpt>
<trkpt lat="48.66409" lon="9.913155">
<ele>702</ele>
<time>2019-09-29T14:09:54Z</time>
</trkpt>
<trkpt lat="48.664182" lon="9.912912">
<ele>702</ele>
<time>2019-09-29T14:09:59Z</time>
</trkpt>
<trkpt lat="48.664332" lon="9.912685">
<ele>702</ele>
<time>2019-09-29T14:10:04Z</time>
</trkpt>
<trkpt lat="48.66455" lon="9.912567">
<ele>702</ele>
<time>2019-09-29T14:10:09Z</time>
</trkpt>
<trkpt lat="48.664738" lon="9.91252">
<ele>702</ele>
<time>2019-09-29T14:10:14Z</time>
</trkpt>
<trkpt lat="48.664925" lon="9.912712">
<ele>702</ele>
<time>2019-09-29T14:10:19Z</time>
</trkpt>
<trkpt lat="48.665122" lon="9.91303">
<ele>702</ele>
<time>2019-09-29T14:10:24Z</time>
</trkpt>
<trkpt lat="48.665342" lon="9.913323">
<ele>702</ele>
<time>2019-09-29T14:10:29Z</time>
</trkpt>
<trkpt lat="48.665585" lon="9.913592">
<ele>702</ele>
<time>2019-09-29T14:10:34Z</time>
</trkpt>
<trkpt lat="48.665875" lon="9.913855">
<ele>700</ele>
<time>2019-09-29T14:10:39Z</time>
</trkpt>
<trkpt lat="48.666207" lon="9.914157">
<ele>699</ele>
<time>2019-09-29T14:10:44Z</time>
</trkpt>
<trkpt lat="48.666595" lon="9.914418">
<ele>699</ele>
<time>2019-09-29T14:10:49Z</time>
</trkpt>
<trkpt lat="48.666987" lon="9.914632">
<ele>697</ele>
<time>2019-09-29T14:10:54Z</time>
</trkpt>
<trkpt lat="48.667373" lon="9.914827">
<ele>697</ele>
<time>2019-09-29T14:10:59Z</time>
</trkpt>
<trkpt lat="48.667763" lon="9.91501">
<ele>696</ele>
<time>2019-09-29T14:11:04Z</time>
</trkpt>
<trkpt lat="48.66812" lon="9.915188">
<ele>696</ele>
<time>2019-09-29T14:11:09Z</time>
</trkpt>
<trkpt lat="48.668435" lon="9.91533">
<ele>696</ele>
<time>2019-09-29T14:11:14Z</time>
</trkpt>
<trkpt lat="48.668698" lon="9.915458">
<ele>696</ele>
<time>2019-09-29T14:11:19Z</time>
</trkpt>
<trkpt lat="48.668945" lon="9.915595">
<ele>696</ele>
<time>2019-09-29T14:11:24Z</time>
</trkpt>
<trkpt lat="48.669173" lon="9.915708">
<ele>696</ele>
<time>2019-09-29T14:11:29Z</time>
</trkpt>
<trkpt lat="48.669397" lon="9.915823">
<ele>697</ele>
<time>2019-09-29T14:11:34Z</time>
</trkpt>
<trkpt lat="48.66962" lon="9.915947">
<ele>697</ele>
<time>2019-09-29T14:11:39Z</time>
</trkpt>
<trkpt lat="48.669843" lon="9.916088">
<ele>697</ele>
<time>2019-09-29T14:11:44Z</time>
</trkpt>
<trkpt lat="48.670053" lon="9.916218">
<ele>698</ele>
<time>2019-09-29T14:11:49Z</time>
</trkpt>
<trkpt lat="48.670243" lon="9.916337">
<ele>698</ele>
<time>2019-09-29T14:11:54Z</time>
</trkpt>
<trkpt lat="48.67044" lon="9.916462">
<ele>699</ele>
<time>2019-09-29T14:11:59Z</time>
</trkpt>
<trkpt lat="48.670635" lon="9.916567">
<ele>700</ele>
<time>2019-09-29T14:12:04Z</time>
</trkpt>
<trkpt lat="48.670818" lon="9.916683">
<ele>701</ele>
<time>2019-09-29T14:12:09Z</time>
</trkpt>
<trkpt lat="48.670977" lon="9.916803">
<ele>701</ele>
<time>2019-09-29T14:12:14Z</time>
</trkpt>
<trkpt lat="48.671125" lon="9.916918">
<ele>703</ele>
<time>2019-09-29T14:12:19Z</time>
</trkpt>
<trkpt lat="48.671282" lon="9.917038">
<ele>703</ele>
<time>2019-09-29T14:12:24Z</time>
</trkpt>
<trkpt lat="48.671445" lon="9.917175">
<ele>704</ele>
<time>2019-09-29T14:12:29Z</time>
</trkpt>
<trkpt lat="48.671602" lon="9.917308">
<ele>705</ele>
<time>2019-09-29T14:12:34Z</time>
</trkpt>
<trkpt lat="48.671762" lon="9.917438">
<ele>706</ele>
<time>2019-09-29T14:12:39Z</time>
</trkpt>
<trkpt lat="48.671927" lon="9.917568">
<ele>706</ele>
<time>2019-09-29T14:12:44Z</time>
</trkpt>
<trkpt lat="48.67213" lon="9.917735">
<ele>707</ele>
<time>2019-09-29T14:12:50Z</time>
</trkpt>
<trkpt lat="48.672298" lon="9.917892">
<ele>707</ele>
<time>2019-09-29T14:12:55Z</time>
</trkpt>
<trkpt lat="48.672463" lon="9.918052">
<ele>708</ele>
<time>2019-09-29T14:13:00Z</time>
</trkpt>
<trkpt lat="48.67265" lon="9.918247">
<ele>708</ele>
<time>2019-09-29T14:13:05Z</time>
</trkpt>
<trkpt lat="48.672853" lon="9.918445">
<ele>708</ele>
<time>2019-09-29T14:13:10Z</time>
</trkpt>
<trkpt lat="48.673057" lon="9.918655">
<ele>708</ele>
<time>2019-09-29T14:13:15Z</time>
</trkpt>
<trkpt lat="48.67326" lon="9.918878">
<ele>708</ele>
<time>2019-09-29T14:13:20Z</time>
</trkpt>
<trkpt lat="48.673473" lon="9.91911">
<ele>708</ele>
<time>2019-09-29T14:13:25Z</time>
</trkpt>
<trkpt lat="48.673698" lon="9.919352">
<ele>708</ele>
<time>2019-09-29T14:13:30Z</time>
</trkpt>
<trkpt lat="48.673925" lon="9.919608">
<ele>708</ele>
<time>2019-09-29T14:13:35Z</time>
</trkpt>
<trkpt lat="48.674167" lon="9.919883">
<ele>708</ele>
<time>2019-09-29T14:13:40Z</time>
</trkpt>
<trkpt lat="48.674415" lon="9.920155">
<ele>708</ele>
<time>2019-09-29T14:13:45Z</time>
</trkpt>
<trkpt lat="48.674663" lon="9.920408">
<ele>708</ele>
<time>2019-09-29T14:13:50Z</time>
</trkpt>
<trkpt lat="48.674922" lon="9.920645">
<ele>708</ele>
<time>2019-09-29T14:13:55Z</time>
</trkpt>
<trkpt lat="48.675207" lon="9.920878">
<ele>707</ele>
<time>2019-09-29T14:14:00Z</time>
</trkpt>
<trkpt lat="48.675492" lon="9.921113">
<ele>707</ele>
<time>2019-09-29T14:14:05Z</time>
</trkpt>
<trkpt lat="48.675772" lon="9.92134">
<ele>706</ele>
<time>2019-09-29T14:14:10Z</time>
</trkpt>
<trkpt lat="48.676063" lon="9.921572">
<ele>706</ele>
<time>2019-09-29T14:14:15Z</time>
</trkpt>
<trkpt lat="48.676358" lon="9.92183">
<ele>706</ele>
<time>2019-09-29T14:14:20Z</time>
</trkpt>
<trkpt lat="48.676668" lon="9.922158">
<ele>705</ele>
<time>2019-09-29T14:14:25Z</time>
</trkpt>
<trkpt lat="48.67708" lon="9.922643">
<ele>702</ele>
<time>2019-09-29T14:14:31Z</time>
</trkpt>
<trkpt lat="48.67743" lon="9.923118">
<ele>701</ele>
<time>2019-09-29T14:14:36Z</time>
</trkpt>
<trkpt lat="48.677758" lon="9.923592">
<ele>700</ele>
<time>2019-09-29T14:14:41Z</time>
</trkpt>
<trkpt lat="48.678022" lon="9.924007">
<ele>700</ele>
<time>2019-09-29T14:14:46Z</time>
</trkpt>
<trkpt lat="48.678235" lon="9.924373">
<ele>700</ele>
<time>2019-09-29T14:14:51Z</time>
</trkpt>
<trkpt lat="48.678405" lon="9.92467">
<ele>700</ele>
<time>2019-09-29T14:14:56Z</time>
</trkpt>
<trkpt lat="48.678538" lon="9.924905">
<ele>701</ele>
<time>2019-09-29T14:15:01Z</time>
</trkpt>
<trkpt lat="48.678655" lon="9.925123">
<ele>703</ele>
<time>2019-09-29T14:15:06Z</time>
</trkpt>
<trkpt lat="48.678767" lon="9.925337">
<ele>704</ele>
<time>2019-09-29T14:15:11Z</time>
</trkpt>
<trkpt lat="48.678885" lon="9.925543">
<ele>705</ele>
<time>2019-09-29T14:15:16Z</time>
</trkpt>
<trkpt lat="48.679005" lon="9.925757">
<ele>706</ele>
<time>2019-09-29T14:15:21Z</time>
</trkpt>
<trkpt lat="48.679117" lon="9.92596">
<ele>707</ele>
<time>2019-09-29T14:15:26Z</time>
</trkpt>
<trkpt lat="48.679225" lon="9.926162">
<ele>708</ele>
<time>2019-09-29T14:15:31Z</time>
</trkpt>
<trkpt lat="48.679333" lon="9.92637">
<ele>709</ele>
<time>2019-09-29T14:15:36Z</time>
</trkpt>
<trkpt lat="48.679437" lon="9.926582">
<ele>710</ele>
<time>2019-09-29T14:15:41Z</time>
</trkpt>
<trkpt lat="48.679543" lon="9.926795">
<ele>710</ele>
<time>2019-09-29T14:15:46Z</time>
</trkpt>
<trkpt lat="48.679653" lon="9.926997">
<ele>711</ele>
<time>2019-09-29T14:15:51Z</time>
</trkpt>
<trkpt lat="48.67976" lon="9.927197">
<ele>711</ele>
<time>2019-09-29T14:15:56Z</time>
</trkpt>
<trkpt lat="48.679862" lon="9.927395">
<ele>712</ele>
<time>2019-09-29T14:16:01Z</time>
</trkpt>
<trkpt lat="48.67996" lon="9.927587">
<ele>713</ele>
<time>2019-09-29T14:16:06Z</time>
</trkpt>
<trkpt lat="48.680058" lon="9.927778">
<ele>715</ele>
<time>2019-09-29T14:16:12Z</time>
</trkpt>
<trkpt lat="48.68017" lon="9.927985">
<ele>715</ele>
<time>2019-09-29T14:16:18Z</time>
</trkpt>
<trkpt lat="48.680323" lon="9.928248">
<ele>715</ele>
<time>2019-09-29T14:16:23Z</time>
</trkpt>
<trkpt lat="48.68048" lon="9.928503">
<ele>716</ele>
<time>2019-09-29T14:16:29Z</time>
</trkpt>
<trkpt lat="48.680567" lon="9.928635">
<ele>717</ele>
<time>2019-09-29T14:16:34Z</time>
</trkpt>
<trkpt lat="48.680642" lon="9.928677">
<ele>718</ele>
<time>2019-09-29T14:16:39Z</time>
</trkpt>
<trkpt lat="48.68065" lon="9.928667">
<ele>718</ele>
<time>2019-09-29T14:16:44Z</time>
</trkpt>
<trkpt lat="48.680705" lon="9.928727">
<ele>718</ele>
<time>2019-09-29T14:16:49Z</time>
</trkpt>
<trkpt lat="48.680832" lon="9.928945">
<ele>719</ele>
<time>2019-09-29T14:16:54Z</time>
</trkpt>
<trkpt lat="48.680993" lon="9.929205">
<ele>720</ele>
<time>2019-09-29T14:17:00Z</time>
</trkpt>
<trkpt lat="48.681135" lon="9.929417">
<ele>720</ele>
<time>2019-09-29T14:17:05Z</time>
</trkpt>
<trkpt lat="48.681282" lon="9.929652">
<ele>721</ele>
<time>2019-09-29T14:17:10Z</time>
</trkpt>
<trkpt lat="48.681433" lon="9.929873">
<ele>722</ele>
<time>2019-09-29T14:17:15Z</time>
</trkpt>
<trkpt lat="48.681582" lon="9.930088">
<ele>723</ele>
<time>2019-09-29T14:17:20Z</time>
</trkpt>
<trkpt lat="48.681798" lon="9.930335">
<ele>723</ele>
<time>2019-09-29T14:17:26Z</time>
</trkpt>
<trkpt lat="48.681992" lon="9.930555">
<ele>724</ele>
<time>2019-09-29T14:17:31Z</time>
</trkpt>
<trkpt lat="48.68224" lon="9.930792">
<ele>725</ele>
<time>2019-09-29T14:17:37Z</time>
</trkpt>
<trkpt lat="48.68242" lon="9.93098">
<ele>725</ele>
<time>2019-09-29T14:17:42Z</time>
</trkpt>
<trkpt lat="48.682605" lon="9.931153">
<ele>726</ele>
<time>2019-09-29T14:17:47Z</time>
</trkpt>
<trkpt lat="48.68279" lon="9.931293">
<ele>726</ele>
<time>2019-09-29T14:17:52Z</time>
</trkpt>
<trkpt lat="48.682973" lon="9.931405">
<ele>726</ele>
<time>2019-09-29T14:17:57Z</time>
</trkpt>
<trkpt lat="48.68317" lon="9.931498">
<ele>727</ele>
<time>2019-09-29T14:18:02Z</time>
</trkpt>
<trkpt lat="48.683402" lon="9.931612">
<ele>727</ele>
<time>2019-09-29T14:18:08Z</time>
</trkpt>
<trkpt lat="48.683623" lon="9.931732">
<ele>727</ele>
<time>2019-09-29T14:18:14Z</time>
</trkpt>
<trkpt lat="48.683827" lon="9.931823">
<ele>728</ele>
<time>2019-09-29T14:18:19Z</time>
</trkpt>
<trkpt lat="48.68402" lon="9.931907">
<ele>728</ele>
<time>2019-09-29T14:18:24Z</time>
</trkpt>
<trkpt lat="48.68423" lon="9.931995">
<ele>728</ele>
<time>2019-09-29T14:18:29Z</time>
</trkpt>
<trkpt lat="48.684433" lon="9.932133">
<ele>728</ele>
<time>2019-09-29T14:18:34Z</time>
</trkpt>
<trkpt lat="48.684552" lon="9.932212">
<ele>727</ele>
<time>2019-09-29T14:18:39Z</time>
</trkpt>
<trkpt lat="48.684637" lon="9.93227">
<ele>727</ele>
<time>2019-09-29T14:18:44Z</time>
</trkpt>
<trkpt lat="48.684718" lon="9.932342">
<ele>726</ele>
<time>2019-09-29T14:18:49Z</time>
</trkpt>
<trkpt lat="48.684725" lon="9.932337">
<ele>726</ele>
<time>2019-09-29T14:18:55Z</time>
</trkpt>
<trkpt lat="48.684795" lon="9.9323">
<ele>726</ele>
<time>2019-09-29T14:19:06Z</time>
</trkpt>
<trkpt lat="48.684853" lon="9.932062">
<ele>726</ele>
<time>2019-09-29T14:19:11Z</time>
</trkpt>
<trkpt lat="48.684942" lon="9.931778">
<ele>726</ele>
<time>2019-09-29T14:19:16Z</time>
</trkpt>
<trkpt lat="48.685063" lon="9.931497">
<ele>726</ele>
<time>2019-09-29T14:19:21Z</time>
</trkpt>
<trkpt lat="48.685195" lon="9.931238">
<ele>727</ele>
<time>2019-09-29T14:19:26Z</time>
</trkpt>
<trkpt lat="48.68533" lon="9.930973">
<ele>727</ele>
<time>2019-09-29T14:19:31Z</time>
</trkpt>
<trkpt lat="48.685505" lon="9.930788">
<ele>727</ele>
<time>2019-09-29T14:19:36Z</time>
</trkpt>
<trkpt lat="48.6858" lon="9.930707">
<ele>727</ele>
<time>2019-09-29T14:19:41Z</time>
</trkpt>
<trkpt lat="48.686258" lon="9.930573">
<ele>725</ele>
<time>2019-09-29T14:19:47Z</time>
</trkpt>
<trkpt lat="48.686637" lon="9.930312">
<ele>723</ele>
<time>2019-09-29T14:19:52Z</time>
</trkpt>
<trkpt lat="48.686983" lon="9.93002">
<ele>723</ele>
<time>2019-09-29T14:19:57Z</time>
</trkpt>
<trkpt lat="48.687337" lon="9.929833">
<ele>722</ele>
<time>2019-09-29T14:20:02Z</time>
</trkpt>
<trkpt lat="48.687668" lon="9.929642">
<ele>721</ele>
<time>2019-09-29T14:20:07Z</time>
</trkpt>
<trkpt lat="48.687968" lon="9.929403">
<ele>721</ele>
<time>2019-09-29T14:20:12Z</time>
</trkpt>
<trkpt lat="48.688288" lon="9.929063">
<ele>721</ele>
<time>2019-09-29T14:20:18Z</time>
</trkpt>
<trkpt lat="48.688583" lon="9.928838">
<ele>721</ele>
<time>2019-09-29T14:20:23Z</time>
</trkpt>
<trkpt lat="48.688918" lon="9.928747">
<ele>720</ele>
<time>2019-09-29T14:20:28Z</time>
</trkpt>
<trkpt lat="48.689223" lon="9.92877">
<ele>720</ele>
<time>2019-09-29T14:20:33Z</time>
</trkpt>
<trkpt lat="48.689503" lon="9.928857">
<ele>720</ele>
<time>2019-09-29T14:20:38Z</time>
</trkpt>
<trkpt lat="48.689817" lon="9.92899">
<ele>721</ele>
<time>2019-09-29T14:20:44Z</time>
</trkpt>
<trkpt lat="48.690027" lon="9.929068">
<ele>722</ele>
<time>2019-09-29T14:20:49Z</time>
</trkpt>
<trkpt lat="48.690227" lon="9.929102">
<ele>723</ele>
<time>2019-09-29T14:20:54Z</time>
</trkpt>
<trkpt lat="48.690432" lon="9.929127">
<ele>724</ele>
<time>2019-09-29T14:20:59Z</time>
</trkpt>
<trkpt lat="48.690598" lon="9.92914">
<ele>725</ele>
<time>2019-09-29T14:21:04Z</time>
</trkpt>
<trkpt lat="48.690767" lon="9.929135">
<ele>726</ele>
<time>2019-09-29T14:21:09Z</time>
</trkpt>
<trkpt lat="48.690932" lon="9.929128">
<ele>727</ele>
<time>2019-09-29T14:21:14Z</time>
</trkpt>
<trkpt lat="48.691103" lon="9.929098">
<ele>728</ele>
<time>2019-09-29T14:21:19Z</time>
</trkpt>
<trkpt lat="48.69129" lon="9.929082">
<ele>730</ele>
<time>2019-09-29T14:21:24Z</time>
</trkpt>
<trkpt lat="48.691483" lon="9.929033">
<ele>730</ele>
<time>2019-09-29T14:21:29Z</time>
</trkpt>
<trkpt lat="48.691697" lon="9.92897">
<ele>730</ele>
<time>2019-09-29T14:21:34Z</time>
</trkpt>
<trkpt lat="48.691928" lon="9.928898">
<ele>730</ele>
<time>2019-09-29T14:21:39Z</time>
</trkpt>
<trkpt lat="48.692178" lon="9.928822">
<ele>730</ele>
<time>2019-09-29T14:21:44Z</time>
</trkpt>
<trkpt lat="48.692465" lon="9.92875">
<ele>729</ele>
<time>2019-09-29T14:21:49Z</time>
</trkpt>
<trkpt lat="48.692763" lon="9.928665">
<ele>729</ele>
<time>2019-09-29T14:21:54Z</time>
</trkpt>
<trkpt lat="48.693052" lon="9.928587">
<ele>729</ele>
<time>2019-09-29T14:21:59Z</time>
</trkpt>
<trkpt lat="48.693275" lon="9.928813">
<ele>728</ele>
<time>2019-09-29T14:22:04Z</time>
</trkpt>
<trkpt lat="48.693402" lon="9.929397">
<ele>726</ele>
<time>2019-09-29T14:22:10Z</time>
</trkpt>
<trkpt lat="48.693508" lon="9.929948">
<ele>725</ele>
<time>2019-09-29T14:22:15Z</time>
</trkpt>
<trkpt lat="48.693633" lon="9.930527">
<ele>723</ele>
<time>2019-09-29T14:22:20Z</time>
</trkpt>
<trkpt lat="48.69376" lon="9.931113">
<ele>723</ele>
<time>2019-09-29T14:22:25Z</time>
</trkpt>
<trkpt lat="48.69389" lon="9.931708">
<ele>722</ele>
<time>2019-09-29T14:22:30Z</time>
</trkpt>
<trkpt lat="48.69404" lon="9.93225">
<ele>720</ele>
<time>2019-09-29T14:22:35Z</time>
</trkpt>
<trkpt lat="48.694428" lon="9.932422">
<ele>719</ele>
<time>2019-09-29T14:22:40Z</time>
</trkpt>
<trkpt lat="48.694828" lon="9.932555">
<ele>719</ele>
<time>2019-09-29T14:22:45Z</time>
</trkpt>
<trkpt lat="48.695237" lon="9.932683">
<ele>719</ele>
<time>2019-09-29T14:22:50Z</time>
</trkpt>
<trkpt lat="48.695635" lon="9.932805">
<ele>719</ele>
<time>2019-09-29T14:22:55Z</time>
</trkpt>
<trkpt lat="48.696055" lon="9.932942">
<ele>717</ele>
<time>2019-09-29T14:23:00Z</time>
</trkpt>
<trkpt lat="48.696525" lon="9.933085">
<ele>715</ele>
<time>2019-09-29T14:23:05Z</time>
</trkpt>
<trkpt lat="48.69706" lon="9.933257">
<ele>713</ele>
<time>2019-09-29T14:23:10Z</time>
</trkpt>
<trkpt lat="48.69766" lon="9.933447">
<ele>710</ele>
<time>2019-09-29T14:23:15Z</time>
</trkpt>
<trkpt lat="48.698268" lon="9.93364">
<ele>707</ele>
<time>2019-09-29T14:23:20Z</time>
</trkpt>
<trkpt lat="48.69884" lon="9.933817">
<ele>707</ele>
<time>2019-09-29T14:23:25Z</time>
</trkpt>
<trkpt lat="48.699387" lon="9.933932">
<ele>705</ele>
<time>2019-09-29T14:23:30Z</time>
</trkpt>
<trkpt lat="48.699912" lon="9.934037">
<ele>704</ele>
<time>2019-09-29T14:23:35Z</time>
</trkpt>
<trkpt lat="48.700347" lon="9.934123">
<ele>704</ele>
<time>2019-09-29T14:23:40Z</time>
</trkpt>
<trkpt lat="48.700702" lon="9.9342">
<ele>705</ele>
<time>2019-09-29T14:23:45Z</time>
</trkpt>
<trkpt lat="48.701043" lon="9.934278">
<ele>705</ele>
<time>2019-09-29T14:23:50Z</time>
</trkpt>
<trkpt lat="48.701393" lon="9.934382">
<ele>705</ele>
<time>2019-09-29T14:23:55Z</time>
</trkpt>
<trkpt lat="48.701713" lon="9.934613">
<ele>705</ele>
<time>2019-09-29T14:24:00Z</time>
</trkpt>
<trkpt lat="48.702042" lon="9.934893">
<ele>704</ele>
<time>2019-09-29T14:24:05Z</time>
</trkpt>
<trkpt lat="48.702405" lon="9.935203">
<ele>702</ele>
<time>2019-09-29T14:24:10Z</time>
</trkpt>
<trkpt lat="48.702807" lon="9.935537">
<ele>702</ele>
<time>2019-09-29T14:24:15Z</time>
</trkpt>
<trkpt lat="48.703227" lon="9.935868">
<ele>700</ele>
<time>2019-09-29T14:24:20Z</time>
</trkpt>
<trkpt lat="48.70359" lon="9.936177">
<ele>700</ele>
<time>2019-09-29T14:24:25Z</time>
</trkpt>
<trkpt lat="48.703863" lon="9.936465">
<ele>700</ele>
<time>2019-09-29T14:24:30Z</time>
</trkpt>
<trkpt lat="48.704122" lon="9.936752">
<ele>700</ele>
<time>2019-09-29T14:24:35Z</time>
</trkpt>
<trkpt lat="48.704383" lon="9.937063">
<ele>700</ele>
<time>2019-09-29T14:24:40Z</time>
</trkpt>
<trkpt lat="48.704677" lon="9.937393">
<ele>700</ele>
<time>2019-09-29T14:24:45Z</time>
</trkpt>
<trkpt lat="48.704972" lon="9.937738">
<ele>700</ele>
<time>2019-09-29T14:24:50Z</time>
</trkpt>
<trkpt lat="48.705273" lon="9.938072">
<ele>700</ele>
<time>2019-09-29T14:24:55Z</time>
</trkpt>
<trkpt lat="48.705563" lon="9.938382">
<ele>700</ele>
<time>2019-09-29T14:25:00Z</time>
</trkpt>
<trkpt lat="48.705833" lon="9.938688">
<ele>700</ele>
<time>2019-09-29T14:25:05Z</time>
</trkpt>
<trkpt lat="48.706107" lon="9.938992">
<ele>700</ele>
<time>2019-09-29T14:25:10Z</time>
</trkpt>
<trkpt lat="48.706393" lon="9.939312">
<ele>700</ele>
<time>2019-09-29T14:25:15Z</time>
</trkpt>
<trkpt lat="48.70668" lon="9.939628">
<ele>700</ele>
<time>2019-09-29T14:25:20Z</time>
</trkpt>
<trkpt lat="48.706942" lon="9.939922">
<ele>700</ele>
<time>2019-09-29T14:25:25Z</time>
</trkpt>
<trkpt lat="48.70718" lon="9.940197">
<ele>701</ele>
<time>2019-09-29T14:25:30Z</time>
</trkpt>
<trkpt lat="48.707422" lon="9.940472">
<ele>701</ele>
<time>2019-09-29T14:25:35Z</time>
</trkpt>
<trkpt lat="48.707657" lon="9.94073">
<ele>701</ele>
<time>2019-09-29T14:25:40Z</time>
</trkpt>
<trkpt lat="48.707842" lon="9.941062">
<ele>701</ele>
<time>2019-09-29T14:25:45Z</time>
</trkpt>
<trkpt lat="48.707885" lon="9.941528">
<ele>702</ele>
<time>2019-09-29T14:25:50Z</time>
</trkpt>
<trkpt lat="48.707905" lon="9.942057">
<ele>702</ele>
<time>2019-09-29T14:25:55Z</time>
</trkpt>
<trkpt lat="48.707925" lon="9.942618">
<ele>701</ele>
<time>2019-09-29T14:26:00Z</time>
</trkpt>
<trkpt lat="48.707943" lon="9.943193">
<ele>699</ele>
<time>2019-09-29T14:26:05Z</time>
</trkpt>
<trkpt lat="48.707967" lon="9.943802">
<ele>699</ele>
<time>2019-09-29T14:26:10Z</time>
</trkpt>
<trkpt lat="48.707992" lon="9.944405">
<ele>698</ele>
<time>2019-09-29T14:26:15Z</time>
</trkpt>
<trkpt lat="48.708022" lon="9.944987">
<ele>698</ele>
<time>2019-09-29T14:26:20Z</time>
</trkpt>
<trkpt lat="48.708043" lon="9.945527">
<ele>698</ele>
<time>2019-09-29T14:26:25Z</time>
</trkpt>
<trkpt lat="48.708053" lon="9.946002">
<ele>698</ele>
<time>2019-09-29T14:26:30Z</time>
</trkpt>
<trkpt lat="48.708253" lon="9.946275">
<ele>698</ele>
<time>2019-09-29T14:26:35Z</time>
</trkpt>
<trkpt lat="48.708598" lon="9.946282">
<ele>698</ele>
<time>2019-09-29T14:26:40Z</time>
</trkpt>
<trkpt lat="48.708967" lon="9.94629">
<ele>698</ele>
<time>2019-09-29T14:26:45Z</time>
</trkpt>
<trkpt lat="48.709333" lon="9.946288">
<ele>697</ele>
<time>2019-09-29T14:26:50Z</time>
</trkpt>
<trkpt lat="48.709707" lon="9.9463">
<ele>696</ele>
<time>2019-09-29T14:26:55Z</time>
</trkpt>
<trkpt lat="48.710097" lon="9.946312">
<ele>694</ele>
<time>2019-09-29T14:27:00Z</time>
</trkpt>
<trkpt lat="48.710473" lon="9.94633">
<ele>694</ele>
<time>2019-09-29T14:27:05Z</time>
</trkpt>
<trkpt lat="48.71082" lon="9.94634">
<ele>694</ele>
<time>2019-09-29T14:27:10Z</time>
</trkpt>
<trkpt lat="48.711142" lon="9.946357">
<ele>694</ele>
<time>2019-09-29T14:27:15Z</time>
</trkpt>
<trkpt lat="48.711422" lon="9.946365">
<ele>694</ele>
<time>2019-09-29T14:27:20Z</time>
</trkpt>
<trkpt lat="48.711577" lon="9.94663">
<ele>694</ele>
<time>2019-09-29T14:27:25Z</time>
</trkpt>
<trkpt lat="48.711595" lon="9.94712">
<ele>694</ele>
<time>2019-09-29T14:27:30Z</time>
</trkpt>
<trkpt lat="48.711605" lon="9.947627">
<ele>694</ele>
<time>2019-09-29T14:27:35Z</time>
</trkpt>
<trkpt lat="48.711617" lon="9.948102">
<ele>694</ele>
<time>2019-09-29T14:27:40Z</time>
</trkpt>
<trkpt lat="48.711635" lon="9.948552">
<ele>694</ele>
<time>2019-09-29T14:27:45Z</time>
</trkpt>
<trkpt lat="48.711668" lon="9.949047">
<ele>694</ele>
<time>2019-09-29T14:27:50Z</time>
</trkpt>
<trkpt lat="48.71169" lon="9.949582">
<ele>694</ele>
<time>2019-09-29T14:27:55Z</time>
</trkpt>
<trkpt lat="48.711715" lon="9.95017">
<ele>693</ele>
<time>2019-09-29T14:28:00Z</time>
</trkpt>
<trkpt lat="48.711827" lon="9.950718">
<ele>692</ele>
<time>2019-09-29T14:28:05Z</time>
</trkpt>
<trkpt lat="48.712017" lon="9.951085">
<ele>692</ele>
<time>2019-09-29T14:28:10Z</time>
</trkpt>
<trkpt lat="48.712163" lon="9.95139">
<ele>692</ele>
<time>2019-09-29T14:28:15Z</time>
</trkpt>
<trkpt lat="48.712312" lon="9.951708">
<ele>693</ele>
<time>2019-09-29T14:28:20Z</time>
</trkpt>
<trkpt lat="48.71245" lon="9.952027">
<ele>693</ele>
<time>2019-09-29T14:28:25Z</time>
</trkpt>
<trkpt lat="48.712573" lon="9.952318">
<ele>693</ele>
<time>2019-09-29T14:28:30Z</time>
</trkpt>
<trkpt lat="48.712613" lon="9.95251">
<ele>693</ele>
<time>2019-09-29T14:28:35Z</time>
</trkpt>
<trkpt lat="48.712627" lon="9.952622">
<ele>693</ele>
<time>2019-09-29T14:28:40Z</time>
</trkpt>
<trkpt lat="48.712635" lon="9.952642">
<ele>693</ele>
<time>2019-09-29T14:28:45Z</time>
</trkpt>
<trkpt lat="48.712643" lon="9.952697">
<ele>693</ele>
<time>2019-09-29T14:28:50Z</time>
</trkpt>
<trkpt lat="48.712748" lon="9.952763">
<ele>693</ele>
<time>2019-09-29T14:28:55Z</time>
</trkpt>
<trkpt lat="48.712918" lon="9.952788">
<ele>693</ele>
<time>2019-09-29T14:29:00Z</time>
</trkpt>
<trkpt lat="48.713163" lon="9.95283">
<ele>693</ele>
<time>2019-09-29T14:29:05Z</time>
</trkpt>
<trkpt lat="48.71342" lon="9.95287">
<ele>694</ele>
<time>2019-09-29T14:29:10Z</time>
</trkpt>
<trkpt lat="48.713665" lon="9.952928">
<ele>695</ele>
<time>2019-09-29T14:29:15Z</time>
</trkpt>
<trkpt lat="48.713912" lon="9.952972">
<ele>695</ele>
<time>2019-09-29T14:29:20Z</time>
</trkpt>
<trkpt lat="48.71417" lon="9.95301">
<ele>695</ele>
<time>2019-09-29T14:29:25Z</time>
</trkpt>
<trkpt lat="48.714452" lon="9.953052">
<ele>696</ele>
<time>2019-09-29T14:29:30Z</time>
</trkpt>
<trkpt lat="48.714752" lon="9.953085">
<ele>697</ele>
<time>2019-09-29T14:29:35Z</time>
</trkpt>
<trkpt lat="48.715073" lon="9.953117">
<ele>697</ele>
<time>2019-09-29T14:29:40Z</time>
</trkpt>
<trkpt lat="48.715403" lon="9.953157">
<ele>697</ele>
<time>2019-09-29T14:29:45Z</time>
</trkpt>
<trkpt lat="48.715742" lon="9.953192">
<ele>697</ele>
<time>2019-09-29T14:29:50Z</time>
</trkpt>
<trkpt lat="48.716087" lon="9.953235">
<ele>697</ele>
<time>2019-09-29T14:29:55Z</time>
</trkpt>
<trkpt lat="48.71641" lon="9.953267">
<ele>697</ele>
<time>2019-09-29T14:30:00Z</time>
</trkpt>
<trkpt lat="48.716732" lon="9.953295">
<ele>697</ele>
<time>2019-09-29T14:30:05Z</time>
</trkpt>
<trkpt lat="48.717053" lon="9.953323">
<ele>698</ele>
<time>2019-09-29T14:30:10Z</time>
</trkpt>
<trkpt lat="48.717383" lon="9.953365">
<ele>698</ele>
<time>2019-09-29T14:30:15Z</time>
</trkpt>
<trkpt lat="48.71772" lon="9.95341">
<ele>699</ele>
<time>2019-09-29T14:30:20Z</time>
</trkpt>
<trkpt lat="48.718062" lon="9.953452">
<ele>699</ele>
<time>2019-09-29T14:30:25Z</time>
</trkpt>
<trkpt lat="48.718418" lon="9.953492">
<ele>699</ele>
<time>2019-09-29T14:30:30Z</time>
</trkpt>
<trkpt lat="48.718783" lon="9.953538">
<ele>699</ele>
<time>2019-09-29T14:30:35Z</time>
</trkpt>
<trkpt lat="48.719147" lon="9.953588">
<ele>699</ele>
<time>2019-09-29T14:30:40Z</time>
</trkpt>
<trkpt lat="48.719518" lon="9.953632">
<ele>699</ele>
<time>2019-09-29T14:30:45Z</time>
</trkpt>
<trkpt lat="48.719902" lon="9.953677">
<ele>699</ele>
<time>2019-09-29T14:30:50Z</time>
</trkpt>
<trkpt lat="48.720288" lon="9.953723">
<ele>699</ele>
<time>2019-09-29T14:30:55Z</time>
</trkpt>
<trkpt lat="48.720662" lon="9.953772">
<ele>699</ele>
<time>2019-09-29T14:31:00Z</time>
</trkpt>
<trkpt lat="48.721028" lon="9.953813">
<ele>699</ele>
<time>2019-09-29T14:31:05Z</time>
</trkpt>
<trkpt lat="48.721408" lon="9.953867">
<ele>699</ele>
<time>2019-09-29T14:31:10Z</time>
</trkpt>
<trkpt lat="48.721793" lon="9.953898">
<ele>699</ele>
<time>2019-09-29T14:31:15Z</time>
</trkpt>
<trkpt lat="48.722182" lon="9.953933">
<ele>699</ele>
<time>2019-09-29T14:31:20Z</time>
</trkpt>
<trkpt lat="48.722567" lon="9.953977">
<ele>699</ele>
<time>2019-09-29T14:31:25Z</time>
</trkpt>
<trkpt lat="48.722955" lon="9.954023">
<ele>699</ele>
<time>2019-09-29T14:31:30Z</time>
</trkpt>
<trkpt lat="48.723347" lon="9.954068">
<ele>699</ele>
<time>2019-09-29T14:31:35Z</time>
</trkpt>
<trkpt lat="48.723745" lon="9.954117">
<ele>699</ele>
<time>2019-09-29T14:31:40Z</time>
</trkpt>
<trkpt lat="48.724152" lon="9.954167">
<ele>699</ele>
<time>2019-09-29T14:31:45Z</time>
</trkpt>
<trkpt lat="48.724542" lon="9.954212">
<ele>699</ele>
<time>2019-09-29T14:31:50Z</time>
</trkpt>
<trkpt lat="48.724932" lon="9.954258">
<ele>699</ele>
<time>2019-09-29T14:31:55Z</time>
</trkpt>
<trkpt lat="48.725322" lon="9.954305">
<ele>699</ele>
<time>2019-09-29T14:32:00Z</time>
</trkpt>
<trkpt lat="48.725707" lon="9.95435">
<ele>699</ele>
<time>2019-09-29T14:32:05Z</time>
</trkpt>
<trkpt lat="48.726077" lon="9.954392">
<ele>699</ele>
<time>2019-09-29T14:32:10Z</time>
</trkpt>
<trkpt lat="48.726448" lon="9.954437">
<ele>699</ele>
<time>2019-09-29T14:32:15Z</time>
</trkpt>
<trkpt lat="48.726783" lon="9.954463">
<ele>699</ele>
<time>2019-09-29T14:32:20Z</time>
</trkpt>
<trkpt lat="48.727138" lon="9.954508">
<ele>699</ele>
<time>2019-09-29T14:32:25Z</time>
</trkpt>
<trkpt lat="48.72751" lon="9.954557">
<ele>699</ele>
<time>2019-09-29T14:32:30Z</time>
</trkpt>
<trkpt lat="48.727895" lon="9.954603">
<ele>699</ele>
<time>2019-09-29T14:32:35Z</time>
</trkpt>
<trkpt lat="48.72828" lon="9.954692">
<ele>699</ele>
<time>2019-09-29T14:32:40Z</time>
</trkpt>
<trkpt lat="48.728668" lon="9.954822">
<ele>700</ele>
<time>2019-09-29T14:32:45Z</time>
</trkpt>
<trkpt lat="48.729045" lon="9.954973">
<ele>700</ele>
<time>2019-09-29T14:32:50Z</time>
</trkpt>
<trkpt lat="48.729432" lon="9.9551">
<ele>700</ele>
<time>2019-09-29T14:32:55Z</time>
</trkpt>
<trkpt lat="48.729818" lon="9.955187">
<ele>700</ele>
<time>2019-09-29T14:33:00Z</time>
</trkpt>
<trkpt lat="48.730198" lon="9.955248">
<ele>700</ele>
<time>2019-09-29T14:33:05Z</time>
</trkpt>
<trkpt lat="48.73059" lon="9.955315">
<ele>700</ele>
<time>2019-09-29T14:33:10Z</time>
</trkpt>
<trkpt lat="48.730973" lon="9.955382">
<ele>700</ele>
<time>2019-09-29T14:33:15Z</time>
</trkpt>
<trkpt lat="48.731352" lon="9.955443">
<ele>700</ele>
<time>2019-09-29T14:33:20Z</time>
</trkpt>
<trkpt lat="48.731742" lon="9.955505">
<ele>700</ele>
<time>2019-09-29T14:33:25Z</time>
</trkpt>
<trkpt lat="48.732147" lon="9.955567">
<ele>700</ele>
<time>2019-09-29T14:33:30Z</time>
</trkpt>
<trkpt lat="48.732545" lon="9.955628">
<ele>700</ele>
<time>2019-09-29T14:33:35Z</time>
</trkpt>
<trkpt lat="48.73294" lon="9.955693">
<ele>699</ele>
<time>2019-09-29T14:33:40Z</time>
</trkpt>
<trkpt lat="48.733318" lon="9.955758">
<ele>699</ele>
<time>2019-09-29T14:33:45Z</time>
</trkpt>
<trkpt lat="48.733697" lon="9.955823">
<ele>699</ele>
<time>2019-09-29T14:33:50Z</time>
</trkpt>
<trkpt lat="48.734083" lon="9.955885">
<ele>699</ele>
<time>2019-09-29T14:33:55Z</time>
</trkpt>
<trkpt lat="48.734475" lon="9.955948">
<ele>699</ele>
<time>2019-09-29T14:34:00Z</time>
</trkpt>
<trkpt lat="48.73484" lon="9.956018">
<ele>699</ele>
<time>2019-09-29T14:34:05Z</time>
</trkpt>
<trkpt lat="48.735193" lon="9.956098">
<ele>699</ele>
<time>2019-09-29T14:34:10Z</time>
</trkpt>
<trkpt lat="48.735548" lon="9.9562">
<ele>699</ele>
<time>2019-09-29T14:34:15Z</time>
</trkpt>
<trkpt lat="48.735905" lon="9.95634">
<ele>699</ele>
<time>2019-09-29T14:34:20Z</time>
</trkpt>
<trkpt lat="48.736257" lon="9.956522">
<ele>699</ele>
<time>2019-09-29T14:34:25Z</time>
</trkpt>
<trkpt lat="48.736603" lon="9.956753">
<ele>700</ele>
<time>2019-09-29T14:34:30Z</time>
</trkpt>
<trkpt lat="48.736932" lon="9.957025">
<ele>700</ele>
<time>2019-09-29T14:34:35Z</time>
</trkpt>
<trkpt lat="48.737247" lon="9.957343">
<ele>701</ele>
<time>2019-09-29T14:34:40Z</time>
</trkpt>
<trkpt lat="48.737543" lon="9.957698">
<ele>701</ele>
<time>2019-09-29T14:34:45Z</time>
</trkpt>
<trkpt lat="48.737812" lon="9.958093">
<ele>701</ele>
<time>2019-09-29T14:34:50Z</time>
</trkpt>
<trkpt lat="48.73806" lon="9.958523">
<ele>701</ele>
<time>2019-09-29T14:34:55Z</time>
</trkpt>
<trkpt lat="48.738288" lon="9.958983">
<ele>701</ele>
<time>2019-09-29T14:35:00Z</time>
</trkpt>
<trkpt lat="48.7385" lon="9.959482">
<ele>701</ele>
<time>2019-09-29T14:35:05Z</time>
</trkpt>
<trkpt lat="48.738687" lon="9.959995">
<ele>701</ele>
<time>2019-09-29T14:35:10Z</time>
</trkpt>
<trkpt lat="48.738862" lon="9.960528">
<ele>701</ele>
<time>2019-09-29T14:35:15Z</time>
</trkpt>
<trkpt lat="48.739025" lon="9.96108">
<ele>701</ele>
<time>2019-09-29T14:35:20Z</time>
</trkpt>
<trkpt lat="48.739187" lon="9.961635">
<ele>701</ele>
<time>2019-09-29T14:35:25Z</time>
</trkpt>
<trkpt lat="48.739347" lon="9.962188">
<ele>701</ele>
<time>2019-09-29T14:35:30Z</time>
</trkpt>
<trkpt lat="48.739515" lon="9.96276">
<ele>701</ele>
<time>2019-09-29T14:35:35Z</time>
</trkpt>
<trkpt lat="48.739682" lon="9.963335">
<ele>700</ele>
<time>2019-09-29T14:35:40Z</time>
</trkpt>
<trkpt lat="48.739848" lon="9.963918">
<ele>699</ele>
<time>2019-09-29T14:35:45Z</time>
</trkpt>
<trkpt lat="48.74002" lon="9.964508">
<ele>698</ele>
<time>2019-09-29T14:35:50Z</time>
</trkpt>
<trkpt lat="48.740197" lon="9.965117">
<ele>698</ele>
<time>2019-09-29T14:35:55Z</time>
</trkpt>
<trkpt lat="48.740387" lon="9.965722">
<ele>697</ele>
<time>2019-09-29T14:36:00Z</time>
</trkpt>
<trkpt lat="48.740608" lon="9.966285">
<ele>696</ele>
<time>2019-09-29T14:36:05Z</time>
</trkpt>
<trkpt lat="48.74087" lon="9.966832">
<ele>696</ele>
<time>2019-09-29T14:36:10Z</time>
</trkpt>
<trkpt lat="48.74118" lon="9.967352">
<ele>695</ele>
<time>2019-09-29T14:36:15Z</time>
</trkpt>
<trkpt lat="48.741533" lon="9.96784">
<ele>692</ele>
<time>2019-09-29T14:36:20Z</time>
</trkpt>
<trkpt lat="48.741922" lon="9.968267">
<ele>692</ele>
<time>2019-09-29T14:36:25Z</time>
</trkpt>
<trkpt lat="48.74232" lon="9.968657">
<ele>692</ele>
<time>2019-09-29T14:36:30Z</time>
</trkpt>
<trkpt lat="48.742693" lon="9.969023">
<ele>692</ele>
<time>2019-09-29T14:36:35Z</time>
</trkpt>
<trkpt lat="48.743048" lon="9.969373">
<ele>692</ele>
<time>2019-09-29T14:36:40Z</time>
</trkpt>
<trkpt lat="48.7434" lon="9.969715">
<ele>692</ele>
<time>2019-09-29T14:36:45Z</time>
</trkpt>
<trkpt lat="48.743758" lon="9.97007">
<ele>693</ele>
<time>2019-09-29T14:36:50Z</time>
</trkpt>
<trkpt lat="48.744118" lon="9.970425">
<ele>693</ele>
<time>2019-09-29T14:36:55Z</time>
</trkpt>
<trkpt lat="48.744463" lon="9.970763">
<ele>694</ele>
<time>2019-09-29T14:37:00Z</time>
</trkpt>
<trkpt lat="48.744812" lon="9.97111">
<ele>694</ele>
<time>2019-09-29T14:37:05Z</time>
</trkpt>
<trkpt lat="48.745152" lon="9.971453">
<ele>694</ele>
<time>2019-09-29T14:37:10Z</time>
</trkpt>
<trkpt lat="48.745488" lon="9.971792">
<ele>695</ele>
<time>2019-09-29T14:37:15Z</time>
</trkpt>
<trkpt lat="48.745803" lon="9.972133">
<ele>695</ele>
<time>2019-09-29T14:37:20Z</time>
</trkpt>
<trkpt lat="48.74609" lon="9.972468">
<ele>696</ele>
<time>2019-09-29T14:37:25Z</time>
</trkpt>
<trkpt lat="48.746385" lon="9.972792">
<ele>696</ele>
<time>2019-09-29T14:37:30Z</time>
</trkpt>
<trkpt lat="48.746693" lon="9.973135">
<ele>696</ele>
<time>2019-09-29T14:37:35Z</time>
</trkpt>
<trkpt lat="48.747018" lon="9.973538">
<ele>694</ele>
<time>2019-09-29T14:37:40Z</time>
</trkpt>
<trkpt lat="48.747377" lon="9.97398">
<ele>693</ele>
<time>2019-09-29T14:37:45Z</time>
</trkpt>
<trkpt lat="48.747743" lon="9.97445">
<ele>692</ele>
<time>2019-09-29T14:37:50Z</time>
</trkpt>
<trkpt lat="48.748107" lon="9.974908">
<ele>690</ele>
<time>2019-09-29T14:37:55Z</time>
</trkpt>
<trkpt lat="48.748467" lon="9.975315">
<ele>690</ele>
<time>2019-09-29T14:38:00Z</time>
</trkpt>
<trkpt lat="48.748835" lon="9.975637">
<ele>690</ele>
<time>2019-09-29T14:38:05Z</time>
</trkpt>
<trkpt lat="48.74922" lon="9.975887">
<ele>689</ele>
<time>2019-09-29T14:38:10Z</time>
</trkpt>
<trkpt lat="48.749608" lon="9.97606">
<ele>689</ele>
<time>2019-09-29T14:38:15Z</time>
</trkpt>
<trkpt lat="48.750013" lon="9.976158">
<ele>689</ele>
<time>2019-09-29T14:38:20Z</time>
</trkpt>
<trkpt lat="48.750397" lon="9.976198">
<ele>687</ele>
<time>2019-09-29T14:38:25Z</time>
</trkpt>
<trkpt lat="48.750787" lon="9.976217">
<ele>686</ele>
<time>2019-09-29T14:38:30Z</time>
</trkpt>
<trkpt lat="48.751173" lon="9.976228">
<ele>685</ele>
<time>2019-09-29T14:38:35Z</time>
</trkpt>
<trkpt lat="48.751525" lon="9.976262">
<ele>683</ele>
<time>2019-09-29T14:38:40Z</time>
</trkpt>
<trkpt lat="48.751795" lon="9.976318">
<ele>682</ele>
<time>2019-09-29T14:38:45Z</time>
</trkpt>
<trkpt lat="48.751935" lon="9.976552">
<ele>682</ele>
<time>2019-09-29T14:38:51Z</time>
</trkpt>
<trkpt lat="48.751902" lon="9.976965">
<ele>681</ele>
<time>2019-09-29T14:38:56Z</time>
</trkpt>
<trkpt lat="48.751868" lon="9.977467">
<ele>681</ele>
<time>2019-09-29T14:39:01Z</time>
</trkpt>
<trkpt lat="48.751843" lon="9.977948">
<ele>680</ele>
<time>2019-09-29T14:39:06Z</time>
</trkpt>
<trkpt lat="48.751813" lon="9.97845">
<ele>680</ele>
<time>2019-09-29T14:39:11Z</time>
</trkpt>
<trkpt lat="48.751762" lon="9.978992">
<ele>680</ele>
<time>2019-09-29T14:39:16Z</time>
</trkpt>
<trkpt lat="48.751737" lon="9.979565">
<ele>680</ele>
<time>2019-09-29T14:39:21Z</time>
</trkpt>
<trkpt lat="48.7517" lon="9.980145">
<ele>679</ele>
<time>2019-09-29T14:39:26Z</time>
</trkpt>
<trkpt lat="48.751653" lon="9.98074">
<ele>679</ele>
<time>2019-09-29T14:39:31Z</time>
</trkpt>
<trkpt lat="48.751608" lon="9.981353">
<ele>679</ele>
<time>2019-09-29T14:39:36Z</time>
</trkpt>
<trkpt lat="48.751565" lon="9.98197">
<ele>678</ele>
<time>2019-09-29T14:39:41Z</time>
</trkpt>
<trkpt lat="48.751523" lon="9.982558">
<ele>678</ele>
<time>2019-09-29T14:39:46Z</time>
</trkpt>
<trkpt lat="48.751472" lon="9.983133">
<ele>678</ele>
<time>2019-09-29T14:39:51Z</time>
</trkpt>
<trkpt lat="48.751425" lon="9.98371">
<ele>678</ele>
<time>2019-09-29T14:39:56Z</time>
</trkpt>
<trkpt lat="48.751388" lon="9.984263">
<ele>677</ele>
<time>2019-09-29T14:40:01Z</time>
</trkpt>
<trkpt lat="48.751352" lon="9.9848">
<ele>677</ele>
<time>2019-09-29T14:40:06Z</time>
</trkpt>
<trkpt lat="48.751337" lon="9.985355">
<ele>676</ele>
<time>2019-09-29T14:40:11Z</time>
</trkpt>
<trkpt lat="48.751438" lon="9.985918">
<ele>676</ele>
<time>2019-09-29T14:40:16Z</time>
</trkpt>
<trkpt lat="48.75167" lon="9.986402">
<ele>675</ele>
<time>2019-09-29T14:40:21Z</time>
</trkpt>
<trkpt lat="48.751888" lon="9.986838">
<ele>674</ele>
<time>2019-09-29T14:40:26Z</time>
</trkpt>
<trkpt lat="48.752068" lon="9.987228">
<ele>674</ele>
<time>2019-09-29T14:40:31Z</time>
</trkpt>
<trkpt lat="48.752353" lon="9.987388">
<ele>673</ele>
<time>2019-09-29T14:40:36Z</time>
</trkpt>
<trkpt lat="48.752617" lon="9.987445">
<ele>673</ele>
<time>2019-09-29T14:40:41Z</time>
</trkpt>
<trkpt lat="48.752828" lon="9.987467">
<ele>675</ele>
<time>2019-09-29T14:40:46Z</time>
</trkpt>
<trkpt lat="48.753018" lon="9.98745">
<ele>677</ele>
<time>2019-09-29T14:40:51Z</time>
</trkpt>
<trkpt lat="48.753193" lon="9.987435">
<ele>678</ele>
<time>2019-09-29T14:40:56Z</time>
</trkpt>
<trkpt lat="48.753382" lon="9.987417">
<ele>679</ele>
<time>2019-09-29T14:41:01Z</time>
</trkpt>
<trkpt lat="48.753562" lon="9.987408">
<ele>680</ele>
<time>2019-09-29T14:41:06Z</time>
</trkpt>
<trkpt lat="48.75372" lon="9.987377">
<ele>681</ele>
<time>2019-09-29T14:41:11Z</time>
</trkpt>
<trkpt lat="48.753813" lon="9.987382">
<ele>682</ele>
<time>2019-09-29T14:41:16Z</time>
</trkpt>
<trkpt lat="48.753882" lon="9.987378">
<ele>682</ele>
<time>2019-09-29T14:41:21Z</time>
</trkpt>
<trkpt lat="48.753908" lon="9.987205">
<ele>683</ele>
<time>2019-09-29T14:41:26Z</time>
</trkpt>
<trkpt lat="48.753965" lon="9.987003">
<ele>683</ele>
<time>2019-09-29T14:41:31Z</time>
</trkpt>
<trkpt lat="48.754008" lon="9.986855">
<ele>684</ele>
<time>2019-09-29T14:41:36Z</time>
</trkpt>
<trkpt lat="48.754032" lon="9.986798">
<ele>684</ele>
<time>2019-09-29T14:41:41Z</time>
</trkpt>
<trkpt lat="48.754038" lon="9.986793">
<ele>684</ele>
<time>2019-09-29T14:41:46Z</time>
</trkpt>
<trkpt lat="48.754033" lon="9.986795">
<ele>684</ele>
<time>2019-09-29T14:41:51Z</time>
</trkpt>
<trkpt lat="48.754028" lon="9.986795">
<ele>684</ele>
<time>2019-09-29T14:41:56Z</time>
</trkpt>
<trkpt lat="48.754027" lon="9.986793">
<ele>684</ele>
<time>2019-09-29T14:42:01Z</time>
</trkpt>
<trkpt lat="48.754027" lon="9.986795">
<ele>684</ele>
<time>2019-09-29T14:42:16Z</time>
</trkpt>
<trkpt lat="48.754027" lon="9.986797">
<ele>684</ele>
<time>2019-09-29T14:42:36Z</time>
</trkpt>
<trkpt lat="48.754027" lon="9.986795">
<ele>684</ele>
<time>2019-09-29T14:42:41Z</time>
</trkpt>
<trkpt lat="48.754025" lon="9.986795">
<ele>684</ele>
<time>2019-09-29T14:43:46Z</time>
</trkpt>
<trkpt lat="48.754027" lon="9.986795">
<ele>684</ele>
<time>2019-09-29T14:43:51Z</time>
</trkpt>
<trkpt lat="48.754025" lon="9.986795">
<ele>684</ele>
<time>2019-09-29T14:43:56Z</time>
</trkpt>
<trkpt lat="48.754027" lon="9.986795">
<ele>684</ele>
<time>2019-09-29T14:44:21Z</time>
</trkpt>
<trkpt lat="48.754027" lon="9.986797">
<ele>684</ele>
<time>2019-09-29T14:44:56Z</time>
</trkpt>
<trkpt lat="48.754025" lon="9.986797">
<ele>684</ele>
<time>2019-09-29T14:45:31Z</time>
</trkpt>
<trkpt lat="48.754025" lon="9.986797">
<ele>684</ele>
</trkpt>
</trkseg>
</trk>
</gpx>